<?xml version="1.0" encoding="UTF-8" standalone="no" ?>
<gpx xmlns="http://www.topografix.com/GPX/1/1" xmlns:xsi="http://www.w3.org/2001/XMLSchema-instance" xsi:schemaLocation="http://www.topografix.com/GPX/1/1 http://www.topografix.com/GPX/1/1/gpx.xsd" version="1.1" creator="VisuGPX - https://www.visugpx.com">
  <metadata>
    <name>14 Tour de Bretagne 2025</name>
    <desc><![CDATA[Etape 14 de Plesder à Montfort Sur Meu]]></desc>
  </metadata>
  <trk>
    <name><![CDATA[14 Tour de Bretagne 2025_1]]></name>
    <trkseg>
      <trkpt lat="48.40858" lon="-1.92785">
        <ele>59.6</ele>
        <time>2025-10-02T07:27:22Z</time>
      </trkpt>
      <trkpt lat="48.40859" lon="-1.92782">
        <ele>59.6</ele>
        <time>2025-10-02T07:27:24Z</time>
      </trkpt>
      <trkpt lat="48.40863" lon="-1.92777">
        <ele>59.6</ele>
        <time>2025-10-02T07:27:28Z</time>
      </trkpt>
      <trkpt lat="48.40867" lon="-1.92777">
        <ele>59.6</ele>
        <time>2025-10-02T07:27:32Z</time>
      </trkpt>
      <trkpt lat="48.40869" lon="-1.92777">
        <ele>59.6</ele>
        <time>2025-10-02T07:27:36Z</time>
      </trkpt>
      <trkpt lat="48.40867" lon="-1.92778">
        <ele>59.6</ele>
        <time>2025-10-02T07:27:38Z</time>
      </trkpt>
      <trkpt lat="48.40868" lon="-1.92779">
        <ele>59.6</ele>
        <time>2025-10-02T07:27:40Z</time>
      </trkpt>
      <trkpt lat="48.40869" lon="-1.92777">
        <ele>59.6</ele>
        <time>2025-10-02T07:27:43Z</time>
      </trkpt>
      <trkpt lat="48.40868" lon="-1.92776">
        <ele>59.6</ele>
        <time>2025-10-02T07:27:44Z</time>
      </trkpt>
      <trkpt lat="48.40868" lon="-1.92775">
        <ele>59.6</ele>
        <time>2025-10-02T07:27:45Z</time>
      </trkpt>
      <trkpt lat="48.40871" lon="-1.92775">
        <ele>59.6</ele>
        <time>2025-10-02T07:27:48Z</time>
      </trkpt>
      <trkpt lat="48.40872" lon="-1.92775">
        <ele>59.6</ele>
        <time>2025-10-02T07:27:50Z</time>
      </trkpt>
      <trkpt lat="48.4087" lon="-1.92776">
        <ele>59.4</ele>
        <time>2025-10-02T07:27:54Z</time>
      </trkpt>
      <trkpt lat="48.40869" lon="-1.92777">
        <ele>59.4</ele>
        <time>2025-10-02T07:27:55Z</time>
      </trkpt>
      <trkpt lat="48.40865" lon="-1.9278">
        <ele>59.8</ele>
        <time>2025-10-02T07:28:01Z</time>
      </trkpt>
      <trkpt lat="48.40865" lon="-1.92781">
        <ele>60</ele>
        <time>2025-10-02T07:28:02Z</time>
      </trkpt>
      <trkpt lat="48.40867" lon="-1.92779">
        <ele>59.8</ele>
        <time>2025-10-02T07:28:05Z</time>
      </trkpt>
      <trkpt lat="48.4087" lon="-1.92779">
        <ele>59.8</ele>
        <time>2025-10-02T07:28:15Z</time>
      </trkpt>
      <trkpt lat="48.40869" lon="-1.92779">
        <ele>59.8</ele>
        <time>2025-10-02T07:28:16Z</time>
      </trkpt>
      <trkpt lat="48.4087" lon="-1.92785">
        <ele>59.8</ele>
        <time>2025-10-02T07:28:19Z</time>
      </trkpt>
      <trkpt lat="48.40872" lon="-1.92791">
        <ele>59.6</ele>
        <time>2025-10-02T07:28:23Z</time>
      </trkpt>
      <trkpt lat="48.40872" lon="-1.92791">
        <ele>59.4</ele>
        <time>2025-10-02T07:28:24Z</time>
      </trkpt>
      <trkpt lat="48.40872" lon="-1.92788">
        <ele>59.4</ele>
        <time>2025-10-02T07:28:27Z</time>
      </trkpt>
      <trkpt lat="48.40872" lon="-1.92788">
        <ele>59.4</ele>
        <time>2025-10-02T07:28:29Z</time>
      </trkpt>
      <trkpt lat="48.40871" lon="-1.92788">
        <ele>59.4</ele>
        <time>2025-10-02T07:28:30Z</time>
      </trkpt>
      <trkpt lat="48.40871" lon="-1.92792">
        <ele>59.4</ele>
        <time>2025-10-02T07:28:34Z</time>
      </trkpt>
      <trkpt lat="48.4087" lon="-1.92795">
        <ele>59.4</ele>
        <time>2025-10-02T07:28:35Z</time>
      </trkpt>
      <trkpt lat="48.4087" lon="-1.92799">
        <ele>59.4</ele>
        <time>2025-10-02T07:28:36Z</time>
      </trkpt>
      <trkpt lat="48.40868" lon="-1.9281">
        <ele>59.4</ele>
        <time>2025-10-02T07:28:39Z</time>
      </trkpt>
      <trkpt lat="48.40866" lon="-1.92815">
        <ele>59.4</ele>
        <time>2025-10-02T07:28:41Z</time>
      </trkpt>
      <trkpt lat="48.40855" lon="-1.92828">
        <ele>60</ele>
        <time>2025-10-02T07:28:47Z</time>
      </trkpt>
      <trkpt lat="48.40853" lon="-1.92831">
        <ele>60</ele>
        <time>2025-10-02T07:28:48Z</time>
      </trkpt>
      <trkpt lat="48.40832" lon="-1.92845">
        <ele>59.8</ele>
        <time>2025-10-02T07:28:56Z</time>
      </trkpt>
      <trkpt lat="48.40829" lon="-1.92846">
        <ele>59.6</ele>
        <time>2025-10-02T07:28:57Z</time>
      </trkpt>
      <trkpt lat="48.4082" lon="-1.92851">
        <ele>59.6</ele>
        <time>2025-10-02T07:29:00Z</time>
      </trkpt>
      <trkpt lat="48.4081" lon="-1.92855">
        <ele>59.6</ele>
        <time>2025-10-02T07:29:03Z</time>
      </trkpt>
      <trkpt lat="48.40801" lon="-1.92859">
        <ele>59.4</ele>
        <time>2025-10-02T07:29:06Z</time>
      </trkpt>
      <trkpt lat="48.40783" lon="-1.92865">
        <ele>59</ele>
        <time>2025-10-02T07:29:12Z</time>
      </trkpt>
      <trkpt lat="48.40777" lon="-1.92866">
        <ele>58.8</ele>
        <time>2025-10-02T07:29:14Z</time>
      </trkpt>
      <trkpt lat="48.4077" lon="-1.92865">
        <ele>58.6</ele>
        <time>2025-10-02T07:29:17Z</time>
      </trkpt>
      <trkpt lat="48.40746" lon="-1.92859">
        <ele>58.2</ele>
        <time>2025-10-02T07:29:25Z</time>
      </trkpt>
      <trkpt lat="48.40738" lon="-1.92857">
        <ele>57.8</ele>
        <time>2025-10-02T07:29:28Z</time>
      </trkpt>
      <trkpt lat="48.40725" lon="-1.92854">
        <ele>57.2</ele>
        <time>2025-10-02T07:29:33Z</time>
      </trkpt>
      <trkpt lat="48.40718" lon="-1.92852">
        <ele>56.8</ele>
        <time>2025-10-02T07:29:35Z</time>
      </trkpt>
      <trkpt lat="48.40704" lon="-1.92841">
        <ele>56.6</ele>
        <time>2025-10-02T07:29:40Z</time>
      </trkpt>
      <trkpt lat="48.407" lon="-1.92827">
        <ele>56.4</ele>
        <time>2025-10-02T07:29:43Z</time>
      </trkpt>
      <trkpt lat="48.407" lon="-1.92815">
        <ele>56.4</ele>
        <time>2025-10-02T07:29:45Z</time>
      </trkpt>
      <trkpt lat="48.40699" lon="-1.92774">
        <ele>56.2</ele>
        <time>2025-10-02T07:29:52Z</time>
      </trkpt>
      <trkpt lat="48.40698" lon="-1.92721">
        <ele>55.8</ele>
        <time>2025-10-02T07:29:59Z</time>
      </trkpt>
      <trkpt lat="48.40697" lon="-1.92706">
        <ele>55.6</ele>
        <time>2025-10-02T07:30:01Z</time>
      </trkpt>
      <trkpt lat="48.40695" lon="-1.92665">
        <ele>55</ele>
        <time>2025-10-02T07:30:06Z</time>
      </trkpt>
      <trkpt lat="48.40692" lon="-1.9261">
        <ele>54.8</ele>
        <time>2025-10-02T07:30:13Z</time>
      </trkpt>
      <trkpt lat="48.40691" lon="-1.92601">
        <ele>54.4</ele>
        <time>2025-10-02T07:30:14Z</time>
      </trkpt>
      <trkpt lat="48.40688" lon="-1.92543">
        <ele>53.4</ele>
        <time>2025-10-02T07:30:21Z</time>
      </trkpt>
      <trkpt lat="48.40686" lon="-1.9252">
        <ele>53.2</ele>
        <time>2025-10-02T07:30:24Z</time>
      </trkpt>
      <trkpt lat="48.40681" lon="-1.92469">
        <ele>53.2</ele>
        <time>2025-10-02T07:30:31Z</time>
      </trkpt>
      <trkpt lat="48.40677" lon="-1.92414">
        <ele>54.2</ele>
        <time>2025-10-02T07:30:39Z</time>
      </trkpt>
      <trkpt lat="48.40678" lon="-1.924">
        <ele>54.6</ele>
        <time>2025-10-02T07:30:41Z</time>
      </trkpt>
      <trkpt lat="48.4068" lon="-1.92376">
        <ele>55.6</ele>
        <time>2025-10-02T07:30:45Z</time>
      </trkpt>
      <trkpt lat="48.40681" lon="-1.9237">
        <ele>55.8</ele>
        <time>2025-10-02T07:30:46Z</time>
      </trkpt>
      <trkpt lat="48.40681" lon="-1.92365">
        <ele>56</ele>
        <time>2025-10-02T07:30:47Z</time>
      </trkpt>
      <trkpt lat="48.40679" lon="-1.92356">
        <ele>56.4</ele>
        <time>2025-10-02T07:30:49Z</time>
      </trkpt>
      <trkpt lat="48.40676" lon="-1.92353">
        <ele>56.4</ele>
        <time>2025-10-02T07:30:50Z</time>
      </trkpt>
      <trkpt lat="48.40669" lon="-1.92352">
        <ele>57</ele>
        <time>2025-10-02T07:30:52Z</time>
      </trkpt>
      <trkpt lat="48.40661" lon="-1.92354">
        <ele>57.2</ele>
        <time>2025-10-02T07:30:54Z</time>
      </trkpt>
      <trkpt lat="48.40626" lon="-1.9237">
        <ele>57.4</ele>
        <time>2025-10-02T07:31:03Z</time>
      </trkpt>
      <trkpt lat="48.40622" lon="-1.9237">
        <ele>57.4</ele>
        <time>2025-10-02T07:31:04Z</time>
      </trkpt>
      <trkpt lat="48.40619" lon="-1.92368">
        <ele>57.4</ele>
        <time>2025-10-02T07:31:05Z</time>
      </trkpt>
      <trkpt lat="48.40616" lon="-1.92359">
        <ele>57.4</ele>
        <time>2025-10-02T07:31:07Z</time>
      </trkpt>
      <trkpt lat="48.40615" lon="-1.92348">
        <ele>58</ele>
        <time>2025-10-02T07:31:09Z</time>
      </trkpt>
      <trkpt lat="48.40614" lon="-1.92342">
        <ele>58.4</ele>
        <time>2025-10-02T07:31:10Z</time>
      </trkpt>
      <trkpt lat="48.40613" lon="-1.92322">
        <ele>59</ele>
        <time>2025-10-02T07:31:13Z</time>
      </trkpt>
      <trkpt lat="48.40611" lon="-1.92316">
        <ele>59.4</ele>
        <time>2025-10-02T07:31:14Z</time>
      </trkpt>
      <trkpt lat="48.40608" lon="-1.92298">
        <ele>60</ele>
        <time>2025-10-02T07:31:17Z</time>
      </trkpt>
      <trkpt lat="48.40603" lon="-1.92288">
        <ele>60.4</ele>
        <time>2025-10-02T07:31:19Z</time>
      </trkpt>
      <trkpt lat="48.40601" lon="-1.92282">
        <ele>60.4</ele>
        <time>2025-10-02T07:31:20Z</time>
      </trkpt>
      <trkpt lat="48.40599" lon="-1.92276">
        <ele>60.6</ele>
        <time>2025-10-02T07:31:21Z</time>
      </trkpt>
      <trkpt lat="48.40597" lon="-1.92271">
        <ele>61</ele>
        <time>2025-10-02T07:31:22Z</time>
      </trkpt>
      <trkpt lat="48.40585" lon="-1.92246">
        <ele>61.4</ele>
        <time>2025-10-02T07:31:27Z</time>
      </trkpt>
      <trkpt lat="48.40581" lon="-1.92236">
        <ele>61.4</ele>
        <time>2025-10-02T07:31:29Z</time>
      </trkpt>
      <trkpt lat="48.40579" lon="-1.92224">
        <ele>61.8</ele>
        <time>2025-10-02T07:31:31Z</time>
      </trkpt>
      <trkpt lat="48.40578" lon="-1.92206">
        <ele>62</ele>
        <time>2025-10-02T07:31:34Z</time>
      </trkpt>
      <trkpt lat="48.40581" lon="-1.92171">
        <ele>62.2</ele>
        <time>2025-10-02T07:31:40Z</time>
      </trkpt>
      <trkpt lat="48.40588" lon="-1.92128">
        <ele>62.2</ele>
        <time>2025-10-02T07:31:47Z</time>
      </trkpt>
      <trkpt lat="48.4059" lon="-1.92116">
        <ele>62</ele>
        <time>2025-10-02T07:31:49Z</time>
      </trkpt>
      <trkpt lat="48.4059" lon="-1.92104">
        <ele>61.6</ele>
        <time>2025-10-02T07:31:51Z</time>
      </trkpt>
      <trkpt lat="48.40588" lon="-1.92098">
        <ele>61.6</ele>
        <time>2025-10-02T07:31:52Z</time>
      </trkpt>
      <trkpt lat="48.40585" lon="-1.92093">
        <ele>61.6</ele>
        <time>2025-10-02T07:31:53Z</time>
      </trkpt>
      <trkpt lat="48.40576" lon="-1.92092">
        <ele>61.6</ele>
        <time>2025-10-02T07:31:55Z</time>
      </trkpt>
      <trkpt lat="48.40538" lon="-1.92103">
        <ele>61.8</ele>
        <time>2025-10-02T07:32:03Z</time>
      </trkpt>
      <trkpt lat="48.40495" lon="-1.92114">
        <ele>62.2</ele>
        <time>2025-10-02T07:32:11Z</time>
      </trkpt>
      <trkpt lat="48.40474" lon="-1.92119">
        <ele>62.6</ele>
        <time>2025-10-02T07:32:15Z</time>
      </trkpt>
      <trkpt lat="48.40438" lon="-1.92127">
        <ele>63.2</ele>
        <time>2025-10-02T07:32:22Z</time>
      </trkpt>
      <trkpt lat="48.40394" lon="-1.92135">
        <ele>63.2</ele>
        <time>2025-10-02T07:32:30Z</time>
      </trkpt>
      <trkpt lat="48.40356" lon="-1.9213">
        <ele>62.8</ele>
        <time>2025-10-02T07:32:37Z</time>
      </trkpt>
      <trkpt lat="48.40313" lon="-1.92119">
        <ele>61.8</ele>
        <time>2025-10-02T07:32:45Z</time>
      </trkpt>
      <trkpt lat="48.40297" lon="-1.92115">
        <ele>61.6</ele>
        <time>2025-10-02T07:32:48Z</time>
      </trkpt>
      <trkpt lat="48.40264" lon="-1.92107">
        <ele>60.4</ele>
        <time>2025-10-02T07:32:54Z</time>
      </trkpt>
      <trkpt lat="48.40252" lon="-1.92104">
        <ele>60</ele>
        <time>2025-10-02T07:32:56Z</time>
      </trkpt>
      <trkpt lat="48.40223" lon="-1.92096">
        <ele>59.4</ele>
        <time>2025-10-02T07:33:01Z</time>
      </trkpt>
      <trkpt lat="48.40186" lon="-1.92087">
        <ele>58.4</ele>
        <time>2025-10-02T07:33:07Z</time>
      </trkpt>
      <trkpt lat="48.40174" lon="-1.92085">
        <ele>58.2</ele>
        <time>2025-10-02T07:33:09Z</time>
      </trkpt>
      <trkpt lat="48.40148" lon="-1.92084">
        <ele>57.4</ele>
        <time>2025-10-02T07:33:13Z</time>
      </trkpt>
      <trkpt lat="48.40141" lon="-1.92084">
        <ele>57.4</ele>
        <time>2025-10-02T07:33:14Z</time>
      </trkpt>
      <trkpt lat="48.40135" lon="-1.92084">
        <ele>57</ele>
        <time>2025-10-02T07:33:15Z</time>
      </trkpt>
      <trkpt lat="48.40107" lon="-1.92088">
        <ele>56</ele>
        <time>2025-10-02T07:33:19Z</time>
      </trkpt>
      <trkpt lat="48.40085" lon="-1.92091">
        <ele>55.2</ele>
        <time>2025-10-02T07:33:22Z</time>
      </trkpt>
      <trkpt lat="48.4007" lon="-1.92094">
        <ele>54.6</ele>
        <time>2025-10-02T07:33:24Z</time>
      </trkpt>
      <trkpt lat="48.40041" lon="-1.92099">
        <ele>53.6</ele>
        <time>2025-10-02T07:33:28Z</time>
      </trkpt>
      <trkpt lat="48.40028" lon="-1.92102">
        <ele>52.8</ele>
        <time>2025-10-02T07:33:30Z</time>
      </trkpt>
      <trkpt lat="48.40022" lon="-1.92103">
        <ele>52.4</ele>
        <time>2025-10-02T07:33:31Z</time>
      </trkpt>
      <trkpt lat="48.4001" lon="-1.92101">
        <ele>51.4</ele>
        <time>2025-10-02T07:33:33Z</time>
      </trkpt>
      <trkpt lat="48.40003" lon="-1.92099">
        <ele>51.2</ele>
        <time>2025-10-02T07:33:34Z</time>
      </trkpt>
      <trkpt lat="48.3997" lon="-1.92081">
        <ele>49.8</ele>
        <time>2025-10-02T07:33:39Z</time>
      </trkpt>
      <trkpt lat="48.39963" lon="-1.92077">
        <ele>49.6</ele>
        <time>2025-10-02T07:33:40Z</time>
      </trkpt>
      <trkpt lat="48.39948" lon="-1.92069">
        <ele>48.2</ele>
        <time>2025-10-02T07:33:42Z</time>
      </trkpt>
      <trkpt lat="48.39917" lon="-1.92055">
        <ele>47.2</ele>
        <time>2025-10-02T07:33:46Z</time>
      </trkpt>
      <trkpt lat="48.399" lon="-1.92049">
        <ele>45.8</ele>
        <time>2025-10-02T07:33:48Z</time>
      </trkpt>
      <trkpt lat="48.39865" lon="-1.92037">
        <ele>44.2</ele>
        <time>2025-10-02T07:33:52Z</time>
      </trkpt>
      <trkpt lat="48.39848" lon="-1.92029">
        <ele>43.6</ele>
        <time>2025-10-02T07:33:54Z</time>
      </trkpt>
      <trkpt lat="48.39839" lon="-1.92024">
        <ele>43.2</ele>
        <time>2025-10-02T07:33:55Z</time>
      </trkpt>
      <trkpt lat="48.39813" lon="-1.9201">
        <ele>41.8</ele>
        <time>2025-10-02T07:33:58Z</time>
      </trkpt>
      <trkpt lat="48.39788" lon="-1.91997">
        <ele>40.6</ele>
        <time>2025-10-02T07:34:01Z</time>
      </trkpt>
      <trkpt lat="48.39764" lon="-1.91984">
        <ele>39.6</ele>
        <time>2025-10-02T07:34:04Z</time>
      </trkpt>
      <trkpt lat="48.39744" lon="-1.91975">
        <ele>38.8</ele>
        <time>2025-10-02T07:34:07Z</time>
      </trkpt>
      <trkpt lat="48.39739" lon="-1.91972">
        <ele>38.2</ele>
        <time>2025-10-02T07:34:08Z</time>
      </trkpt>
      <trkpt lat="48.39723" lon="-1.91962">
        <ele>37.4</ele>
        <time>2025-10-02T07:34:12Z</time>
      </trkpt>
      <trkpt lat="48.3972" lon="-1.91961">
        <ele>37</ele>
        <time>2025-10-02T07:34:13Z</time>
      </trkpt>
      <trkpt lat="48.39697" lon="-1.91944">
        <ele>37.2</ele>
        <time>2025-10-02T07:34:21Z</time>
      </trkpt>
      <trkpt lat="48.3967" lon="-1.91927">
        <ele>38.2</ele>
        <time>2025-10-02T07:34:29Z</time>
      </trkpt>
      <trkpt lat="48.39647" lon="-1.91919">
        <ele>37</ele>
        <time>2025-10-02T07:34:36Z</time>
      </trkpt>
      <trkpt lat="48.3964" lon="-1.91918">
        <ele>36.6</ele>
        <time>2025-10-02T07:34:41Z</time>
      </trkpt>
      <trkpt lat="48.3964" lon="-1.91918">
        <ele>36</ele>
        <time>2025-10-02T07:34:47Z</time>
      </trkpt>
      <trkpt lat="48.3964" lon="-1.91918">
        <ele>36.2</ele>
        <time>2025-10-02T07:34:51Z</time>
      </trkpt>
      <trkpt lat="48.3964" lon="-1.91918">
        <ele>36.2</ele>
        <time>2025-10-02T07:34:53Z</time>
      </trkpt>
      <trkpt lat="48.3964" lon="-1.91918">
        <ele>36.2</ele>
        <time>2025-10-02T07:34:56Z</time>
      </trkpt>
      <trkpt lat="48.39637" lon="-1.91919">
        <ele>36.4</ele>
        <time>2025-10-02T07:35:06Z</time>
      </trkpt>
      <trkpt lat="48.39635" lon="-1.91921">
        <ele>36.4</ele>
        <time>2025-10-02T07:35:07Z</time>
      </trkpt>
      <trkpt lat="48.39631" lon="-1.91935">
        <ele>36.4</ele>
        <time>2025-10-02T07:35:10Z</time>
      </trkpt>
      <trkpt lat="48.39629" lon="-1.91945">
        <ele>35.8</ele>
        <time>2025-10-02T07:35:12Z</time>
      </trkpt>
      <trkpt lat="48.39627" lon="-1.91956">
        <ele>35.6</ele>
        <time>2025-10-02T07:35:14Z</time>
      </trkpt>
      <trkpt lat="48.39625" lon="-1.91961">
        <ele>35.4</ele>
        <time>2025-10-02T07:35:15Z</time>
      </trkpt>
      <trkpt lat="48.39622" lon="-1.9197">
        <ele>35</ele>
        <time>2025-10-02T07:35:17Z</time>
      </trkpt>
      <trkpt lat="48.3962" lon="-1.91972">
        <ele>34.8</ele>
        <time>2025-10-02T07:35:18Z</time>
      </trkpt>
      <trkpt lat="48.39616" lon="-1.91973">
        <ele>34.6</ele>
        <time>2025-10-02T07:35:19Z</time>
      </trkpt>
      <trkpt lat="48.39607" lon="-1.91967">
        <ele>34.4</ele>
        <time>2025-10-02T07:35:22Z</time>
      </trkpt>
      <trkpt lat="48.39604" lon="-1.91964">
        <ele>34.4</ele>
        <time>2025-10-02T07:35:23Z</time>
      </trkpt>
      <trkpt lat="48.39582" lon="-1.91938">
        <ele>35.2</ele>
        <time>2025-10-02T07:35:29Z</time>
      </trkpt>
      <trkpt lat="48.39579" lon="-1.91935">
        <ele>35.2</ele>
        <time>2025-10-02T07:35:30Z</time>
      </trkpt>
      <trkpt lat="48.39575" lon="-1.91932">
        <ele>35.2</ele>
        <time>2025-10-02T07:35:31Z</time>
      </trkpt>
      <trkpt lat="48.39553" lon="-1.91922">
        <ele>35</ele>
        <time>2025-10-02T07:35:36Z</time>
      </trkpt>
      <trkpt lat="48.39548" lon="-1.91921">
        <ele>35</ele>
        <time>2025-10-02T07:35:37Z</time>
      </trkpt>
      <trkpt lat="48.39544" lon="-1.91919">
        <ele>34.8</ele>
        <time>2025-10-02T07:35:38Z</time>
      </trkpt>
      <trkpt lat="48.39516" lon="-1.91909">
        <ele>34.4</ele>
        <time>2025-10-02T07:35:45Z</time>
      </trkpt>
      <trkpt lat="48.39511" lon="-1.91908">
        <ele>34</ele>
        <time>2025-10-02T07:35:47Z</time>
      </trkpt>
      <trkpt lat="48.39506" lon="-1.91906">
        <ele>33.8</ele>
        <time>2025-10-02T07:35:50Z</time>
      </trkpt>
      <trkpt lat="48.39491" lon="-1.91908">
        <ele>33.6</ele>
        <time>2025-10-02T07:35:55Z</time>
      </trkpt>
      <trkpt lat="48.39474" lon="-1.9191">
        <ele>33.2</ele>
        <time>2025-10-02T07:35:59Z</time>
      </trkpt>
      <trkpt lat="48.39466" lon="-1.9191">
        <ele>33.2</ele>
        <time>2025-10-02T07:36:01Z</time>
      </trkpt>
      <trkpt lat="48.39452" lon="-1.91912">
        <ele>33</ele>
        <time>2025-10-02T07:36:04Z</time>
      </trkpt>
      <trkpt lat="48.39442" lon="-1.91913">
        <ele>33</ele>
        <time>2025-10-02T07:36:06Z</time>
      </trkpt>
      <trkpt lat="48.39431" lon="-1.91914">
        <ele>32.6</ele>
        <time>2025-10-02T07:36:08Z</time>
      </trkpt>
      <trkpt lat="48.3942" lon="-1.91914">
        <ele>32.2</ele>
        <time>2025-10-02T07:36:10Z</time>
      </trkpt>
      <trkpt lat="48.39415" lon="-1.91914">
        <ele>32</ele>
        <time>2025-10-02T07:36:11Z</time>
      </trkpt>
      <trkpt lat="48.39409" lon="-1.91913">
        <ele>31.8</ele>
        <time>2025-10-02T07:36:12Z</time>
      </trkpt>
      <trkpt lat="48.39398" lon="-1.9191">
        <ele>31.6</ele>
        <time>2025-10-02T07:36:14Z</time>
      </trkpt>
      <trkpt lat="48.3938" lon="-1.91904">
        <ele>31.2</ele>
        <time>2025-10-02T07:36:17Z</time>
      </trkpt>
      <trkpt lat="48.39357" lon="-1.91895">
        <ele>30.6</ele>
        <time>2025-10-02T07:36:21Z</time>
      </trkpt>
      <trkpt lat="48.39335" lon="-1.91886">
        <ele>30.2</ele>
        <time>2025-10-02T07:36:25Z</time>
      </trkpt>
      <trkpt lat="48.39302" lon="-1.91874">
        <ele>29</ele>
        <time>2025-10-02T07:36:31Z</time>
      </trkpt>
      <trkpt lat="48.39296" lon="-1.91872">
        <ele>29.2</ele>
        <time>2025-10-02T07:36:32Z</time>
      </trkpt>
      <trkpt lat="48.3924" lon="-1.91858">
        <ele>28.8</ele>
        <time>2025-10-02T07:36:42Z</time>
      </trkpt>
      <trkpt lat="48.39234" lon="-1.91856">
        <ele>28.8</ele>
        <time>2025-10-02T07:36:43Z</time>
      </trkpt>
      <trkpt lat="48.39178" lon="-1.91837">
        <ele>28.4</ele>
        <time>2025-10-02T07:36:53Z</time>
      </trkpt>
      <trkpt lat="48.3914" lon="-1.91821">
        <ele>28</ele>
        <time>2025-10-02T07:37:00Z</time>
      </trkpt>
      <trkpt lat="48.39134" lon="-1.91818">
        <ele>27.6</ele>
        <time>2025-10-02T07:37:01Z</time>
      </trkpt>
      <trkpt lat="48.39104" lon="-1.91809">
        <ele>27.2</ele>
        <time>2025-10-02T07:37:06Z</time>
      </trkpt>
      <trkpt lat="48.39092" lon="-1.91808">
        <ele>26.8</ele>
        <time>2025-10-02T07:37:08Z</time>
      </trkpt>
      <trkpt lat="48.39086" lon="-1.91807">
        <ele>26.6</ele>
        <time>2025-10-02T07:37:09Z</time>
      </trkpt>
      <trkpt lat="48.39045" lon="-1.9181">
        <ele>26</ele>
        <time>2025-10-02T07:37:16Z</time>
      </trkpt>
      <trkpt lat="48.3904" lon="-1.91813">
        <ele>25.8</ele>
        <time>2025-10-02T07:37:17Z</time>
      </trkpt>
      <trkpt lat="48.39034" lon="-1.91817">
        <ele>25.8</ele>
        <time>2025-10-02T07:37:18Z</time>
      </trkpt>
      <trkpt lat="48.39029" lon="-1.91823">
        <ele>25.6</ele>
        <time>2025-10-02T07:37:19Z</time>
      </trkpt>
      <trkpt lat="48.39024" lon="-1.91829">
        <ele>25.4</ele>
        <time>2025-10-02T07:37:20Z</time>
      </trkpt>
      <trkpt lat="48.39019" lon="-1.91836">
        <ele>25.2</ele>
        <time>2025-10-02T07:37:21Z</time>
      </trkpt>
      <trkpt lat="48.39005" lon="-1.9186">
        <ele>24.4</ele>
        <time>2025-10-02T07:37:24Z</time>
      </trkpt>
      <trkpt lat="48.38991" lon="-1.91887">
        <ele>23.4</ele>
        <time>2025-10-02T07:37:27Z</time>
      </trkpt>
      <trkpt lat="48.38987" lon="-1.91896">
        <ele>23.2</ele>
        <time>2025-10-02T07:37:28Z</time>
      </trkpt>
      <trkpt lat="48.38968" lon="-1.91935">
        <ele>22</ele>
        <time>2025-10-02T07:37:32Z</time>
      </trkpt>
      <trkpt lat="48.38961" lon="-1.91956">
        <ele>21.2</ele>
        <time>2025-10-02T07:37:34Z</time>
      </trkpt>
      <trkpt lat="48.38954" lon="-1.91977">
        <ele>20.8</ele>
        <time>2025-10-02T07:37:36Z</time>
      </trkpt>
      <trkpt lat="48.38946" lon="-1.92003">
        <ele>20.4</ele>
        <time>2025-10-02T07:37:39Z</time>
      </trkpt>
      <trkpt lat="48.38938" lon="-1.92014">
        <ele>19.8</ele>
        <time>2025-10-02T07:37:41Z</time>
      </trkpt>
      <trkpt lat="48.38933" lon="-1.92016">
        <ele>19.8</ele>
        <time>2025-10-02T07:37:42Z</time>
      </trkpt>
      <trkpt lat="48.38888" lon="-1.92026">
        <ele>19.8</ele>
        <time>2025-10-02T07:37:50Z</time>
      </trkpt>
      <trkpt lat="48.38835" lon="-1.92044">
        <ele>19.2</ele>
        <time>2025-10-02T07:37:59Z</time>
      </trkpt>
      <trkpt lat="48.38806" lon="-1.92072">
        <ele>19</ele>
        <time>2025-10-02T07:38:05Z</time>
      </trkpt>
      <trkpt lat="48.38802" lon="-1.92078">
        <ele>19</ele>
        <time>2025-10-02T07:38:06Z</time>
      </trkpt>
      <trkpt lat="48.38793" lon="-1.921">
        <ele>19</ele>
        <time>2025-10-02T07:38:09Z</time>
      </trkpt>
      <trkpt lat="48.38778" lon="-1.92153">
        <ele>20</ele>
        <time>2025-10-02T07:38:16Z</time>
      </trkpt>
      <trkpt lat="48.3876" lon="-1.92204">
        <ele>21</ele>
        <time>2025-10-02T07:38:23Z</time>
      </trkpt>
      <trkpt lat="48.3876" lon="-1.92204">
        <ele>21</ele>
        <time>2025-10-02T07:38:24Z</time>
      </trkpt>
      <trkpt lat="48.38735" lon="-1.92259">
        <ele>22</ele>
        <time>2025-10-02T07:38:31Z</time>
      </trkpt>
      <trkpt lat="48.3873" lon="-1.92274">
        <ele>22.2</ele>
        <time>2025-10-02T07:38:33Z</time>
      </trkpt>
      <trkpt lat="48.38719" lon="-1.92302">
        <ele>22.8</ele>
        <time>2025-10-02T07:38:37Z</time>
      </trkpt>
      <trkpt lat="48.38703" lon="-1.92347">
        <ele>22</ele>
        <time>2025-10-02T07:38:43Z</time>
      </trkpt>
      <trkpt lat="48.38676" lon="-1.92417">
        <ele>21.2</ele>
        <time>2025-10-02T07:38:52Z</time>
      </trkpt>
      <trkpt lat="48.38645" lon="-1.92491">
        <ele>22.2</ele>
        <time>2025-10-02T07:39:02Z</time>
      </trkpt>
      <trkpt lat="48.38642" lon="-1.92498">
        <ele>22.4</ele>
        <time>2025-10-02T07:39:03Z</time>
      </trkpt>
      <trkpt lat="48.38629" lon="-1.92535">
        <ele>23.2</ele>
        <time>2025-10-02T07:39:08Z</time>
      </trkpt>
      <trkpt lat="48.3862" lon="-1.92564">
        <ele>24</ele>
        <time>2025-10-02T07:39:12Z</time>
      </trkpt>
      <trkpt lat="48.38617" lon="-1.92571">
        <ele>24.2</ele>
        <time>2025-10-02T07:39:13Z</time>
      </trkpt>
      <trkpt lat="48.38597" lon="-1.92634">
        <ele>25</ele>
        <time>2025-10-02T07:39:22Z</time>
      </trkpt>
      <trkpt lat="48.38595" lon="-1.92641">
        <ele>25.2</ele>
        <time>2025-10-02T07:39:23Z</time>
      </trkpt>
      <trkpt lat="48.38585" lon="-1.92669">
        <ele>26.2</ele>
        <time>2025-10-02T07:39:28Z</time>
      </trkpt>
      <trkpt lat="48.38582" lon="-1.92682">
        <ele>26.4</ele>
        <time>2025-10-02T07:39:30Z</time>
      </trkpt>
      <trkpt lat="48.38574" lon="-1.92713">
        <ele>27</ele>
        <time>2025-10-02T07:39:35Z</time>
      </trkpt>
      <trkpt lat="48.38554" lon="-1.92761">
        <ele>27</ele>
        <time>2025-10-02T07:39:44Z</time>
      </trkpt>
      <trkpt lat="48.38534" lon="-1.92794">
        <ele>26.4</ele>
        <time>2025-10-02T07:39:50Z</time>
      </trkpt>
      <trkpt lat="48.38502" lon="-1.92846">
        <ele>26</ele>
        <time>2025-10-02T07:39:58Z</time>
      </trkpt>
      <trkpt lat="48.38463" lon="-1.92909">
        <ele>25.8</ele>
        <time>2025-10-02T07:40:08Z</time>
      </trkpt>
      <trkpt lat="48.38459" lon="-1.92915">
        <ele>25.6</ele>
        <time>2025-10-02T07:40:09Z</time>
      </trkpt>
      <trkpt lat="48.38431" lon="-1.92962">
        <ele>25.8</ele>
        <time>2025-10-02T07:40:17Z</time>
      </trkpt>
      <trkpt lat="48.38396" lon="-1.93015">
        <ele>27.4</ele>
        <time>2025-10-02T07:40:27Z</time>
      </trkpt>
      <trkpt lat="48.38388" lon="-1.93025">
        <ele>27.4</ele>
        <time>2025-10-02T07:40:29Z</time>
      </trkpt>
      <trkpt lat="48.38362" lon="-1.93048">
        <ele>28.4</ele>
        <time>2025-10-02T07:40:35Z</time>
      </trkpt>
      <trkpt lat="48.38358" lon="-1.93051">
        <ele>28.8</ele>
        <time>2025-10-02T07:40:36Z</time>
      </trkpt>
      <trkpt lat="48.38336" lon="-1.93068">
        <ele>29.8</ele>
        <time>2025-10-02T07:40:41Z</time>
      </trkpt>
      <trkpt lat="48.38317" lon="-1.93081">
        <ele>30.6</ele>
        <time>2025-10-02T07:40:45Z</time>
      </trkpt>
      <trkpt lat="48.38308" lon="-1.93087">
        <ele>31</ele>
        <time>2025-10-02T07:40:47Z</time>
      </trkpt>
      <trkpt lat="48.38287" lon="-1.93103">
        <ele>31.4</ele>
        <time>2025-10-02T07:40:52Z</time>
      </trkpt>
      <trkpt lat="48.38274" lon="-1.93111">
        <ele>31</ele>
        <time>2025-10-02T07:40:57Z</time>
      </trkpt>
      <trkpt lat="48.38271" lon="-1.93111">
        <ele>30.6</ele>
        <time>2025-10-02T07:40:59Z</time>
      </trkpt>
      <trkpt lat="48.3827" lon="-1.93109">
        <ele>30.6</ele>
        <time>2025-10-02T07:41:00Z</time>
      </trkpt>
      <trkpt lat="48.38269" lon="-1.93094">
        <ele>30.8</ele>
        <time>2025-10-02T07:41:04Z</time>
      </trkpt>
      <trkpt lat="48.38264" lon="-1.93085">
        <ele>31.4</ele>
        <time>2025-10-02T07:41:09Z</time>
      </trkpt>
      <trkpt lat="48.38264" lon="-1.93085">
        <ele>31.4</ele>
        <time>2025-10-02T07:41:11Z</time>
      </trkpt>
      <trkpt lat="48.38264" lon="-1.93085">
        <ele>31.4</ele>
        <time>2025-10-02T07:41:12Z</time>
      </trkpt>
      <trkpt lat="48.38264" lon="-1.93085">
        <ele>31.6</ele>
        <time>2025-10-02T07:41:13Z</time>
      </trkpt>
      <trkpt lat="48.38264" lon="-1.93085">
        <ele>31.6</ele>
        <time>2025-10-02T07:41:15Z</time>
      </trkpt>
      <trkpt lat="48.38266" lon="-1.93087">
        <ele>31.6</ele>
        <time>2025-10-02T07:41:19Z</time>
      </trkpt>
      <trkpt lat="48.38267" lon="-1.9309">
        <ele>31.6</ele>
        <time>2025-10-02T07:41:20Z</time>
      </trkpt>
      <trkpt lat="48.3827" lon="-1.93107">
        <ele>31</ele>
        <time>2025-10-02T07:41:25Z</time>
      </trkpt>
      <trkpt lat="48.38264" lon="-1.93115">
        <ele>30.4</ele>
        <time>2025-10-02T07:41:27Z</time>
      </trkpt>
      <trkpt lat="48.38259" lon="-1.93118">
        <ele>30.2</ele>
        <time>2025-10-02T07:41:28Z</time>
      </trkpt>
      <trkpt lat="48.38254" lon="-1.9312">
        <ele>30</ele>
        <time>2025-10-02T07:41:29Z</time>
      </trkpt>
      <trkpt lat="48.38238" lon="-1.93122">
        <ele>29.8</ele>
        <time>2025-10-02T07:41:32Z</time>
      </trkpt>
      <trkpt lat="48.38209" lon="-1.93124">
        <ele>28.8</ele>
        <time>2025-10-02T07:41:37Z</time>
      </trkpt>
      <trkpt lat="48.38178" lon="-1.93123">
        <ele>27.8</ele>
        <time>2025-10-02T07:41:42Z</time>
      </trkpt>
      <trkpt lat="48.38144" lon="-1.9312">
        <ele>26.8</ele>
        <time>2025-10-02T07:41:47Z</time>
      </trkpt>
      <trkpt lat="48.38119" lon="-1.93119">
        <ele>25.6</ele>
        <time>2025-10-02T07:41:51Z</time>
      </trkpt>
      <trkpt lat="48.381" lon="-1.93118">
        <ele>24.8</ele>
        <time>2025-10-02T07:41:54Z</time>
      </trkpt>
      <trkpt lat="48.38088" lon="-1.93117">
        <ele>24.6</ele>
        <time>2025-10-02T07:41:56Z</time>
      </trkpt>
      <trkpt lat="48.38063" lon="-1.93115">
        <ele>24</ele>
        <time>2025-10-02T07:42:00Z</time>
      </trkpt>
      <trkpt lat="48.3805" lon="-1.93117">
        <ele>23.6</ele>
        <time>2025-10-02T07:42:02Z</time>
      </trkpt>
      <trkpt lat="48.38022" lon="-1.93125">
        <ele>22.4</ele>
        <time>2025-10-02T07:42:06Z</time>
      </trkpt>
      <trkpt lat="48.37977" lon="-1.93143">
        <ele>21.4</ele>
        <time>2025-10-02T07:42:13Z</time>
      </trkpt>
      <trkpt lat="48.37971" lon="-1.93146">
        <ele>21.4</ele>
        <time>2025-10-02T07:42:14Z</time>
      </trkpt>
      <trkpt lat="48.37924" lon="-1.93168">
        <ele>21.2</ele>
        <time>2025-10-02T07:42:22Z</time>
      </trkpt>
      <trkpt lat="48.37902" lon="-1.93177">
        <ele>21</ele>
        <time>2025-10-02T07:42:26Z</time>
      </trkpt>
      <trkpt lat="48.37879" lon="-1.93183">
        <ele>21</ele>
        <time>2025-10-02T07:42:30Z</time>
      </trkpt>
      <trkpt lat="48.37821" lon="-1.93193">
        <ele>21.4</ele>
        <time>2025-10-02T07:42:40Z</time>
      </trkpt>
      <trkpt lat="48.37815" lon="-1.93195">
        <ele>21.4</ele>
        <time>2025-10-02T07:42:41Z</time>
      </trkpt>
      <trkpt lat="48.37765" lon="-1.93206">
        <ele>22.6</ele>
        <time>2025-10-02T07:42:50Z</time>
      </trkpt>
      <trkpt lat="48.3776" lon="-1.93207">
        <ele>22.6</ele>
        <time>2025-10-02T07:42:51Z</time>
      </trkpt>
      <trkpt lat="48.37744" lon="-1.93206">
        <ele>23.2</ele>
        <time>2025-10-02T07:42:54Z</time>
      </trkpt>
      <trkpt lat="48.37733" lon="-1.93203">
        <ele>23.6</ele>
        <time>2025-10-02T07:42:56Z</time>
      </trkpt>
      <trkpt lat="48.37715" lon="-1.93192">
        <ele>24.6</ele>
        <time>2025-10-02T07:43:00Z</time>
      </trkpt>
      <trkpt lat="48.37707" lon="-1.93184">
        <ele>25</ele>
        <time>2025-10-02T07:43:02Z</time>
      </trkpt>
      <trkpt lat="48.37692" lon="-1.93167">
        <ele>25.8</ele>
        <time>2025-10-02T07:43:06Z</time>
      </trkpt>
      <trkpt lat="48.37676" lon="-1.93153">
        <ele>26.4</ele>
        <time>2025-10-02T07:43:10Z</time>
      </trkpt>
      <trkpt lat="48.37644" lon="-1.9314">
        <ele>26</ele>
        <time>2025-10-02T07:43:17Z</time>
      </trkpt>
      <trkpt lat="48.37608" lon="-1.93133">
        <ele>24.6</ele>
        <time>2025-10-02T07:43:23Z</time>
      </trkpt>
      <trkpt lat="48.37575" lon="-1.9312">
        <ele>23.4</ele>
        <time>2025-10-02T07:43:28Z</time>
      </trkpt>
      <trkpt lat="48.37568" lon="-1.93116">
        <ele>23</ele>
        <time>2025-10-02T07:43:29Z</time>
      </trkpt>
      <trkpt lat="48.37552" lon="-1.93107">
        <ele>22.2</ele>
        <time>2025-10-02T07:43:31Z</time>
      </trkpt>
      <trkpt lat="48.37536" lon="-1.93097">
        <ele>21.2</ele>
        <time>2025-10-02T07:43:33Z</time>
      </trkpt>
      <trkpt lat="48.3752" lon="-1.93087">
        <ele>20.4</ele>
        <time>2025-10-02T07:43:35Z</time>
      </trkpt>
      <trkpt lat="48.37514" lon="-1.93082">
        <ele>20</ele>
        <time>2025-10-02T07:43:36Z</time>
      </trkpt>
      <trkpt lat="48.37489" lon="-1.93062">
        <ele>19</ele>
        <time>2025-10-02T07:43:39Z</time>
      </trkpt>
      <trkpt lat="48.37482" lon="-1.93056">
        <ele>18.6</ele>
        <time>2025-10-02T07:43:40Z</time>
      </trkpt>
      <trkpt lat="48.37468" lon="-1.93037">
        <ele>17.4</ele>
        <time>2025-10-02T07:43:42Z</time>
      </trkpt>
      <trkpt lat="48.37455" lon="-1.93014">
        <ele>16.6</ele>
        <time>2025-10-02T07:43:44Z</time>
      </trkpt>
      <trkpt lat="48.37449" lon="-1.93003">
        <ele>16.4</ele>
        <time>2025-10-02T07:43:45Z</time>
      </trkpt>
      <trkpt lat="48.37421" lon="-1.92956">
        <ele>15.2</ele>
        <time>2025-10-02T07:43:50Z</time>
      </trkpt>
      <trkpt lat="48.37415" lon="-1.92949">
        <ele>15</ele>
        <time>2025-10-02T07:43:51Z</time>
      </trkpt>
      <trkpt lat="48.3741" lon="-1.92945">
        <ele>15</ele>
        <time>2025-10-02T07:43:52Z</time>
      </trkpt>
      <trkpt lat="48.37397" lon="-1.92939">
        <ele>14.8</ele>
        <time>2025-10-02T07:43:54Z</time>
      </trkpt>
      <trkpt lat="48.37383" lon="-1.92943">
        <ele>14.8</ele>
        <time>2025-10-02T07:43:56Z</time>
      </trkpt>
      <trkpt lat="48.3738" lon="-1.92947">
        <ele>15</ele>
        <time>2025-10-02T07:43:57Z</time>
      </trkpt>
      <trkpt lat="48.37376" lon="-1.92954">
        <ele>15</ele>
        <time>2025-10-02T07:43:58Z</time>
      </trkpt>
      <trkpt lat="48.37362" lon="-1.92982">
        <ele>14.6</ele>
        <time>2025-10-02T07:44:02Z</time>
      </trkpt>
      <trkpt lat="48.37335" lon="-1.93035">
        <ele>15.6</ele>
        <time>2025-10-02T07:44:10Z</time>
      </trkpt>
      <trkpt lat="48.37329" lon="-1.93047">
        <ele>15.8</ele>
        <time>2025-10-02T07:44:12Z</time>
      </trkpt>
      <trkpt lat="48.37327" lon="-1.93054">
        <ele>16.2</ele>
        <time>2025-10-02T07:44:13Z</time>
      </trkpt>
      <trkpt lat="48.37309" lon="-1.93089">
        <ele>17</ele>
        <time>2025-10-02T07:44:19Z</time>
      </trkpt>
      <trkpt lat="48.37298" lon="-1.93104">
        <ele>16.8</ele>
        <time>2025-10-02T07:44:22Z</time>
      </trkpt>
      <trkpt lat="48.37288" lon="-1.93112">
        <ele>16.4</ele>
        <time>2025-10-02T07:44:24Z</time>
      </trkpt>
      <trkpt lat="48.37275" lon="-1.93116">
        <ele>15.8</ele>
        <time>2025-10-02T07:44:26Z</time>
      </trkpt>
      <trkpt lat="48.37264" lon="-1.93115">
        <ele>15.2</ele>
        <time>2025-10-02T07:44:28Z</time>
      </trkpt>
      <trkpt lat="48.37232" lon="-1.93103">
        <ele>14.2</ele>
        <time>2025-10-02T07:44:34Z</time>
      </trkpt>
      <trkpt lat="48.37228" lon="-1.93101">
        <ele>14</ele>
        <time>2025-10-02T07:44:35Z</time>
      </trkpt>
      <trkpt lat="48.37223" lon="-1.93102">
        <ele>14.2</ele>
        <time>2025-10-02T07:44:37Z</time>
      </trkpt>
      <trkpt lat="48.37221" lon="-1.93105">
        <ele>14.2</ele>
        <time>2025-10-02T07:44:38Z</time>
      </trkpt>
      <trkpt lat="48.3722" lon="-1.93127">
        <ele>14.6</ele>
        <time>2025-10-02T07:44:42Z</time>
      </trkpt>
      <trkpt lat="48.37219" lon="-1.93153">
        <ele>15.2</ele>
        <time>2025-10-02T07:44:46Z</time>
      </trkpt>
      <trkpt lat="48.3722" lon="-1.93161">
        <ele>15.6</ele>
        <time>2025-10-02T07:44:47Z</time>
      </trkpt>
      <trkpt lat="48.3722" lon="-1.93167">
        <ele>16</ele>
        <time>2025-10-02T07:44:48Z</time>
      </trkpt>
      <trkpt lat="48.37221" lon="-1.93179">
        <ele>16.4</ele>
        <time>2025-10-02T07:44:50Z</time>
      </trkpt>
      <trkpt lat="48.37223" lon="-1.93193">
        <ele>17.2</ele>
        <time>2025-10-02T07:44:52Z</time>
      </trkpt>
      <trkpt lat="48.37222" lon="-1.93197">
        <ele>17.8</ele>
        <time>2025-10-02T07:44:53Z</time>
      </trkpt>
      <trkpt lat="48.3722" lon="-1.93202">
        <ele>18</ele>
        <time>2025-10-02T07:44:54Z</time>
      </trkpt>
      <trkpt lat="48.37216" lon="-1.93207">
        <ele>18.4</ele>
        <time>2025-10-02T07:44:55Z</time>
      </trkpt>
      <trkpt lat="48.37212" lon="-1.93208">
        <ele>18.8</ele>
        <time>2025-10-02T07:44:56Z</time>
      </trkpt>
      <trkpt lat="48.37198" lon="-1.9321">
        <ele>19.4</ele>
        <time>2025-10-02T07:44:59Z</time>
      </trkpt>
      <trkpt lat="48.37195" lon="-1.93211">
        <ele>19.6</ele>
        <time>2025-10-02T07:45:00Z</time>
      </trkpt>
      <trkpt lat="48.3716" lon="-1.93216">
        <ele>19.2</ele>
        <time>2025-10-02T07:45:07Z</time>
      </trkpt>
      <trkpt lat="48.37127" lon="-1.93232">
        <ele>18.2</ele>
        <time>2025-10-02T07:45:13Z</time>
      </trkpt>
      <trkpt lat="48.3711" lon="-1.93246">
        <ele>17.6</ele>
        <time>2025-10-02T07:45:16Z</time>
      </trkpt>
      <trkpt lat="48.37095" lon="-1.93263">
        <ele>17.2</ele>
        <time>2025-10-02T07:45:19Z</time>
      </trkpt>
      <trkpt lat="48.37083" lon="-1.93283">
        <ele>16.6</ele>
        <time>2025-10-02T07:45:22Z</time>
      </trkpt>
      <trkpt lat="48.37065" lon="-1.93312">
        <ele>15.6</ele>
        <time>2025-10-02T07:45:26Z</time>
      </trkpt>
      <trkpt lat="48.3706" lon="-1.93321">
        <ele>15.4</ele>
        <time>2025-10-02T07:45:27Z</time>
      </trkpt>
      <trkpt lat="48.37041" lon="-1.93353">
        <ele>15.2</ele>
        <time>2025-10-02T07:45:32Z</time>
      </trkpt>
      <trkpt lat="48.37037" lon="-1.93359">
        <ele>15</ele>
        <time>2025-10-02T07:45:33Z</time>
      </trkpt>
      <trkpt lat="48.37008" lon="-1.93398">
        <ele>15</ele>
        <time>2025-10-02T07:45:40Z</time>
      </trkpt>
      <trkpt lat="48.37002" lon="-1.93402">
        <ele>15.2</ele>
        <time>2025-10-02T07:45:41Z</time>
      </trkpt>
      <trkpt lat="48.36992" lon="-1.93408">
        <ele>15.4</ele>
        <time>2025-10-02T07:45:43Z</time>
      </trkpt>
      <trkpt lat="48.36981" lon="-1.93412">
        <ele>15.4</ele>
        <time>2025-10-02T07:45:45Z</time>
      </trkpt>
      <trkpt lat="48.36954" lon="-1.93423">
        <ele>15.2</ele>
        <time>2025-10-02T07:45:50Z</time>
      </trkpt>
      <trkpt lat="48.36937" lon="-1.9343">
        <ele>15.2</ele>
        <time>2025-10-02T07:45:53Z</time>
      </trkpt>
      <trkpt lat="48.36893" lon="-1.93444">
        <ele>15.8</ele>
        <time>2025-10-02T07:46:01Z</time>
      </trkpt>
      <trkpt lat="48.36877" lon="-1.93446">
        <ele>15.8</ele>
        <time>2025-10-02T07:46:04Z</time>
      </trkpt>
      <trkpt lat="48.36854" lon="-1.93444">
        <ele>16.2</ele>
        <time>2025-10-02T07:46:08Z</time>
      </trkpt>
      <trkpt lat="48.36842" lon="-1.93441">
        <ele>16.4</ele>
        <time>2025-10-02T07:46:10Z</time>
      </trkpt>
      <trkpt lat="48.36813" lon="-1.93443">
        <ele>16.4</ele>
        <time>2025-10-02T07:46:15Z</time>
      </trkpt>
      <trkpt lat="48.36758" lon="-1.93464">
        <ele>16.6</ele>
        <time>2025-10-02T07:46:25Z</time>
      </trkpt>
      <trkpt lat="48.36753" lon="-1.93466">
        <ele>16.6</ele>
        <time>2025-10-02T07:46:26Z</time>
      </trkpt>
      <trkpt lat="48.36715" lon="-1.93492">
        <ele>17.2</ele>
        <time>2025-10-02T07:46:33Z</time>
      </trkpt>
      <trkpt lat="48.36705" lon="-1.93501">
        <ele>17.4</ele>
        <time>2025-10-02T07:46:35Z</time>
      </trkpt>
      <trkpt lat="48.36666" lon="-1.93541">
        <ele>18.2</ele>
        <time>2025-10-02T07:46:43Z</time>
      </trkpt>
      <trkpt lat="48.36662" lon="-1.93544">
        <ele>18.6</ele>
        <time>2025-10-02T07:46:44Z</time>
      </trkpt>
      <trkpt lat="48.3663" lon="-1.93575">
        <ele>19.4</ele>
        <time>2025-10-02T07:46:51Z</time>
      </trkpt>
      <trkpt lat="48.36627" lon="-1.93577">
        <ele>19.6</ele>
        <time>2025-10-02T07:46:52Z</time>
      </trkpt>
      <trkpt lat="48.36622" lon="-1.93578">
        <ele>19.8</ele>
        <time>2025-10-02T07:46:53Z</time>
      </trkpt>
      <trkpt lat="48.36608" lon="-1.9358">
        <ele>20</ele>
        <time>2025-10-02T07:46:56Z</time>
      </trkpt>
      <trkpt lat="48.36566" lon="-1.93571">
        <ele>20</ele>
        <time>2025-10-02T07:47:05Z</time>
      </trkpt>
      <trkpt lat="48.36521" lon="-1.93563">
        <ele>20.4</ele>
        <time>2025-10-02T07:47:14Z</time>
      </trkpt>
      <trkpt lat="48.36517" lon="-1.93563">
        <ele>20.6</ele>
        <time>2025-10-02T07:47:15Z</time>
      </trkpt>
      <trkpt lat="48.36512" lon="-1.93562">
        <ele>20.6</ele>
        <time>2025-10-02T07:47:16Z</time>
      </trkpt>
      <trkpt lat="48.36501" lon="-1.93562">
        <ele>21.2</ele>
        <time>2025-10-02T07:47:18Z</time>
      </trkpt>
      <trkpt lat="48.36495" lon="-1.93562">
        <ele>21.2</ele>
        <time>2025-10-02T07:47:19Z</time>
      </trkpt>
      <trkpt lat="48.36484" lon="-1.93564">
        <ele>21.2</ele>
        <time>2025-10-02T07:47:21Z</time>
      </trkpt>
      <trkpt lat="48.36474" lon="-1.93567">
        <ele>21.4</ele>
        <time>2025-10-02T07:47:23Z</time>
      </trkpt>
      <trkpt lat="48.36433" lon="-1.93587">
        <ele>21.4</ele>
        <time>2025-10-02T07:47:31Z</time>
      </trkpt>
      <trkpt lat="48.36379" lon="-1.93621">
        <ele>21.4</ele>
        <time>2025-10-02T07:47:41Z</time>
      </trkpt>
      <trkpt lat="48.3634" lon="-1.93668">
        <ele>21.4</ele>
        <time>2025-10-02T07:47:50Z</time>
      </trkpt>
      <trkpt lat="48.36334" lon="-1.93675">
        <ele>21.2</ele>
        <time>2025-10-02T07:47:51Z</time>
      </trkpt>
      <trkpt lat="48.36304" lon="-1.9371">
        <ele>21.4</ele>
        <time>2025-10-02T07:47:58Z</time>
      </trkpt>
      <trkpt lat="48.36299" lon="-1.93713">
        <ele>21.6</ele>
        <time>2025-10-02T07:47:59Z</time>
      </trkpt>
      <trkpt lat="48.36283" lon="-1.93722">
        <ele>21.8</ele>
        <time>2025-10-02T07:48:02Z</time>
      </trkpt>
      <trkpt lat="48.36271" lon="-1.93724">
        <ele>21.8</ele>
        <time>2025-10-02T07:48:04Z</time>
      </trkpt>
      <trkpt lat="48.36226" lon="-1.93722">
        <ele>21.8</ele>
        <time>2025-10-02T07:48:12Z</time>
      </trkpt>
      <trkpt lat="48.36216" lon="-1.93721">
        <ele>21.6</ele>
        <time>2025-10-02T07:48:14Z</time>
      </trkpt>
      <trkpt lat="48.36204" lon="-1.93716">
        <ele>21.6</ele>
        <time>2025-10-02T07:48:16Z</time>
      </trkpt>
      <trkpt lat="48.362" lon="-1.93713">
        <ele>21.4</ele>
        <time>2025-10-02T07:48:17Z</time>
      </trkpt>
      <trkpt lat="48.36195" lon="-1.93708">
        <ele>21.4</ele>
        <time>2025-10-02T07:48:18Z</time>
      </trkpt>
      <trkpt lat="48.36182" lon="-1.93691">
        <ele>21.4</ele>
        <time>2025-10-02T07:48:21Z</time>
      </trkpt>
      <trkpt lat="48.36178" lon="-1.93683">
        <ele>21.4</ele>
        <time>2025-10-02T07:48:22Z</time>
      </trkpt>
      <trkpt lat="48.3616" lon="-1.9365">
        <ele>20.6</ele>
        <time>2025-10-02T07:48:27Z</time>
      </trkpt>
      <trkpt lat="48.36153" lon="-1.93634">
        <ele>20.4</ele>
        <time>2025-10-02T07:48:29Z</time>
      </trkpt>
      <trkpt lat="48.36129" lon="-1.93587">
        <ele>20.4</ele>
        <time>2025-10-02T07:48:36Z</time>
      </trkpt>
      <trkpt lat="48.36104" lon="-1.93537">
        <ele>20.4</ele>
        <time>2025-10-02T07:48:43Z</time>
      </trkpt>
      <trkpt lat="48.3608" lon="-1.93492">
        <ele>20.4</ele>
        <time>2025-10-02T07:48:49Z</time>
      </trkpt>
      <trkpt lat="48.36059" lon="-1.93453">
        <ele>20</ele>
        <time>2025-10-02T07:48:55Z</time>
      </trkpt>
      <trkpt lat="48.36055" lon="-1.9345">
        <ele>20</ele>
        <time>2025-10-02T07:48:56Z</time>
      </trkpt>
      <trkpt lat="48.36049" lon="-1.93446">
        <ele>20</ele>
        <time>2025-10-02T07:48:57Z</time>
      </trkpt>
      <trkpt lat="48.36039" lon="-1.93446">
        <ele>20.2</ele>
        <time>2025-10-02T07:48:59Z</time>
      </trkpt>
      <trkpt lat="48.35983" lon="-1.93455">
        <ele>21</ele>
        <time>2025-10-02T07:49:08Z</time>
      </trkpt>
      <trkpt lat="48.35933" lon="-1.93469">
        <ele>21.6</ele>
        <time>2025-10-02T07:49:17Z</time>
      </trkpt>
      <trkpt lat="48.35927" lon="-1.93474">
        <ele>21.6</ele>
        <time>2025-10-02T07:49:18Z</time>
      </trkpt>
      <trkpt lat="48.35909" lon="-1.93494">
        <ele>22</ele>
        <time>2025-10-02T07:49:22Z</time>
      </trkpt>
      <trkpt lat="48.35906" lon="-1.935">
        <ele>22.2</ele>
        <time>2025-10-02T07:49:23Z</time>
      </trkpt>
      <trkpt lat="48.35895" lon="-1.9352">
        <ele>22.8</ele>
        <time>2025-10-02T07:49:26Z</time>
      </trkpt>
      <trkpt lat="48.35888" lon="-1.93534">
        <ele>23.2</ele>
        <time>2025-10-02T07:49:28Z</time>
      </trkpt>
      <trkpt lat="48.35879" lon="-1.9355">
        <ele>23.8</ele>
        <time>2025-10-02T07:49:31Z</time>
      </trkpt>
      <trkpt lat="48.35877" lon="-1.93555">
        <ele>23.8</ele>
        <time>2025-10-02T07:49:32Z</time>
      </trkpt>
      <trkpt lat="48.3587" lon="-1.93569">
        <ele>24</ele>
        <time>2025-10-02T07:49:34Z</time>
      </trkpt>
      <trkpt lat="48.35862" lon="-1.93575">
        <ele>24.4</ele>
        <time>2025-10-02T07:49:36Z</time>
      </trkpt>
      <trkpt lat="48.35855" lon="-1.93577">
        <ele>25</ele>
        <time>2025-10-02T07:49:37Z</time>
      </trkpt>
      <trkpt lat="48.35849" lon="-1.93577">
        <ele>25</ele>
        <time>2025-10-02T07:49:38Z</time>
      </trkpt>
      <trkpt lat="48.35816" lon="-1.9357">
        <ele>25.4</ele>
        <time>2025-10-02T07:49:44Z</time>
      </trkpt>
      <trkpt lat="48.35806" lon="-1.93567">
        <ele>25.4</ele>
        <time>2025-10-02T07:49:46Z</time>
      </trkpt>
      <trkpt lat="48.35782" lon="-1.93558">
        <ele>25.6</ele>
        <time>2025-10-02T07:49:50Z</time>
      </trkpt>
      <trkpt lat="48.35754" lon="-1.93549">
        <ele>25.6</ele>
        <time>2025-10-02T07:49:55Z</time>
      </trkpt>
      <trkpt lat="48.3571" lon="-1.93534">
        <ele>26</ele>
        <time>2025-10-02T07:50:03Z</time>
      </trkpt>
      <trkpt lat="48.35694" lon="-1.93529">
        <ele>26</ele>
        <time>2025-10-02T07:50:06Z</time>
      </trkpt>
      <trkpt lat="48.35639" lon="-1.93511">
        <ele>25.6</ele>
        <time>2025-10-02T07:50:16Z</time>
      </trkpt>
      <trkpt lat="48.35628" lon="-1.93507">
        <ele>25.6</ele>
        <time>2025-10-02T07:50:18Z</time>
      </trkpt>
      <trkpt lat="48.35582" lon="-1.93491">
        <ele>25.8</ele>
        <time>2025-10-02T07:50:26Z</time>
      </trkpt>
      <trkpt lat="48.35525" lon="-1.93472">
        <ele>26.4</ele>
        <time>2025-10-02T07:50:36Z</time>
      </trkpt>
      <trkpt lat="48.35514" lon="-1.93468">
        <ele>26.6</ele>
        <time>2025-10-02T07:50:38Z</time>
      </trkpt>
      <trkpt lat="48.35504" lon="-1.93465">
        <ele>27</ele>
        <time>2025-10-02T07:50:40Z</time>
      </trkpt>
      <trkpt lat="48.35479" lon="-1.93457">
        <ele>28.2</ele>
        <time>2025-10-02T07:50:45Z</time>
      </trkpt>
      <trkpt lat="48.35464" lon="-1.93451">
        <ele>29.2</ele>
        <time>2025-10-02T07:50:48Z</time>
      </trkpt>
      <trkpt lat="48.35445" lon="-1.93444">
        <ele>30.6</ele>
        <time>2025-10-02T07:50:52Z</time>
      </trkpt>
      <trkpt lat="48.35413" lon="-1.93435">
        <ele>31.6</ele>
        <time>2025-10-02T07:50:58Z</time>
      </trkpt>
      <trkpt lat="48.3541" lon="-1.93434">
        <ele>32.2</ele>
        <time>2025-10-02T07:50:59Z</time>
      </trkpt>
      <trkpt lat="48.35395" lon="-1.93429">
        <ele>32.8</ele>
        <time>2025-10-02T07:51:02Z</time>
      </trkpt>
      <trkpt lat="48.35381" lon="-1.93424">
        <ele>34</ele>
        <time>2025-10-02T07:51:05Z</time>
      </trkpt>
      <trkpt lat="48.35364" lon="-1.93418">
        <ele>35.2</ele>
        <time>2025-10-02T07:51:09Z</time>
      </trkpt>
      <trkpt lat="48.35346" lon="-1.93412">
        <ele>36.4</ele>
        <time>2025-10-02T07:51:13Z</time>
      </trkpt>
      <trkpt lat="48.35337" lon="-1.93408">
        <ele>36.6</ele>
        <time>2025-10-02T07:51:15Z</time>
      </trkpt>
      <trkpt lat="48.35311" lon="-1.93397">
        <ele>37.4</ele>
        <time>2025-10-02T07:51:21Z</time>
      </trkpt>
      <trkpt lat="48.35285" lon="-1.93386">
        <ele>37.6</ele>
        <time>2025-10-02T07:51:26Z</time>
      </trkpt>
      <trkpt lat="48.35237" lon="-1.9336">
        <ele>37.8</ele>
        <time>2025-10-02T07:51:36Z</time>
      </trkpt>
      <trkpt lat="48.35211" lon="-1.9333">
        <ele>37.2</ele>
        <time>2025-10-02T07:51:42Z</time>
      </trkpt>
      <trkpt lat="48.35193" lon="-1.93304">
        <ele>36.6</ele>
        <time>2025-10-02T07:51:46Z</time>
      </trkpt>
      <trkpt lat="48.35182" lon="-1.93291">
        <ele>36.2</ele>
        <time>2025-10-02T07:51:48Z</time>
      </trkpt>
      <trkpt lat="48.35161" lon="-1.93265">
        <ele>35.2</ele>
        <time>2025-10-02T07:51:52Z</time>
      </trkpt>
      <trkpt lat="48.35154" lon="-1.9326">
        <ele>35</ele>
        <time>2025-10-02T07:51:53Z</time>
      </trkpt>
      <trkpt lat="48.35148" lon="-1.93256">
        <ele>35</ele>
        <time>2025-10-02T07:51:54Z</time>
      </trkpt>
      <trkpt lat="48.35141" lon="-1.93253">
        <ele>34.8</ele>
        <time>2025-10-02T07:51:55Z</time>
      </trkpt>
      <trkpt lat="48.35126" lon="-1.9325">
        <ele>34.8</ele>
        <time>2025-10-02T07:51:57Z</time>
      </trkpt>
      <trkpt lat="48.3512" lon="-1.93251">
        <ele>34.4</ele>
        <time>2025-10-02T07:51:58Z</time>
      </trkpt>
      <trkpt lat="48.35115" lon="-1.93254">
        <ele>34.4</ele>
        <time>2025-10-02T07:51:59Z</time>
      </trkpt>
      <trkpt lat="48.35106" lon="-1.93266">
        <ele>34.8</ele>
        <time>2025-10-02T07:52:01Z</time>
      </trkpt>
      <trkpt lat="48.35093" lon="-1.93301">
        <ele>36.4</ele>
        <time>2025-10-02T07:52:06Z</time>
      </trkpt>
      <trkpt lat="48.3509" lon="-1.93314">
        <ele>37</ele>
        <time>2025-10-02T07:52:08Z</time>
      </trkpt>
      <trkpt lat="48.35085" lon="-1.93329">
        <ele>37.8</ele>
        <time>2025-10-02T07:52:10Z</time>
      </trkpt>
      <trkpt lat="48.35077" lon="-1.93354">
        <ele>39</ele>
        <time>2025-10-02T07:52:14Z</time>
      </trkpt>
      <trkpt lat="48.35072" lon="-1.93366">
        <ele>39.4</ele>
        <time>2025-10-02T07:52:16Z</time>
      </trkpt>
      <trkpt lat="48.35064" lon="-1.93386">
        <ele>40</ele>
        <time>2025-10-02T07:52:19Z</time>
      </trkpt>
      <trkpt lat="48.35056" lon="-1.9341">
        <ele>41</ele>
        <time>2025-10-02T07:52:23Z</time>
      </trkpt>
      <trkpt lat="48.35054" lon="-1.93418">
        <ele>41.2</ele>
        <time>2025-10-02T07:52:24Z</time>
      </trkpt>
      <trkpt lat="48.35047" lon="-1.93432">
        <ele>41.8</ele>
        <time>2025-10-02T07:52:27Z</time>
      </trkpt>
      <trkpt lat="48.35044" lon="-1.93434">
        <ele>41.8</ele>
        <time>2025-10-02T07:52:28Z</time>
      </trkpt>
      <trkpt lat="48.3504" lon="-1.93434">
        <ele>42</ele>
        <time>2025-10-02T07:52:29Z</time>
      </trkpt>
      <trkpt lat="48.35037" lon="-1.93431">
        <ele>42</ele>
        <time>2025-10-02T07:52:30Z</time>
      </trkpt>
      <trkpt lat="48.35034" lon="-1.93428">
        <ele>42.2</ele>
        <time>2025-10-02T07:52:31Z</time>
      </trkpt>
      <trkpt lat="48.35028" lon="-1.93417">
        <ele>42</ele>
        <time>2025-10-02T07:52:33Z</time>
      </trkpt>
      <trkpt lat="48.35017" lon="-1.93393">
        <ele>41.8</ele>
        <time>2025-10-02T07:52:37Z</time>
      </trkpt>
      <trkpt lat="48.34998" lon="-1.93355">
        <ele>41</ele>
        <time>2025-10-02T07:52:43Z</time>
      </trkpt>
      <trkpt lat="48.34995" lon="-1.93348">
        <ele>41</ele>
        <time>2025-10-02T07:52:44Z</time>
      </trkpt>
      <trkpt lat="48.3498" lon="-1.93318">
        <ele>40.8</ele>
        <time>2025-10-02T07:52:48Z</time>
      </trkpt>
      <trkpt lat="48.34969" lon="-1.93297">
        <ele>40.4</ele>
        <time>2025-10-02T07:52:51Z</time>
      </trkpt>
      <trkpt lat="48.3496" lon="-1.93284">
        <ele>40</ele>
        <time>2025-10-02T07:52:53Z</time>
      </trkpt>
      <trkpt lat="48.34942" lon="-1.93258">
        <ele>39.4</ele>
        <time>2025-10-02T07:52:57Z</time>
      </trkpt>
      <trkpt lat="48.34917" lon="-1.93227">
        <ele>38.8</ele>
        <time>2025-10-02T07:53:02Z</time>
      </trkpt>
      <trkpt lat="48.34893" lon="-1.93195">
        <ele>38</ele>
        <time>2025-10-02T07:53:07Z</time>
      </trkpt>
      <trkpt lat="48.34884" lon="-1.9318">
        <ele>38</ele>
        <time>2025-10-02T07:53:09Z</time>
      </trkpt>
      <trkpt lat="48.3488" lon="-1.93172">
        <ele>37.8</ele>
        <time>2025-10-02T07:53:10Z</time>
      </trkpt>
      <trkpt lat="48.34869" lon="-1.93147">
        <ele>37.4</ele>
        <time>2025-10-02T07:53:13Z</time>
      </trkpt>
      <trkpt lat="48.3486" lon="-1.93119">
        <ele>36.8</ele>
        <time>2025-10-02T07:53:16Z</time>
      </trkpt>
      <trkpt lat="48.34858" lon="-1.93108">
        <ele>36.6</ele>
        <time>2025-10-02T07:53:17Z</time>
      </trkpt>
      <trkpt lat="48.34854" lon="-1.93092">
        <ele>36.4</ele>
        <time>2025-10-02T07:53:19Z</time>
      </trkpt>
      <trkpt lat="48.34838" lon="-1.9301">
        <ele>36.4</ele>
        <time>2025-10-02T07:53:28Z</time>
      </trkpt>
      <trkpt lat="48.34822" lon="-1.92942">
        <ele>37.2</ele>
        <time>2025-10-02T07:53:36Z</time>
      </trkpt>
      <trkpt lat="48.34816" lon="-1.92927">
        <ele>37.8</ele>
        <time>2025-10-02T07:53:38Z</time>
      </trkpt>
      <trkpt lat="48.34808" lon="-1.92906">
        <ele>38.8</ele>
        <time>2025-10-02T07:53:41Z</time>
      </trkpt>
      <trkpt lat="48.34802" lon="-1.92892">
        <ele>39.4</ele>
        <time>2025-10-02T07:53:43Z</time>
      </trkpt>
      <trkpt lat="48.34799" lon="-1.92886">
        <ele>39.6</ele>
        <time>2025-10-02T07:53:44Z</time>
      </trkpt>
      <trkpt lat="48.34797" lon="-1.9288">
        <ele>40.2</ele>
        <time>2025-10-02T07:53:45Z</time>
      </trkpt>
      <trkpt lat="48.34795" lon="-1.92874">
        <ele>40.4</ele>
        <time>2025-10-02T07:53:46Z</time>
      </trkpt>
      <trkpt lat="48.34792" lon="-1.92868">
        <ele>40.8</ele>
        <time>2025-10-02T07:53:47Z</time>
      </trkpt>
      <trkpt lat="48.34788" lon="-1.92857">
        <ele>41.2</ele>
        <time>2025-10-02T07:53:49Z</time>
      </trkpt>
      <trkpt lat="48.34782" lon="-1.92847">
        <ele>42</ele>
        <time>2025-10-02T07:53:51Z</time>
      </trkpt>
      <trkpt lat="48.34779" lon="-1.92844">
        <ele>42.4</ele>
        <time>2025-10-02T07:53:52Z</time>
      </trkpt>
      <trkpt lat="48.34775" lon="-1.92842">
        <ele>42.6</ele>
        <time>2025-10-02T07:53:53Z</time>
      </trkpt>
      <trkpt lat="48.34766" lon="-1.92843">
        <ele>43.2</ele>
        <time>2025-10-02T07:53:55Z</time>
      </trkpt>
      <trkpt lat="48.34739" lon="-1.92863">
        <ele>42.8</ele>
        <time>2025-10-02T07:54:01Z</time>
      </trkpt>
      <trkpt lat="48.34718" lon="-1.92882">
        <ele>42.2</ele>
        <time>2025-10-02T07:54:05Z</time>
      </trkpt>
      <trkpt lat="48.3471" lon="-1.92889">
        <ele>41.8</ele>
        <time>2025-10-02T07:54:07Z</time>
      </trkpt>
      <trkpt lat="48.34699" lon="-1.92891">
        <ele>41.6</ele>
        <time>2025-10-02T07:54:09Z</time>
      </trkpt>
      <trkpt lat="48.34695" lon="-1.92889">
        <ele>41.6</ele>
        <time>2025-10-02T07:54:10Z</time>
      </trkpt>
      <trkpt lat="48.3469" lon="-1.92887">
        <ele>41.6</ele>
        <time>2025-10-02T07:54:11Z</time>
      </trkpt>
      <trkpt lat="48.34667" lon="-1.92874">
        <ele>41.8</ele>
        <time>2025-10-02T07:54:15Z</time>
      </trkpt>
      <trkpt lat="48.34656" lon="-1.92868">
        <ele>42</ele>
        <time>2025-10-02T07:54:17Z</time>
      </trkpt>
      <trkpt lat="48.34646" lon="-1.92861">
        <ele>42.2</ele>
        <time>2025-10-02T07:54:19Z</time>
      </trkpt>
      <trkpt lat="48.34625" lon="-1.92848">
        <ele>42.6</ele>
        <time>2025-10-02T07:54:23Z</time>
      </trkpt>
      <trkpt lat="48.34586" lon="-1.92823">
        <ele>43.4</ele>
        <time>2025-10-02T07:54:31Z</time>
      </trkpt>
      <trkpt lat="48.34581" lon="-1.9282">
        <ele>43.6</ele>
        <time>2025-10-02T07:54:32Z</time>
      </trkpt>
      <trkpt lat="48.34573" lon="-1.92815">
        <ele>43.8</ele>
        <time>2025-10-02T07:54:34Z</time>
      </trkpt>
      <trkpt lat="48.34564" lon="-1.92808">
        <ele>44</ele>
        <time>2025-10-02T07:54:36Z</time>
      </trkpt>
      <trkpt lat="48.3455" lon="-1.92797">
        <ele>44.6</ele>
        <time>2025-10-02T07:54:39Z</time>
      </trkpt>
      <trkpt lat="48.34514" lon="-1.92775">
        <ele>45.6</ele>
        <time>2025-10-02T07:54:47Z</time>
      </trkpt>
      <trkpt lat="48.34509" lon="-1.92772">
        <ele>45.8</ele>
        <time>2025-10-02T07:54:48Z</time>
      </trkpt>
      <trkpt lat="48.34485" lon="-1.92758">
        <ele>46.4</ele>
        <time>2025-10-02T07:54:53Z</time>
      </trkpt>
      <trkpt lat="48.34481" lon="-1.92755">
        <ele>46.6</ele>
        <time>2025-10-02T07:54:54Z</time>
      </trkpt>
      <trkpt lat="48.34476" lon="-1.92752">
        <ele>46.8</ele>
        <time>2025-10-02T07:54:55Z</time>
      </trkpt>
      <trkpt lat="48.34469" lon="-1.92748">
        <ele>46.8</ele>
        <time>2025-10-02T07:54:57Z</time>
      </trkpt>
      <trkpt lat="48.34464" lon="-1.92746">
        <ele>47</ele>
        <time>2025-10-02T07:54:58Z</time>
      </trkpt>
      <trkpt lat="48.3446" lon="-1.92743">
        <ele>47.2</ele>
        <time>2025-10-02T07:54:59Z</time>
      </trkpt>
      <trkpt lat="48.34455" lon="-1.9274">
        <ele>47.4</ele>
        <time>2025-10-02T07:55:00Z</time>
      </trkpt>
      <trkpt lat="48.34445" lon="-1.92733">
        <ele>47.8</ele>
        <time>2025-10-02T07:55:02Z</time>
      </trkpt>
      <trkpt lat="48.3444" lon="-1.9273">
        <ele>47.8</ele>
        <time>2025-10-02T07:55:03Z</time>
      </trkpt>
      <trkpt lat="48.34422" lon="-1.92718">
        <ele>48.4</ele>
        <time>2025-10-02T07:55:07Z</time>
      </trkpt>
      <trkpt lat="48.34409" lon="-1.92708">
        <ele>48.8</ele>
        <time>2025-10-02T07:55:10Z</time>
      </trkpt>
      <trkpt lat="48.34393" lon="-1.92698">
        <ele>49.6</ele>
        <time>2025-10-02T07:55:14Z</time>
      </trkpt>
      <trkpt lat="48.34385" lon="-1.92692">
        <ele>49.8</ele>
        <time>2025-10-02T07:55:16Z</time>
      </trkpt>
      <trkpt lat="48.34381" lon="-1.92689">
        <ele>50.2</ele>
        <time>2025-10-02T07:55:17Z</time>
      </trkpt>
      <trkpt lat="48.34365" lon="-1.92679">
        <ele>50.8</ele>
        <time>2025-10-02T07:55:21Z</time>
      </trkpt>
      <trkpt lat="48.34361" lon="-1.92676">
        <ele>51</ele>
        <time>2025-10-02T07:55:22Z</time>
      </trkpt>
      <trkpt lat="48.3434" lon="-1.92663">
        <ele>51.6</ele>
        <time>2025-10-02T07:55:27Z</time>
      </trkpt>
      <trkpt lat="48.34336" lon="-1.9266">
        <ele>51.8</ele>
        <time>2025-10-02T07:55:28Z</time>
      </trkpt>
      <trkpt lat="48.34332" lon="-1.92656">
        <ele>52</ele>
        <time>2025-10-02T07:55:29Z</time>
      </trkpt>
      <trkpt lat="48.34305" lon="-1.92637">
        <ele>53.2</ele>
        <time>2025-10-02T07:55:36Z</time>
      </trkpt>
      <trkpt lat="48.34297" lon="-1.92632">
        <ele>53.8</ele>
        <time>2025-10-02T07:55:38Z</time>
      </trkpt>
      <trkpt lat="48.34286" lon="-1.92625">
        <ele>54.2</ele>
        <time>2025-10-02T07:55:41Z</time>
      </trkpt>
      <trkpt lat="48.34277" lon="-1.9262">
        <ele>54.6</ele>
        <time>2025-10-02T07:55:43Z</time>
      </trkpt>
      <trkpt lat="48.34257" lon="-1.92608">
        <ele>55.4</ele>
        <time>2025-10-02T07:55:48Z</time>
      </trkpt>
      <trkpt lat="48.34244" lon="-1.92599">
        <ele>55.8</ele>
        <time>2025-10-02T07:55:51Z</time>
      </trkpt>
      <trkpt lat="48.34231" lon="-1.92591">
        <ele>56.4</ele>
        <time>2025-10-02T07:55:54Z</time>
      </trkpt>
      <trkpt lat="48.3421" lon="-1.92578">
        <ele>57.6</ele>
        <time>2025-10-02T07:55:59Z</time>
      </trkpt>
      <trkpt lat="48.34206" lon="-1.92576">
        <ele>57.8</ele>
        <time>2025-10-02T07:56:00Z</time>
      </trkpt>
      <trkpt lat="48.3418" lon="-1.92559">
        <ele>58.6</ele>
        <time>2025-10-02T07:56:06Z</time>
      </trkpt>
      <trkpt lat="48.3416" lon="-1.92546">
        <ele>59.8</ele>
        <time>2025-10-02T07:56:11Z</time>
      </trkpt>
      <trkpt lat="48.34129" lon="-1.92526">
        <ele>60.8</ele>
        <time>2025-10-02T07:56:18Z</time>
      </trkpt>
      <trkpt lat="48.34111" lon="-1.92517">
        <ele>61.6</ele>
        <time>2025-10-02T07:56:22Z</time>
      </trkpt>
      <trkpt lat="48.34107" lon="-1.92514">
        <ele>61.8</ele>
        <time>2025-10-02T07:56:23Z</time>
      </trkpt>
      <trkpt lat="48.34085" lon="-1.92499">
        <ele>63</ele>
        <time>2025-10-02T07:56:28Z</time>
      </trkpt>
      <trkpt lat="48.34073" lon="-1.92492">
        <ele>63.4</ele>
        <time>2025-10-02T07:56:31Z</time>
      </trkpt>
      <trkpt lat="48.34061" lon="-1.92483">
        <ele>64</ele>
        <time>2025-10-02T07:56:34Z</time>
      </trkpt>
      <trkpt lat="48.34036" lon="-1.92468">
        <ele>64.6</ele>
        <time>2025-10-02T07:56:39Z</time>
      </trkpt>
      <trkpt lat="48.34018" lon="-1.92456">
        <ele>65</ele>
        <time>2025-10-02T07:56:43Z</time>
      </trkpt>
      <trkpt lat="48.34005" lon="-1.92445">
        <ele>65.4</ele>
        <time>2025-10-02T07:56:46Z</time>
      </trkpt>
      <trkpt lat="48.34001" lon="-1.92443">
        <ele>65.4</ele>
        <time>2025-10-02T07:56:47Z</time>
      </trkpt>
      <trkpt lat="48.33991" lon="-1.92436">
        <ele>65.6</ele>
        <time>2025-10-02T07:56:49Z</time>
      </trkpt>
      <trkpt lat="48.33972" lon="-1.92424">
        <ele>66.2</ele>
        <time>2025-10-02T07:56:53Z</time>
      </trkpt>
      <trkpt lat="48.33943" lon="-1.92404">
        <ele>66.4</ele>
        <time>2025-10-02T07:56:59Z</time>
      </trkpt>
      <trkpt lat="48.33938" lon="-1.92401">
        <ele>66.6</ele>
        <time>2025-10-02T07:57:00Z</time>
      </trkpt>
      <trkpt lat="48.33929" lon="-1.92395">
        <ele>66.8</ele>
        <time>2025-10-02T07:57:02Z</time>
      </trkpt>
      <trkpt lat="48.33924" lon="-1.92392">
        <ele>66.8</ele>
        <time>2025-10-02T07:57:03Z</time>
      </trkpt>
      <trkpt lat="48.33919" lon="-1.92389">
        <ele>66.8</ele>
        <time>2025-10-02T07:57:04Z</time>
      </trkpt>
      <trkpt lat="48.33905" lon="-1.9238">
        <ele>67</ele>
        <time>2025-10-02T07:57:07Z</time>
      </trkpt>
      <trkpt lat="48.33888" lon="-1.92367">
        <ele>67</ele>
        <time>2025-10-02T07:57:11Z</time>
      </trkpt>
      <trkpt lat="48.33878" lon="-1.92361">
        <ele>67.2</ele>
        <time>2025-10-02T07:57:13Z</time>
      </trkpt>
      <trkpt lat="48.33844" lon="-1.92338">
        <ele>67.2</ele>
        <time>2025-10-02T07:57:20Z</time>
      </trkpt>
      <trkpt lat="48.33818" lon="-1.92321">
        <ele>67.6</ele>
        <time>2025-10-02T07:57:25Z</time>
      </trkpt>
      <trkpt lat="48.33814" lon="-1.92316">
        <ele>67.6</ele>
        <time>2025-10-02T07:57:26Z</time>
      </trkpt>
      <trkpt lat="48.33809" lon="-1.92313">
        <ele>67.6</ele>
        <time>2025-10-02T07:57:27Z</time>
      </trkpt>
      <trkpt lat="48.33789" lon="-1.923">
        <ele>67.8</ele>
        <time>2025-10-02T07:57:31Z</time>
      </trkpt>
      <trkpt lat="48.33764" lon="-1.92284">
        <ele>68</ele>
        <time>2025-10-02T07:57:36Z</time>
      </trkpt>
      <trkpt lat="48.33749" lon="-1.92274">
        <ele>68.4</ele>
        <time>2025-10-02T07:57:39Z</time>
      </trkpt>
      <trkpt lat="48.33719" lon="-1.92255">
        <ele>69.2</ele>
        <time>2025-10-02T07:57:45Z</time>
      </trkpt>
      <trkpt lat="48.3371" lon="-1.92249">
        <ele>69.6</ele>
        <time>2025-10-02T07:57:47Z</time>
      </trkpt>
      <trkpt lat="48.3369" lon="-1.92236">
        <ele>69.6</ele>
        <time>2025-10-02T07:57:52Z</time>
      </trkpt>
      <trkpt lat="48.33667" lon="-1.92216">
        <ele>69.4</ele>
        <time>2025-10-02T07:57:58Z</time>
      </trkpt>
      <trkpt lat="48.33664" lon="-1.92212">
        <ele>69.4</ele>
        <time>2025-10-02T07:57:59Z</time>
      </trkpt>
      <trkpt lat="48.33659" lon="-1.92199">
        <ele>69.4</ele>
        <time>2025-10-02T07:58:01Z</time>
      </trkpt>
      <trkpt lat="48.33659" lon="-1.92193">
        <ele>69.4</ele>
        <time>2025-10-02T07:58:02Z</time>
      </trkpt>
      <trkpt lat="48.3366" lon="-1.92187">
        <ele>69.4</ele>
        <time>2025-10-02T07:58:03Z</time>
      </trkpt>
      <trkpt lat="48.33663" lon="-1.92175">
        <ele>69.4</ele>
        <time>2025-10-02T07:58:05Z</time>
      </trkpt>
      <trkpt lat="48.33664" lon="-1.92168">
        <ele>69.4</ele>
        <time>2025-10-02T07:58:06Z</time>
      </trkpt>
      <trkpt lat="48.33668" lon="-1.9214">
        <ele>69.2</ele>
        <time>2025-10-02T07:58:10Z</time>
      </trkpt>
      <trkpt lat="48.3367" lon="-1.92125">
        <ele>69.2</ele>
        <time>2025-10-02T07:58:12Z</time>
      </trkpt>
      <trkpt lat="48.33678" lon="-1.92056">
        <ele>69.2</ele>
        <time>2025-10-02T07:58:21Z</time>
      </trkpt>
      <trkpt lat="48.33682" lon="-1.92038">
        <ele>69</ele>
        <time>2025-10-02T07:58:23Z</time>
      </trkpt>
      <trkpt lat="48.33684" lon="-1.92029">
        <ele>68.8</ele>
        <time>2025-10-02T07:58:24Z</time>
      </trkpt>
      <trkpt lat="48.33685" lon="-1.92021">
        <ele>68.8</ele>
        <time>2025-10-02T07:58:25Z</time>
      </trkpt>
      <trkpt lat="48.33691" lon="-1.91987">
        <ele>68.8</ele>
        <time>2025-10-02T07:58:29Z</time>
      </trkpt>
      <trkpt lat="48.33693" lon="-1.91978">
        <ele>68.6</ele>
        <time>2025-10-02T07:58:30Z</time>
      </trkpt>
      <trkpt lat="48.33697" lon="-1.91959">
        <ele>68.4</ele>
        <time>2025-10-02T07:58:32Z</time>
      </trkpt>
      <trkpt lat="48.33699" lon="-1.9195">
        <ele>68</ele>
        <time>2025-10-02T07:58:33Z</time>
      </trkpt>
      <trkpt lat="48.33703" lon="-1.91922">
        <ele>67.6</ele>
        <time>2025-10-02T07:58:36Z</time>
      </trkpt>
      <trkpt lat="48.33705" lon="-1.91912">
        <ele>67.4</ele>
        <time>2025-10-02T07:58:37Z</time>
      </trkpt>
      <trkpt lat="48.33712" lon="-1.91873">
        <ele>66.6</ele>
        <time>2025-10-02T07:58:41Z</time>
      </trkpt>
      <trkpt lat="48.33714" lon="-1.91849">
        <ele>66.2</ele>
        <time>2025-10-02T07:58:43Z</time>
      </trkpt>
      <trkpt lat="48.33716" lon="-1.91815">
        <ele>65</ele>
        <time>2025-10-02T07:58:46Z</time>
      </trkpt>
      <trkpt lat="48.33714" lon="-1.91782">
        <ele>63.8</ele>
        <time>2025-10-02T07:58:49Z</time>
      </trkpt>
      <trkpt lat="48.33712" lon="-1.91759">
        <ele>63.2</ele>
        <time>2025-10-02T07:58:51Z</time>
      </trkpt>
      <trkpt lat="48.33711" lon="-1.91744">
        <ele>62.6</ele>
        <time>2025-10-02T07:58:52Z</time>
      </trkpt>
      <trkpt lat="48.33709" lon="-1.91709">
        <ele>61.6</ele>
        <time>2025-10-02T07:58:55Z</time>
      </trkpt>
      <trkpt lat="48.33707" lon="-1.91671">
        <ele>60.2</ele>
        <time>2025-10-02T07:58:58Z</time>
      </trkpt>
      <trkpt lat="48.33706" lon="-1.91658">
        <ele>60</ele>
        <time>2025-10-02T07:58:59Z</time>
      </trkpt>
      <trkpt lat="48.33704" lon="-1.91592">
        <ele>59</ele>
        <time>2025-10-02T07:59:04Z</time>
      </trkpt>
      <trkpt lat="48.33704" lon="-1.91566">
        <ele>57.8</ele>
        <time>2025-10-02T07:59:06Z</time>
      </trkpt>
      <trkpt lat="48.33705" lon="-1.91524">
        <ele>56.8</ele>
        <time>2025-10-02T07:59:09Z</time>
      </trkpt>
      <trkpt lat="48.33707" lon="-1.91486">
        <ele>55.4</ele>
        <time>2025-10-02T07:59:12Z</time>
      </trkpt>
      <trkpt lat="48.33708" lon="-1.91472">
        <ele>55</ele>
        <time>2025-10-02T07:59:13Z</time>
      </trkpt>
      <trkpt lat="48.33711" lon="-1.91433">
        <ele>53.8</ele>
        <time>2025-10-02T07:59:16Z</time>
      </trkpt>
      <trkpt lat="48.33712" lon="-1.91406">
        <ele>52.8</ele>
        <time>2025-10-02T07:59:18Z</time>
      </trkpt>
      <trkpt lat="48.33711" lon="-1.91393">
        <ele>52.6</ele>
        <time>2025-10-02T07:59:19Z</time>
      </trkpt>
      <trkpt lat="48.33704" lon="-1.91338">
        <ele>51.6</ele>
        <time>2025-10-02T07:59:23Z</time>
      </trkpt>
      <trkpt lat="48.33702" lon="-1.91325">
        <ele>51</ele>
        <time>2025-10-02T07:59:24Z</time>
      </trkpt>
      <trkpt lat="48.33695" lon="-1.91301">
        <ele>50.4</ele>
        <time>2025-10-02T07:59:26Z</time>
      </trkpt>
      <trkpt lat="48.33687" lon="-1.91278">
        <ele>49.6</ele>
        <time>2025-10-02T07:59:28Z</time>
      </trkpt>
      <trkpt lat="48.33682" lon="-1.91267">
        <ele>49.4</ele>
        <time>2025-10-02T07:59:29Z</time>
      </trkpt>
      <trkpt lat="48.33677" lon="-1.91257">
        <ele>49.2</ele>
        <time>2025-10-02T07:59:30Z</time>
      </trkpt>
      <trkpt lat="48.33672" lon="-1.91247">
        <ele>48.8</ele>
        <time>2025-10-02T07:59:31Z</time>
      </trkpt>
      <trkpt lat="48.33658" lon="-1.91214">
        <ele>47.6</ele>
        <time>2025-10-02T07:59:34Z</time>
      </trkpt>
      <trkpt lat="48.33654" lon="-1.91203">
        <ele>47.2</ele>
        <time>2025-10-02T07:59:35Z</time>
      </trkpt>
      <trkpt lat="48.33649" lon="-1.91179">
        <ele>46.8</ele>
        <time>2025-10-02T07:59:37Z</time>
      </trkpt>
      <trkpt lat="48.33647" lon="-1.91167">
        <ele>46.2</ele>
        <time>2025-10-02T07:59:38Z</time>
      </trkpt>
      <trkpt lat="48.33645" lon="-1.91154">
        <ele>46</ele>
        <time>2025-10-02T07:59:39Z</time>
      </trkpt>
      <trkpt lat="48.33646" lon="-1.91128">
        <ele>45</ele>
        <time>2025-10-02T07:59:41Z</time>
      </trkpt>
      <trkpt lat="48.33647" lon="-1.91117">
        <ele>44</ele>
        <time>2025-10-02T07:59:42Z</time>
      </trkpt>
      <trkpt lat="48.33649" lon="-1.91106">
        <ele>43.6</ele>
        <time>2025-10-02T07:59:43Z</time>
      </trkpt>
      <trkpt lat="48.33653" lon="-1.91087">
        <ele>41.6</ele>
        <time>2025-10-02T07:59:45Z</time>
      </trkpt>
      <trkpt lat="48.33655" lon="-1.9108">
        <ele>40.8</ele>
        <time>2025-10-02T07:59:46Z</time>
      </trkpt>
      <trkpt lat="48.33656" lon="-1.91073">
        <ele>39.8</ele>
        <time>2025-10-02T07:59:47Z</time>
      </trkpt>
      <trkpt lat="48.33656" lon="-1.91066">
        <ele>39.4</ele>
        <time>2025-10-02T07:59:48Z</time>
      </trkpt>
      <trkpt lat="48.33655" lon="-1.91054">
        <ele>39.2</ele>
        <time>2025-10-02T07:59:50Z</time>
      </trkpt>
      <trkpt lat="48.33648" lon="-1.91049">
        <ele>39</ele>
        <time>2025-10-02T07:59:52Z</time>
      </trkpt>
      <trkpt lat="48.33638" lon="-1.91051">
        <ele>38.8</ele>
        <time>2025-10-02T07:59:54Z</time>
      </trkpt>
      <trkpt lat="48.33624" lon="-1.91054">
        <ele>38.8</ele>
        <time>2025-10-02T07:59:57Z</time>
      </trkpt>
      <trkpt lat="48.33614" lon="-1.91056">
        <ele>38.6</ele>
        <time>2025-10-02T08:00:00Z</time>
      </trkpt>
      <trkpt lat="48.33613" lon="-1.91057">
        <ele>38.6</ele>
        <time>2025-10-02T08:00:01Z</time>
      </trkpt>
      <trkpt lat="48.33612" lon="-1.91057">
        <ele>38.6</ele>
        <time>2025-10-02T08:00:05Z</time>
      </trkpt>
      <trkpt lat="48.33612" lon="-1.91057">
        <ele>38.6</ele>
        <time>2025-10-02T08:00:18Z</time>
      </trkpt>
      <trkpt lat="48.33612" lon="-1.91057">
        <ele>38.6</ele>
        <time>2025-10-02T08:00:27Z</time>
      </trkpt>
      <trkpt lat="48.33612" lon="-1.91057">
        <ele>38.6</ele>
        <time>2025-10-02T08:00:34Z</time>
      </trkpt>
      <trkpt lat="48.33612" lon="-1.91057">
        <ele>38.6</ele>
        <time>2025-10-02T08:00:35Z</time>
      </trkpt>
      <trkpt lat="48.33612" lon="-1.91057">
        <ele>38.6</ele>
        <time>2025-10-02T08:00:38Z</time>
      </trkpt>
      <trkpt lat="48.33612" lon="-1.91057">
        <ele>38.6</ele>
        <time>2025-10-02T08:00:39Z</time>
      </trkpt>
      <trkpt lat="48.33612" lon="-1.91057">
        <ele>38.6</ele>
        <time>2025-10-02T08:00:43Z</time>
      </trkpt>
      <trkpt lat="48.33612" lon="-1.91057">
        <ele>38.6</ele>
        <time>2025-10-02T08:00:44Z</time>
      </trkpt>
      <trkpt lat="48.33612" lon="-1.91057">
        <ele>38.6</ele>
        <time>2025-10-02T08:00:46Z</time>
      </trkpt>
      <trkpt lat="48.33612" lon="-1.91057">
        <ele>38.6</ele>
        <time>2025-10-02T08:00:48Z</time>
      </trkpt>
      <trkpt lat="48.33612" lon="-1.91057">
        <ele>38.6</ele>
        <time>2025-10-02T08:00:50Z</time>
      </trkpt>
      <trkpt lat="48.33613" lon="-1.91058">
        <ele>38.6</ele>
        <time>2025-10-02T08:00:59Z</time>
      </trkpt>
      <trkpt lat="48.33613" lon="-1.91058">
        <ele>38.6</ele>
        <time>2025-10-02T08:01:09Z</time>
      </trkpt>
      <trkpt lat="48.33612" lon="-1.91058">
        <ele>38.6</ele>
        <time>2025-10-02T08:01:16Z</time>
      </trkpt>
      <trkpt lat="48.33612" lon="-1.91057">
        <ele>38.6</ele>
        <time>2025-10-02T08:01:20Z</time>
      </trkpt>
      <trkpt lat="48.33612" lon="-1.91057">
        <ele>38.6</ele>
        <time>2025-10-02T08:01:21Z</time>
      </trkpt>
      <trkpt lat="48.33612" lon="-1.91057">
        <ele>38.6</ele>
        <time>2025-10-02T08:01:22Z</time>
      </trkpt>
      <trkpt lat="48.33612" lon="-1.91056">
        <ele>38.6</ele>
        <time>2025-10-02T08:01:23Z</time>
      </trkpt>
      <trkpt lat="48.33612" lon="-1.91056">
        <ele>38.6</ele>
        <time>2025-10-02T08:01:25Z</time>
      </trkpt>
      <trkpt lat="48.33612" lon="-1.91056">
        <ele>38.6</ele>
        <time>2025-10-02T08:01:31Z</time>
      </trkpt>
      <trkpt lat="48.33612" lon="-1.91056">
        <ele>38.6</ele>
        <time>2025-10-02T08:01:33Z</time>
      </trkpt>
      <trkpt lat="48.33612" lon="-1.91056">
        <ele>38.6</ele>
        <time>2025-10-02T08:01:34Z</time>
      </trkpt>
      <trkpt lat="48.33612" lon="-1.91056">
        <ele>38.6</ele>
        <time>2025-10-02T08:01:36Z</time>
      </trkpt>
      <trkpt lat="48.33612" lon="-1.91056">
        <ele>38.6</ele>
        <time>2025-10-02T08:01:37Z</time>
      </trkpt>
      <trkpt lat="48.33612" lon="-1.91056">
        <ele>38.6</ele>
        <time>2025-10-02T08:01:38Z</time>
      </trkpt>
      <trkpt lat="48.33612" lon="-1.91056">
        <ele>38.6</ele>
        <time>2025-10-02T08:01:40Z</time>
      </trkpt>
      <trkpt lat="48.33612" lon="-1.91056">
        <ele>38.6</ele>
        <time>2025-10-02T08:01:44Z</time>
      </trkpt>
      <trkpt lat="48.33612" lon="-1.91056">
        <ele>38.6</ele>
        <time>2025-10-02T08:01:48Z</time>
      </trkpt>
      <trkpt lat="48.33612" lon="-1.91056">
        <ele>38.6</ele>
        <time>2025-10-02T08:01:54Z</time>
      </trkpt>
      <trkpt lat="48.33612" lon="-1.91056">
        <ele>38.6</ele>
        <time>2025-10-02T08:01:56Z</time>
      </trkpt>
      <trkpt lat="48.33612" lon="-1.91056">
        <ele>38.6</ele>
        <time>2025-10-02T08:02:05Z</time>
      </trkpt>
      <trkpt lat="48.33613" lon="-1.91056">
        <ele>38.6</ele>
        <time>2025-10-02T08:02:18Z</time>
      </trkpt>
      <trkpt lat="48.33613" lon="-1.91056">
        <ele>38.6</ele>
        <time>2025-10-02T08:02:19Z</time>
      </trkpt>
      <trkpt lat="48.33613" lon="-1.91056">
        <ele>38.6</ele>
        <time>2025-10-02T08:02:24Z</time>
      </trkpt>
      <trkpt lat="48.33613" lon="-1.91056">
        <ele>38.6</ele>
        <time>2025-10-02T08:02:26Z</time>
      </trkpt>
      <trkpt lat="48.33613" lon="-1.91056">
        <ele>38.6</ele>
        <time>2025-10-02T08:02:27Z</time>
      </trkpt>
      <trkpt lat="48.33613" lon="-1.91056">
        <ele>38.6</ele>
        <time>2025-10-02T08:02:28Z</time>
      </trkpt>
      <trkpt lat="48.33613" lon="-1.91056">
        <ele>38.6</ele>
        <time>2025-10-02T08:02:39Z</time>
      </trkpt>
      <trkpt lat="48.33613" lon="-1.91056">
        <ele>38.6</ele>
        <time>2025-10-02T08:02:47Z</time>
      </trkpt>
      <trkpt lat="48.3361" lon="-1.91054">
        <ele>38.6</ele>
        <time>2025-10-02T08:02:50Z</time>
      </trkpt>
      <trkpt lat="48.33606" lon="-1.91053">
        <ele>38.8</ele>
        <time>2025-10-02T08:02:52Z</time>
      </trkpt>
      <trkpt lat="48.33588" lon="-1.91054">
        <ele>39</ele>
        <time>2025-10-02T08:03:01Z</time>
      </trkpt>
      <trkpt lat="48.33573" lon="-1.91052">
        <ele>39.2</ele>
        <time>2025-10-02T08:03:07Z</time>
      </trkpt>
      <trkpt lat="48.33567" lon="-1.91051">
        <ele>39.4</ele>
        <time>2025-10-02T08:03:09Z</time>
      </trkpt>
      <trkpt lat="48.33558" lon="-1.91049">
        <ele>39.8</ele>
        <time>2025-10-02T08:03:13Z</time>
      </trkpt>
      <trkpt lat="48.33547" lon="-1.91048">
        <ele>40.2</ele>
        <time>2025-10-02T08:03:17Z</time>
      </trkpt>
      <trkpt lat="48.33538" lon="-1.91047">
        <ele>40.8</ele>
        <time>2025-10-02T08:03:21Z</time>
      </trkpt>
      <trkpt lat="48.3353" lon="-1.91045">
        <ele>41</ele>
        <time>2025-10-02T08:03:25Z</time>
      </trkpt>
      <trkpt lat="48.33523" lon="-1.91045">
        <ele>42</ele>
        <time>2025-10-02T08:03:28Z</time>
      </trkpt>
      <trkpt lat="48.33518" lon="-1.91045">
        <ele>42.2</ele>
        <time>2025-10-02T08:03:30Z</time>
      </trkpt>
      <trkpt lat="48.33515" lon="-1.91045">
        <ele>42.2</ele>
        <time>2025-10-02T08:03:31Z</time>
      </trkpt>
      <trkpt lat="48.33513" lon="-1.91045">
        <ele>42.2</ele>
        <time>2025-10-02T08:03:32Z</time>
      </trkpt>
      <trkpt lat="48.33511" lon="-1.91045">
        <ele>42.4</ele>
        <time>2025-10-02T08:03:33Z</time>
      </trkpt>
      <trkpt lat="48.33502" lon="-1.91045">
        <ele>43</ele>
        <time>2025-10-02T08:03:37Z</time>
      </trkpt>
      <trkpt lat="48.33492" lon="-1.91046">
        <ele>43.8</ele>
        <time>2025-10-02T08:03:41Z</time>
      </trkpt>
      <trkpt lat="48.3349" lon="-1.91047">
        <ele>44.2</ele>
        <time>2025-10-02T08:03:42Z</time>
      </trkpt>
      <trkpt lat="48.33474" lon="-1.91052">
        <ele>45.2</ele>
        <time>2025-10-02T08:03:48Z</time>
      </trkpt>
      <trkpt lat="48.33472" lon="-1.91052">
        <ele>45.2</ele>
        <time>2025-10-02T08:03:49Z</time>
      </trkpt>
      <trkpt lat="48.33458" lon="-1.91059">
        <ele>46.2</ele>
        <time>2025-10-02T08:03:54Z</time>
      </trkpt>
      <trkpt lat="48.33449" lon="-1.91066">
        <ele>46.6</ele>
        <time>2025-10-02T08:03:57Z</time>
      </trkpt>
      <trkpt lat="48.33437" lon="-1.91077">
        <ele>47.6</ele>
        <time>2025-10-02T08:04:01Z</time>
      </trkpt>
      <trkpt lat="48.3342" lon="-1.91093">
        <ele>48.6</ele>
        <time>2025-10-02T08:04:06Z</time>
      </trkpt>
      <trkpt lat="48.33407" lon="-1.91108">
        <ele>49.6</ele>
        <time>2025-10-02T08:04:10Z</time>
      </trkpt>
      <trkpt lat="48.33396" lon="-1.91125">
        <ele>50.4</ele>
        <time>2025-10-02T08:04:14Z</time>
      </trkpt>
      <trkpt lat="48.33391" lon="-1.91134">
        <ele>51</ele>
        <time>2025-10-02T08:04:16Z</time>
      </trkpt>
      <trkpt lat="48.33376" lon="-1.91157">
        <ele>52</ele>
        <time>2025-10-02T08:04:21Z</time>
      </trkpt>
      <trkpt lat="48.3337" lon="-1.91162">
        <ele>52.2</ele>
        <time>2025-10-02T08:04:23Z</time>
      </trkpt>
      <trkpt lat="48.33362" lon="-1.91164">
        <ele>52.6</ele>
        <time>2025-10-02T08:04:25Z</time>
      </trkpt>
      <trkpt lat="48.33355" lon="-1.91161">
        <ele>53.2</ele>
        <time>2025-10-02T08:04:27Z</time>
      </trkpt>
      <trkpt lat="48.33327" lon="-1.91143">
        <ele>54.6</ele>
        <time>2025-10-02T08:04:34Z</time>
      </trkpt>
      <trkpt lat="48.33322" lon="-1.91139">
        <ele>54.6</ele>
        <time>2025-10-02T08:04:35Z</time>
      </trkpt>
      <trkpt lat="48.3329" lon="-1.91129">
        <ele>55</ele>
        <time>2025-10-02T08:04:42Z</time>
      </trkpt>
      <trkpt lat="48.3328" lon="-1.9113">
        <ele>55</ele>
        <time>2025-10-02T08:04:44Z</time>
      </trkpt>
      <trkpt lat="48.33263" lon="-1.91136">
        <ele>55</ele>
        <time>2025-10-02T08:04:47Z</time>
      </trkpt>
      <trkpt lat="48.3322" lon="-1.91156">
        <ele>54.4</ele>
        <time>2025-10-02T08:04:55Z</time>
      </trkpt>
      <trkpt lat="48.33197" lon="-1.91164">
        <ele>54</ele>
        <time>2025-10-02T08:04:59Z</time>
      </trkpt>
      <trkpt lat="48.33176" lon="-1.91174">
        <ele>54.4</ele>
        <time>2025-10-02T08:05:03Z</time>
      </trkpt>
      <trkpt lat="48.33165" lon="-1.91178">
        <ele>54.6</ele>
        <time>2025-10-02T08:05:05Z</time>
      </trkpt>
      <trkpt lat="48.33144" lon="-1.91181">
        <ele>55</ele>
        <time>2025-10-02T08:05:09Z</time>
      </trkpt>
      <trkpt lat="48.33139" lon="-1.9118">
        <ele>55.2</ele>
        <time>2025-10-02T08:05:10Z</time>
      </trkpt>
      <trkpt lat="48.33125" lon="-1.91175">
        <ele>55.6</ele>
        <time>2025-10-02T08:05:13Z</time>
      </trkpt>
      <trkpt lat="48.33114" lon="-1.91161">
        <ele>55.6</ele>
        <time>2025-10-02T08:05:17Z</time>
      </trkpt>
      <trkpt lat="48.33113" lon="-1.91153">
        <ele>56</ele>
        <time>2025-10-02T08:05:18Z</time>
      </trkpt>
      <trkpt lat="48.33112" lon="-1.91146">
        <ele>56.6</ele>
        <time>2025-10-02T08:05:19Z</time>
      </trkpt>
      <trkpt lat="48.33112" lon="-1.91123">
        <ele>57</ele>
        <time>2025-10-02T08:05:22Z</time>
      </trkpt>
      <trkpt lat="48.3311" lon="-1.911">
        <ele>57.6</ele>
        <time>2025-10-02T08:05:25Z</time>
      </trkpt>
      <trkpt lat="48.33107" lon="-1.9107">
        <ele>58.6</ele>
        <time>2025-10-02T08:05:29Z</time>
      </trkpt>
      <trkpt lat="48.33106" lon="-1.91062">
        <ele>58.8</ele>
        <time>2025-10-02T08:05:30Z</time>
      </trkpt>
      <trkpt lat="48.33102" lon="-1.91032">
        <ele>60</ele>
        <time>2025-10-02T08:05:34Z</time>
      </trkpt>
      <trkpt lat="48.33098" lon="-1.91003">
        <ele>61.4</ele>
        <time>2025-10-02T08:05:38Z</time>
      </trkpt>
      <trkpt lat="48.33096" lon="-1.90988">
        <ele>61.8</ele>
        <time>2025-10-02T08:05:40Z</time>
      </trkpt>
      <trkpt lat="48.33092" lon="-1.90966">
        <ele>62.6</ele>
        <time>2025-10-02T08:05:43Z</time>
      </trkpt>
      <trkpt lat="48.33088" lon="-1.90944">
        <ele>63.6</ele>
        <time>2025-10-02T08:05:46Z</time>
      </trkpt>
      <trkpt lat="48.33081" lon="-1.90908">
        <ele>64.6</ele>
        <time>2025-10-02T08:05:51Z</time>
      </trkpt>
      <trkpt lat="48.33075" lon="-1.90879">
        <ele>65.2</ele>
        <time>2025-10-02T08:05:55Z</time>
      </trkpt>
      <trkpt lat="48.33067" lon="-1.90841">
        <ele>65.8</ele>
        <time>2025-10-02T08:06:00Z</time>
      </trkpt>
      <trkpt lat="48.33059" lon="-1.90803">
        <ele>65.8</ele>
        <time>2025-10-02T08:06:05Z</time>
      </trkpt>
      <trkpt lat="48.33044" lon="-1.90722">
        <ele>65.8</ele>
        <time>2025-10-02T08:06:15Z</time>
      </trkpt>
      <trkpt lat="48.33028" lon="-1.9064">
        <ele>65.8</ele>
        <time>2025-10-02T08:06:25Z</time>
      </trkpt>
      <trkpt lat="48.33025" lon="-1.90625">
        <ele>65.8</ele>
        <time>2025-10-02T08:06:27Z</time>
      </trkpt>
      <trkpt lat="48.33023" lon="-1.90617">
        <ele>65.8</ele>
        <time>2025-10-02T08:06:28Z</time>
      </trkpt>
      <trkpt lat="48.33015" lon="-1.90606">
        <ele>65.8</ele>
        <time>2025-10-02T08:06:30Z</time>
      </trkpt>
      <trkpt lat="48.33005" lon="-1.90604">
        <ele>65.6</ele>
        <time>2025-10-02T08:06:32Z</time>
      </trkpt>
      <trkpt lat="48.33" lon="-1.90606">
        <ele>65.6</ele>
        <time>2025-10-02T08:06:33Z</time>
      </trkpt>
      <trkpt lat="48.32944" lon="-1.90626">
        <ele>65.6</ele>
        <time>2025-10-02T08:06:43Z</time>
      </trkpt>
      <trkpt lat="48.32932" lon="-1.9063">
        <ele>65.8</ele>
        <time>2025-10-02T08:06:45Z</time>
      </trkpt>
      <trkpt lat="48.32887" lon="-1.90644">
        <ele>66.8</ele>
        <time>2025-10-02T08:06:53Z</time>
      </trkpt>
      <trkpt lat="48.32881" lon="-1.90646">
        <ele>66.8</ele>
        <time>2025-10-02T08:06:54Z</time>
      </trkpt>
      <trkpt lat="48.3283" lon="-1.90662">
        <ele>67.6</ele>
        <time>2025-10-02T08:07:03Z</time>
      </trkpt>
      <trkpt lat="48.32825" lon="-1.90664">
        <ele>67.8</ele>
        <time>2025-10-02T08:07:04Z</time>
      </trkpt>
      <trkpt lat="48.32783" lon="-1.90684">
        <ele>68.2</ele>
        <time>2025-10-02T08:07:12Z</time>
      </trkpt>
      <trkpt lat="48.3273" lon="-1.9072">
        <ele>68.4</ele>
        <time>2025-10-02T08:07:22Z</time>
      </trkpt>
      <trkpt lat="48.32724" lon="-1.90724">
        <ele>68.6</ele>
        <time>2025-10-02T08:07:23Z</time>
      </trkpt>
      <trkpt lat="48.32683" lon="-1.90758">
        <ele>68.8</ele>
        <time>2025-10-02T08:07:31Z</time>
      </trkpt>
      <trkpt lat="48.32673" lon="-1.90766">
        <ele>69.2</ele>
        <time>2025-10-02T08:07:33Z</time>
      </trkpt>
      <trkpt lat="48.32632" lon="-1.90801">
        <ele>69.8</ele>
        <time>2025-10-02T08:07:41Z</time>
      </trkpt>
      <trkpt lat="48.32622" lon="-1.90808">
        <ele>70.2</ele>
        <time>2025-10-02T08:07:44Z</time>
      </trkpt>
      <trkpt lat="48.32577" lon="-1.90831">
        <ele>70.8</ele>
        <time>2025-10-02T08:07:51Z</time>
      </trkpt>
      <trkpt lat="48.32571" lon="-1.90833">
        <ele>71</ele>
        <time>2025-10-02T08:07:52Z</time>
      </trkpt>
      <trkpt lat="48.3253" lon="-1.90838">
        <ele>72</ele>
        <time>2025-10-02T08:07:59Z</time>
      </trkpt>
      <trkpt lat="48.32524" lon="-1.90838">
        <ele>72.2</ele>
        <time>2025-10-02T08:08:00Z</time>
      </trkpt>
      <trkpt lat="48.32466" lon="-1.90842">
        <ele>72.8</ele>
        <time>2025-10-02T08:08:10Z</time>
      </trkpt>
      <trkpt lat="48.32455" lon="-1.90844">
        <ele>72.8</ele>
        <time>2025-10-02T08:08:12Z</time>
      </trkpt>
      <trkpt lat="48.32431" lon="-1.90849">
        <ele>73</ele>
        <time>2025-10-02T08:08:16Z</time>
      </trkpt>
      <trkpt lat="48.32396" lon="-1.9086">
        <ele>73.6</ele>
        <time>2025-10-02T08:08:22Z</time>
      </trkpt>
      <trkpt lat="48.32391" lon="-1.90862">
        <ele>73.8</ele>
        <time>2025-10-02T08:08:23Z</time>
      </trkpt>
      <trkpt lat="48.32379" lon="-1.90866">
        <ele>74</ele>
        <time>2025-10-02T08:08:25Z</time>
      </trkpt>
      <trkpt lat="48.32347" lon="-1.90881">
        <ele>74.6</ele>
        <time>2025-10-02T08:08:31Z</time>
      </trkpt>
      <trkpt lat="48.32335" lon="-1.90886">
        <ele>75.2</ele>
        <time>2025-10-02T08:08:33Z</time>
      </trkpt>
      <trkpt lat="48.32307" lon="-1.90901">
        <ele>76.4</ele>
        <time>2025-10-02T08:08:38Z</time>
      </trkpt>
      <trkpt lat="48.32285" lon="-1.90913">
        <ele>77</ele>
        <time>2025-10-02T08:08:42Z</time>
      </trkpt>
      <trkpt lat="48.32274" lon="-1.90919">
        <ele>77.8</ele>
        <time>2025-10-02T08:08:44Z</time>
      </trkpt>
      <trkpt lat="48.32257" lon="-1.90926">
        <ele>78.2</ele>
        <time>2025-10-02T08:08:47Z</time>
      </trkpt>
      <trkpt lat="48.32251" lon="-1.90927">
        <ele>78.4</ele>
        <time>2025-10-02T08:08:48Z</time>
      </trkpt>
      <trkpt lat="48.3224" lon="-1.90928">
        <ele>79</ele>
        <time>2025-10-02T08:08:50Z</time>
      </trkpt>
      <trkpt lat="48.32217" lon="-1.9093">
        <ele>80</ele>
        <time>2025-10-02T08:08:54Z</time>
      </trkpt>
      <trkpt lat="48.32206" lon="-1.90931">
        <ele>80.4</ele>
        <time>2025-10-02T08:08:56Z</time>
      </trkpt>
      <trkpt lat="48.32195" lon="-1.90932">
        <ele>81.2</ele>
        <time>2025-10-02T08:08:58Z</time>
      </trkpt>
      <trkpt lat="48.32172" lon="-1.90936">
        <ele>82.6</ele>
        <time>2025-10-02T08:09:02Z</time>
      </trkpt>
      <trkpt lat="48.32166" lon="-1.90937">
        <ele>82.6</ele>
        <time>2025-10-02T08:09:03Z</time>
      </trkpt>
      <trkpt lat="48.32139" lon="-1.90946">
        <ele>83.2</ele>
        <time>2025-10-02T08:09:08Z</time>
      </trkpt>
      <trkpt lat="48.32124" lon="-1.9095">
        <ele>83.2</ele>
        <time>2025-10-02T08:09:11Z</time>
      </trkpt>
      <trkpt lat="48.32116" lon="-1.90955">
        <ele>83.2</ele>
        <time>2025-10-02T08:09:13Z</time>
      </trkpt>
      <trkpt lat="48.32111" lon="-1.90963">
        <ele>83.4</ele>
        <time>2025-10-02T08:09:15Z</time>
      </trkpt>
      <trkpt lat="48.32109" lon="-1.90975">
        <ele>83.4</ele>
        <time>2025-10-02T08:09:17Z</time>
      </trkpt>
      <trkpt lat="48.3211" lon="-1.90989">
        <ele>83.6</ele>
        <time>2025-10-02T08:09:19Z</time>
      </trkpt>
      <trkpt lat="48.32113" lon="-1.91037">
        <ele>84</ele>
        <time>2025-10-02T08:09:26Z</time>
      </trkpt>
      <trkpt lat="48.32112" lon="-1.91094">
        <ele>84</ele>
        <time>2025-10-02T08:09:32Z</time>
      </trkpt>
      <trkpt lat="48.32107" lon="-1.91146">
        <ele>83.4</ele>
        <time>2025-10-02T08:09:38Z</time>
      </trkpt>
      <trkpt lat="48.32104" lon="-1.91183">
        <ele>82.6</ele>
        <time>2025-10-02T08:09:42Z</time>
      </trkpt>
      <trkpt lat="48.32104" lon="-1.91192">
        <ele>82.6</ele>
        <time>2025-10-02T08:09:43Z</time>
      </trkpt>
      <trkpt lat="48.32101" lon="-1.91211">
        <ele>82</ele>
        <time>2025-10-02T08:09:45Z</time>
      </trkpt>
      <trkpt lat="48.32096" lon="-1.91228">
        <ele>81.8</ele>
        <time>2025-10-02T08:09:47Z</time>
      </trkpt>
      <trkpt lat="48.32085" lon="-1.91253">
        <ele>81.4</ele>
        <time>2025-10-02T08:09:50Z</time>
      </trkpt>
      <trkpt lat="48.32074" lon="-1.91282">
        <ele>80.6</ele>
        <time>2025-10-02T08:09:53Z</time>
      </trkpt>
      <trkpt lat="48.32072" lon="-1.91293">
        <ele>80.4</ele>
        <time>2025-10-02T08:09:54Z</time>
      </trkpt>
      <trkpt lat="48.32071" lon="-1.91305">
        <ele>79.6</ele>
        <time>2025-10-02T08:09:55Z</time>
      </trkpt>
      <trkpt lat="48.3207" lon="-1.91318">
        <ele>79.4</ele>
        <time>2025-10-02T08:09:56Z</time>
      </trkpt>
      <trkpt lat="48.3207" lon="-1.91329">
        <ele>78.8</ele>
        <time>2025-10-02T08:09:57Z</time>
      </trkpt>
      <trkpt lat="48.3207" lon="-1.91357">
        <ele>77.6</ele>
        <time>2025-10-02T08:09:59Z</time>
      </trkpt>
      <trkpt lat="48.32071" lon="-1.91387">
        <ele>76.6</ele>
        <time>2025-10-02T08:10:01Z</time>
      </trkpt>
      <trkpt lat="48.32072" lon="-1.91403">
        <ele>75.6</ele>
        <time>2025-10-02T08:10:02Z</time>
      </trkpt>
      <trkpt lat="48.32073" lon="-1.9142">
        <ele>75.2</ele>
        <time>2025-10-02T08:10:03Z</time>
      </trkpt>
      <trkpt lat="48.32075" lon="-1.9144">
        <ele>73.8</ele>
        <time>2025-10-02T08:10:04Z</time>
      </trkpt>
      <trkpt lat="48.32081" lon="-1.91474">
        <ele>72.2</ele>
        <time>2025-10-02T08:10:06Z</time>
      </trkpt>
      <trkpt lat="48.32088" lon="-1.91508">
        <ele>70.8</ele>
        <time>2025-10-02T08:10:08Z</time>
      </trkpt>
      <trkpt lat="48.32098" lon="-1.91569">
        <ele>69.8</ele>
        <time>2025-10-02T08:10:12Z</time>
      </trkpt>
      <trkpt lat="48.32102" lon="-1.91618">
        <ele>70</ele>
        <time>2025-10-02T08:10:16Z</time>
      </trkpt>
      <trkpt lat="48.32107" lon="-1.91665">
        <ele>70.8</ele>
        <time>2025-10-02T08:10:21Z</time>
      </trkpt>
      <trkpt lat="48.3211" lon="-1.91707">
        <ele>72</ele>
        <time>2025-10-02T08:10:26Z</time>
      </trkpt>
      <trkpt lat="48.32109" lon="-1.91716">
        <ele>72.2</ele>
        <time>2025-10-02T08:10:27Z</time>
      </trkpt>
      <trkpt lat="48.32107" lon="-1.91723">
        <ele>72.4</ele>
        <time>2025-10-02T08:10:28Z</time>
      </trkpt>
      <trkpt lat="48.321" lon="-1.91737">
        <ele>72.8</ele>
        <time>2025-10-02T08:10:30Z</time>
      </trkpt>
      <trkpt lat="48.32095" lon="-1.91741">
        <ele>73</ele>
        <time>2025-10-02T08:10:31Z</time>
      </trkpt>
      <trkpt lat="48.32078" lon="-1.91751">
        <ele>73.6</ele>
        <time>2025-10-02T08:10:34Z</time>
      </trkpt>
      <trkpt lat="48.3205" lon="-1.91766">
        <ele>74.2</ele>
        <time>2025-10-02T08:10:39Z</time>
      </trkpt>
      <trkpt lat="48.32018" lon="-1.91783">
        <ele>74.4</ele>
        <time>2025-10-02T08:10:45Z</time>
      </trkpt>
      <trkpt lat="48.31991" lon="-1.91798">
        <ele>75.2</ele>
        <time>2025-10-02T08:10:50Z</time>
      </trkpt>
      <trkpt lat="48.31973" lon="-1.9181">
        <ele>75.6</ele>
        <time>2025-10-02T08:10:54Z</time>
      </trkpt>
      <trkpt lat="48.31959" lon="-1.91819">
        <ele>76.2</ele>
        <time>2025-10-02T08:10:57Z</time>
      </trkpt>
      <trkpt lat="48.31943" lon="-1.91836">
        <ele>76.4</ele>
        <time>2025-10-02T08:11:01Z</time>
      </trkpt>
      <trkpt lat="48.3194" lon="-1.91842">
        <ele>76.6</ele>
        <time>2025-10-02T08:11:02Z</time>
      </trkpt>
      <trkpt lat="48.31935" lon="-1.91855">
        <ele>76.8</ele>
        <time>2025-10-02T08:11:04Z</time>
      </trkpt>
      <trkpt lat="48.31931" lon="-1.9187">
        <ele>77.2</ele>
        <time>2025-10-02T08:11:06Z</time>
      </trkpt>
      <trkpt lat="48.31929" lon="-1.91892">
        <ele>77.6</ele>
        <time>2025-10-02T08:11:09Z</time>
      </trkpt>
      <trkpt lat="48.31929" lon="-1.91915">
        <ele>78.4</ele>
        <time>2025-10-02T08:11:12Z</time>
      </trkpt>
      <trkpt lat="48.31931" lon="-1.91946">
        <ele>79.6</ele>
        <time>2025-10-02T08:11:16Z</time>
      </trkpt>
      <trkpt lat="48.31932" lon="-1.91976">
        <ele>80.8</ele>
        <time>2025-10-02T08:11:20Z</time>
      </trkpt>
      <trkpt lat="48.31932" lon="-1.91999">
        <ele>81.6</ele>
        <time>2025-10-02T08:11:23Z</time>
      </trkpt>
      <trkpt lat="48.31933" lon="-1.92015">
        <ele>81.8</ele>
        <time>2025-10-02T08:11:25Z</time>
      </trkpt>
      <trkpt lat="48.31933" lon="-1.92038">
        <ele>82.8</ele>
        <time>2025-10-02T08:11:28Z</time>
      </trkpt>
      <trkpt lat="48.31934" lon="-1.92077">
        <ele>83.8</ele>
        <time>2025-10-02T08:11:33Z</time>
      </trkpt>
      <trkpt lat="48.31934" lon="-1.92085">
        <ele>84.2</ele>
        <time>2025-10-02T08:11:34Z</time>
      </trkpt>
      <trkpt lat="48.31935" lon="-1.92116">
        <ele>85</ele>
        <time>2025-10-02T08:11:38Z</time>
      </trkpt>
      <trkpt lat="48.31935" lon="-1.92131">
        <ele>85.8</ele>
        <time>2025-10-02T08:11:40Z</time>
      </trkpt>
      <trkpt lat="48.31933" lon="-1.92147">
        <ele>86</ele>
        <time>2025-10-02T08:11:42Z</time>
      </trkpt>
      <trkpt lat="48.31932" lon="-1.92154">
        <ele>86.2</ele>
        <time>2025-10-02T08:11:43Z</time>
      </trkpt>
      <trkpt lat="48.31929" lon="-1.9216">
        <ele>86.6</ele>
        <time>2025-10-02T08:11:44Z</time>
      </trkpt>
      <trkpt lat="48.31917" lon="-1.92175">
        <ele>87.2</ele>
        <time>2025-10-02T08:11:47Z</time>
      </trkpt>
      <trkpt lat="48.31913" lon="-1.92179">
        <ele>87.2</ele>
        <time>2025-10-02T08:11:48Z</time>
      </trkpt>
      <trkpt lat="48.31893" lon="-1.92193">
        <ele>87.2</ele>
        <time>2025-10-02T08:11:52Z</time>
      </trkpt>
      <trkpt lat="48.31877" lon="-1.92203">
        <ele>87</ele>
        <time>2025-10-02T08:11:55Z</time>
      </trkpt>
      <trkpt lat="48.31833" lon="-1.9222">
        <ele>86.8</ele>
        <time>2025-10-02T08:12:03Z</time>
      </trkpt>
      <trkpt lat="48.31787" lon="-1.92227">
        <ele>86.2</ele>
        <time>2025-10-02T08:12:11Z</time>
      </trkpt>
      <trkpt lat="48.3177" lon="-1.92235">
        <ele>85.6</ele>
        <time>2025-10-02T08:12:14Z</time>
      </trkpt>
      <trkpt lat="48.31759" lon="-1.92243">
        <ele>85.6</ele>
        <time>2025-10-02T08:12:16Z</time>
      </trkpt>
      <trkpt lat="48.31709" lon="-1.92283">
        <ele>86</ele>
        <time>2025-10-02T08:12:26Z</time>
      </trkpt>
      <trkpt lat="48.31698" lon="-1.92291">
        <ele>86</ele>
        <time>2025-10-02T08:12:28Z</time>
      </trkpt>
      <trkpt lat="48.3165" lon="-1.92328">
        <ele>86.2</ele>
        <time>2025-10-02T08:12:37Z</time>
      </trkpt>
      <trkpt lat="48.31635" lon="-1.92341">
        <ele>86.4</ele>
        <time>2025-10-02T08:12:40Z</time>
      </trkpt>
      <trkpt lat="48.31586" lon="-1.92378">
        <ele>86.8</ele>
        <time>2025-10-02T08:12:49Z</time>
      </trkpt>
      <trkpt lat="48.31576" lon="-1.92386">
        <ele>86.8</ele>
        <time>2025-10-02T08:12:51Z</time>
      </trkpt>
      <trkpt lat="48.31555" lon="-1.92403">
        <ele>87.4</ele>
        <time>2025-10-02T08:12:55Z</time>
      </trkpt>
      <trkpt lat="48.31507" lon="-1.9244">
        <ele>88.4</ele>
        <time>2025-10-02T08:13:04Z</time>
      </trkpt>
      <trkpt lat="48.31491" lon="-1.92452">
        <ele>89</ele>
        <time>2025-10-02T08:13:07Z</time>
      </trkpt>
      <trkpt lat="48.31475" lon="-1.92464">
        <ele>89.6</ele>
        <time>2025-10-02T08:13:10Z</time>
      </trkpt>
      <trkpt lat="48.31443" lon="-1.92489">
        <ele>89.6</ele>
        <time>2025-10-02T08:13:16Z</time>
      </trkpt>
      <trkpt lat="48.31431" lon="-1.92498">
        <ele>89.8</ele>
        <time>2025-10-02T08:13:18Z</time>
      </trkpt>
      <trkpt lat="48.31404" lon="-1.92519">
        <ele>90</ele>
        <time>2025-10-02T08:13:23Z</time>
      </trkpt>
      <trkpt lat="48.31371" lon="-1.92545">
        <ele>89.8</ele>
        <time>2025-10-02T08:13:29Z</time>
      </trkpt>
      <trkpt lat="48.31344" lon="-1.92578">
        <ele>89.8</ele>
        <time>2025-10-02T08:13:35Z</time>
      </trkpt>
      <trkpt lat="48.31308" lon="-1.92649">
        <ele>90.4</ele>
        <time>2025-10-02T08:13:45Z</time>
      </trkpt>
      <trkpt lat="48.31304" lon="-1.92656">
        <ele>90.6</ele>
        <time>2025-10-02T08:13:46Z</time>
      </trkpt>
      <trkpt lat="48.313" lon="-1.92663">
        <ele>90.6</ele>
        <time>2025-10-02T08:13:47Z</time>
      </trkpt>
      <trkpt lat="48.31263" lon="-1.92717">
        <ele>90.8</ele>
        <time>2025-10-02T08:13:56Z</time>
      </trkpt>
      <trkpt lat="48.31228" lon="-1.92773">
        <ele>91</ele>
        <time>2025-10-02T08:14:05Z</time>
      </trkpt>
      <trkpt lat="48.31209" lon="-1.92805">
        <ele>91.6</ele>
        <time>2025-10-02T08:14:10Z</time>
      </trkpt>
      <trkpt lat="48.31193" lon="-1.92832">
        <ele>92.2</ele>
        <time>2025-10-02T08:14:14Z</time>
      </trkpt>
      <trkpt lat="48.3116" lon="-1.92883">
        <ele>92.6</ele>
        <time>2025-10-02T08:14:22Z</time>
      </trkpt>
      <trkpt lat="48.3115" lon="-1.92893">
        <ele>93</ele>
        <time>2025-10-02T08:14:24Z</time>
      </trkpt>
      <trkpt lat="48.31135" lon="-1.92907">
        <ele>93.6</ele>
        <time>2025-10-02T08:14:27Z</time>
      </trkpt>
      <trkpt lat="48.31108" lon="-1.92927">
        <ele>93</ele>
        <time>2025-10-02T08:14:32Z</time>
      </trkpt>
      <trkpt lat="48.311" lon="-1.92939">
        <ele>92.8</ele>
        <time>2025-10-02T08:14:34Z</time>
      </trkpt>
      <trkpt lat="48.31096" lon="-1.92946">
        <ele>92.6</ele>
        <time>2025-10-02T08:14:35Z</time>
      </trkpt>
      <trkpt lat="48.31093" lon="-1.92953">
        <ele>92.4</ele>
        <time>2025-10-02T08:14:36Z</time>
      </trkpt>
      <trkpt lat="48.31071" lon="-1.93016">
        <ele>92.4</ele>
        <time>2025-10-02T08:14:44Z</time>
      </trkpt>
      <trkpt lat="48.31061" lon="-1.93039">
        <ele>92.4</ele>
        <time>2025-10-02T08:14:47Z</time>
      </trkpt>
      <trkpt lat="48.31052" lon="-1.93051">
        <ele>92.6</ele>
        <time>2025-10-02T08:14:49Z</time>
      </trkpt>
      <trkpt lat="48.31048" lon="-1.93057">
        <ele>92.6</ele>
        <time>2025-10-02T08:14:50Z</time>
      </trkpt>
      <trkpt lat="48.31027" lon="-1.93072">
        <ele>92.4</ele>
        <time>2025-10-02T08:14:54Z</time>
      </trkpt>
      <trkpt lat="48.30985" lon="-1.93093">
        <ele>91.6</ele>
        <time>2025-10-02T08:15:02Z</time>
      </trkpt>
      <trkpt lat="48.30983" lon="-1.93095">
        <ele>91.4</ele>
        <time>2025-10-02T08:15:03Z</time>
      </trkpt>
      <trkpt lat="48.30969" lon="-1.93099">
        <ele>91.4</ele>
        <time>2025-10-02T08:15:07Z</time>
      </trkpt>
      <trkpt lat="48.30937" lon="-1.93107">
        <ele>91.6</ele>
        <time>2025-10-02T08:15:13Z</time>
      </trkpt>
      <trkpt lat="48.30886" lon="-1.93128">
        <ele>91.4</ele>
        <time>2025-10-02T08:15:22Z</time>
      </trkpt>
      <trkpt lat="48.30846" lon="-1.93146">
        <ele>91.2</ele>
        <time>2025-10-02T08:15:29Z</time>
      </trkpt>
      <trkpt lat="48.30823" lon="-1.93156">
        <ele>91.2</ele>
        <time>2025-10-02T08:15:33Z</time>
      </trkpt>
      <trkpt lat="48.3078" lon="-1.93176">
        <ele>91</ele>
        <time>2025-10-02T08:15:41Z</time>
      </trkpt>
      <trkpt lat="48.30724" lon="-1.93203">
        <ele>91.2</ele>
        <time>2025-10-02T08:15:51Z</time>
      </trkpt>
      <trkpt lat="48.30669" lon="-1.93236">
        <ele>92.6</ele>
        <time>2025-10-02T08:16:01Z</time>
      </trkpt>
      <trkpt lat="48.30635" lon="-1.93257">
        <ele>93</ele>
        <time>2025-10-02T08:16:07Z</time>
      </trkpt>
      <trkpt lat="48.30617" lon="-1.93268">
        <ele>93.8</ele>
        <time>2025-10-02T08:16:11Z</time>
      </trkpt>
      <trkpt lat="48.30596" lon="-1.93277">
        <ele>94</ele>
        <time>2025-10-02T08:16:15Z</time>
      </trkpt>
      <trkpt lat="48.30587" lon="-1.93279">
        <ele>94.2</ele>
        <time>2025-10-02T08:16:17Z</time>
      </trkpt>
      <trkpt lat="48.30582" lon="-1.93279">
        <ele>94.4</ele>
        <time>2025-10-02T08:16:18Z</time>
      </trkpt>
      <trkpt lat="48.30561" lon="-1.93277">
        <ele>94.8</ele>
        <time>2025-10-02T08:16:22Z</time>
      </trkpt>
      <trkpt lat="48.30556" lon="-1.93279">
        <ele>94.8</ele>
        <time>2025-10-02T08:16:23Z</time>
      </trkpt>
      <trkpt lat="48.30547" lon="-1.93284">
        <ele>95.2</ele>
        <time>2025-10-02T08:16:25Z</time>
      </trkpt>
      <trkpt lat="48.30538" lon="-1.9329">
        <ele>96</ele>
        <time>2025-10-02T08:16:27Z</time>
      </trkpt>
      <trkpt lat="48.30521" lon="-1.93303">
        <ele>97.2</ele>
        <time>2025-10-02T08:16:31Z</time>
      </trkpt>
      <trkpt lat="48.30509" lon="-1.93313">
        <ele>98.2</ele>
        <time>2025-10-02T08:16:34Z</time>
      </trkpt>
      <trkpt lat="48.30506" lon="-1.93315">
        <ele>98.4</ele>
        <time>2025-10-02T08:16:35Z</time>
      </trkpt>
      <trkpt lat="48.30498" lon="-1.93321">
        <ele>99.2</ele>
        <time>2025-10-02T08:16:37Z</time>
      </trkpt>
      <trkpt lat="48.30483" lon="-1.93332">
        <ele>100.4</ele>
        <time>2025-10-02T08:16:41Z</time>
      </trkpt>
      <trkpt lat="48.30472" lon="-1.93341">
        <ele>102</ele>
        <time>2025-10-02T08:16:44Z</time>
      </trkpt>
      <trkpt lat="48.30464" lon="-1.93347">
        <ele>102.6</ele>
        <time>2025-10-02T08:16:46Z</time>
      </trkpt>
      <trkpt lat="48.30459" lon="-1.9335">
        <ele>103</ele>
        <time>2025-10-02T08:16:47Z</time>
      </trkpt>
      <trkpt lat="48.30446" lon="-1.93359">
        <ele>104.2</ele>
        <time>2025-10-02T08:16:50Z</time>
      </trkpt>
      <trkpt lat="48.30434" lon="-1.93368">
        <ele>105.4</ele>
        <time>2025-10-02T08:16:53Z</time>
      </trkpt>
      <trkpt lat="48.30427" lon="-1.93373">
        <ele>106</ele>
        <time>2025-10-02T08:16:55Z</time>
      </trkpt>
      <trkpt lat="48.30423" lon="-1.93375">
        <ele>106.6</ele>
        <time>2025-10-02T08:16:56Z</time>
      </trkpt>
      <trkpt lat="48.3042" lon="-1.93378">
        <ele>106.8</ele>
        <time>2025-10-02T08:16:57Z</time>
      </trkpt>
      <trkpt lat="48.30413" lon="-1.93386">
        <ele>108</ele>
        <time>2025-10-02T08:16:59Z</time>
      </trkpt>
      <trkpt lat="48.30408" lon="-1.93395">
        <ele>108.8</ele>
        <time>2025-10-02T08:17:01Z</time>
      </trkpt>
      <trkpt lat="48.30406" lon="-1.93401">
        <ele>109.2</ele>
        <time>2025-10-02T08:17:02Z</time>
      </trkpt>
      <trkpt lat="48.30403" lon="-1.93417">
        <ele>110.4</ele>
        <time>2025-10-02T08:17:05Z</time>
      </trkpt>
      <trkpt lat="48.30402" lon="-1.93423">
        <ele>110.8</ele>
        <time>2025-10-02T08:17:06Z</time>
      </trkpt>
      <trkpt lat="48.30401" lon="-1.93428">
        <ele>111.4</ele>
        <time>2025-10-02T08:17:07Z</time>
      </trkpt>
      <trkpt lat="48.30401" lon="-1.93447">
        <ele>112.6</ele>
        <time>2025-10-02T08:17:10Z</time>
      </trkpt>
      <trkpt lat="48.30401" lon="-1.93465">
        <ele>113.6</ele>
        <time>2025-10-02T08:17:13Z</time>
      </trkpt>
      <trkpt lat="48.30401" lon="-1.93472">
        <ele>114.4</ele>
        <time>2025-10-02T08:17:14Z</time>
      </trkpt>
      <trkpt lat="48.30398" lon="-1.93492">
        <ele>116.2</ele>
        <time>2025-10-02T08:17:18Z</time>
      </trkpt>
      <trkpt lat="48.30395" lon="-1.93502">
        <ele>116.6</ele>
        <time>2025-10-02T08:17:20Z</time>
      </trkpt>
      <trkpt lat="48.30391" lon="-1.93511">
        <ele>117.4</ele>
        <time>2025-10-02T08:17:22Z</time>
      </trkpt>
      <trkpt lat="48.3038" lon="-1.93526">
        <ele>118.2</ele>
        <time>2025-10-02T08:17:26Z</time>
      </trkpt>
      <trkpt lat="48.30378" lon="-1.93529">
        <ele>118.4</ele>
        <time>2025-10-02T08:17:27Z</time>
      </trkpt>
      <trkpt lat="48.30362" lon="-1.93542">
        <ele>119.4</ele>
        <time>2025-10-02T08:17:32Z</time>
      </trkpt>
      <trkpt lat="48.30352" lon="-1.9355">
        <ele>120.2</ele>
        <time>2025-10-02T08:17:35Z</time>
      </trkpt>
      <trkpt lat="48.30345" lon="-1.93555">
        <ele>120.6</ele>
        <time>2025-10-02T08:17:37Z</time>
      </trkpt>
      <trkpt lat="48.30324" lon="-1.93569">
        <ele>121.6</ele>
        <time>2025-10-02T08:17:43Z</time>
      </trkpt>
      <trkpt lat="48.3032" lon="-1.93572">
        <ele>121.6</ele>
        <time>2025-10-02T08:17:44Z</time>
      </trkpt>
      <trkpt lat="48.30295" lon="-1.93586">
        <ele>122.6</ele>
        <time>2025-10-02T08:17:51Z</time>
      </trkpt>
      <trkpt lat="48.30287" lon="-1.93592">
        <ele>122.8</ele>
        <time>2025-10-02T08:17:53Z</time>
      </trkpt>
      <trkpt lat="48.30254" lon="-1.93619">
        <ele>123.2</ele>
        <time>2025-10-02T08:18:02Z</time>
      </trkpt>
      <trkpt lat="48.30244" lon="-1.93629">
        <ele>123.6</ele>
        <time>2025-10-02T08:18:05Z</time>
      </trkpt>
      <trkpt lat="48.3024" lon="-1.93632">
        <ele>123.8</ele>
        <time>2025-10-02T08:18:06Z</time>
      </trkpt>
      <trkpt lat="48.30232" lon="-1.93637">
        <ele>124</ele>
        <time>2025-10-02T08:18:08Z</time>
      </trkpt>
      <trkpt lat="48.30215" lon="-1.93653">
        <ele>124.4</ele>
        <time>2025-10-02T08:18:13Z</time>
      </trkpt>
      <trkpt lat="48.30205" lon="-1.93663">
        <ele>124.8</ele>
        <time>2025-10-02T08:18:16Z</time>
      </trkpt>
      <trkpt lat="48.30198" lon="-1.9367">
        <ele>125</ele>
        <time>2025-10-02T08:18:19Z</time>
      </trkpt>
      <trkpt lat="48.30163" lon="-1.93707">
        <ele>125.8</ele>
        <time>2025-10-02T08:18:29Z</time>
      </trkpt>
      <trkpt lat="48.30151" lon="-1.93725">
        <ele>126.2</ele>
        <time>2025-10-02T08:18:33Z</time>
      </trkpt>
      <trkpt lat="48.30148" lon="-1.9373">
        <ele>126.2</ele>
        <time>2025-10-02T08:18:34Z</time>
      </trkpt>
      <trkpt lat="48.30145" lon="-1.93734">
        <ele>126.4</ele>
        <time>2025-10-02T08:18:35Z</time>
      </trkpt>
      <trkpt lat="48.30142" lon="-1.9374">
        <ele>126.4</ele>
        <time>2025-10-02T08:18:36Z</time>
      </trkpt>
      <trkpt lat="48.30136" lon="-1.93751">
        <ele>126.8</ele>
        <time>2025-10-02T08:18:38Z</time>
      </trkpt>
      <trkpt lat="48.30133" lon="-1.93756">
        <ele>126.8</ele>
        <time>2025-10-02T08:18:39Z</time>
      </trkpt>
      <trkpt lat="48.30112" lon="-1.9379">
        <ele>127.2</ele>
        <time>2025-10-02T08:18:46Z</time>
      </trkpt>
      <trkpt lat="48.30105" lon="-1.93798">
        <ele>127.4</ele>
        <time>2025-10-02T08:18:48Z</time>
      </trkpt>
      <trkpt lat="48.30098" lon="-1.93805">
        <ele>127.6</ele>
        <time>2025-10-02T08:18:51Z</time>
      </trkpt>
      <trkpt lat="48.3009" lon="-1.93813">
        <ele>128</ele>
        <time>2025-10-02T08:18:54Z</time>
      </trkpt>
      <trkpt lat="48.30085" lon="-1.9382">
        <ele>128.2</ele>
        <time>2025-10-02T08:18:56Z</time>
      </trkpt>
      <trkpt lat="48.30078" lon="-1.9383">
        <ele>128.6</ele>
        <time>2025-10-02T08:18:58Z</time>
      </trkpt>
      <trkpt lat="48.30071" lon="-1.93838">
        <ele>129.2</ele>
        <time>2025-10-02T08:19:00Z</time>
      </trkpt>
      <trkpt lat="48.30064" lon="-1.93846">
        <ele>129.4</ele>
        <time>2025-10-02T08:19:02Z</time>
      </trkpt>
      <trkpt lat="48.30044" lon="-1.93867">
        <ele>129.4</ele>
        <time>2025-10-02T08:19:09Z</time>
      </trkpt>
      <trkpt lat="48.30034" lon="-1.93868">
        <ele>129.8</ele>
        <time>2025-10-02T08:19:14Z</time>
      </trkpt>
      <trkpt lat="48.30024" lon="-1.93857">
        <ele>129.8</ele>
        <time>2025-10-02T08:19:18Z</time>
      </trkpt>
      <trkpt lat="48.30004" lon="-1.93826">
        <ele>129</ele>
        <time>2025-10-02T08:19:27Z</time>
      </trkpt>
      <trkpt lat="48.29985" lon="-1.93802">
        <ele>128.2</ele>
        <time>2025-10-02T08:19:34Z</time>
      </trkpt>
      <trkpt lat="48.29983" lon="-1.938">
        <ele>128</ele>
        <time>2025-10-02T08:19:35Z</time>
      </trkpt>
      <trkpt lat="48.29972" lon="-1.93798">
        <ele>127.6</ele>
        <time>2025-10-02T08:19:40Z</time>
      </trkpt>
      <trkpt lat="48.29971" lon="-1.93798">
        <ele>127.4</ele>
        <time>2025-10-02T08:19:43Z</time>
      </trkpt>
      <trkpt lat="48.29971" lon="-1.93798">
        <ele>127.4</ele>
        <time>2025-10-02T08:19:56Z</time>
      </trkpt>
      <trkpt lat="48.29973" lon="-1.93799">
        <ele>127.4</ele>
        <time>2025-10-02T08:20:02Z</time>
      </trkpt>
      <trkpt lat="48.29974" lon="-1.938">
        <ele>127.8</ele>
        <time>2025-10-02T08:20:05Z</time>
      </trkpt>
      <trkpt lat="48.29974" lon="-1.938">
        <ele>127.6</ele>
        <time>2025-10-02T08:20:06Z</time>
      </trkpt>
      <trkpt lat="48.29977" lon="-1.93799">
        <ele>127.6</ele>
        <time>2025-10-02T08:20:08Z</time>
      </trkpt>
      <trkpt lat="48.29987" lon="-1.938">
        <ele>127.6</ele>
        <time>2025-10-02T08:20:11Z</time>
      </trkpt>
      <trkpt lat="48.29991" lon="-1.93803">
        <ele>127.8</ele>
        <time>2025-10-02T08:20:12Z</time>
      </trkpt>
      <trkpt lat="48.3" lon="-1.93811">
        <ele>128</ele>
        <time>2025-10-02T08:20:14Z</time>
      </trkpt>
      <trkpt lat="48.30004" lon="-1.93816">
        <ele>128.2</ele>
        <time>2025-10-02T08:20:15Z</time>
      </trkpt>
      <trkpt lat="48.30023" lon="-1.93841">
        <ele>129.2</ele>
        <time>2025-10-02T08:20:20Z</time>
      </trkpt>
      <trkpt lat="48.30028" lon="-1.93849">
        <ele>129.2</ele>
        <time>2025-10-02T08:20:22Z</time>
      </trkpt>
      <trkpt lat="48.30037" lon="-1.93859">
        <ele>129.4</ele>
        <time>2025-10-02T08:20:26Z</time>
      </trkpt>
      <trkpt lat="48.3004" lon="-1.93859">
        <ele>129.4</ele>
        <time>2025-10-02T08:20:27Z</time>
      </trkpt>
      <trkpt lat="48.30043" lon="-1.93856">
        <ele>129.2</ele>
        <time>2025-10-02T08:20:29Z</time>
      </trkpt>
      <trkpt lat="48.30042" lon="-1.93853">
        <ele>129.2</ele>
        <time>2025-10-02T08:20:30Z</time>
      </trkpt>
      <trkpt lat="48.30032" lon="-1.93831">
        <ele>127.8</ele>
        <time>2025-10-02T08:20:34Z</time>
      </trkpt>
      <trkpt lat="48.30025" lon="-1.93815">
        <ele>126.6</ele>
        <time>2025-10-02T08:20:36Z</time>
      </trkpt>
      <trkpt lat="48.30017" lon="-1.93799">
        <ele>126</ele>
        <time>2025-10-02T08:20:38Z</time>
      </trkpt>
      <trkpt lat="48.30011" lon="-1.93784">
        <ele>125.4</ele>
        <time>2025-10-02T08:20:40Z</time>
      </trkpt>
      <trkpt lat="48.30004" lon="-1.93769">
        <ele>124.4</ele>
        <time>2025-10-02T08:20:42Z</time>
      </trkpt>
      <trkpt lat="48.30001" lon="-1.93762">
        <ele>124</ele>
        <time>2025-10-02T08:20:43Z</time>
      </trkpt>
      <trkpt lat="48.29998" lon="-1.93754">
        <ele>123.8</ele>
        <time>2025-10-02T08:20:44Z</time>
      </trkpt>
      <trkpt lat="48.29991" lon="-1.93739">
        <ele>123</ele>
        <time>2025-10-02T08:20:46Z</time>
      </trkpt>
      <trkpt lat="48.29984" lon="-1.93725">
        <ele>122.2</ele>
        <time>2025-10-02T08:20:48Z</time>
      </trkpt>
      <trkpt lat="48.2998" lon="-1.93718">
        <ele>121.8</ele>
        <time>2025-10-02T08:20:49Z</time>
      </trkpt>
      <trkpt lat="48.29969" lon="-1.93695">
        <ele>120.6</ele>
        <time>2025-10-02T08:20:52Z</time>
      </trkpt>
      <trkpt lat="48.29961" lon="-1.93681">
        <ele>119.6</ele>
        <time>2025-10-02T08:20:54Z</time>
      </trkpt>
      <trkpt lat="48.29955" lon="-1.93669">
        <ele>118.2</ele>
        <time>2025-10-02T08:20:56Z</time>
      </trkpt>
      <trkpt lat="48.29954" lon="-1.93667">
        <ele>118</ele>
        <time>2025-10-02T08:20:57Z</time>
      </trkpt>
      <trkpt lat="48.29952" lon="-1.93664">
        <ele>117.2</ele>
        <time>2025-10-02T08:20:59Z</time>
      </trkpt>
      <trkpt lat="48.29952" lon="-1.93664">
        <ele>116.8</ele>
        <time>2025-10-02T08:21:00Z</time>
      </trkpt>
      <trkpt lat="48.29952" lon="-1.93664">
        <ele>116.8</ele>
        <time>2025-10-02T08:21:04Z</time>
      </trkpt>
      <trkpt lat="48.29953" lon="-1.93664">
        <ele>116.8</ele>
        <time>2025-10-02T08:21:12Z</time>
      </trkpt>
      <trkpt lat="48.29953" lon="-1.93664">
        <ele>117</ele>
        <time>2025-10-02T08:21:24Z</time>
      </trkpt>
      <trkpt lat="48.29953" lon="-1.93664">
        <ele>117</ele>
        <time>2025-10-02T08:21:31Z</time>
      </trkpt>
      <trkpt lat="48.29953" lon="-1.93664">
        <ele>116.8</ele>
        <time>2025-10-02T08:21:32Z</time>
      </trkpt>
      <trkpt lat="48.29955" lon="-1.93665">
        <ele>116.8</ele>
        <time>2025-10-02T08:21:33Z</time>
      </trkpt>
      <trkpt lat="48.29956" lon="-1.93667">
        <ele>117.2</ele>
        <time>2025-10-02T08:21:37Z</time>
      </trkpt>
      <trkpt lat="48.29957" lon="-1.93669">
        <ele>117.2</ele>
        <time>2025-10-02T08:21:39Z</time>
      </trkpt>
      <trkpt lat="48.29958" lon="-1.9367">
        <ele>117.2</ele>
        <time>2025-10-02T08:21:41Z</time>
      </trkpt>
      <trkpt lat="48.29958" lon="-1.9367">
        <ele>117.2</ele>
        <time>2025-10-02T08:21:42Z</time>
      </trkpt>
      <trkpt lat="48.29958" lon="-1.9367">
        <ele>117.4</ele>
        <time>2025-10-02T08:21:45Z</time>
      </trkpt>
      <trkpt lat="48.29958" lon="-1.9367">
        <ele>117.4</ele>
        <time>2025-10-02T08:21:47Z</time>
      </trkpt>
      <trkpt lat="48.29958" lon="-1.9367">
        <ele>117.4</ele>
        <time>2025-10-02T08:21:52Z</time>
      </trkpt>
      <trkpt lat="48.29958" lon="-1.9367">
        <ele>117.4</ele>
        <time>2025-10-02T08:21:55Z</time>
      </trkpt>
      <trkpt lat="48.29958" lon="-1.9367">
        <ele>117.2</ele>
        <time>2025-10-02T08:22:07Z</time>
      </trkpt>
      <trkpt lat="48.29959" lon="-1.93672">
        <ele>117.2</ele>
        <time>2025-10-02T08:22:08Z</time>
      </trkpt>
      <trkpt lat="48.29964" lon="-1.9368">
        <ele>117.2</ele>
        <time>2025-10-02T08:22:11Z</time>
      </trkpt>
      <trkpt lat="48.29966" lon="-1.93699">
        <ele>117.8</ele>
        <time>2025-10-02T08:22:16Z</time>
      </trkpt>
      <trkpt lat="48.29961" lon="-1.93707">
        <ele>118.2</ele>
        <time>2025-10-02T08:22:18Z</time>
      </trkpt>
      <trkpt lat="48.29955" lon="-1.93714">
        <ele>119</ele>
        <time>2025-10-02T08:22:20Z</time>
      </trkpt>
      <trkpt lat="48.29951" lon="-1.93717">
        <ele>119.4</ele>
        <time>2025-10-02T08:22:21Z</time>
      </trkpt>
      <trkpt lat="48.29943" lon="-1.93726">
        <ele>120.4</ele>
        <time>2025-10-02T08:22:24Z</time>
      </trkpt>
      <trkpt lat="48.29935" lon="-1.9373">
        <ele>121.4</ele>
        <time>2025-10-02T08:22:26Z</time>
      </trkpt>
      <trkpt lat="48.29931" lon="-1.93732">
        <ele>121.6</ele>
        <time>2025-10-02T08:22:27Z</time>
      </trkpt>
      <trkpt lat="48.29912" lon="-1.93743">
        <ele>122.6</ele>
        <time>2025-10-02T08:22:32Z</time>
      </trkpt>
      <trkpt lat="48.29907" lon="-1.93747">
        <ele>123</ele>
        <time>2025-10-02T08:22:34Z</time>
      </trkpt>
      <trkpt lat="48.29902" lon="-1.93754">
        <ele>124</ele>
        <time>2025-10-02T08:22:37Z</time>
      </trkpt>
      <trkpt lat="48.29896" lon="-1.9376">
        <ele>124</ele>
        <time>2025-10-02T08:22:39Z</time>
      </trkpt>
      <trkpt lat="48.29868" lon="-1.93781">
        <ele>125</ele>
        <time>2025-10-02T08:22:47Z</time>
      </trkpt>
      <trkpt lat="48.2985" lon="-1.93793">
        <ele>126</ele>
        <time>2025-10-02T08:22:52Z</time>
      </trkpt>
      <trkpt lat="48.29836" lon="-1.93804">
        <ele>127.2</ele>
        <time>2025-10-02T08:22:56Z</time>
      </trkpt>
      <trkpt lat="48.29833" lon="-1.93807">
        <ele>127.4</ele>
        <time>2025-10-02T08:22:57Z</time>
      </trkpt>
      <trkpt lat="48.29818" lon="-1.93816">
        <ele>128.2</ele>
        <time>2025-10-02T08:23:01Z</time>
      </trkpt>
      <trkpt lat="48.29807" lon="-1.93824">
        <ele>128.8</ele>
        <time>2025-10-02T08:23:04Z</time>
      </trkpt>
      <trkpt lat="48.29799" lon="-1.9383">
        <ele>129.2</ele>
        <time>2025-10-02T08:23:06Z</time>
      </trkpt>
      <trkpt lat="48.29777" lon="-1.93847">
        <ele>130.6</ele>
        <time>2025-10-02T08:23:12Z</time>
      </trkpt>
      <trkpt lat="48.29774" lon="-1.9385">
        <ele>130.6</ele>
        <time>2025-10-02T08:23:13Z</time>
      </trkpt>
      <trkpt lat="48.29744" lon="-1.93883">
        <ele>131.2</ele>
        <time>2025-10-02T08:23:23Z</time>
      </trkpt>
      <trkpt lat="48.2972" lon="-1.93904">
        <ele>130.4</ele>
        <time>2025-10-02T08:23:29Z</time>
      </trkpt>
      <trkpt lat="48.29713" lon="-1.93911">
        <ele>130.2</ele>
        <time>2025-10-02T08:23:31Z</time>
      </trkpt>
      <trkpt lat="48.29699" lon="-1.93929">
        <ele>130.6</ele>
        <time>2025-10-02T08:23:35Z</time>
      </trkpt>
      <trkpt lat="48.29683" lon="-1.93947">
        <ele>130.8</ele>
        <time>2025-10-02T08:23:39Z</time>
      </trkpt>
      <trkpt lat="48.29669" lon="-1.93963">
        <ele>130.8</ele>
        <time>2025-10-02T08:23:43Z</time>
      </trkpt>
      <trkpt lat="48.29661" lon="-1.93972">
        <ele>130.8</ele>
        <time>2025-10-02T08:23:45Z</time>
      </trkpt>
      <trkpt lat="48.29627" lon="-1.93996">
        <ele>130.6</ele>
        <time>2025-10-02T08:23:53Z</time>
      </trkpt>
      <trkpt lat="48.29608" lon="-1.94007">
        <ele>130.2</ele>
        <time>2025-10-02T08:23:57Z</time>
      </trkpt>
      <trkpt lat="48.29594" lon="-1.9401">
        <ele>129.6</ele>
        <time>2025-10-02T08:24:00Z</time>
      </trkpt>
      <trkpt lat="48.29589" lon="-1.94011">
        <ele>129.4</ele>
        <time>2025-10-02T08:24:01Z</time>
      </trkpt>
      <trkpt lat="48.29571" lon="-1.94012">
        <ele>128.2</ele>
        <time>2025-10-02T08:24:04Z</time>
      </trkpt>
      <trkpt lat="48.29559" lon="-1.94015">
        <ele>127.8</ele>
        <time>2025-10-02T08:24:06Z</time>
      </trkpt>
      <trkpt lat="48.29547" lon="-1.94018">
        <ele>127.4</ele>
        <time>2025-10-02T08:24:08Z</time>
      </trkpt>
      <trkpt lat="48.29539" lon="-1.94022">
        <ele>127.2</ele>
        <time>2025-10-02T08:24:09Z</time>
      </trkpt>
      <trkpt lat="48.29534" lon="-1.94025">
        <ele>127</ele>
        <time>2025-10-02T08:24:10Z</time>
      </trkpt>
      <trkpt lat="48.29516" lon="-1.94039">
        <ele>126</ele>
        <time>2025-10-02T08:24:13Z</time>
      </trkpt>
      <trkpt lat="48.2951" lon="-1.94045">
        <ele>125.8</ele>
        <time>2025-10-02T08:24:14Z</time>
      </trkpt>
      <trkpt lat="48.29506" lon="-1.94052">
        <ele>125.6</ele>
        <time>2025-10-02T08:24:15Z</time>
      </trkpt>
      <trkpt lat="48.29501" lon="-1.94062">
        <ele>125.6</ele>
        <time>2025-10-02T08:24:16Z</time>
      </trkpt>
      <trkpt lat="48.29492" lon="-1.94081">
        <ele>125.4</ele>
        <time>2025-10-02T08:24:19Z</time>
      </trkpt>
      <trkpt lat="48.29483" lon="-1.94101">
        <ele>124.8</ele>
        <time>2025-10-02T08:24:22Z</time>
      </trkpt>
      <trkpt lat="48.2948" lon="-1.94105">
        <ele>124.8</ele>
        <time>2025-10-02T08:24:23Z</time>
      </trkpt>
      <trkpt lat="48.29476" lon="-1.9411">
        <ele>124.8</ele>
        <time>2025-10-02T08:24:24Z</time>
      </trkpt>
      <trkpt lat="48.29473" lon="-1.94112">
        <ele>124.8</ele>
        <time>2025-10-02T08:24:25Z</time>
      </trkpt>
      <trkpt lat="48.29464" lon="-1.94114">
        <ele>124.4</ele>
        <time>2025-10-02T08:24:27Z</time>
      </trkpt>
      <trkpt lat="48.2946" lon="-1.94113">
        <ele>124.2</ele>
        <time>2025-10-02T08:24:28Z</time>
      </trkpt>
      <trkpt lat="48.2943" lon="-1.94112">
        <ele>124.2</ele>
        <time>2025-10-02T08:24:35Z</time>
      </trkpt>
      <trkpt lat="48.29418" lon="-1.94111">
        <ele>124.2</ele>
        <time>2025-10-02T08:24:38Z</time>
      </trkpt>
      <trkpt lat="48.29409" lon="-1.94105">
        <ele>124.4</ele>
        <time>2025-10-02T08:24:41Z</time>
      </trkpt>
      <trkpt lat="48.29397" lon="-1.94082">
        <ele>126.2</ele>
        <time>2025-10-02T08:24:47Z</time>
      </trkpt>
      <trkpt lat="48.29395" lon="-1.94078">
        <ele>127</ele>
        <time>2025-10-02T08:24:48Z</time>
      </trkpt>
      <trkpt lat="48.29393" lon="-1.94073">
        <ele>127.6</ele>
        <time>2025-10-02T08:24:49Z</time>
      </trkpt>
      <trkpt lat="48.29386" lon="-1.94066">
        <ele>128.8</ele>
        <time>2025-10-02T08:24:51Z</time>
      </trkpt>
      <trkpt lat="48.29378" lon="-1.94057">
        <ele>130.2</ele>
        <time>2025-10-02T08:24:54Z</time>
      </trkpt>
      <trkpt lat="48.29369" lon="-1.94044">
        <ele>131.8</ele>
        <time>2025-10-02T08:24:57Z</time>
      </trkpt>
      <trkpt lat="48.29356" lon="-1.94025">
        <ele>133.4</ele>
        <time>2025-10-02T08:25:02Z</time>
      </trkpt>
      <trkpt lat="48.29343" lon="-1.93999">
        <ele>134.4</ele>
        <time>2025-10-02T08:25:08Z</time>
      </trkpt>
      <trkpt lat="48.2934" lon="-1.93995">
        <ele>134.6</ele>
        <time>2025-10-02T08:25:09Z</time>
      </trkpt>
      <trkpt lat="48.29331" lon="-1.93983">
        <ele>135.6</ele>
        <time>2025-10-02T08:25:12Z</time>
      </trkpt>
      <trkpt lat="48.29309" lon="-1.9396">
        <ele>136.8</ele>
        <time>2025-10-02T08:25:18Z</time>
      </trkpt>
      <trkpt lat="48.29302" lon="-1.93954">
        <ele>137</ele>
        <time>2025-10-02T08:25:20Z</time>
      </trkpt>
      <trkpt lat="48.2929" lon="-1.93944">
        <ele>137.8</ele>
        <time>2025-10-02T08:25:23Z</time>
      </trkpt>
      <trkpt lat="48.29284" lon="-1.93939">
        <ele>138.4</ele>
        <time>2025-10-02T08:25:24Z</time>
      </trkpt>
      <trkpt lat="48.29273" lon="-1.93929">
        <ele>139</ele>
        <time>2025-10-02T08:25:27Z</time>
      </trkpt>
      <trkpt lat="48.29251" lon="-1.93903">
        <ele>139.6</ele>
        <time>2025-10-02T08:25:33Z</time>
      </trkpt>
      <trkpt lat="48.29245" lon="-1.93893">
        <ele>140.4</ele>
        <time>2025-10-02T08:25:35Z</time>
      </trkpt>
      <trkpt lat="48.29239" lon="-1.93883">
        <ele>140.6</ele>
        <time>2025-10-02T08:25:37Z</time>
      </trkpt>
      <trkpt lat="48.29225" lon="-1.93858">
        <ele>141.8</ele>
        <time>2025-10-02T08:25:42Z</time>
      </trkpt>
      <trkpt lat="48.29206" lon="-1.93827">
        <ele>142.8</ele>
        <time>2025-10-02T08:25:48Z</time>
      </trkpt>
      <trkpt lat="48.29193" lon="-1.93803">
        <ele>143.8</ele>
        <time>2025-10-02T08:25:53Z</time>
      </trkpt>
      <trkpt lat="48.2919" lon="-1.93797">
        <ele>143.8</ele>
        <time>2025-10-02T08:25:54Z</time>
      </trkpt>
      <trkpt lat="48.29175" lon="-1.93761">
        <ele>144.4</ele>
        <time>2025-10-02T08:26:00Z</time>
      </trkpt>
      <trkpt lat="48.29172" lon="-1.93754">
        <ele>144.4</ele>
        <time>2025-10-02T08:26:01Z</time>
      </trkpt>
      <trkpt lat="48.29159" lon="-1.93716">
        <ele>143.6</ele>
        <time>2025-10-02T08:26:06Z</time>
      </trkpt>
      <trkpt lat="48.29154" lon="-1.93704">
        <ele>143.4</ele>
        <time>2025-10-02T08:26:08Z</time>
      </trkpt>
      <trkpt lat="48.29128" lon="-1.9366">
        <ele>142.8</ele>
        <time>2025-10-02T08:26:15Z</time>
      </trkpt>
      <trkpt lat="48.29124" lon="-1.93653">
        <ele>142.8</ele>
        <time>2025-10-02T08:26:16Z</time>
      </trkpt>
      <trkpt lat="48.29094" lon="-1.93601">
        <ele>141.6</ele>
        <time>2025-10-02T08:26:24Z</time>
      </trkpt>
      <trkpt lat="48.2906" lon="-1.93543">
        <ele>141.8</ele>
        <time>2025-10-02T08:26:33Z</time>
      </trkpt>
      <trkpt lat="48.29051" lon="-1.93532">
        <ele>141.8</ele>
        <time>2025-10-02T08:26:35Z</time>
      </trkpt>
      <trkpt lat="48.29036" lon="-1.93521">
        <ele>142</ele>
        <time>2025-10-02T08:26:38Z</time>
      </trkpt>
      <trkpt lat="48.29031" lon="-1.93518">
        <ele>142</ele>
        <time>2025-10-02T08:26:39Z</time>
      </trkpt>
      <trkpt lat="48.2902" lon="-1.93513">
        <ele>142.2</ele>
        <time>2025-10-02T08:26:41Z</time>
      </trkpt>
      <trkpt lat="48.29005" lon="-1.93509">
        <ele>142.2</ele>
        <time>2025-10-02T08:26:44Z</time>
      </trkpt>
      <trkpt lat="48.28978" lon="-1.93503">
        <ele>142.6</ele>
        <time>2025-10-02T08:26:50Z</time>
      </trkpt>
      <trkpt lat="48.28974" lon="-1.93502">
        <ele>143</ele>
        <time>2025-10-02T08:26:51Z</time>
      </trkpt>
      <trkpt lat="48.28943" lon="-1.93494">
        <ele>143.6</ele>
        <time>2025-10-02T08:26:58Z</time>
      </trkpt>
      <trkpt lat="48.28911" lon="-1.93483">
        <ele>144</ele>
        <time>2025-10-02T08:27:05Z</time>
      </trkpt>
      <trkpt lat="48.2889" lon="-1.93472">
        <ele>145</ele>
        <time>2025-10-02T08:27:10Z</time>
      </trkpt>
      <trkpt lat="48.28886" lon="-1.93469">
        <ele>145.2</ele>
        <time>2025-10-02T08:27:11Z</time>
      </trkpt>
      <trkpt lat="48.28866" lon="-1.93453">
        <ele>146</ele>
        <time>2025-10-02T08:27:16Z</time>
      </trkpt>
      <trkpt lat="48.28858" lon="-1.93445">
        <ele>146.4</ele>
        <time>2025-10-02T08:27:18Z</time>
      </trkpt>
      <trkpt lat="48.28833" lon="-1.93416">
        <ele>147.6</ele>
        <time>2025-10-02T08:27:25Z</time>
      </trkpt>
      <trkpt lat="48.28822" lon="-1.93402">
        <ele>148.2</ele>
        <time>2025-10-02T08:27:28Z</time>
      </trkpt>
      <trkpt lat="48.28811" lon="-1.93388">
        <ele>148.6</ele>
        <time>2025-10-02T08:27:31Z</time>
      </trkpt>
      <trkpt lat="48.28785" lon="-1.93355">
        <ele>149.2</ele>
        <time>2025-10-02T08:27:38Z</time>
      </trkpt>
      <trkpt lat="48.28768" lon="-1.9334">
        <ele>149.8</ele>
        <time>2025-10-02T08:27:42Z</time>
      </trkpt>
      <trkpt lat="48.28754" lon="-1.93332">
        <ele>150.2</ele>
        <time>2025-10-02T08:27:45Z</time>
      </trkpt>
      <trkpt lat="48.28736" lon="-1.93324">
        <ele>151</ele>
        <time>2025-10-02T08:27:49Z</time>
      </trkpt>
      <trkpt lat="48.28713" lon="-1.93316">
        <ele>152.2</ele>
        <time>2025-10-02T08:27:54Z</time>
      </trkpt>
      <trkpt lat="48.28708" lon="-1.93315">
        <ele>152.2</ele>
        <time>2025-10-02T08:27:55Z</time>
      </trkpt>
      <trkpt lat="48.28694" lon="-1.93311">
        <ele>153.2</ele>
        <time>2025-10-02T08:27:58Z</time>
      </trkpt>
      <trkpt lat="48.28675" lon="-1.93307">
        <ele>154.4</ele>
        <time>2025-10-02T08:28:02Z</time>
      </trkpt>
      <trkpt lat="48.28655" lon="-1.93303">
        <ele>155.6</ele>
        <time>2025-10-02T08:28:06Z</time>
      </trkpt>
      <trkpt lat="48.28646" lon="-1.93301">
        <ele>156.6</ele>
        <time>2025-10-02T08:28:08Z</time>
      </trkpt>
      <trkpt lat="48.28641" lon="-1.933">
        <ele>156.8</ele>
        <time>2025-10-02T08:28:09Z</time>
      </trkpt>
      <trkpt lat="48.28626" lon="-1.93298">
        <ele>157.8</ele>
        <time>2025-10-02T08:28:12Z</time>
      </trkpt>
      <trkpt lat="48.28606" lon="-1.93295">
        <ele>158.6</ele>
        <time>2025-10-02T08:28:16Z</time>
      </trkpt>
      <trkpt lat="48.28596" lon="-1.93292">
        <ele>158.8</ele>
        <time>2025-10-02T08:28:18Z</time>
      </trkpt>
      <trkpt lat="48.28568" lon="-1.93285">
        <ele>159.6</ele>
        <time>2025-10-02T08:28:25Z</time>
      </trkpt>
      <trkpt lat="48.28561" lon="-1.93289">
        <ele>159.6</ele>
        <time>2025-10-02T08:28:28Z</time>
      </trkpt>
      <trkpt lat="48.2856" lon="-1.93291">
        <ele>159.8</ele>
        <time>2025-10-02T08:28:29Z</time>
      </trkpt>
      <trkpt lat="48.28558" lon="-1.93294">
        <ele>159.8</ele>
        <time>2025-10-02T08:28:31Z</time>
      </trkpt>
      <trkpt lat="48.28556" lon="-1.93304">
        <ele>159.8</ele>
        <time>2025-10-02T08:28:35Z</time>
      </trkpt>
      <trkpt lat="48.28554" lon="-1.9332">
        <ele>159.8</ele>
        <time>2025-10-02T08:28:41Z</time>
      </trkpt>
      <trkpt lat="48.28553" lon="-1.93321">
        <ele>159.6</ele>
        <time>2025-10-02T08:28:42Z</time>
      </trkpt>
      <trkpt lat="48.28552" lon="-1.93316">
        <ele>159.6</ele>
        <time>2025-10-02T08:28:45Z</time>
      </trkpt>
      <trkpt lat="48.28557" lon="-1.93294">
        <ele>160</ele>
        <time>2025-10-02T08:28:50Z</time>
      </trkpt>
      <trkpt lat="48.28558" lon="-1.93281">
        <ele>160</ele>
        <time>2025-10-02T08:28:53Z</time>
      </trkpt>
      <trkpt lat="48.28556" lon="-1.93278">
        <ele>160</ele>
        <time>2025-10-02T08:28:54Z</time>
      </trkpt>
      <trkpt lat="48.28552" lon="-1.93274">
        <ele>160.2</ele>
        <time>2025-10-02T08:28:56Z</time>
      </trkpt>
      <trkpt lat="48.28547" lon="-1.93275">
        <ele>160.2</ele>
        <time>2025-10-02T08:28:58Z</time>
      </trkpt>
      <trkpt lat="48.28537" lon="-1.93277">
        <ele>160</ele>
        <time>2025-10-02T08:29:01Z</time>
      </trkpt>
      <trkpt lat="48.28527" lon="-1.9328">
        <ele>159.8</ele>
        <time>2025-10-02T08:29:05Z</time>
      </trkpt>
      <trkpt lat="48.28502" lon="-1.93287">
        <ele>159.4</ele>
        <time>2025-10-02T08:29:13Z</time>
      </trkpt>
      <trkpt lat="48.28482" lon="-1.93289">
        <ele>159</ele>
        <time>2025-10-02T08:29:19Z</time>
      </trkpt>
      <trkpt lat="48.28479" lon="-1.93288">
        <ele>158.8</ele>
        <time>2025-10-02T08:29:20Z</time>
      </trkpt>
      <trkpt lat="48.28472" lon="-1.93279">
        <ele>158.6</ele>
        <time>2025-10-02T08:29:23Z</time>
      </trkpt>
      <trkpt lat="48.2847" lon="-1.93259">
        <ele>158.8</ele>
        <time>2025-10-02T08:29:27Z</time>
      </trkpt>
      <trkpt lat="48.28467" lon="-1.93232">
        <ele>158</ele>
        <time>2025-10-02T08:29:33Z</time>
      </trkpt>
      <trkpt lat="48.28464" lon="-1.93214">
        <ele>158.2</ele>
        <time>2025-10-02T08:29:37Z</time>
      </trkpt>
      <trkpt lat="48.28462" lon="-1.93212">
        <ele>158</ele>
        <time>2025-10-02T08:29:38Z</time>
      </trkpt>
      <trkpt lat="48.28459" lon="-1.93212">
        <ele>158</ele>
        <time>2025-10-02T08:29:39Z</time>
      </trkpt>
      <trkpt lat="48.28454" lon="-1.93218">
        <ele>158</ele>
        <time>2025-10-02T08:29:41Z</time>
      </trkpt>
      <trkpt lat="48.28441" lon="-1.93243">
        <ele>157.8</ele>
        <time>2025-10-02T08:29:46Z</time>
      </trkpt>
      <trkpt lat="48.28438" lon="-1.93249">
        <ele>157.8</ele>
        <time>2025-10-02T08:29:47Z</time>
      </trkpt>
      <trkpt lat="48.28425" lon="-1.93272">
        <ele>157.8</ele>
        <time>2025-10-02T08:29:52Z</time>
      </trkpt>
      <trkpt lat="48.28422" lon="-1.93274">
        <ele>157.6</ele>
        <time>2025-10-02T08:29:53Z</time>
      </trkpt>
      <trkpt lat="48.28414" lon="-1.93278">
        <ele>157.4</ele>
        <time>2025-10-02T08:29:56Z</time>
      </trkpt>
      <trkpt lat="48.28404" lon="-1.93282">
        <ele>157.4</ele>
        <time>2025-10-02T08:29:59Z</time>
      </trkpt>
      <trkpt lat="48.28398" lon="-1.93291">
        <ele>157.6</ele>
        <time>2025-10-02T08:30:01Z</time>
      </trkpt>
      <trkpt lat="48.28396" lon="-1.93297">
        <ele>157.6</ele>
        <time>2025-10-02T08:30:02Z</time>
      </trkpt>
      <trkpt lat="48.28395" lon="-1.93303">
        <ele>157.6</ele>
        <time>2025-10-02T08:30:03Z</time>
      </trkpt>
      <trkpt lat="48.28393" lon="-1.93319">
        <ele>158</ele>
        <time>2025-10-02T08:30:06Z</time>
      </trkpt>
      <trkpt lat="48.28392" lon="-1.93322">
        <ele>158.2</ele>
        <time>2025-10-02T08:30:07Z</time>
      </trkpt>
      <trkpt lat="48.2839" lon="-1.93323">
        <ele>158.2</ele>
        <time>2025-10-02T08:30:08Z</time>
      </trkpt>
      <trkpt lat="48.28387" lon="-1.93324">
        <ele>158.2</ele>
        <time>2025-10-02T08:30:09Z</time>
      </trkpt>
      <trkpt lat="48.28381" lon="-1.9332">
        <ele>158</ele>
        <time>2025-10-02T08:30:11Z</time>
      </trkpt>
      <trkpt lat="48.2837" lon="-1.93314">
        <ele>157</ele>
        <time>2025-10-02T08:30:15Z</time>
      </trkpt>
      <trkpt lat="48.2837" lon="-1.93313">
        <ele>156.8</ele>
        <time>2025-10-02T08:30:16Z</time>
      </trkpt>
      <trkpt lat="48.28371" lon="-1.93312">
        <ele>156.4</ele>
        <time>2025-10-02T08:30:17Z</time>
      </trkpt>
      <trkpt lat="48.28372" lon="-1.93311">
        <ele>156.4</ele>
        <time>2025-10-02T08:30:22Z</time>
      </trkpt>
      <trkpt lat="48.28382" lon="-1.93318">
        <ele>157</ele>
        <time>2025-10-02T08:30:26Z</time>
      </trkpt>
      <trkpt lat="48.2839" lon="-1.93328">
        <ele>157.4</ele>
        <time>2025-10-02T08:30:29Z</time>
      </trkpt>
      <trkpt lat="48.2839" lon="-1.93332">
        <ele>157.8</ele>
        <time>2025-10-02T08:30:30Z</time>
      </trkpt>
      <trkpt lat="48.28389" lon="-1.93344">
        <ele>158.4</ele>
        <time>2025-10-02T08:30:32Z</time>
      </trkpt>
      <trkpt lat="48.28386" lon="-1.93358">
        <ele>158.4</ele>
        <time>2025-10-02T08:30:34Z</time>
      </trkpt>
      <trkpt lat="48.28383" lon="-1.93379">
        <ele>158.4</ele>
        <time>2025-10-02T08:30:37Z</time>
      </trkpt>
      <trkpt lat="48.28375" lon="-1.93418">
        <ele>158.2</ele>
        <time>2025-10-02T08:30:43Z</time>
      </trkpt>
      <trkpt lat="48.28364" lon="-1.93449">
        <ele>158</ele>
        <time>2025-10-02T08:30:49Z</time>
      </trkpt>
      <trkpt lat="48.28347" lon="-1.93469">
        <ele>158</ele>
        <time>2025-10-02T08:30:54Z</time>
      </trkpt>
      <trkpt lat="48.28312" lon="-1.93497">
        <ele>158.2</ele>
        <time>2025-10-02T08:31:02Z</time>
      </trkpt>
      <trkpt lat="48.28269" lon="-1.93516">
        <ele>157.4</ele>
        <time>2025-10-02T08:31:10Z</time>
      </trkpt>
      <trkpt lat="48.28236" lon="-1.93529">
        <ele>156.4</ele>
        <time>2025-10-02T08:31:16Z</time>
      </trkpt>
      <trkpt lat="48.28219" lon="-1.93538">
        <ele>156.4</ele>
        <time>2025-10-02T08:31:19Z</time>
      </trkpt>
      <trkpt lat="48.28188" lon="-1.93561">
        <ele>156</ele>
        <time>2025-10-02T08:31:25Z</time>
      </trkpt>
      <trkpt lat="48.28178" lon="-1.93568">
        <ele>156.2</ele>
        <time>2025-10-02T08:31:27Z</time>
      </trkpt>
      <trkpt lat="48.28163" lon="-1.93574">
        <ele>156.6</ele>
        <time>2025-10-02T08:31:30Z</time>
      </trkpt>
      <trkpt lat="48.28152" lon="-1.93576">
        <ele>156.8</ele>
        <time>2025-10-02T08:31:32Z</time>
      </trkpt>
      <trkpt lat="48.28129" lon="-1.9358">
        <ele>157</ele>
        <time>2025-10-02T08:31:36Z</time>
      </trkpt>
      <trkpt lat="48.28085" lon="-1.93591">
        <ele>157.2</ele>
        <time>2025-10-02T08:31:44Z</time>
      </trkpt>
      <trkpt lat="48.28031" lon="-1.93602">
        <ele>155.8</ele>
        <time>2025-10-02T08:31:53Z</time>
      </trkpt>
      <trkpt lat="48.28025" lon="-1.93603">
        <ele>155.8</ele>
        <time>2025-10-02T08:31:54Z</time>
      </trkpt>
      <trkpt lat="48.28018" lon="-1.93604">
        <ele>155.4</ele>
        <time>2025-10-02T08:31:55Z</time>
      </trkpt>
      <trkpt lat="48.27985" lon="-1.93608">
        <ele>154</ele>
        <time>2025-10-02T08:32:00Z</time>
      </trkpt>
      <trkpt lat="48.27953" lon="-1.93612">
        <ele>153.6</ele>
        <time>2025-10-02T08:32:05Z</time>
      </trkpt>
      <trkpt lat="48.279" lon="-1.93619">
        <ele>154.8</ele>
        <time>2025-10-02T08:32:14Z</time>
      </trkpt>
      <trkpt lat="48.27894" lon="-1.9362">
        <ele>155</ele>
        <time>2025-10-02T08:32:15Z</time>
      </trkpt>
      <trkpt lat="48.27861" lon="-1.93624">
        <ele>155.4</ele>
        <time>2025-10-02T08:32:21Z</time>
      </trkpt>
      <trkpt lat="48.27823" lon="-1.93631">
        <ele>155</ele>
        <time>2025-10-02T08:32:29Z</time>
      </trkpt>
      <trkpt lat="48.27794" lon="-1.93636">
        <ele>154.2</ele>
        <time>2025-10-02T08:32:36Z</time>
      </trkpt>
      <trkpt lat="48.27791" lon="-1.93636">
        <ele>153.6</ele>
        <time>2025-10-02T08:32:37Z</time>
      </trkpt>
      <trkpt lat="48.27786" lon="-1.93637">
        <ele>153.4</ele>
        <time>2025-10-02T08:32:39Z</time>
      </trkpt>
      <trkpt lat="48.27776" lon="-1.93639">
        <ele>153.2</ele>
        <time>2025-10-02T08:32:43Z</time>
      </trkpt>
      <trkpt lat="48.27772" lon="-1.93639">
        <ele>152.4</ele>
        <time>2025-10-02T08:32:47Z</time>
      </trkpt>
      <trkpt lat="48.27772" lon="-1.93639">
        <ele>152.2</ele>
        <time>2025-10-02T08:32:57Z</time>
      </trkpt>
      <trkpt lat="48.27772" lon="-1.93639">
        <ele>152.2</ele>
        <time>2025-10-02T08:33:06Z</time>
      </trkpt>
      <trkpt lat="48.27772" lon="-1.93639">
        <ele>152.2</ele>
        <time>2025-10-02T08:33:09Z</time>
      </trkpt>
      <trkpt lat="48.27772" lon="-1.93639">
        <ele>152.2</ele>
        <time>2025-10-02T08:33:22Z</time>
      </trkpt>
      <trkpt lat="48.27772" lon="-1.93639">
        <ele>152.2</ele>
        <time>2025-10-02T08:33:30Z</time>
      </trkpt>
      <trkpt lat="48.27772" lon="-1.93639">
        <ele>152.4</ele>
        <time>2025-10-02T08:33:37Z</time>
      </trkpt>
      <trkpt lat="48.27772" lon="-1.93639">
        <ele>152.4</ele>
        <time>2025-10-02T08:33:49Z</time>
      </trkpt>
      <trkpt lat="48.27772" lon="-1.9364">
        <ele>152.4</ele>
        <time>2025-10-02T08:34:03Z</time>
      </trkpt>
      <trkpt lat="48.27772" lon="-1.9364">
        <ele>152.4</ele>
        <time>2025-10-02T08:34:15Z</time>
      </trkpt>
      <trkpt lat="48.27772" lon="-1.9364">
        <ele>152.4</ele>
        <time>2025-10-02T08:34:28Z</time>
      </trkpt>
      <trkpt lat="48.27772" lon="-1.9364">
        <ele>152.4</ele>
        <time>2025-10-02T08:34:39Z</time>
      </trkpt>
      <trkpt lat="48.27772" lon="-1.9364">
        <ele>152.4</ele>
        <time>2025-10-02T08:34:51Z</time>
      </trkpt>
      <trkpt lat="48.27773" lon="-1.9364">
        <ele>152.4</ele>
        <time>2025-10-02T08:34:58Z</time>
      </trkpt>
      <trkpt lat="48.27774" lon="-1.9364">
        <ele>152.4</ele>
        <time>2025-10-02T08:35:01Z</time>
      </trkpt>
      <trkpt lat="48.27774" lon="-1.93643">
        <ele>152.4</ele>
        <time>2025-10-02T08:35:04Z</time>
      </trkpt>
      <trkpt lat="48.27774" lon="-1.93643">
        <ele>152.4</ele>
        <time>2025-10-02T08:35:06Z</time>
      </trkpt>
      <trkpt lat="48.27774" lon="-1.93643">
        <ele>152.4</ele>
        <time>2025-10-02T08:35:14Z</time>
      </trkpt>
      <trkpt lat="48.27775" lon="-1.93645">
        <ele>152.4</ele>
        <time>2025-10-02T08:35:22Z</time>
      </trkpt>
      <trkpt lat="48.27775" lon="-1.93646">
        <ele>152.4</ele>
        <time>2025-10-02T08:35:25Z</time>
      </trkpt>
      <trkpt lat="48.27775" lon="-1.93646">
        <ele>152.4</ele>
        <time>2025-10-02T08:35:27Z</time>
      </trkpt>
      <trkpt lat="48.27775" lon="-1.93646">
        <ele>152.4</ele>
        <time>2025-10-02T08:35:28Z</time>
      </trkpt>
      <trkpt lat="48.27775" lon="-1.93646">
        <ele>152.4</ele>
        <time>2025-10-02T08:35:31Z</time>
      </trkpt>
      <trkpt lat="48.27775" lon="-1.93645">
        <ele>152.4</ele>
        <time>2025-10-02T08:35:37Z</time>
      </trkpt>
      <trkpt lat="48.27775" lon="-1.93644">
        <ele>152.4</ele>
        <time>2025-10-02T08:35:44Z</time>
      </trkpt>
      <trkpt lat="48.27775" lon="-1.93644">
        <ele>152.4</ele>
        <time>2025-10-02T08:35:45Z</time>
      </trkpt>
      <trkpt lat="48.27775" lon="-1.93644">
        <ele>152.4</ele>
        <time>2025-10-02T08:35:46Z</time>
      </trkpt>
      <trkpt lat="48.27775" lon="-1.93644">
        <ele>152.4</ele>
        <time>2025-10-02T08:35:48Z</time>
      </trkpt>
      <trkpt lat="48.27775" lon="-1.93644">
        <ele>152.4</ele>
        <time>2025-10-02T08:35:51Z</time>
      </trkpt>
      <trkpt lat="48.27774" lon="-1.93643">
        <ele>152.4</ele>
        <time>2025-10-02T08:35:57Z</time>
      </trkpt>
      <trkpt lat="48.27773" lon="-1.93642">
        <ele>152.4</ele>
        <time>2025-10-02T08:35:58Z</time>
      </trkpt>
      <trkpt lat="48.2776" lon="-1.93642">
        <ele>152</ele>
        <time>2025-10-02T08:36:04Z</time>
      </trkpt>
      <trkpt lat="48.27747" lon="-1.93642">
        <ele>151.6</ele>
        <time>2025-10-02T08:36:08Z</time>
      </trkpt>
      <trkpt lat="48.2774" lon="-1.9364">
        <ele>151.4</ele>
        <time>2025-10-02T08:36:10Z</time>
      </trkpt>
      <trkpt lat="48.27737" lon="-1.93639">
        <ele>151.2</ele>
        <time>2025-10-02T08:36:11Z</time>
      </trkpt>
      <trkpt lat="48.27721" lon="-1.93632">
        <ele>150.2</ele>
        <time>2025-10-02T08:36:16Z</time>
      </trkpt>
      <trkpt lat="48.27717" lon="-1.93631">
        <ele>150</ele>
        <time>2025-10-02T08:36:18Z</time>
      </trkpt>
      <trkpt lat="48.27716" lon="-1.93631">
        <ele>149.2</ele>
        <time>2025-10-02T08:36:23Z</time>
      </trkpt>
      <trkpt lat="48.27716" lon="-1.9363">
        <ele>149.2</ele>
        <time>2025-10-02T08:36:27Z</time>
      </trkpt>
      <trkpt lat="48.27716" lon="-1.9363">
        <ele>149.2</ele>
        <time>2025-10-02T08:36:29Z</time>
      </trkpt>
      <trkpt lat="48.27716" lon="-1.9363">
        <ele>149</ele>
        <time>2025-10-02T08:36:44Z</time>
      </trkpt>
      <trkpt lat="48.27713" lon="-1.93628">
        <ele>149</ele>
        <time>2025-10-02T08:36:49Z</time>
      </trkpt>
      <trkpt lat="48.27711" lon="-1.93633">
        <ele>149</ele>
        <time>2025-10-02T08:36:53Z</time>
      </trkpt>
      <trkpt lat="48.27709" lon="-1.93632">
        <ele>149.6</ele>
        <time>2025-10-02T08:36:58Z</time>
      </trkpt>
      <trkpt lat="48.27709" lon="-1.93632">
        <ele>150.4</ele>
        <time>2025-10-02T08:37:04Z</time>
      </trkpt>
      <trkpt lat="48.27709" lon="-1.93632">
        <ele>150.4</ele>
        <time>2025-10-02T08:37:12Z</time>
      </trkpt>
      <trkpt lat="48.27709" lon="-1.93632">
        <ele>150.4</ele>
        <time>2025-10-02T08:37:15Z</time>
      </trkpt>
      <trkpt lat="48.2771" lon="-1.93633">
        <ele>149.8</ele>
        <time>2025-10-02T08:37:20Z</time>
      </trkpt>
      <trkpt lat="48.27711" lon="-1.93634">
        <ele>149.4</ele>
        <time>2025-10-02T08:37:21Z</time>
      </trkpt>
      <trkpt lat="48.27714" lon="-1.9363">
        <ele>149</ele>
        <time>2025-10-02T08:37:26Z</time>
      </trkpt>
      <trkpt lat="48.27715" lon="-1.93627">
        <ele>149</ele>
        <time>2025-10-02T08:37:30Z</time>
      </trkpt>
      <trkpt lat="48.27715" lon="-1.93627">
        <ele>149</ele>
        <time>2025-10-02T08:37:32Z</time>
      </trkpt>
      <trkpt lat="48.27715" lon="-1.93627">
        <ele>149</ele>
        <time>2025-10-02T08:37:38Z</time>
      </trkpt>
      <trkpt lat="48.27715" lon="-1.93627">
        <ele>149</ele>
        <time>2025-10-02T08:37:46Z</time>
      </trkpt>
      <trkpt lat="48.27715" lon="-1.93627">
        <ele>149</ele>
        <time>2025-10-02T08:38:00Z</time>
      </trkpt>
      <trkpt lat="48.27715" lon="-1.93627">
        <ele>149</ele>
        <time>2025-10-02T08:38:04Z</time>
      </trkpt>
      <trkpt lat="48.27715" lon="-1.93627">
        <ele>149</ele>
        <time>2025-10-02T08:38:18Z</time>
      </trkpt>
      <trkpt lat="48.27715" lon="-1.93625">
        <ele>149</ele>
        <time>2025-10-02T08:38:28Z</time>
      </trkpt>
      <trkpt lat="48.27714" lon="-1.93625">
        <ele>149</ele>
        <time>2025-10-02T08:38:29Z</time>
      </trkpt>
      <trkpt lat="48.27714" lon="-1.93625">
        <ele>149</ele>
        <time>2025-10-02T08:38:41Z</time>
      </trkpt>
      <trkpt lat="48.27713" lon="-1.93623">
        <ele>149</ele>
        <time>2025-10-02T08:38:51Z</time>
      </trkpt>
      <trkpt lat="48.27713" lon="-1.93623">
        <ele>149</ele>
        <time>2025-10-02T08:38:52Z</time>
      </trkpt>
      <trkpt lat="48.27713" lon="-1.93623">
        <ele>149</ele>
        <time>2025-10-02T08:38:53Z</time>
      </trkpt>
      <trkpt lat="48.27713" lon="-1.93623">
        <ele>149</ele>
        <time>2025-10-02T08:38:55Z</time>
      </trkpt>
      <trkpt lat="48.27713" lon="-1.93623">
        <ele>149</ele>
        <time>2025-10-02T08:38:59Z</time>
      </trkpt>
      <trkpt lat="48.27713" lon="-1.93623">
        <ele>149</ele>
        <time>2025-10-02T08:39:03Z</time>
      </trkpt>
      <trkpt lat="48.27713" lon="-1.93623">
        <ele>149</ele>
        <time>2025-10-02T08:39:05Z</time>
      </trkpt>
      <trkpt lat="48.27713" lon="-1.93623">
        <ele>149</ele>
        <time>2025-10-02T08:39:13Z</time>
      </trkpt>
      <trkpt lat="48.27713" lon="-1.93623">
        <ele>149</ele>
        <time>2025-10-02T08:39:17Z</time>
      </trkpt>
      <trkpt lat="48.27711" lon="-1.9362">
        <ele>149</ele>
        <time>2025-10-02T08:39:19Z</time>
      </trkpt>
      <trkpt lat="48.27705" lon="-1.93617">
        <ele>149</ele>
        <time>2025-10-02T08:39:21Z</time>
      </trkpt>
      <trkpt lat="48.27692" lon="-1.93609">
        <ele>148.4</ele>
        <time>2025-10-02T08:39:25Z</time>
      </trkpt>
      <trkpt lat="48.27681" lon="-1.93603">
        <ele>147.8</ele>
        <time>2025-10-02T08:39:28Z</time>
      </trkpt>
      <trkpt lat="48.2767" lon="-1.93596">
        <ele>147.2</ele>
        <time>2025-10-02T08:39:31Z</time>
      </trkpt>
      <trkpt lat="48.27653" lon="-1.93587">
        <ele>146</ele>
        <time>2025-10-02T08:39:35Z</time>
      </trkpt>
      <trkpt lat="48.27645" lon="-1.93582">
        <ele>145.4</ele>
        <time>2025-10-02T08:39:37Z</time>
      </trkpt>
      <trkpt lat="48.27635" lon="-1.93577">
        <ele>144.8</ele>
        <time>2025-10-02T08:39:39Z</time>
      </trkpt>
      <trkpt lat="48.2762" lon="-1.93565">
        <ele>143.6</ele>
        <time>2025-10-02T08:39:42Z</time>
      </trkpt>
      <trkpt lat="48.27609" lon="-1.93554">
        <ele>142.4</ele>
        <time>2025-10-02T08:39:44Z</time>
      </trkpt>
      <trkpt lat="48.27591" lon="-1.93538">
        <ele>141.4</ele>
        <time>2025-10-02T08:39:47Z</time>
      </trkpt>
      <trkpt lat="48.27584" lon="-1.93534">
        <ele>140.8</ele>
        <time>2025-10-02T08:39:48Z</time>
      </trkpt>
      <trkpt lat="48.27561" lon="-1.93519">
        <ele>139.4</ele>
        <time>2025-10-02T08:39:51Z</time>
      </trkpt>
      <trkpt lat="48.27553" lon="-1.93513">
        <ele>138.8</ele>
        <time>2025-10-02T08:39:52Z</time>
      </trkpt>
      <trkpt lat="48.27535" lon="-1.93503">
        <ele>138</ele>
        <time>2025-10-02T08:39:54Z</time>
      </trkpt>
      <trkpt lat="48.27517" lon="-1.93492">
        <ele>136.2</ele>
        <time>2025-10-02T08:39:56Z</time>
      </trkpt>
      <trkpt lat="48.275" lon="-1.93482">
        <ele>135</ele>
        <time>2025-10-02T08:39:58Z</time>
      </trkpt>
      <trkpt lat="48.27464" lon="-1.93468">
        <ele>134</ele>
        <time>2025-10-02T08:40:02Z</time>
      </trkpt>
      <trkpt lat="48.27446" lon="-1.93463">
        <ele>133.4</ele>
        <time>2025-10-02T08:40:04Z</time>
      </trkpt>
      <trkpt lat="48.27437" lon="-1.93461">
        <ele>133</ele>
        <time>2025-10-02T08:40:05Z</time>
      </trkpt>
      <trkpt lat="48.27412" lon="-1.93458">
        <ele>132.2</ele>
        <time>2025-10-02T08:40:08Z</time>
      </trkpt>
      <trkpt lat="48.27403" lon="-1.93458">
        <ele>132</ele>
        <time>2025-10-02T08:40:09Z</time>
      </trkpt>
      <trkpt lat="48.27396" lon="-1.93458">
        <ele>131.8</ele>
        <time>2025-10-02T08:40:10Z</time>
      </trkpt>
      <trkpt lat="48.27359" lon="-1.93466">
        <ele>131</ele>
        <time>2025-10-02T08:40:15Z</time>
      </trkpt>
      <trkpt lat="48.27351" lon="-1.93468">
        <ele>131</ele>
        <time>2025-10-02T08:40:16Z</time>
      </trkpt>
      <trkpt lat="48.27344" lon="-1.9347">
        <ele>130.8</ele>
        <time>2025-10-02T08:40:17Z</time>
      </trkpt>
      <trkpt lat="48.27332" lon="-1.93475">
        <ele>130.8</ele>
        <time>2025-10-02T08:40:19Z</time>
      </trkpt>
      <trkpt lat="48.27326" lon="-1.93478">
        <ele>130.8</ele>
        <time>2025-10-02T08:40:20Z</time>
      </trkpt>
      <trkpt lat="48.2732" lon="-1.9348">
        <ele>130.6</ele>
        <time>2025-10-02T08:40:21Z</time>
      </trkpt>
      <trkpt lat="48.27314" lon="-1.93482">
        <ele>130.4</ele>
        <time>2025-10-02T08:40:22Z</time>
      </trkpt>
      <trkpt lat="48.27302" lon="-1.93487">
        <ele>130.2</ele>
        <time>2025-10-02T08:40:24Z</time>
      </trkpt>
      <trkpt lat="48.27268" lon="-1.935">
        <ele>130.8</ele>
        <time>2025-10-02T08:40:30Z</time>
      </trkpt>
      <trkpt lat="48.27232" lon="-1.93513">
        <ele>132</ele>
        <time>2025-10-02T08:40:37Z</time>
      </trkpt>
      <trkpt lat="48.27216" lon="-1.93518">
        <ele>132.4</ele>
        <time>2025-10-02T08:40:40Z</time>
      </trkpt>
      <trkpt lat="48.27201" lon="-1.93519">
        <ele>133</ele>
        <time>2025-10-02T08:40:43Z</time>
      </trkpt>
      <trkpt lat="48.27177" lon="-1.93519">
        <ele>134</ele>
        <time>2025-10-02T08:40:48Z</time>
      </trkpt>
      <trkpt lat="48.27172" lon="-1.93519">
        <ele>134.2</ele>
        <time>2025-10-02T08:40:49Z</time>
      </trkpt>
      <trkpt lat="48.27162" lon="-1.93517">
        <ele>135.2</ele>
        <time>2025-10-02T08:40:51Z</time>
      </trkpt>
      <trkpt lat="48.27145" lon="-1.93514">
        <ele>136.4</ele>
        <time>2025-10-02T08:40:55Z</time>
      </trkpt>
      <trkpt lat="48.27127" lon="-1.93511">
        <ele>137.2</ele>
        <time>2025-10-02T08:40:59Z</time>
      </trkpt>
      <trkpt lat="48.27118" lon="-1.93511">
        <ele>137.6</ele>
        <time>2025-10-02T08:41:01Z</time>
      </trkpt>
      <trkpt lat="48.2709" lon="-1.93509">
        <ele>138.6</ele>
        <time>2025-10-02T08:41:07Z</time>
      </trkpt>
      <trkpt lat="48.27081" lon="-1.93508">
        <ele>138.6</ele>
        <time>2025-10-02T08:41:09Z</time>
      </trkpt>
      <trkpt lat="48.27077" lon="-1.93509">
        <ele>138.8</ele>
        <time>2025-10-02T08:41:10Z</time>
      </trkpt>
      <trkpt lat="48.27063" lon="-1.93506">
        <ele>139</ele>
        <time>2025-10-02T08:41:13Z</time>
      </trkpt>
      <trkpt lat="48.2704" lon="-1.93507">
        <ele>139.4</ele>
        <time>2025-10-02T08:41:18Z</time>
      </trkpt>
      <trkpt lat="48.27027" lon="-1.93508">
        <ele>139.8</ele>
        <time>2025-10-02T08:41:21Z</time>
      </trkpt>
      <trkpt lat="48.2701" lon="-1.93511">
        <ele>139.8</ele>
        <time>2025-10-02T08:41:25Z</time>
      </trkpt>
      <trkpt lat="48.26973" lon="-1.93519">
        <ele>139</ele>
        <time>2025-10-02T08:41:34Z</time>
      </trkpt>
      <trkpt lat="48.26951" lon="-1.93525">
        <ele>138.8</ele>
        <time>2025-10-02T08:41:39Z</time>
      </trkpt>
      <trkpt lat="48.26939" lon="-1.93532">
        <ele>138.6</ele>
        <time>2025-10-02T08:41:42Z</time>
      </trkpt>
      <trkpt lat="48.26934" lon="-1.93536">
        <ele>138.6</ele>
        <time>2025-10-02T08:41:43Z</time>
      </trkpt>
      <trkpt lat="48.2693" lon="-1.93539">
        <ele>138.6</ele>
        <time>2025-10-02T08:41:44Z</time>
      </trkpt>
      <trkpt lat="48.26917" lon="-1.93553">
        <ele>138.4</ele>
        <time>2025-10-02T08:41:47Z</time>
      </trkpt>
      <trkpt lat="48.26913" lon="-1.93559">
        <ele>138.2</ele>
        <time>2025-10-02T08:41:48Z</time>
      </trkpt>
      <trkpt lat="48.26902" lon="-1.93576">
        <ele>138</ele>
        <time>2025-10-02T08:41:51Z</time>
      </trkpt>
      <trkpt lat="48.26899" lon="-1.93583">
        <ele>137.6</ele>
        <time>2025-10-02T08:41:52Z</time>
      </trkpt>
      <trkpt lat="48.26893" lon="-1.93595">
        <ele>137.4</ele>
        <time>2025-10-02T08:41:54Z</time>
      </trkpt>
      <trkpt lat="48.26889" lon="-1.93601">
        <ele>137.2</ele>
        <time>2025-10-02T08:41:55Z</time>
      </trkpt>
      <trkpt lat="48.26878" lon="-1.93634">
        <ele>136.8</ele>
        <time>2025-10-02T08:42:00Z</time>
      </trkpt>
      <trkpt lat="48.26877" lon="-1.93641">
        <ele>136.6</ele>
        <time>2025-10-02T08:42:01Z</time>
      </trkpt>
      <trkpt lat="48.26876" lon="-1.93648">
        <ele>136.6</ele>
        <time>2025-10-02T08:42:02Z</time>
      </trkpt>
      <trkpt lat="48.26877" lon="-1.93688">
        <ele>136.4</ele>
        <time>2025-10-02T08:42:07Z</time>
      </trkpt>
      <trkpt lat="48.26881" lon="-1.9372">
        <ele>136</ele>
        <time>2025-10-02T08:42:11Z</time>
      </trkpt>
      <trkpt lat="48.26883" lon="-1.93736">
        <ele>136</ele>
        <time>2025-10-02T08:42:13Z</time>
      </trkpt>
      <trkpt lat="48.26884" lon="-1.9376">
        <ele>135.8</ele>
        <time>2025-10-02T08:42:16Z</time>
      </trkpt>
      <trkpt lat="48.26882" lon="-1.93775">
        <ele>135.6</ele>
        <time>2025-10-02T08:42:18Z</time>
      </trkpt>
      <trkpt lat="48.26879" lon="-1.93781">
        <ele>135.6</ele>
        <time>2025-10-02T08:42:19Z</time>
      </trkpt>
      <trkpt lat="48.26875" lon="-1.93786">
        <ele>135.4</ele>
        <time>2025-10-02T08:42:20Z</time>
      </trkpt>
      <trkpt lat="48.26866" lon="-1.93791">
        <ele>134.8</ele>
        <time>2025-10-02T08:42:22Z</time>
      </trkpt>
      <trkpt lat="48.26833" lon="-1.93807">
        <ele>134.4</ele>
        <time>2025-10-02T08:42:28Z</time>
      </trkpt>
      <trkpt lat="48.26827" lon="-1.93811">
        <ele>134.4</ele>
        <time>2025-10-02T08:42:29Z</time>
      </trkpt>
      <trkpt lat="48.26818" lon="-1.93822">
        <ele>133.2</ele>
        <time>2025-10-02T08:42:31Z</time>
      </trkpt>
      <trkpt lat="48.26786" lon="-1.93856">
        <ele>132</ele>
        <time>2025-10-02T08:42:37Z</time>
      </trkpt>
      <trkpt lat="48.26763" lon="-1.93878">
        <ele>131</ele>
        <time>2025-10-02T08:42:41Z</time>
      </trkpt>
      <trkpt lat="48.2675" lon="-1.93887">
        <ele>130.8</ele>
        <time>2025-10-02T08:42:43Z</time>
      </trkpt>
      <trkpt lat="48.26718" lon="-1.93903">
        <ele>130</ele>
        <time>2025-10-02T08:42:48Z</time>
      </trkpt>
      <trkpt lat="48.26692" lon="-1.93916">
        <ele>129.4</ele>
        <time>2025-10-02T08:42:52Z</time>
      </trkpt>
      <trkpt lat="48.26685" lon="-1.9392">
        <ele>128.8</ele>
        <time>2025-10-02T08:42:53Z</time>
      </trkpt>
      <trkpt lat="48.26659" lon="-1.93935">
        <ele>127.8</ele>
        <time>2025-10-02T08:42:57Z</time>
      </trkpt>
      <trkpt lat="48.26646" lon="-1.93944">
        <ele>127.4</ele>
        <time>2025-10-02T08:42:59Z</time>
      </trkpt>
      <trkpt lat="48.26627" lon="-1.93958">
        <ele>127</ele>
        <time>2025-10-02T08:43:02Z</time>
      </trkpt>
      <trkpt lat="48.26621" lon="-1.93962">
        <ele>126.6</ele>
        <time>2025-10-02T08:43:03Z</time>
      </trkpt>
      <trkpt lat="48.26582" lon="-1.9399">
        <ele>125.4</ele>
        <time>2025-10-02T08:43:09Z</time>
      </trkpt>
      <trkpt lat="48.26556" lon="-1.94009">
        <ele>124.2</ele>
        <time>2025-10-02T08:43:13Z</time>
      </trkpt>
      <trkpt lat="48.26513" lon="-1.94029">
        <ele>123.2</ele>
        <time>2025-10-02T08:43:19Z</time>
      </trkpt>
      <trkpt lat="48.26507" lon="-1.94031">
        <ele>123</ele>
        <time>2025-10-02T08:43:20Z</time>
      </trkpt>
      <trkpt lat="48.26466" lon="-1.94037">
        <ele>121.6</ele>
        <time>2025-10-02T08:43:26Z</time>
      </trkpt>
      <trkpt lat="48.26459" lon="-1.94037">
        <ele>121.2</ele>
        <time>2025-10-02T08:43:27Z</time>
      </trkpt>
      <trkpt lat="48.26438" lon="-1.94036">
        <ele>120.4</ele>
        <time>2025-10-02T08:43:30Z</time>
      </trkpt>
      <trkpt lat="48.26402" lon="-1.94029">
        <ele>119.6</ele>
        <time>2025-10-02T08:43:35Z</time>
      </trkpt>
      <trkpt lat="48.26395" lon="-1.94027">
        <ele>119.4</ele>
        <time>2025-10-02T08:43:36Z</time>
      </trkpt>
      <trkpt lat="48.26374" lon="-1.94022">
        <ele>118.2</ele>
        <time>2025-10-02T08:43:39Z</time>
      </trkpt>
      <trkpt lat="48.26358" lon="-1.94018">
        <ele>117.2</ele>
        <time>2025-10-02T08:43:41Z</time>
      </trkpt>
      <trkpt lat="48.26334" lon="-1.94012">
        <ele>116</ele>
        <time>2025-10-02T08:43:44Z</time>
      </trkpt>
      <trkpt lat="48.26326" lon="-1.9401">
        <ele>115.8</ele>
        <time>2025-10-02T08:43:45Z</time>
      </trkpt>
      <trkpt lat="48.26293" lon="-1.94003">
        <ele>114.6</ele>
        <time>2025-10-02T08:43:49Z</time>
      </trkpt>
      <trkpt lat="48.26268" lon="-1.93997">
        <ele>113.4</ele>
        <time>2025-10-02T08:43:52Z</time>
      </trkpt>
      <trkpt lat="48.2625" lon="-1.93993">
        <ele>112.2</ele>
        <time>2025-10-02T08:43:54Z</time>
      </trkpt>
      <trkpt lat="48.26234" lon="-1.93987">
        <ele>110.8</ele>
        <time>2025-10-02T08:43:56Z</time>
      </trkpt>
      <trkpt lat="48.26208" lon="-1.93975">
        <ele>109.2</ele>
        <time>2025-10-02T08:43:59Z</time>
      </trkpt>
      <trkpt lat="48.26198" lon="-1.9397">
        <ele>108.8</ele>
        <time>2025-10-02T08:44:00Z</time>
      </trkpt>
      <trkpt lat="48.26175" lon="-1.93956">
        <ele>108</ele>
        <time>2025-10-02T08:44:03Z</time>
      </trkpt>
      <trkpt lat="48.26151" lon="-1.93942">
        <ele>107</ele>
        <time>2025-10-02T08:44:06Z</time>
      </trkpt>
      <trkpt lat="48.26128" lon="-1.93926">
        <ele>105.8</ele>
        <time>2025-10-02T08:44:09Z</time>
      </trkpt>
      <trkpt lat="48.26099" lon="-1.93908">
        <ele>105.2</ele>
        <time>2025-10-02T08:44:13Z</time>
      </trkpt>
      <trkpt lat="48.26092" lon="-1.93903">
        <ele>104.8</ele>
        <time>2025-10-02T08:44:14Z</time>
      </trkpt>
      <trkpt lat="48.26072" lon="-1.93877">
        <ele>104.4</ele>
        <time>2025-10-02T08:44:18Z</time>
      </trkpt>
      <trkpt lat="48.26062" lon="-1.9385">
        <ele>105</ele>
        <time>2025-10-02T08:44:22Z</time>
      </trkpt>
      <trkpt lat="48.26059" lon="-1.93837">
        <ele>106</ele>
        <time>2025-10-02T08:44:24Z</time>
      </trkpt>
      <trkpt lat="48.26053" lon="-1.93809">
        <ele>106.8</ele>
        <time>2025-10-02T08:44:28Z</time>
      </trkpt>
      <trkpt lat="48.26051" lon="-1.93802">
        <ele>107.2</ele>
        <time>2025-10-02T08:44:29Z</time>
      </trkpt>
      <trkpt lat="48.2605" lon="-1.93795">
        <ele>107.8</ele>
        <time>2025-10-02T08:44:30Z</time>
      </trkpt>
      <trkpt lat="48.26045" lon="-1.93782">
        <ele>108.4</ele>
        <time>2025-10-02T08:44:32Z</time>
      </trkpt>
      <trkpt lat="48.26034" lon="-1.93759">
        <ele>109.6</ele>
        <time>2025-10-02T08:44:36Z</time>
      </trkpt>
      <trkpt lat="48.26021" lon="-1.93739">
        <ele>110.8</ele>
        <time>2025-10-02T08:44:40Z</time>
      </trkpt>
      <trkpt lat="48.26007" lon="-1.93721">
        <ele>111.8</ele>
        <time>2025-10-02T08:44:44Z</time>
      </trkpt>
      <trkpt lat="48.26003" lon="-1.93717">
        <ele>112</ele>
        <time>2025-10-02T08:44:45Z</time>
      </trkpt>
      <trkpt lat="48.25992" lon="-1.93705">
        <ele>112.8</ele>
        <time>2025-10-02T08:44:48Z</time>
      </trkpt>
      <trkpt lat="48.25988" lon="-1.93702">
        <ele>113</ele>
        <time>2025-10-02T08:44:49Z</time>
      </trkpt>
      <trkpt lat="48.2598" lon="-1.93698">
        <ele>113.4</ele>
        <time>2025-10-02T08:44:51Z</time>
      </trkpt>
      <trkpt lat="48.25971" lon="-1.93696">
        <ele>113.8</ele>
        <time>2025-10-02T08:44:53Z</time>
      </trkpt>
      <trkpt lat="48.25961" lon="-1.937">
        <ele>113.8</ele>
        <time>2025-10-02T08:44:55Z</time>
      </trkpt>
      <trkpt lat="48.25952" lon="-1.9371">
        <ele>113.6</ele>
        <time>2025-10-02T08:44:57Z</time>
      </trkpt>
      <trkpt lat="48.25944" lon="-1.93722">
        <ele>113.4</ele>
        <time>2025-10-02T08:44:59Z</time>
      </trkpt>
      <trkpt lat="48.25924" lon="-1.93764">
        <ele>112.8</ele>
        <time>2025-10-02T08:45:05Z</time>
      </trkpt>
      <trkpt lat="48.25908" lon="-1.93823">
        <ele>112.6</ele>
        <time>2025-10-02T08:45:12Z</time>
      </trkpt>
      <trkpt lat="48.25895" lon="-1.93886">
        <ele>111.8</ele>
        <time>2025-10-02T08:45:19Z</time>
      </trkpt>
      <trkpt lat="48.2589" lon="-1.93912">
        <ele>111.4</ele>
        <time>2025-10-02T08:45:22Z</time>
      </trkpt>
      <trkpt lat="48.25884" lon="-1.9394">
        <ele>110.8</ele>
        <time>2025-10-02T08:45:27Z</time>
      </trkpt>
      <trkpt lat="48.25883" lon="-1.93945">
        <ele>110.6</ele>
        <time>2025-10-02T08:45:29Z</time>
      </trkpt>
      <trkpt lat="48.25883" lon="-1.93945">
        <ele>110.6</ele>
        <time>2025-10-02T08:45:30Z</time>
      </trkpt>
      <trkpt lat="48.25883" lon="-1.93946">
        <ele>110.4</ele>
        <time>2025-10-02T08:45:32Z</time>
      </trkpt>
      <trkpt lat="48.25883" lon="-1.93946">
        <ele>110.4</ele>
        <time>2025-10-02T08:45:35Z</time>
      </trkpt>
      <trkpt lat="48.25882" lon="-1.93943">
        <ele>110.4</ele>
        <time>2025-10-02T08:45:44Z</time>
      </trkpt>
      <trkpt lat="48.25882" lon="-1.93942">
        <ele>110.4</ele>
        <time>2025-10-02T08:45:45Z</time>
      </trkpt>
      <trkpt lat="48.25882" lon="-1.93939">
        <ele>110.4</ele>
        <time>2025-10-02T08:45:47Z</time>
      </trkpt>
      <trkpt lat="48.25884" lon="-1.93933">
        <ele>110.4</ele>
        <time>2025-10-02T08:45:49Z</time>
      </trkpt>
      <trkpt lat="48.25891" lon="-1.93903">
        <ele>110.8</ele>
        <time>2025-10-02T08:45:54Z</time>
      </trkpt>
      <trkpt lat="48.259" lon="-1.9386">
        <ele>111.6</ele>
        <time>2025-10-02T08:46:00Z</time>
      </trkpt>
      <trkpt lat="48.25903" lon="-1.93847">
        <ele>111.6</ele>
        <time>2025-10-02T08:46:02Z</time>
      </trkpt>
      <trkpt lat="48.25911" lon="-1.93807">
        <ele>111.8</ele>
        <time>2025-10-02T08:46:09Z</time>
      </trkpt>
      <trkpt lat="48.25914" lon="-1.93795">
        <ele>111.4</ele>
        <time>2025-10-02T08:46:14Z</time>
      </trkpt>
      <trkpt lat="48.25914" lon="-1.93798">
        <ele>111.4</ele>
        <time>2025-10-02T08:46:20Z</time>
      </trkpt>
      <trkpt lat="48.25914" lon="-1.93798">
        <ele>111.6</ele>
        <time>2025-10-02T08:46:27Z</time>
      </trkpt>
      <trkpt lat="48.25914" lon="-1.938">
        <ele>111.6</ele>
        <time>2025-10-02T08:46:29Z</time>
      </trkpt>
      <trkpt lat="48.25914" lon="-1.93802">
        <ele>111.8</ele>
        <time>2025-10-02T08:46:30Z</time>
      </trkpt>
      <trkpt lat="48.25912" lon="-1.93807">
        <ele>111.8</ele>
        <time>2025-10-02T08:46:32Z</time>
      </trkpt>
      <trkpt lat="48.25907" lon="-1.93833">
        <ele>111.4</ele>
        <time>2025-10-02T08:46:37Z</time>
      </trkpt>
      <trkpt lat="48.25897" lon="-1.9388">
        <ele>111.2</ele>
        <time>2025-10-02T08:46:44Z</time>
      </trkpt>
      <trkpt lat="48.25888" lon="-1.93921">
        <ele>110.6</ele>
        <time>2025-10-02T08:46:50Z</time>
      </trkpt>
      <trkpt lat="48.25882" lon="-1.93948">
        <ele>110.4</ele>
        <time>2025-10-02T08:46:54Z</time>
      </trkpt>
      <trkpt lat="48.25873" lon="-1.93971">
        <ele>110</ele>
        <time>2025-10-02T08:46:58Z</time>
      </trkpt>
      <trkpt lat="48.25871" lon="-1.93976">
        <ele>110</ele>
        <time>2025-10-02T08:46:59Z</time>
      </trkpt>
      <trkpt lat="48.25862" lon="-1.93992">
        <ele>110.2</ele>
        <time>2025-10-02T08:47:02Z</time>
      </trkpt>
      <trkpt lat="48.25834" lon="-1.94026">
        <ele>110.2</ele>
        <time>2025-10-02T08:47:09Z</time>
      </trkpt>
      <trkpt lat="48.25797" lon="-1.94061">
        <ele>109.6</ele>
        <time>2025-10-02T08:47:17Z</time>
      </trkpt>
      <trkpt lat="48.25792" lon="-1.94066">
        <ele>109.6</ele>
        <time>2025-10-02T08:47:18Z</time>
      </trkpt>
      <trkpt lat="48.25782" lon="-1.94077">
        <ele>109.6</ele>
        <time>2025-10-02T08:47:20Z</time>
      </trkpt>
      <trkpt lat="48.25758" lon="-1.94106">
        <ele>109.4</ele>
        <time>2025-10-02T08:47:25Z</time>
      </trkpt>
      <trkpt lat="48.25725" lon="-1.94156">
        <ele>108.6</ele>
        <time>2025-10-02T08:47:32Z</time>
      </trkpt>
      <trkpt lat="48.25722" lon="-1.94161">
        <ele>108.4</ele>
        <time>2025-10-02T08:47:33Z</time>
      </trkpt>
      <trkpt lat="48.257" lon="-1.94198">
        <ele>108</ele>
        <time>2025-10-02T08:47:38Z</time>
      </trkpt>
      <trkpt lat="48.25673" lon="-1.94237">
        <ele>107.6</ele>
        <time>2025-10-02T08:47:44Z</time>
      </trkpt>
      <trkpt lat="48.25663" lon="-1.94249">
        <ele>107.6</ele>
        <time>2025-10-02T08:47:46Z</time>
      </trkpt>
      <trkpt lat="48.25648" lon="-1.94263">
        <ele>107.4</ele>
        <time>2025-10-02T08:47:49Z</time>
      </trkpt>
      <trkpt lat="48.25641" lon="-1.94268">
        <ele>107.4</ele>
        <time>2025-10-02T08:47:50Z</time>
      </trkpt>
      <trkpt lat="48.25631" lon="-1.94271">
        <ele>107.2</ele>
        <time>2025-10-02T08:47:52Z</time>
      </trkpt>
      <trkpt lat="48.25613" lon="-1.94273">
        <ele>107</ele>
        <time>2025-10-02T08:47:55Z</time>
      </trkpt>
      <trkpt lat="48.25606" lon="-1.94271">
        <ele>106.8</ele>
        <time>2025-10-02T08:47:56Z</time>
      </trkpt>
      <trkpt lat="48.25587" lon="-1.94262">
        <ele>106.4</ele>
        <time>2025-10-02T08:47:59Z</time>
      </trkpt>
      <trkpt lat="48.25569" lon="-1.94253">
        <ele>106.2</ele>
        <time>2025-10-02T08:48:02Z</time>
      </trkpt>
      <trkpt lat="48.25557" lon="-1.94254">
        <ele>105.8</ele>
        <time>2025-10-02T08:48:04Z</time>
      </trkpt>
      <trkpt lat="48.25546" lon="-1.94264">
        <ele>105.6</ele>
        <time>2025-10-02T08:48:06Z</time>
      </trkpt>
      <trkpt lat="48.25542" lon="-1.94271">
        <ele>105.4</ele>
        <time>2025-10-02T08:48:07Z</time>
      </trkpt>
      <trkpt lat="48.25538" lon="-1.94279">
        <ele>105</ele>
        <time>2025-10-02T08:48:08Z</time>
      </trkpt>
      <trkpt lat="48.2553" lon="-1.94305">
        <ele>104.8</ele>
        <time>2025-10-02T08:48:11Z</time>
      </trkpt>
      <trkpt lat="48.25522" lon="-1.94334">
        <ele>104.2</ele>
        <time>2025-10-02T08:48:14Z</time>
      </trkpt>
      <trkpt lat="48.255" lon="-1.94416">
        <ele>103.2</ele>
        <time>2025-10-02T08:48:23Z</time>
      </trkpt>
      <trkpt lat="48.25475" lon="-1.94499">
        <ele>102.4</ele>
        <time>2025-10-02T08:48:32Z</time>
      </trkpt>
      <trkpt lat="48.25472" lon="-1.94508">
        <ele>102.2</ele>
        <time>2025-10-02T08:48:33Z</time>
      </trkpt>
      <trkpt lat="48.25468" lon="-1.94517">
        <ele>102.2</ele>
        <time>2025-10-02T08:48:34Z</time>
      </trkpt>
      <trkpt lat="48.25448" lon="-1.94568">
        <ele>101.4</ele>
        <time>2025-10-02T08:48:40Z</time>
      </trkpt>
      <trkpt lat="48.25441" lon="-1.94585">
        <ele>101</ele>
        <time>2025-10-02T08:48:42Z</time>
      </trkpt>
      <trkpt lat="48.25432" lon="-1.94607">
        <ele>100.2</ele>
        <time>2025-10-02T08:48:45Z</time>
      </trkpt>
      <trkpt lat="48.25418" lon="-1.94639">
        <ele>100</ele>
        <time>2025-10-02T08:48:49Z</time>
      </trkpt>
      <trkpt lat="48.25398" lon="-1.94686">
        <ele>99.6</ele>
        <time>2025-10-02T08:48:55Z</time>
      </trkpt>
      <trkpt lat="48.25379" lon="-1.94724">
        <ele>99.2</ele>
        <time>2025-10-02T08:49:00Z</time>
      </trkpt>
      <trkpt lat="48.2537" lon="-1.94735">
        <ele>98.8</ele>
        <time>2025-10-02T08:49:02Z</time>
      </trkpt>
      <trkpt lat="48.25351" lon="-1.9475">
        <ele>97.6</ele>
        <time>2025-10-02T08:49:05Z</time>
      </trkpt>
      <trkpt lat="48.25343" lon="-1.94754">
        <ele>97.4</ele>
        <time>2025-10-02T08:49:06Z</time>
      </trkpt>
      <trkpt lat="48.25328" lon="-1.94765">
        <ele>96.6</ele>
        <time>2025-10-02T08:49:08Z</time>
      </trkpt>
      <trkpt lat="48.2532" lon="-1.94772">
        <ele>96</ele>
        <time>2025-10-02T08:49:09Z</time>
      </trkpt>
      <trkpt lat="48.25313" lon="-1.9478">
        <ele>95.6</ele>
        <time>2025-10-02T08:49:10Z</time>
      </trkpt>
      <trkpt lat="48.25306" lon="-1.94789">
        <ele>94.6</ele>
        <time>2025-10-02T08:49:11Z</time>
      </trkpt>
      <trkpt lat="48.25298" lon="-1.94801">
        <ele>94</ele>
        <time>2025-10-02T08:49:12Z</time>
      </trkpt>
      <trkpt lat="48.25294" lon="-1.94809">
        <ele>93.6</ele>
        <time>2025-10-02T08:49:13Z</time>
      </trkpt>
      <trkpt lat="48.25281" lon="-1.94838">
        <ele>92.2</ele>
        <time>2025-10-02T08:49:16Z</time>
      </trkpt>
      <trkpt lat="48.25276" lon="-1.94847">
        <ele>92.2</ele>
        <time>2025-10-02T08:49:17Z</time>
      </trkpt>
      <trkpt lat="48.25248" lon="-1.9488">
        <ele>91.6</ele>
        <time>2025-10-02T08:49:22Z</time>
      </trkpt>
      <trkpt lat="48.25225" lon="-1.949">
        <ele>91.6</ele>
        <time>2025-10-02T08:49:26Z</time>
      </trkpt>
      <trkpt lat="48.25188" lon="-1.94921">
        <ele>93.4</ele>
        <time>2025-10-02T08:49:33Z</time>
      </trkpt>
      <trkpt lat="48.25161" lon="-1.94935">
        <ele>94.2</ele>
        <time>2025-10-02T08:49:38Z</time>
      </trkpt>
      <trkpt lat="48.25155" lon="-1.94938">
        <ele>94.8</ele>
        <time>2025-10-02T08:49:39Z</time>
      </trkpt>
      <trkpt lat="48.25134" lon="-1.94948">
        <ele>95.6</ele>
        <time>2025-10-02T08:49:43Z</time>
      </trkpt>
      <trkpt lat="48.2512" lon="-1.94954">
        <ele>96</ele>
        <time>2025-10-02T08:49:46Z</time>
      </trkpt>
      <trkpt lat="48.25112" lon="-1.94957">
        <ele>96.2</ele>
        <time>2025-10-02T08:49:48Z</time>
      </trkpt>
      <trkpt lat="48.25086" lon="-1.9496">
        <ele>96.6</ele>
        <time>2025-10-02T08:49:54Z</time>
      </trkpt>
      <trkpt lat="48.25073" lon="-1.94959">
        <ele>97</ele>
        <time>2025-10-02T08:49:57Z</time>
      </trkpt>
      <trkpt lat="48.25052" lon="-1.94956">
        <ele>97.2</ele>
        <time>2025-10-02T08:50:02Z</time>
      </trkpt>
      <trkpt lat="48.25035" lon="-1.94952">
        <ele>97</ele>
        <time>2025-10-02T08:50:07Z</time>
      </trkpt>
      <trkpt lat="48.25014" lon="-1.94957">
        <ele>97</ele>
        <time>2025-10-02T08:50:12Z</time>
      </trkpt>
      <trkpt lat="48.25005" lon="-1.94966">
        <ele>97</ele>
        <time>2025-10-02T08:50:15Z</time>
      </trkpt>
      <trkpt lat="48.25001" lon="-1.94975">
        <ele>96.8</ele>
        <time>2025-10-02T08:50:17Z</time>
      </trkpt>
      <trkpt lat="48.24992" lon="-1.94999">
        <ele>96.4</ele>
        <time>2025-10-02T08:50:22Z</time>
      </trkpt>
      <trkpt lat="48.24986" lon="-1.95009">
        <ele>96</ele>
        <time>2025-10-02T08:50:26Z</time>
      </trkpt>
      <trkpt lat="48.24986" lon="-1.95009">
        <ele>96</ele>
        <time>2025-10-02T08:50:27Z</time>
      </trkpt>
      <trkpt lat="48.24981" lon="-1.95014">
        <ele>95.8</ele>
        <time>2025-10-02T08:50:33Z</time>
      </trkpt>
      <trkpt lat="48.24975" lon="-1.95018">
        <ele>95.8</ele>
        <time>2025-10-02T08:50:35Z</time>
      </trkpt>
      <trkpt lat="48.24969" lon="-1.95015">
        <ele>95.8</ele>
        <time>2025-10-02T08:50:37Z</time>
      </trkpt>
      <trkpt lat="48.24956" lon="-1.95005">
        <ele>95.4</ele>
        <time>2025-10-02T08:50:42Z</time>
      </trkpt>
      <trkpt lat="48.24955" lon="-1.95003">
        <ele>95.4</ele>
        <time>2025-10-02T08:50:44Z</time>
      </trkpt>
      <trkpt lat="48.24955" lon="-1.95001">
        <ele>95.4</ele>
        <time>2025-10-02T08:50:46Z</time>
      </trkpt>
      <trkpt lat="48.24956" lon="-1.94998">
        <ele>95.4</ele>
        <time>2025-10-02T08:50:53Z</time>
      </trkpt>
      <trkpt lat="48.24957" lon="-1.95">
        <ele>95.2</ele>
        <time>2025-10-02T08:51:03Z</time>
      </trkpt>
      <trkpt lat="48.24958" lon="-1.94998">
        <ele>95</ele>
        <time>2025-10-02T08:51:07Z</time>
      </trkpt>
      <trkpt lat="48.2496" lon="-1.94998">
        <ele>95</ele>
        <time>2025-10-02T08:51:13Z</time>
      </trkpt>
      <trkpt lat="48.24961" lon="-1.94999">
        <ele>95</ele>
        <time>2025-10-02T08:51:15Z</time>
      </trkpt>
      <trkpt lat="48.24961" lon="-1.94997">
        <ele>95</ele>
        <time>2025-10-02T08:51:17Z</time>
      </trkpt>
      <trkpt lat="48.24949" lon="-1.95">
        <ele>95.4</ele>
        <time>2025-10-02T08:52:02Z</time>
      </trkpt>
      <trkpt lat="48.24948" lon="-1.9499">
        <ele>95.4</ele>
        <time>2025-10-02T08:52:03Z</time>
      </trkpt>
      <trkpt lat="48.24951" lon="-1.94995">
        <ele>95.2</ele>
        <time>2025-10-02T08:52:09Z</time>
      </trkpt>
      <trkpt lat="48.24951" lon="-1.94995">
        <ele>95.2</ele>
        <time>2025-10-02T08:52:10Z</time>
      </trkpt>
      <trkpt lat="48.24951" lon="-1.94995">
        <ele>95.2</ele>
        <time>2025-10-02T08:52:12Z</time>
      </trkpt>
      <trkpt lat="48.24951" lon="-1.94995">
        <ele>95.2</ele>
        <time>2025-10-02T08:52:14Z</time>
      </trkpt>
      <trkpt lat="48.24951" lon="-1.94995">
        <ele>95.4</ele>
        <time>2025-10-02T08:52:16Z</time>
      </trkpt>
      <trkpt lat="48.24951" lon="-1.94995">
        <ele>95.4</ele>
        <time>2025-10-02T08:52:18Z</time>
      </trkpt>
      <trkpt lat="48.24951" lon="-1.94995">
        <ele>94.8</ele>
        <time>2025-10-02T08:52:29Z</time>
      </trkpt>
      <trkpt lat="48.24951" lon="-1.94995">
        <ele>94.8</ele>
        <time>2025-10-02T08:52:34Z</time>
      </trkpt>
      <trkpt lat="48.24951" lon="-1.94995">
        <ele>94.8</ele>
        <time>2025-10-02T08:52:42Z</time>
      </trkpt>
      <trkpt lat="48.24954" lon="-1.94999">
        <ele>94.8</ele>
        <time>2025-10-02T08:52:53Z</time>
      </trkpt>
      <trkpt lat="48.24954" lon="-1.94999">
        <ele>94.8</ele>
        <time>2025-10-02T08:53:00Z</time>
      </trkpt>
      <trkpt lat="48.24954" lon="-1.94999">
        <ele>94.8</ele>
        <time>2025-10-02T08:53:02Z</time>
      </trkpt>
      <trkpt lat="48.24954" lon="-1.94999">
        <ele>94.8</ele>
        <time>2025-10-02T08:53:07Z</time>
      </trkpt>
      <trkpt lat="48.24954" lon="-1.94999">
        <ele>94.8</ele>
        <time>2025-10-02T08:53:08Z</time>
      </trkpt>
      <trkpt lat="48.24954" lon="-1.95">
        <ele>94.8</ele>
        <time>2025-10-02T08:53:10Z</time>
      </trkpt>
      <trkpt lat="48.24954" lon="-1.95">
        <ele>94.8</ele>
        <time>2025-10-02T08:53:11Z</time>
      </trkpt>
      <trkpt lat="48.24954" lon="-1.95">
        <ele>94.8</ele>
        <time>2025-10-02T08:53:16Z</time>
      </trkpt>
      <trkpt lat="48.24954" lon="-1.95">
        <ele>94.8</ele>
        <time>2025-10-02T08:53:28Z</time>
      </trkpt>
      <trkpt lat="48.24954" lon="-1.95">
        <ele>94.8</ele>
        <time>2025-10-02T08:53:37Z</time>
      </trkpt>
      <trkpt lat="48.24954" lon="-1.95">
        <ele>94.8</ele>
        <time>2025-10-02T08:53:39Z</time>
      </trkpt>
      <trkpt lat="48.24954" lon="-1.95">
        <ele>94.8</ele>
        <time>2025-10-02T08:53:42Z</time>
      </trkpt>
      <trkpt lat="48.24954" lon="-1.94999">
        <ele>94.8</ele>
        <time>2025-10-02T08:53:50Z</time>
      </trkpt>
      <trkpt lat="48.24953" lon="-1.95">
        <ele>94.8</ele>
        <time>2025-10-02T08:53:56Z</time>
      </trkpt>
      <trkpt lat="48.24953" lon="-1.95">
        <ele>94.8</ele>
        <time>2025-10-02T08:53:58Z</time>
      </trkpt>
      <trkpt lat="48.24953" lon="-1.95">
        <ele>94.8</ele>
        <time>2025-10-02T08:54:00Z</time>
      </trkpt>
      <trkpt lat="48.24954" lon="-1.95">
        <ele>94.8</ele>
        <time>2025-10-02T08:54:07Z</time>
      </trkpt>
      <trkpt lat="48.24954" lon="-1.95">
        <ele>94.8</ele>
        <time>2025-10-02T08:54:08Z</time>
      </trkpt>
      <trkpt lat="48.24954" lon="-1.95">
        <ele>94.8</ele>
        <time>2025-10-02T08:54:11Z</time>
      </trkpt>
      <trkpt lat="48.24952" lon="-1.95001">
        <ele>94.8</ele>
        <time>2025-10-02T08:54:15Z</time>
      </trkpt>
      <trkpt lat="48.2495" lon="-1.95002">
        <ele>94.8</ele>
        <time>2025-10-02T08:54:16Z</time>
      </trkpt>
      <trkpt lat="48.24942" lon="-1.95006">
        <ele>94.8</ele>
        <time>2025-10-02T08:54:19Z</time>
      </trkpt>
      <trkpt lat="48.24934" lon="-1.95006">
        <ele>94.8</ele>
        <time>2025-10-02T08:54:21Z</time>
      </trkpt>
      <trkpt lat="48.24915" lon="-1.95004">
        <ele>94.6</ele>
        <time>2025-10-02T08:54:26Z</time>
      </trkpt>
      <trkpt lat="48.24911" lon="-1.95003">
        <ele>94.6</ele>
        <time>2025-10-02T08:54:27Z</time>
      </trkpt>
      <trkpt lat="48.24907" lon="-1.95002">
        <ele>94.6</ele>
        <time>2025-10-02T08:54:28Z</time>
      </trkpt>
      <trkpt lat="48.24892" lon="-1.95003">
        <ele>94.2</ele>
        <time>2025-10-02T08:54:32Z</time>
      </trkpt>
      <trkpt lat="48.24889" lon="-1.95006">
        <ele>94.2</ele>
        <time>2025-10-02T08:54:33Z</time>
      </trkpt>
      <trkpt lat="48.24885" lon="-1.95009">
        <ele>94</ele>
        <time>2025-10-02T08:54:34Z</time>
      </trkpt>
      <trkpt lat="48.24875" lon="-1.95017">
        <ele>94</ele>
        <time>2025-10-02T08:54:37Z</time>
      </trkpt>
      <trkpt lat="48.24869" lon="-1.95023">
        <ele>93.8</ele>
        <time>2025-10-02T08:54:39Z</time>
      </trkpt>
      <trkpt lat="48.24858" lon="-1.95034">
        <ele>93.6</ele>
        <time>2025-10-02T08:54:42Z</time>
      </trkpt>
      <trkpt lat="48.24842" lon="-1.95049">
        <ele>93.6</ele>
        <time>2025-10-02T08:54:46Z</time>
      </trkpt>
      <trkpt lat="48.24829" lon="-1.95062">
        <ele>93.6</ele>
        <time>2025-10-02T08:54:49Z</time>
      </trkpt>
      <trkpt lat="48.24781" lon="-1.95106">
        <ele>93.8</ele>
        <time>2025-10-02T08:55:00Z</time>
      </trkpt>
      <trkpt lat="48.24742" lon="-1.95141">
        <ele>94.6</ele>
        <time>2025-10-02T08:55:09Z</time>
      </trkpt>
      <trkpt lat="48.24726" lon="-1.95156">
        <ele>94.8</ele>
        <time>2025-10-02T08:55:13Z</time>
      </trkpt>
      <trkpt lat="48.24711" lon="-1.95169">
        <ele>95</ele>
        <time>2025-10-02T08:55:16Z</time>
      </trkpt>
      <trkpt lat="48.24694" lon="-1.95183">
        <ele>95</ele>
        <time>2025-10-02T08:55:20Z</time>
      </trkpt>
      <trkpt lat="48.24657" lon="-1.95211">
        <ele>95.8</ele>
        <time>2025-10-02T08:55:28Z</time>
      </trkpt>
      <trkpt lat="48.24642" lon="-1.9522">
        <ele>96.2</ele>
        <time>2025-10-02T08:55:31Z</time>
      </trkpt>
      <trkpt lat="48.246" lon="-1.95248">
        <ele>97</ele>
        <time>2025-10-02T08:55:40Z</time>
      </trkpt>
      <trkpt lat="48.2459" lon="-1.95254">
        <ele>97.2</ele>
        <time>2025-10-02T08:55:42Z</time>
      </trkpt>
      <trkpt lat="48.24548" lon="-1.95281">
        <ele>98</ele>
        <time>2025-10-02T08:55:51Z</time>
      </trkpt>
      <trkpt lat="48.24538" lon="-1.95288">
        <ele>98</ele>
        <time>2025-10-02T08:55:53Z</time>
      </trkpt>
      <trkpt lat="48.24494" lon="-1.95316">
        <ele>98.6</ele>
        <time>2025-10-02T08:56:02Z</time>
      </trkpt>
      <trkpt lat="48.24466" lon="-1.95336">
        <ele>99</ele>
        <time>2025-10-02T08:56:08Z</time>
      </trkpt>
      <trkpt lat="48.24462" lon="-1.95339">
        <ele>99</ele>
        <time>2025-10-02T08:56:09Z</time>
      </trkpt>
      <trkpt lat="48.24437" lon="-1.95355">
        <ele>99.2</ele>
        <time>2025-10-02T08:56:14Z</time>
      </trkpt>
      <trkpt lat="48.24384" lon="-1.95389">
        <ele>100</ele>
        <time>2025-10-02T08:56:24Z</time>
      </trkpt>
      <trkpt lat="48.24375" lon="-1.95395">
        <ele>100.4</ele>
        <time>2025-10-02T08:56:26Z</time>
      </trkpt>
      <trkpt lat="48.24369" lon="-1.95399">
        <ele>100.4</ele>
        <time>2025-10-02T08:56:27Z</time>
      </trkpt>
      <trkpt lat="48.24316" lon="-1.95433">
        <ele>100.4</ele>
        <time>2025-10-02T08:56:37Z</time>
      </trkpt>
      <trkpt lat="48.24295" lon="-1.95447">
        <ele>100.2</ele>
        <time>2025-10-02T08:56:41Z</time>
      </trkpt>
      <trkpt lat="48.2429" lon="-1.9545">
        <ele>100.4</ele>
        <time>2025-10-02T08:56:42Z</time>
      </trkpt>
      <trkpt lat="48.24242" lon="-1.95482">
        <ele>100</ele>
        <time>2025-10-02T08:56:51Z</time>
      </trkpt>
      <trkpt lat="48.24219" lon="-1.95497">
        <ele>100</ele>
        <time>2025-10-02T08:56:55Z</time>
      </trkpt>
      <trkpt lat="48.24175" lon="-1.95526">
        <ele>100</ele>
        <time>2025-10-02T08:57:03Z</time>
      </trkpt>
      <trkpt lat="48.24154" lon="-1.95541">
        <ele>99.6</ele>
        <time>2025-10-02T08:57:07Z</time>
      </trkpt>
      <trkpt lat="48.24132" lon="-1.95555">
        <ele>99.4</ele>
        <time>2025-10-02T08:57:11Z</time>
      </trkpt>
      <trkpt lat="48.24093" lon="-1.95582">
        <ele>99.6</ele>
        <time>2025-10-02T08:57:18Z</time>
      </trkpt>
      <trkpt lat="48.24067" lon="-1.95603">
        <ele>99</ele>
        <time>2025-10-02T08:57:23Z</time>
      </trkpt>
      <trkpt lat="48.24053" lon="-1.95621">
        <ele>98.2</ele>
        <time>2025-10-02T08:57:26Z</time>
      </trkpt>
      <trkpt lat="48.2403" lon="-1.95658">
        <ele>97.8</ele>
        <time>2025-10-02T08:57:31Z</time>
      </trkpt>
      <trkpt lat="48.24027" lon="-1.95666">
        <ele>97.8</ele>
        <time>2025-10-02T08:57:32Z</time>
      </trkpt>
      <trkpt lat="48.2402" lon="-1.95682">
        <ele>97.2</ele>
        <time>2025-10-02T08:57:34Z</time>
      </trkpt>
      <trkpt lat="48.24003" lon="-1.9572">
        <ele>96.6</ele>
        <time>2025-10-02T08:57:39Z</time>
      </trkpt>
      <trkpt lat="48.23995" lon="-1.95735">
        <ele>96.6</ele>
        <time>2025-10-02T08:57:41Z</time>
      </trkpt>
      <trkpt lat="48.2398" lon="-1.95767">
        <ele>96</ele>
        <time>2025-10-02T08:57:45Z</time>
      </trkpt>
      <trkpt lat="48.23965" lon="-1.958">
        <ele>95.8</ele>
        <time>2025-10-02T08:57:49Z</time>
      </trkpt>
      <trkpt lat="48.23957" lon="-1.95817">
        <ele>95</ele>
        <time>2025-10-02T08:57:51Z</time>
      </trkpt>
      <trkpt lat="48.23953" lon="-1.95826">
        <ele>94.6</ele>
        <time>2025-10-02T08:57:52Z</time>
      </trkpt>
      <trkpt lat="48.2394" lon="-1.95853">
        <ele>93.8</ele>
        <time>2025-10-02T08:57:55Z</time>
      </trkpt>
      <trkpt lat="48.23927" lon="-1.95881">
        <ele>92.8</ele>
        <time>2025-10-02T08:57:58Z</time>
      </trkpt>
      <trkpt lat="48.23924" lon="-1.95889">
        <ele>92.4</ele>
        <time>2025-10-02T08:57:59Z</time>
      </trkpt>
      <trkpt lat="48.23914" lon="-1.95911">
        <ele>91.8</ele>
        <time>2025-10-02T08:58:01Z</time>
      </trkpt>
      <trkpt lat="48.2389" lon="-1.95962">
        <ele>90</ele>
        <time>2025-10-02T08:58:06Z</time>
      </trkpt>
      <trkpt lat="48.23884" lon="-1.95975">
        <ele>89.8</ele>
        <time>2025-10-02T08:58:07Z</time>
      </trkpt>
      <trkpt lat="48.23869" lon="-1.96008">
        <ele>88.6</ele>
        <time>2025-10-02T08:58:10Z</time>
      </trkpt>
      <trkpt lat="48.23859" lon="-1.96028">
        <ele>87.4</ele>
        <time>2025-10-02T08:58:12Z</time>
      </trkpt>
      <trkpt lat="48.23843" lon="-1.96063">
        <ele>86.8</ele>
        <time>2025-10-02T08:58:15Z</time>
      </trkpt>
      <trkpt lat="48.2382" lon="-1.9611">
        <ele>86.8</ele>
        <time>2025-10-02T08:58:20Z</time>
      </trkpt>
      <trkpt lat="48.23794" lon="-1.96168">
        <ele>87.2</ele>
        <time>2025-10-02T08:58:27Z</time>
      </trkpt>
      <trkpt lat="48.23769" lon="-1.96223">
        <ele>87</ele>
        <time>2025-10-02T08:58:34Z</time>
      </trkpt>
      <trkpt lat="48.23765" lon="-1.9623">
        <ele>87</ele>
        <time>2025-10-02T08:58:35Z</time>
      </trkpt>
      <trkpt lat="48.23751" lon="-1.96262">
        <ele>87.6</ele>
        <time>2025-10-02T08:58:39Z</time>
      </trkpt>
      <trkpt lat="48.2374" lon="-1.96286">
        <ele>88.2</ele>
        <time>2025-10-02T08:58:42Z</time>
      </trkpt>
      <trkpt lat="48.23733" lon="-1.96299">
        <ele>88.4</ele>
        <time>2025-10-02T08:58:44Z</time>
      </trkpt>
      <trkpt lat="48.2373" lon="-1.96306">
        <ele>88.6</ele>
        <time>2025-10-02T08:58:45Z</time>
      </trkpt>
      <trkpt lat="48.23711" lon="-1.96345">
        <ele>89.6</ele>
        <time>2025-10-02T08:58:50Z</time>
      </trkpt>
      <trkpt lat="48.23701" lon="-1.96369">
        <ele>90.4</ele>
        <time>2025-10-02T08:58:53Z</time>
      </trkpt>
      <trkpt lat="48.23697" lon="-1.96377">
        <ele>90.6</ele>
        <time>2025-10-02T08:58:54Z</time>
      </trkpt>
      <trkpt lat="48.23675" lon="-1.96424">
        <ele>91.2</ele>
        <time>2025-10-02T08:59:00Z</time>
      </trkpt>
      <trkpt lat="48.23668" lon="-1.9644">
        <ele>91.6</ele>
        <time>2025-10-02T08:59:02Z</time>
      </trkpt>
      <trkpt lat="48.23649" lon="-1.96481">
        <ele>92</ele>
        <time>2025-10-02T08:59:07Z</time>
      </trkpt>
      <trkpt lat="48.23632" lon="-1.96508">
        <ele>92.6</ele>
        <time>2025-10-02T08:59:11Z</time>
      </trkpt>
      <trkpt lat="48.23623" lon="-1.96517">
        <ele>92.8</ele>
        <time>2025-10-02T08:59:13Z</time>
      </trkpt>
      <trkpt lat="48.23587" lon="-1.96552">
        <ele>93.4</ele>
        <time>2025-10-02T08:59:20Z</time>
      </trkpt>
      <trkpt lat="48.23569" lon="-1.96579">
        <ele>93.6</ele>
        <time>2025-10-02T08:59:24Z</time>
      </trkpt>
      <trkpt lat="48.23561" lon="-1.96594">
        <ele>93.8</ele>
        <time>2025-10-02T08:59:26Z</time>
      </trkpt>
      <trkpt lat="48.23534" lon="-1.96669">
        <ele>94.6</ele>
        <time>2025-10-02T08:59:35Z</time>
      </trkpt>
      <trkpt lat="48.23521" lon="-1.96699">
        <ele>94.6</ele>
        <time>2025-10-02T08:59:39Z</time>
      </trkpt>
      <trkpt lat="48.23509" lon="-1.96721">
        <ele>94.6</ele>
        <time>2025-10-02T08:59:42Z</time>
      </trkpt>
      <trkpt lat="48.23486" lon="-1.96751">
        <ele>94.8</ele>
        <time>2025-10-02T08:59:47Z</time>
      </trkpt>
      <trkpt lat="48.23465" lon="-1.96775">
        <ele>95.2</ele>
        <time>2025-10-02T08:59:51Z</time>
      </trkpt>
      <trkpt lat="48.23446" lon="-1.968">
        <ele>95.8</ele>
        <time>2025-10-02T08:59:55Z</time>
      </trkpt>
      <trkpt lat="48.23442" lon="-1.96806">
        <ele>96</ele>
        <time>2025-10-02T08:59:56Z</time>
      </trkpt>
      <trkpt lat="48.2343" lon="-1.96828">
        <ele>96.2</ele>
        <time>2025-10-02T08:59:59Z</time>
      </trkpt>
      <trkpt lat="48.23408" lon="-1.96886">
        <ele>96.4</ele>
        <time>2025-10-02T09:00:06Z</time>
      </trkpt>
      <trkpt lat="48.23391" lon="-1.96937">
        <ele>96.2</ele>
        <time>2025-10-02T09:00:12Z</time>
      </trkpt>
      <trkpt lat="48.2338" lon="-1.96971">
        <ele>96.2</ele>
        <time>2025-10-02T09:00:16Z</time>
      </trkpt>
      <trkpt lat="48.23373" lon="-1.96986">
        <ele>96.6</ele>
        <time>2025-10-02T09:00:18Z</time>
      </trkpt>
      <trkpt lat="48.23369" lon="-1.96994">
        <ele>96.8</ele>
        <time>2025-10-02T09:00:19Z</time>
      </trkpt>
      <trkpt lat="48.23362" lon="-1.97001">
        <ele>96.8</ele>
        <time>2025-10-02T09:00:21Z</time>
      </trkpt>
      <trkpt lat="48.23354" lon="-1.97">
        <ele>96.8</ele>
        <time>2025-10-02T09:00:23Z</time>
      </trkpt>
      <trkpt lat="48.23349" lon="-1.96997">
        <ele>96.8</ele>
        <time>2025-10-02T09:00:24Z</time>
      </trkpt>
      <trkpt lat="48.23345" lon="-1.96992">
        <ele>97</ele>
        <time>2025-10-02T09:00:25Z</time>
      </trkpt>
      <trkpt lat="48.23314" lon="-1.9696">
        <ele>97</ele>
        <time>2025-10-02T09:00:31Z</time>
      </trkpt>
      <trkpt lat="48.23269" lon="-1.96911">
        <ele>97.2</ele>
        <time>2025-10-02T09:00:40Z</time>
      </trkpt>
      <trkpt lat="48.23264" lon="-1.96906">
        <ele>97.2</ele>
        <time>2025-10-02T09:00:41Z</time>
      </trkpt>
      <trkpt lat="48.2322" lon="-1.96857">
        <ele>97</ele>
        <time>2025-10-02T09:00:50Z</time>
      </trkpt>
      <trkpt lat="48.23185" lon="-1.96819">
        <ele>97.2</ele>
        <time>2025-10-02T09:00:57Z</time>
      </trkpt>
      <trkpt lat="48.2314" lon="-1.96771">
        <ele>96.6</ele>
        <time>2025-10-02T09:01:06Z</time>
      </trkpt>
      <trkpt lat="48.23125" lon="-1.96754">
        <ele>96.6</ele>
        <time>2025-10-02T09:01:09Z</time>
      </trkpt>
      <trkpt lat="48.23083" lon="-1.9671">
        <ele>96.2</ele>
        <time>2025-10-02T09:01:17Z</time>
      </trkpt>
      <trkpt lat="48.23037" lon="-1.9666">
        <ele>95.8</ele>
        <time>2025-10-02T09:01:26Z</time>
      </trkpt>
      <trkpt lat="48.23027" lon="-1.96649">
        <ele>95.8</ele>
        <time>2025-10-02T09:01:28Z</time>
      </trkpt>
      <trkpt lat="48.22981" lon="-1.96602">
        <ele>95.4</ele>
        <time>2025-10-02T09:01:37Z</time>
      </trkpt>
      <trkpt lat="48.22972" lon="-1.96592">
        <ele>95</ele>
        <time>2025-10-02T09:01:39Z</time>
      </trkpt>
      <trkpt lat="48.22954" lon="-1.96573">
        <ele>94.8</ele>
        <time>2025-10-02T09:01:43Z</time>
      </trkpt>
      <trkpt lat="48.2295" lon="-1.96572">
        <ele>94.6</ele>
        <time>2025-10-02T09:01:44Z</time>
      </trkpt>
      <trkpt lat="48.22945" lon="-1.96572">
        <ele>94.4</ele>
        <time>2025-10-02T09:01:45Z</time>
      </trkpt>
      <trkpt lat="48.22936" lon="-1.96582">
        <ele>94.2</ele>
        <time>2025-10-02T09:01:47Z</time>
      </trkpt>
      <trkpt lat="48.22916" lon="-1.96613">
        <ele>93.6</ele>
        <time>2025-10-02T09:01:51Z</time>
      </trkpt>
      <trkpt lat="48.22911" lon="-1.96621">
        <ele>93.2</ele>
        <time>2025-10-02T09:01:52Z</time>
      </trkpt>
      <trkpt lat="48.22899" lon="-1.9664">
        <ele>92.6</ele>
        <time>2025-10-02T09:01:54Z</time>
      </trkpt>
      <trkpt lat="48.22881" lon="-1.96667">
        <ele>91.4</ele>
        <time>2025-10-02T09:01:57Z</time>
      </trkpt>
      <trkpt lat="48.2287" lon="-1.96684">
        <ele>91</ele>
        <time>2025-10-02T09:01:59Z</time>
      </trkpt>
      <trkpt lat="48.22855" lon="-1.96704">
        <ele>90.2</ele>
        <time>2025-10-02T09:02:01Z</time>
      </trkpt>
      <trkpt lat="48.22835" lon="-1.96729">
        <ele>89.2</ele>
        <time>2025-10-02T09:02:04Z</time>
      </trkpt>
      <trkpt lat="48.22828" lon="-1.96737">
        <ele>89.2</ele>
        <time>2025-10-02T09:02:05Z</time>
      </trkpt>
      <trkpt lat="48.22822" lon="-1.96746">
        <ele>89.2</ele>
        <time>2025-10-02T09:02:06Z</time>
      </trkpt>
      <trkpt lat="48.22793" lon="-1.96782">
        <ele>89</ele>
        <time>2025-10-02T09:02:11Z</time>
      </trkpt>
      <trkpt lat="48.22788" lon="-1.96788">
        <ele>89.2</ele>
        <time>2025-10-02T09:02:12Z</time>
      </trkpt>
      <trkpt lat="48.22762" lon="-1.96818">
        <ele>89.2</ele>
        <time>2025-10-02T09:02:17Z</time>
      </trkpt>
      <trkpt lat="48.22757" lon="-1.96824">
        <ele>89.4</ele>
        <time>2025-10-02T09:02:18Z</time>
      </trkpt>
      <trkpt lat="48.22727" lon="-1.96859">
        <ele>90.2</ele>
        <time>2025-10-02T09:02:24Z</time>
      </trkpt>
      <trkpt lat="48.22712" lon="-1.96878">
        <ele>90</ele>
        <time>2025-10-02T09:02:27Z</time>
      </trkpt>
      <trkpt lat="48.22674" lon="-1.96931">
        <ele>90.8</ele>
        <time>2025-10-02T09:02:35Z</time>
      </trkpt>
      <trkpt lat="48.22664" lon="-1.96955">
        <ele>91.2</ele>
        <time>2025-10-02T09:02:38Z</time>
      </trkpt>
      <trkpt lat="48.2265" lon="-1.96988">
        <ele>91.6</ele>
        <time>2025-10-02T09:02:42Z</time>
      </trkpt>
      <trkpt lat="48.2262" lon="-1.97061">
        <ele>92</ele>
        <time>2025-10-02T09:02:51Z</time>
      </trkpt>
      <trkpt lat="48.22609" lon="-1.97084">
        <ele>92.2</ele>
        <time>2025-10-02T09:02:54Z</time>
      </trkpt>
      <trkpt lat="48.22605" lon="-1.97093">
        <ele>92.4</ele>
        <time>2025-10-02T09:02:55Z</time>
      </trkpt>
      <trkpt lat="48.226" lon="-1.97109">
        <ele>92.4</ele>
        <time>2025-10-02T09:02:57Z</time>
      </trkpt>
      <trkpt lat="48.22597" lon="-1.97128">
        <ele>92.8</ele>
        <time>2025-10-02T09:02:59Z</time>
      </trkpt>
      <trkpt lat="48.22601" lon="-1.97165">
        <ele>93</ele>
        <time>2025-10-02T09:03:03Z</time>
      </trkpt>
      <trkpt lat="48.22602" lon="-1.97194">
        <ele>93</ele>
        <time>2025-10-02T09:03:06Z</time>
      </trkpt>
      <trkpt lat="48.22601" lon="-1.97223">
        <ele>93.2</ele>
        <time>2025-10-02T09:03:09Z</time>
      </trkpt>
      <trkpt lat="48.22593" lon="-1.97279">
        <ele>93.2</ele>
        <time>2025-10-02T09:03:15Z</time>
      </trkpt>
      <trkpt lat="48.22582" lon="-1.97363">
        <ele>92.8</ele>
        <time>2025-10-02T09:03:24Z</time>
      </trkpt>
      <trkpt lat="48.22572" lon="-1.97446">
        <ele>92.8</ele>
        <time>2025-10-02T09:03:33Z</time>
      </trkpt>
      <trkpt lat="48.22568" lon="-1.97474">
        <ele>92.8</ele>
        <time>2025-10-02T09:03:36Z</time>
      </trkpt>
      <trkpt lat="48.22563" lon="-1.97511">
        <ele>92.2</ele>
        <time>2025-10-02T09:03:40Z</time>
      </trkpt>
      <trkpt lat="48.22555" lon="-1.97567">
        <ele>91.8</ele>
        <time>2025-10-02T09:03:46Z</time>
      </trkpt>
      <trkpt lat="48.22549" lon="-1.97598">
        <ele>91.2</ele>
        <time>2025-10-02T09:03:50Z</time>
      </trkpt>
      <trkpt lat="48.22546" lon="-1.97604">
        <ele>91</ele>
        <time>2025-10-02T09:03:51Z</time>
      </trkpt>
      <trkpt lat="48.22542" lon="-1.97608">
        <ele>91</ele>
        <time>2025-10-02T09:03:52Z</time>
      </trkpt>
      <trkpt lat="48.22531" lon="-1.97612">
        <ele>91</ele>
        <time>2025-10-02T09:03:54Z</time>
      </trkpt>
      <trkpt lat="48.22494" lon="-1.97614">
        <ele>92</ele>
        <time>2025-10-02T09:04:00Z</time>
      </trkpt>
      <trkpt lat="48.22488" lon="-1.97615">
        <ele>92.2</ele>
        <time>2025-10-02T09:04:01Z</time>
      </trkpt>
      <trkpt lat="48.22449" lon="-1.9762">
        <ele>92.4</ele>
        <time>2025-10-02T09:04:07Z</time>
      </trkpt>
      <trkpt lat="48.22443" lon="-1.97621">
        <ele>92.2</ele>
        <time>2025-10-02T09:04:08Z</time>
      </trkpt>
      <trkpt lat="48.22393" lon="-1.97642">
        <ele>91.8</ele>
        <time>2025-10-02T09:04:16Z</time>
      </trkpt>
      <trkpt lat="48.22365" lon="-1.97657">
        <ele>92.2</ele>
        <time>2025-10-02T09:04:21Z</time>
      </trkpt>
      <trkpt lat="48.22354" lon="-1.97663">
        <ele>92.4</ele>
        <time>2025-10-02T09:04:23Z</time>
      </trkpt>
      <trkpt lat="48.22344" lon="-1.97669">
        <ele>92.6</ele>
        <time>2025-10-02T09:04:25Z</time>
      </trkpt>
      <trkpt lat="48.22312" lon="-1.97687">
        <ele>93.4</ele>
        <time>2025-10-02T09:04:31Z</time>
      </trkpt>
      <trkpt lat="48.22291" lon="-1.97699">
        <ele>94</ele>
        <time>2025-10-02T09:04:35Z</time>
      </trkpt>
      <trkpt lat="48.2228" lon="-1.97706">
        <ele>94.4</ele>
        <time>2025-10-02T09:04:37Z</time>
      </trkpt>
      <trkpt lat="48.22247" lon="-1.97725">
        <ele>95.2</ele>
        <time>2025-10-02T09:04:43Z</time>
      </trkpt>
      <trkpt lat="48.22237" lon="-1.97731">
        <ele>95.4</ele>
        <time>2025-10-02T09:04:45Z</time>
      </trkpt>
      <trkpt lat="48.22184" lon="-1.97761">
        <ele>95.8</ele>
        <time>2025-10-02T09:04:55Z</time>
      </trkpt>
      <trkpt lat="48.22178" lon="-1.97764">
        <ele>95.8</ele>
        <time>2025-10-02T09:04:56Z</time>
      </trkpt>
      <trkpt lat="48.22129" lon="-1.97792">
        <ele>96.2</ele>
        <time>2025-10-02T09:05:05Z</time>
      </trkpt>
      <trkpt lat="48.22123" lon="-1.97795">
        <ele>96.4</ele>
        <time>2025-10-02T09:05:06Z</time>
      </trkpt>
      <trkpt lat="48.22111" lon="-1.97802">
        <ele>96.4</ele>
        <time>2025-10-02T09:05:08Z</time>
      </trkpt>
      <trkpt lat="48.22094" lon="-1.97812">
        <ele>96.8</ele>
        <time>2025-10-02T09:05:11Z</time>
      </trkpt>
      <trkpt lat="48.2207" lon="-1.97824">
        <ele>97.4</ele>
        <time>2025-10-02T09:05:15Z</time>
      </trkpt>
      <trkpt lat="48.22064" lon="-1.97828">
        <ele>97.4</ele>
        <time>2025-10-02T09:05:16Z</time>
      </trkpt>
      <trkpt lat="48.22052" lon="-1.97834">
        <ele>97.8</ele>
        <time>2025-10-02T09:05:18Z</time>
      </trkpt>
      <trkpt lat="48.21999" lon="-1.97863">
        <ele>98</ele>
        <time>2025-10-02T09:05:27Z</time>
      </trkpt>
      <trkpt lat="48.21987" lon="-1.9787">
        <ele>98.2</ele>
        <time>2025-10-02T09:05:29Z</time>
      </trkpt>
      <trkpt lat="48.21969" lon="-1.97879">
        <ele>98.4</ele>
        <time>2025-10-02T09:05:32Z</time>
      </trkpt>
      <trkpt lat="48.21928" lon="-1.97902">
        <ele>98.8</ele>
        <time>2025-10-02T09:05:39Z</time>
      </trkpt>
      <trkpt lat="48.21874" lon="-1.97933">
        <ele>98.4</ele>
        <time>2025-10-02T09:05:48Z</time>
      </trkpt>
      <trkpt lat="48.21856" lon="-1.97944">
        <ele>98.4</ele>
        <time>2025-10-02T09:05:51Z</time>
      </trkpt>
      <trkpt lat="48.21826" lon="-1.9796">
        <ele>97.2</ele>
        <time>2025-10-02T09:05:56Z</time>
      </trkpt>
      <trkpt lat="48.21815" lon="-1.97967">
        <ele>96.8</ele>
        <time>2025-10-02T09:05:58Z</time>
      </trkpt>
      <trkpt lat="48.21805" lon="-1.97973">
        <ele>96.4</ele>
        <time>2025-10-02T09:06:00Z</time>
      </trkpt>
      <trkpt lat="48.21801" lon="-1.97975">
        <ele>96.2</ele>
        <time>2025-10-02T09:06:01Z</time>
      </trkpt>
      <trkpt lat="48.21796" lon="-1.97974">
        <ele>96.2</ele>
        <time>2025-10-02T09:06:02Z</time>
      </trkpt>
      <trkpt lat="48.21788" lon="-1.97967">
        <ele>96</ele>
        <time>2025-10-02T09:06:04Z</time>
      </trkpt>
      <trkpt lat="48.21784" lon="-1.97961">
        <ele>96</ele>
        <time>2025-10-02T09:06:05Z</time>
      </trkpt>
      <trkpt lat="48.21758" lon="-1.97914">
        <ele>96</ele>
        <time>2025-10-02T09:06:13Z</time>
      </trkpt>
      <trkpt lat="48.21733" lon="-1.97878">
        <ele>96.4</ele>
        <time>2025-10-02T09:06:19Z</time>
      </trkpt>
      <trkpt lat="48.21728" lon="-1.97872">
        <ele>96.6</ele>
        <time>2025-10-02T09:06:20Z</time>
      </trkpt>
      <trkpt lat="48.21711" lon="-1.97849">
        <ele>97</ele>
        <time>2025-10-02T09:06:24Z</time>
      </trkpt>
      <trkpt lat="48.21706" lon="-1.97844">
        <ele>97.2</ele>
        <time>2025-10-02T09:06:25Z</time>
      </trkpt>
      <trkpt lat="48.21685" lon="-1.97817">
        <ele>98</ele>
        <time>2025-10-02T09:06:30Z</time>
      </trkpt>
      <trkpt lat="48.21676" lon="-1.97807">
        <ele>98.2</ele>
        <time>2025-10-02T09:06:32Z</time>
      </trkpt>
      <trkpt lat="48.21643" lon="-1.97765">
        <ele>99</ele>
        <time>2025-10-02T09:06:40Z</time>
      </trkpt>
      <trkpt lat="48.21634" lon="-1.97755">
        <ele>99.2</ele>
        <time>2025-10-02T09:06:42Z</time>
      </trkpt>
      <trkpt lat="48.2163" lon="-1.9775">
        <ele>99.4</ele>
        <time>2025-10-02T09:06:43Z</time>
      </trkpt>
      <trkpt lat="48.21597" lon="-1.97718">
        <ele>99.4</ele>
        <time>2025-10-02T09:06:50Z</time>
      </trkpt>
      <trkpt lat="48.21562" lon="-1.97697">
        <ele>100.4</ele>
        <time>2025-10-02T09:06:57Z</time>
      </trkpt>
      <trkpt lat="48.21551" lon="-1.9769">
        <ele>100.6</ele>
        <time>2025-10-02T09:06:59Z</time>
      </trkpt>
      <trkpt lat="48.21506" lon="-1.9766">
        <ele>101.4</ele>
        <time>2025-10-02T09:07:08Z</time>
      </trkpt>
      <trkpt lat="48.21471" lon="-1.97617">
        <ele>102.4</ele>
        <time>2025-10-02T09:07:16Z</time>
      </trkpt>
      <trkpt lat="48.2143" lon="-1.97568">
        <ele>103</ele>
        <time>2025-10-02T09:07:25Z</time>
      </trkpt>
      <trkpt lat="48.21425" lon="-1.97564">
        <ele>103.2</ele>
        <time>2025-10-02T09:07:26Z</time>
      </trkpt>
      <trkpt lat="48.21384" lon="-1.97546">
        <ele>103.4</ele>
        <time>2025-10-02T09:07:33Z</time>
      </trkpt>
      <trkpt lat="48.21341" lon="-1.97531">
        <ele>103.4</ele>
        <time>2025-10-02T09:07:40Z</time>
      </trkpt>
      <trkpt lat="48.21329" lon="-1.97528">
        <ele>103.4</ele>
        <time>2025-10-02T09:07:42Z</time>
      </trkpt>
      <trkpt lat="48.21284" lon="-1.97528">
        <ele>103</ele>
        <time>2025-10-02T09:07:49Z</time>
      </trkpt>
      <trkpt lat="48.21246" lon="-1.97533">
        <ele>102.4</ele>
        <time>2025-10-02T09:07:55Z</time>
      </trkpt>
      <trkpt lat="48.21227" lon="-1.97534">
        <ele>102.2</ele>
        <time>2025-10-02T09:07:58Z</time>
      </trkpt>
      <trkpt lat="48.21188" lon="-1.97524">
        <ele>101.6</ele>
        <time>2025-10-02T09:08:04Z</time>
      </trkpt>
      <trkpt lat="48.21182" lon="-1.97522">
        <ele>101.2</ele>
        <time>2025-10-02T09:08:05Z</time>
      </trkpt>
      <trkpt lat="48.21141" lon="-1.97509">
        <ele>100</ele>
        <time>2025-10-02T09:08:11Z</time>
      </trkpt>
      <trkpt lat="48.21128" lon="-1.97504">
        <ele>99.8</ele>
        <time>2025-10-02T09:08:13Z</time>
      </trkpt>
      <trkpt lat="48.21107" lon="-1.97496">
        <ele>99</ele>
        <time>2025-10-02T09:08:16Z</time>
      </trkpt>
      <trkpt lat="48.21065" lon="-1.9748">
        <ele>97.8</ele>
        <time>2025-10-02T09:08:22Z</time>
      </trkpt>
      <trkpt lat="48.21058" lon="-1.97477">
        <ele>97.6</ele>
        <time>2025-10-02T09:08:23Z</time>
      </trkpt>
      <trkpt lat="48.21037" lon="-1.97469">
        <ele>96.8</ele>
        <time>2025-10-02T09:08:26Z</time>
      </trkpt>
      <trkpt lat="48.21007" lon="-1.97458">
        <ele>95.8</ele>
        <time>2025-10-02T09:08:30Z</time>
      </trkpt>
      <trkpt lat="48.20987" lon="-1.97451">
        <ele>95</ele>
        <time>2025-10-02T09:08:33Z</time>
      </trkpt>
      <trkpt lat="48.20973" lon="-1.97446">
        <ele>94.4</ele>
        <time>2025-10-02T09:08:35Z</time>
      </trkpt>
      <trkpt lat="48.20929" lon="-1.97428">
        <ele>93.2</ele>
        <time>2025-10-02T09:08:41Z</time>
      </trkpt>
      <trkpt lat="48.20893" lon="-1.97411">
        <ele>92</ele>
        <time>2025-10-02T09:08:46Z</time>
      </trkpt>
      <trkpt lat="48.20872" lon="-1.97398">
        <ele>91.4</ele>
        <time>2025-10-02T09:08:49Z</time>
      </trkpt>
      <trkpt lat="48.20852" lon="-1.97383">
        <ele>90.8</ele>
        <time>2025-10-02T09:08:52Z</time>
      </trkpt>
      <trkpt lat="48.20832" lon="-1.97368">
        <ele>89.6</ele>
        <time>2025-10-02T09:08:55Z</time>
      </trkpt>
      <trkpt lat="48.20819" lon="-1.97357">
        <ele>89.2</ele>
        <time>2025-10-02T09:08:57Z</time>
      </trkpt>
      <trkpt lat="48.20807" lon="-1.97345">
        <ele>88.4</ele>
        <time>2025-10-02T09:08:59Z</time>
      </trkpt>
      <trkpt lat="48.20775" lon="-1.97314">
        <ele>87.8</ele>
        <time>2025-10-02T09:09:04Z</time>
      </trkpt>
      <trkpt lat="48.2077" lon="-1.97308">
        <ele>87.6</ele>
        <time>2025-10-02T09:09:05Z</time>
      </trkpt>
      <trkpt lat="48.20764" lon="-1.97301">
        <ele>87.2</ele>
        <time>2025-10-02T09:09:06Z</time>
      </trkpt>
      <trkpt lat="48.20752" lon="-1.97289">
        <ele>86.6</ele>
        <time>2025-10-02T09:09:08Z</time>
      </trkpt>
      <trkpt lat="48.2074" lon="-1.97277">
        <ele>86.2</ele>
        <time>2025-10-02T09:09:10Z</time>
      </trkpt>
      <trkpt lat="48.20734" lon="-1.97271">
        <ele>86</ele>
        <time>2025-10-02T09:09:11Z</time>
      </trkpt>
      <trkpt lat="48.20721" lon="-1.97259">
        <ele>85.4</ele>
        <time>2025-10-02T09:09:13Z</time>
      </trkpt>
      <trkpt lat="48.20707" lon="-1.9725">
        <ele>85</ele>
        <time>2025-10-02T09:09:15Z</time>
      </trkpt>
      <trkpt lat="48.20671" lon="-1.97231">
        <ele>84</ele>
        <time>2025-10-02T09:09:20Z</time>
      </trkpt>
      <trkpt lat="48.20628" lon="-1.9721">
        <ele>82.4</ele>
        <time>2025-10-02T09:09:26Z</time>
      </trkpt>
      <trkpt lat="48.20587" lon="-1.97189">
        <ele>81.8</ele>
        <time>2025-10-02T09:09:32Z</time>
      </trkpt>
      <trkpt lat="48.20573" lon="-1.97182">
        <ele>81.4</ele>
        <time>2025-10-02T09:09:34Z</time>
      </trkpt>
      <trkpt lat="48.20536" lon="-1.97164">
        <ele>80.4</ele>
        <time>2025-10-02T09:09:40Z</time>
      </trkpt>
      <trkpt lat="48.20524" lon="-1.97157">
        <ele>79.6</ele>
        <time>2025-10-02T09:09:44Z</time>
      </trkpt>
      <trkpt lat="48.20505" lon="-1.97147">
        <ele>79.8</ele>
        <time>2025-10-02T09:09:49Z</time>
      </trkpt>
      <trkpt lat="48.20482" lon="-1.97138">
        <ele>79.6</ele>
        <time>2025-10-02T09:09:53Z</time>
      </trkpt>
      <trkpt lat="48.2047" lon="-1.97136">
        <ele>79.4</ele>
        <time>2025-10-02T09:09:55Z</time>
      </trkpt>
      <trkpt lat="48.20464" lon="-1.97135">
        <ele>79.2</ele>
        <time>2025-10-02T09:09:56Z</time>
      </trkpt>
      <trkpt lat="48.20424" lon="-1.97133">
        <ele>78.4</ele>
        <time>2025-10-02T09:10:02Z</time>
      </trkpt>
      <trkpt lat="48.20397" lon="-1.97136">
        <ele>78</ele>
        <time>2025-10-02T09:10:06Z</time>
      </trkpt>
      <trkpt lat="48.20371" lon="-1.97139">
        <ele>77.4</ele>
        <time>2025-10-02T09:10:10Z</time>
      </trkpt>
      <trkpt lat="48.20345" lon="-1.97144">
        <ele>77</ele>
        <time>2025-10-02T09:10:14Z</time>
      </trkpt>
      <trkpt lat="48.20319" lon="-1.97147">
        <ele>75.8</ele>
        <time>2025-10-02T09:10:18Z</time>
      </trkpt>
      <trkpt lat="48.20313" lon="-1.97147">
        <ele>75.8</ele>
        <time>2025-10-02T09:10:19Z</time>
      </trkpt>
      <trkpt lat="48.20281" lon="-1.97142">
        <ele>75.4</ele>
        <time>2025-10-02T09:10:24Z</time>
      </trkpt>
      <trkpt lat="48.20275" lon="-1.97139">
        <ele>75.2</ele>
        <time>2025-10-02T09:10:25Z</time>
      </trkpt>
      <trkpt lat="48.20269" lon="-1.97135">
        <ele>75.2</ele>
        <time>2025-10-02T09:10:26Z</time>
      </trkpt>
      <trkpt lat="48.20248" lon="-1.97112">
        <ele>74.8</ele>
        <time>2025-10-02T09:10:30Z</time>
      </trkpt>
      <trkpt lat="48.20242" lon="-1.97106">
        <ele>74.8</ele>
        <time>2025-10-02T09:10:31Z</time>
      </trkpt>
      <trkpt lat="48.20212" lon="-1.97083">
        <ele>73.6</ele>
        <time>2025-10-02T09:10:36Z</time>
      </trkpt>
      <trkpt lat="48.20182" lon="-1.97064">
        <ele>72.4</ele>
        <time>2025-10-02T09:10:41Z</time>
      </trkpt>
      <trkpt lat="48.20153" lon="-1.97044">
        <ele>72.2</ele>
        <time>2025-10-02T09:10:46Z</time>
      </trkpt>
      <trkpt lat="48.20124" lon="-1.9701">
        <ele>72</ele>
        <time>2025-10-02T09:10:52Z</time>
      </trkpt>
      <trkpt lat="48.20088" lon="-1.96947">
        <ele>72.2</ele>
        <time>2025-10-02T09:11:01Z</time>
      </trkpt>
      <trkpt lat="48.20079" lon="-1.96934">
        <ele>72.2</ele>
        <time>2025-10-02T09:11:03Z</time>
      </trkpt>
      <trkpt lat="48.20047" lon="-1.96896">
        <ele>72.8</ele>
        <time>2025-10-02T09:11:10Z</time>
      </trkpt>
      <trkpt lat="48.19998" lon="-1.96863">
        <ele>73.8</ele>
        <time>2025-10-02T09:11:19Z</time>
      </trkpt>
      <trkpt lat="48.1997" lon="-1.96848">
        <ele>75</ele>
        <time>2025-10-02T09:11:24Z</time>
      </trkpt>
      <trkpt lat="48.19953" lon="-1.96838">
        <ele>75.4</ele>
        <time>2025-10-02T09:11:27Z</time>
      </trkpt>
      <trkpt lat="48.19936" lon="-1.96828">
        <ele>76.2</ele>
        <time>2025-10-02T09:11:30Z</time>
      </trkpt>
      <trkpt lat="48.19898" lon="-1.96806">
        <ele>77.2</ele>
        <time>2025-10-02T09:11:37Z</time>
      </trkpt>
      <trkpt lat="48.19892" lon="-1.96802">
        <ele>77.4</ele>
        <time>2025-10-02T09:11:38Z</time>
      </trkpt>
      <trkpt lat="48.19869" lon="-1.9679">
        <ele>78.2</ele>
        <time>2025-10-02T09:11:42Z</time>
      </trkpt>
      <trkpt lat="48.19847" lon="-1.96778">
        <ele>78.6</ele>
        <time>2025-10-02T09:11:46Z</time>
      </trkpt>
      <trkpt lat="48.19841" lon="-1.96774">
        <ele>78.8</ele>
        <time>2025-10-02T09:11:47Z</time>
      </trkpt>
      <trkpt lat="48.19819" lon="-1.96762">
        <ele>79.2</ele>
        <time>2025-10-02T09:11:51Z</time>
      </trkpt>
      <trkpt lat="48.19785" lon="-1.96742">
        <ele>79.8</ele>
        <time>2025-10-02T09:11:57Z</time>
      </trkpt>
      <trkpt lat="48.19768" lon="-1.96734">
        <ele>80.4</ele>
        <time>2025-10-02T09:12:00Z</time>
      </trkpt>
      <trkpt lat="48.19728" lon="-1.96711">
        <ele>81.4</ele>
        <time>2025-10-02T09:12:07Z</time>
      </trkpt>
      <trkpt lat="48.19712" lon="-1.96701">
        <ele>81.6</ele>
        <time>2025-10-02T09:12:10Z</time>
      </trkpt>
      <trkpt lat="48.19673" lon="-1.96675">
        <ele>82.2</ele>
        <time>2025-10-02T09:12:17Z</time>
      </trkpt>
      <trkpt lat="48.19668" lon="-1.9667">
        <ele>82.4</ele>
        <time>2025-10-02T09:12:18Z</time>
      </trkpt>
      <trkpt lat="48.19663" lon="-1.96665">
        <ele>82.6</ele>
        <time>2025-10-02T09:12:19Z</time>
      </trkpt>
      <trkpt lat="48.19657" lon="-1.9666">
        <ele>82.8</ele>
        <time>2025-10-02T09:12:20Z</time>
      </trkpt>
      <trkpt lat="48.19617" lon="-1.96621">
        <ele>83.4</ele>
        <time>2025-10-02T09:12:28Z</time>
      </trkpt>
      <trkpt lat="48.19611" lon="-1.96616">
        <ele>83.6</ele>
        <time>2025-10-02T09:12:29Z</time>
      </trkpt>
      <trkpt lat="48.19571" lon="-1.96577">
        <ele>84.2</ele>
        <time>2025-10-02T09:12:37Z</time>
      </trkpt>
      <trkpt lat="48.19556" lon="-1.96563">
        <ele>84.6</ele>
        <time>2025-10-02T09:12:40Z</time>
      </trkpt>
      <trkpt lat="48.19527" lon="-1.96533">
        <ele>85.4</ele>
        <time>2025-10-02T09:12:46Z</time>
      </trkpt>
      <trkpt lat="48.19521" lon="-1.96527">
        <ele>85.6</ele>
        <time>2025-10-02T09:12:47Z</time>
      </trkpt>
      <trkpt lat="48.19475" lon="-1.9648">
        <ele>86.4</ele>
        <time>2025-10-02T09:12:56Z</time>
      </trkpt>
      <trkpt lat="48.19443" lon="-1.96447">
        <ele>85.8</ele>
        <time>2025-10-02T09:13:02Z</time>
      </trkpt>
      <trkpt lat="48.19421" lon="-1.96426">
        <ele>85.6</ele>
        <time>2025-10-02T09:13:06Z</time>
      </trkpt>
      <trkpt lat="48.1941" lon="-1.96416">
        <ele>85</ele>
        <time>2025-10-02T09:13:08Z</time>
      </trkpt>
      <trkpt lat="48.19367" lon="-1.96374">
        <ele>84.6</ele>
        <time>2025-10-02T09:13:16Z</time>
      </trkpt>
      <trkpt lat="48.19362" lon="-1.96368">
        <ele>84.6</ele>
        <time>2025-10-02T09:13:17Z</time>
      </trkpt>
      <trkpt lat="48.19346" lon="-1.96352">
        <ele>84.2</ele>
        <time>2025-10-02T09:13:20Z</time>
      </trkpt>
      <trkpt lat="48.1934" lon="-1.96347">
        <ele>84.2</ele>
        <time>2025-10-02T09:13:21Z</time>
      </trkpt>
      <trkpt lat="48.19335" lon="-1.96341">
        <ele>84</ele>
        <time>2025-10-02T09:13:22Z</time>
      </trkpt>
      <trkpt lat="48.19329" lon="-1.96336">
        <ele>84</ele>
        <time>2025-10-02T09:13:23Z</time>
      </trkpt>
      <trkpt lat="48.19308" lon="-1.96314">
        <ele>83.4</ele>
        <time>2025-10-02T09:13:27Z</time>
      </trkpt>
      <trkpt lat="48.19302" lon="-1.96308">
        <ele>83.4</ele>
        <time>2025-10-02T09:13:28Z</time>
      </trkpt>
      <trkpt lat="48.19271" lon="-1.96262">
        <ele>82.6</ele>
        <time>2025-10-02T09:13:35Z</time>
      </trkpt>
      <trkpt lat="48.19264" lon="-1.96245">
        <ele>82.4</ele>
        <time>2025-10-02T09:13:37Z</time>
      </trkpt>
      <trkpt lat="48.19256" lon="-1.96217">
        <ele>82.2</ele>
        <time>2025-10-02T09:13:40Z</time>
      </trkpt>
      <trkpt lat="48.19243" lon="-1.96162">
        <ele>81.4</ele>
        <time>2025-10-02T09:13:46Z</time>
      </trkpt>
      <trkpt lat="48.19235" lon="-1.96126">
        <ele>81</ele>
        <time>2025-10-02T09:13:50Z</time>
      </trkpt>
      <trkpt lat="48.19233" lon="-1.96116">
        <ele>80.8</ele>
        <time>2025-10-02T09:13:51Z</time>
      </trkpt>
      <trkpt lat="48.19223" lon="-1.9607">
        <ele>80.2</ele>
        <time>2025-10-02T09:13:56Z</time>
      </trkpt>
      <trkpt lat="48.19207" lon="-1.96006">
        <ele>79.8</ele>
        <time>2025-10-02T09:14:03Z</time>
      </trkpt>
      <trkpt lat="48.19198" lon="-1.95979">
        <ele>79</ele>
        <time>2025-10-02T09:14:06Z</time>
      </trkpt>
      <trkpt lat="48.19184" lon="-1.95955">
        <ele>78.6</ele>
        <time>2025-10-02T09:14:09Z</time>
      </trkpt>
      <trkpt lat="48.19167" lon="-1.95933">
        <ele>78</ele>
        <time>2025-10-02T09:14:12Z</time>
      </trkpt>
      <trkpt lat="48.19155" lon="-1.9592">
        <ele>77.2</ele>
        <time>2025-10-02T09:14:14Z</time>
      </trkpt>
      <trkpt lat="48.19149" lon="-1.95914">
        <ele>76.8</ele>
        <time>2025-10-02T09:14:15Z</time>
      </trkpt>
      <trkpt lat="48.19126" lon="-1.95887">
        <ele>76</ele>
        <time>2025-10-02T09:14:19Z</time>
      </trkpt>
      <trkpt lat="48.19115" lon="-1.95873">
        <ele>75.6</ele>
        <time>2025-10-02T09:14:21Z</time>
      </trkpt>
      <trkpt lat="48.19111" lon="-1.95865">
        <ele>75.4</ele>
        <time>2025-10-02T09:14:22Z</time>
      </trkpt>
      <trkpt lat="48.19102" lon="-1.95848">
        <ele>75</ele>
        <time>2025-10-02T09:14:24Z</time>
      </trkpt>
      <trkpt lat="48.19096" lon="-1.95829">
        <ele>74.6</ele>
        <time>2025-10-02T09:14:26Z</time>
      </trkpt>
      <trkpt lat="48.19093" lon="-1.95819">
        <ele>74.2</ele>
        <time>2025-10-02T09:14:27Z</time>
      </trkpt>
      <trkpt lat="48.19078" lon="-1.95762">
        <ele>73.4</ele>
        <time>2025-10-02T09:14:33Z</time>
      </trkpt>
      <trkpt lat="48.19066" lon="-1.95716">
        <ele>73</ele>
        <time>2025-10-02T09:14:38Z</time>
      </trkpt>
      <trkpt lat="48.19057" lon="-1.9569">
        <ele>72.4</ele>
        <time>2025-10-02T09:14:41Z</time>
      </trkpt>
      <trkpt lat="48.1904" lon="-1.95647">
        <ele>72</ele>
        <time>2025-10-02T09:14:46Z</time>
      </trkpt>
      <trkpt lat="48.19022" lon="-1.95615">
        <ele>71.4</ele>
        <time>2025-10-02T09:14:50Z</time>
      </trkpt>
      <trkpt lat="48.19012" lon="-1.95601">
        <ele>71</ele>
        <time>2025-10-02T09:14:52Z</time>
      </trkpt>
      <trkpt lat="48.18991" lon="-1.95572">
        <ele>70</ele>
        <time>2025-10-02T09:14:56Z</time>
      </trkpt>
      <trkpt lat="48.18967" lon="-1.95546">
        <ele>69.2</ele>
        <time>2025-10-02T09:15:00Z</time>
      </trkpt>
      <trkpt lat="48.18961" lon="-1.95541">
        <ele>68.8</ele>
        <time>2025-10-02T09:15:01Z</time>
      </trkpt>
      <trkpt lat="48.18953" lon="-1.95538">
        <ele>68.4</ele>
        <time>2025-10-02T09:15:02Z</time>
      </trkpt>
      <trkpt lat="48.18938" lon="-1.95536">
        <ele>67.4</ele>
        <time>2025-10-02T09:15:04Z</time>
      </trkpt>
      <trkpt lat="48.18932" lon="-1.95536">
        <ele>67.4</ele>
        <time>2025-10-02T09:15:05Z</time>
      </trkpt>
      <trkpt lat="48.18911" lon="-1.95538">
        <ele>66.6</ele>
        <time>2025-10-02T09:15:09Z</time>
      </trkpt>
      <trkpt lat="48.18906" lon="-1.95537">
        <ele>66.4</ele>
        <time>2025-10-02T09:15:10Z</time>
      </trkpt>
      <trkpt lat="48.18881" lon="-1.95528">
        <ele>66</ele>
        <time>2025-10-02T09:15:14Z</time>
      </trkpt>
      <trkpt lat="48.18868" lon="-1.95521">
        <ele>65.8</ele>
        <time>2025-10-02T09:15:16Z</time>
      </trkpt>
      <trkpt lat="48.18849" lon="-1.95509">
        <ele>65.4</ele>
        <time>2025-10-02T09:15:19Z</time>
      </trkpt>
      <trkpt lat="48.18843" lon="-1.95505">
        <ele>65.2</ele>
        <time>2025-10-02T09:15:20Z</time>
      </trkpt>
      <trkpt lat="48.18831" lon="-1.95498">
        <ele>65</ele>
        <time>2025-10-02T09:15:22Z</time>
      </trkpt>
      <trkpt lat="48.18806" lon="-1.95483">
        <ele>64.4</ele>
        <time>2025-10-02T09:15:26Z</time>
      </trkpt>
      <trkpt lat="48.18795" lon="-1.95476">
        <ele>64.4</ele>
        <time>2025-10-02T09:15:28Z</time>
      </trkpt>
      <trkpt lat="48.18789" lon="-1.95472">
        <ele>64.4</ele>
        <time>2025-10-02T09:15:29Z</time>
      </trkpt>
      <trkpt lat="48.18778" lon="-1.95465">
        <ele>64</ele>
        <time>2025-10-02T09:15:31Z</time>
      </trkpt>
      <trkpt lat="48.18764" lon="-1.95456">
        <ele>63.6</ele>
        <time>2025-10-02T09:15:34Z</time>
      </trkpt>
      <trkpt lat="48.18756" lon="-1.95447">
        <ele>63.4</ele>
        <time>2025-10-02T09:15:36Z</time>
      </trkpt>
      <trkpt lat="48.18754" lon="-1.9544">
        <ele>63.4</ele>
        <time>2025-10-02T09:15:37Z</time>
      </trkpt>
      <trkpt lat="48.18753" lon="-1.95434">
        <ele>63.6</ele>
        <time>2025-10-02T09:15:38Z</time>
      </trkpt>
      <trkpt lat="48.18752" lon="-1.9542">
        <ele>63.6</ele>
        <time>2025-10-02T09:15:41Z</time>
      </trkpt>
      <trkpt lat="48.18752" lon="-1.95418">
        <ele>63.6</ele>
        <time>2025-10-02T09:15:42Z</time>
      </trkpt>
      <trkpt lat="48.18753" lon="-1.95417">
        <ele>63.4</ele>
        <time>2025-10-02T09:15:44Z</time>
      </trkpt>
      <trkpt lat="48.18755" lon="-1.95421">
        <ele>63.4</ele>
        <time>2025-10-02T09:15:47Z</time>
      </trkpt>
      <trkpt lat="48.18755" lon="-1.95428">
        <ele>63.6</ele>
        <time>2025-10-02T09:15:49Z</time>
      </trkpt>
      <trkpt lat="48.18756" lon="-1.95448">
        <ele>63.4</ele>
        <time>2025-10-02T09:15:53Z</time>
      </trkpt>
      <trkpt lat="48.18757" lon="-1.95452">
        <ele>63.4</ele>
        <time>2025-10-02T09:15:54Z</time>
      </trkpt>
      <trkpt lat="48.18759" lon="-1.95471">
        <ele>63.2</ele>
        <time>2025-10-02T09:15:58Z</time>
      </trkpt>
      <trkpt lat="48.1876" lon="-1.95489">
        <ele>62.8</ele>
        <time>2025-10-02T09:16:01Z</time>
      </trkpt>
      <trkpt lat="48.1876" lon="-1.95495">
        <ele>62.8</ele>
        <time>2025-10-02T09:16:02Z</time>
      </trkpt>
      <trkpt lat="48.18762" lon="-1.95539">
        <ele>62.2</ele>
        <time>2025-10-02T09:16:08Z</time>
      </trkpt>
      <trkpt lat="48.18762" lon="-1.9557">
        <ele>62</ele>
        <time>2025-10-02T09:16:12Z</time>
      </trkpt>
      <trkpt lat="48.18761" lon="-1.95595">
        <ele>61.6</ele>
        <time>2025-10-02T09:16:15Z</time>
      </trkpt>
      <trkpt lat="48.1876" lon="-1.95603">
        <ele>61.6</ele>
        <time>2025-10-02T09:16:16Z</time>
      </trkpt>
      <trkpt lat="48.18754" lon="-1.9566">
        <ele>60.6</ele>
        <time>2025-10-02T09:16:23Z</time>
      </trkpt>
      <trkpt lat="48.18754" lon="-1.95669">
        <ele>60.6</ele>
        <time>2025-10-02T09:16:24Z</time>
      </trkpt>
      <trkpt lat="48.1874" lon="-1.95751">
        <ele>60.2</ele>
        <time>2025-10-02T09:16:33Z</time>
      </trkpt>
      <trkpt lat="48.18727" lon="-1.95834">
        <ele>60.2</ele>
        <time>2025-10-02T09:16:42Z</time>
      </trkpt>
      <trkpt lat="48.18724" lon="-1.95853">
        <ele>60.4</ele>
        <time>2025-10-02T09:16:44Z</time>
      </trkpt>
      <trkpt lat="48.18713" lon="-1.95937">
        <ele>61.4</ele>
        <time>2025-10-02T09:16:53Z</time>
      </trkpt>
      <trkpt lat="48.18712" lon="-1.95946">
        <ele>61.6</ele>
        <time>2025-10-02T09:16:54Z</time>
      </trkpt>
      <trkpt lat="48.18711" lon="-1.95955">
        <ele>61.8</ele>
        <time>2025-10-02T09:16:55Z</time>
      </trkpt>
      <trkpt lat="48.18708" lon="-1.96021">
        <ele>62.8</ele>
        <time>2025-10-02T09:17:02Z</time>
      </trkpt>
      <trkpt lat="48.18708" lon="-1.9603">
        <ele>63</ele>
        <time>2025-10-02T09:17:03Z</time>
      </trkpt>
      <trkpt lat="48.18712" lon="-1.96105">
        <ele>63.8</ele>
        <time>2025-10-02T09:17:11Z</time>
      </trkpt>
      <trkpt lat="48.18713" lon="-1.96114">
        <ele>64</ele>
        <time>2025-10-02T09:17:12Z</time>
      </trkpt>
      <trkpt lat="48.18718" lon="-1.9616">
        <ele>65</ele>
        <time>2025-10-02T09:17:17Z</time>
      </trkpt>
      <trkpt lat="48.18721" lon="-1.96187">
        <ele>65.2</ele>
        <time>2025-10-02T09:17:20Z</time>
      </trkpt>
      <trkpt lat="48.18725" lon="-1.96222">
        <ele>65.6</ele>
        <time>2025-10-02T09:17:24Z</time>
      </trkpt>
      <trkpt lat="48.1873" lon="-1.96258">
        <ele>66</ele>
        <time>2025-10-02T09:17:28Z</time>
      </trkpt>
      <trkpt lat="48.18736" lon="-1.96311">
        <ele>66.4</ele>
        <time>2025-10-02T09:17:34Z</time>
      </trkpt>
      <trkpt lat="48.18741" lon="-1.96356">
        <ele>67.2</ele>
        <time>2025-10-02T09:17:39Z</time>
      </trkpt>
      <trkpt lat="48.18746" lon="-1.96401">
        <ele>67.6</ele>
        <time>2025-10-02T09:17:44Z</time>
      </trkpt>
      <trkpt lat="48.18754" lon="-1.96456">
        <ele>68.2</ele>
        <time>2025-10-02T09:17:50Z</time>
      </trkpt>
      <trkpt lat="48.18761" lon="-1.96518">
        <ele>68.8</ele>
        <time>2025-10-02T09:17:57Z</time>
      </trkpt>
      <trkpt lat="48.18764" lon="-1.96545">
        <ele>69</ele>
        <time>2025-10-02T09:18:00Z</time>
      </trkpt>
      <trkpt lat="48.18765" lon="-1.96554">
        <ele>69.2</ele>
        <time>2025-10-02T09:18:01Z</time>
      </trkpt>
      <trkpt lat="48.18774" lon="-1.96635">
        <ele>70</ele>
        <time>2025-10-02T09:18:10Z</time>
      </trkpt>
      <trkpt lat="48.18776" lon="-1.96644">
        <ele>70</ele>
        <time>2025-10-02T09:18:11Z</time>
      </trkpt>
      <trkpt lat="48.18781" lon="-1.96688">
        <ele>70.4</ele>
        <time>2025-10-02T09:18:16Z</time>
      </trkpt>
      <trkpt lat="48.18784" lon="-1.96716">
        <ele>70.8</ele>
        <time>2025-10-02T09:18:19Z</time>
      </trkpt>
      <trkpt lat="48.18789" lon="-1.96762">
        <ele>71.6</ele>
        <time>2025-10-02T09:18:24Z</time>
      </trkpt>
      <trkpt lat="48.18795" lon="-1.96818">
        <ele>72</ele>
        <time>2025-10-02T09:18:30Z</time>
      </trkpt>
      <trkpt lat="48.18798" lon="-1.96873">
        <ele>72.6</ele>
        <time>2025-10-02T09:18:36Z</time>
      </trkpt>
      <trkpt lat="48.18799" lon="-1.96917">
        <ele>73.2</ele>
        <time>2025-10-02T09:18:41Z</time>
      </trkpt>
      <trkpt lat="48.188" lon="-1.9697">
        <ele>73.4</ele>
        <time>2025-10-02T09:18:47Z</time>
      </trkpt>
      <trkpt lat="48.18799" lon="-1.97013">
        <ele>73.6</ele>
        <time>2025-10-02T09:18:52Z</time>
      </trkpt>
      <trkpt lat="48.18798" lon="-1.97031">
        <ele>73.8</ele>
        <time>2025-10-02T09:18:54Z</time>
      </trkpt>
      <trkpt lat="48.18795" lon="-1.97087">
        <ele>74</ele>
        <time>2025-10-02T09:19:01Z</time>
      </trkpt>
      <trkpt lat="48.18793" lon="-1.9711">
        <ele>74.2</ele>
        <time>2025-10-02T09:19:06Z</time>
      </trkpt>
      <trkpt lat="48.18788" lon="-1.97147">
        <ele>74.6</ele>
        <time>2025-10-02T09:19:11Z</time>
      </trkpt>
      <trkpt lat="48.1878" lon="-1.97212">
        <ele>74.8</ele>
        <time>2025-10-02T09:19:18Z</time>
      </trkpt>
      <trkpt lat="48.18774" lon="-1.97258">
        <ele>75</ele>
        <time>2025-10-02T09:19:23Z</time>
      </trkpt>
      <trkpt lat="48.18769" lon="-1.97295">
        <ele>74.8</ele>
        <time>2025-10-02T09:19:27Z</time>
      </trkpt>
      <trkpt lat="48.18757" lon="-1.97382">
        <ele>74</ele>
        <time>2025-10-02T09:19:36Z</time>
      </trkpt>
      <trkpt lat="48.18756" lon="-1.97392">
        <ele>73.8</ele>
        <time>2025-10-02T09:19:37Z</time>
      </trkpt>
      <trkpt lat="48.18753" lon="-1.97412">
        <ele>73.6</ele>
        <time>2025-10-02T09:19:39Z</time>
      </trkpt>
      <trkpt lat="48.18745" lon="-1.97463">
        <ele>72.6</ele>
        <time>2025-10-02T09:19:44Z</time>
      </trkpt>
      <trkpt lat="48.18741" lon="-1.97495">
        <ele>71.8</ele>
        <time>2025-10-02T09:19:47Z</time>
      </trkpt>
      <trkpt lat="48.18739" lon="-1.97506">
        <ele>71.6</ele>
        <time>2025-10-02T09:19:48Z</time>
      </trkpt>
      <trkpt lat="48.18732" lon="-1.97565">
        <ele>70.4</ele>
        <time>2025-10-02T09:19:53Z</time>
      </trkpt>
      <trkpt lat="48.18729" lon="-1.9759">
        <ele>69.4</ele>
        <time>2025-10-02T09:19:55Z</time>
      </trkpt>
      <trkpt lat="48.18728" lon="-1.97603">
        <ele>69.2</ele>
        <time>2025-10-02T09:19:56Z</time>
      </trkpt>
      <trkpt lat="48.1872" lon="-1.9767">
        <ele>67.6</ele>
        <time>2025-10-02T09:20:01Z</time>
      </trkpt>
      <trkpt lat="48.18719" lon="-1.97684">
        <ele>67</ele>
        <time>2025-10-02T09:20:02Z</time>
      </trkpt>
      <trkpt lat="48.18718" lon="-1.97698">
        <ele>66.4</ele>
        <time>2025-10-02T09:20:03Z</time>
      </trkpt>
      <trkpt lat="48.18714" lon="-1.97726">
        <ele>65</ele>
        <time>2025-10-02T09:20:05Z</time>
      </trkpt>
      <trkpt lat="48.18709" lon="-1.9777">
        <ele>63.4</ele>
        <time>2025-10-02T09:20:08Z</time>
      </trkpt>
      <trkpt lat="48.18706" lon="-1.978">
        <ele>62.4</ele>
        <time>2025-10-02T09:20:10Z</time>
      </trkpt>
      <trkpt lat="48.18701" lon="-1.97849">
        <ele>61.2</ele>
        <time>2025-10-02T09:20:13Z</time>
      </trkpt>
      <trkpt lat="48.18699" lon="-1.97866">
        <ele>60</ele>
        <time>2025-10-02T09:20:14Z</time>
      </trkpt>
      <trkpt lat="48.18693" lon="-1.97916">
        <ele>58.8</ele>
        <time>2025-10-02T09:20:17Z</time>
      </trkpt>
      <trkpt lat="48.18692" lon="-1.97933">
        <ele>57.8</ele>
        <time>2025-10-02T09:20:18Z</time>
      </trkpt>
      <trkpt lat="48.18686" lon="-1.97981">
        <ele>56.6</ele>
        <time>2025-10-02T09:20:21Z</time>
      </trkpt>
      <trkpt lat="48.1868" lon="-1.9804">
        <ele>56.2</ele>
        <time>2025-10-02T09:20:25Z</time>
      </trkpt>
      <trkpt lat="48.18676" lon="-1.9808">
        <ele>56</ele>
        <time>2025-10-02T09:20:28Z</time>
      </trkpt>
      <trkpt lat="48.18674" lon="-1.98104">
        <ele>56.2</ele>
        <time>2025-10-02T09:20:30Z</time>
      </trkpt>
      <trkpt lat="48.18673" lon="-1.98115">
        <ele>56.2</ele>
        <time>2025-10-02T09:20:31Z</time>
      </trkpt>
      <trkpt lat="48.18672" lon="-1.98138">
        <ele>56.2</ele>
        <time>2025-10-02T09:20:33Z</time>
      </trkpt>
      <trkpt lat="48.18671" lon="-1.98149">
        <ele>56.4</ele>
        <time>2025-10-02T09:20:34Z</time>
      </trkpt>
      <trkpt lat="48.1867" lon="-1.98159">
        <ele>56.2</ele>
        <time>2025-10-02T09:20:35Z</time>
      </trkpt>
      <trkpt lat="48.1867" lon="-1.9817">
        <ele>56.4</ele>
        <time>2025-10-02T09:20:36Z</time>
      </trkpt>
      <trkpt lat="48.18669" lon="-1.9818">
        <ele>56.4</ele>
        <time>2025-10-02T09:20:37Z</time>
      </trkpt>
      <trkpt lat="48.18669" lon="-1.9819">
        <ele>56.4</ele>
        <time>2025-10-02T09:20:38Z</time>
      </trkpt>
      <trkpt lat="48.18671" lon="-1.98247">
        <ele>56.4</ele>
        <time>2025-10-02T09:20:44Z</time>
      </trkpt>
      <trkpt lat="48.1868" lon="-1.98323">
        <ele>57.2</ele>
        <time>2025-10-02T09:20:52Z</time>
      </trkpt>
      <trkpt lat="48.18691" lon="-1.9837">
        <ele>57.4</ele>
        <time>2025-10-02T09:20:58Z</time>
      </trkpt>
      <trkpt lat="48.18692" lon="-1.98378">
        <ele>57.6</ele>
        <time>2025-10-02T09:20:59Z</time>
      </trkpt>
      <trkpt lat="48.18691" lon="-1.9839">
        <ele>57.6</ele>
        <time>2025-10-02T09:21:01Z</time>
      </trkpt>
      <trkpt lat="48.18685" lon="-1.98398">
        <ele>57.6</ele>
        <time>2025-10-02T09:21:03Z</time>
      </trkpt>
      <trkpt lat="48.1868" lon="-1.98401">
        <ele>57.6</ele>
        <time>2025-10-02T09:21:04Z</time>
      </trkpt>
      <trkpt lat="48.18655" lon="-1.98419">
        <ele>57.4</ele>
        <time>2025-10-02T09:21:10Z</time>
      </trkpt>
      <trkpt lat="48.18647" lon="-1.98422">
        <ele>56.8</ele>
        <time>2025-10-02T09:21:14Z</time>
      </trkpt>
      <trkpt lat="48.18647" lon="-1.98422">
        <ele>57</ele>
        <time>2025-10-02T09:21:19Z</time>
      </trkpt>
      <trkpt lat="48.18647" lon="-1.98422">
        <ele>56.6</ele>
        <time>2025-10-02T09:21:23Z</time>
      </trkpt>
      <trkpt lat="48.18647" lon="-1.98422">
        <ele>56.8</ele>
        <time>2025-10-02T09:21:28Z</time>
      </trkpt>
      <trkpt lat="48.18647" lon="-1.98422">
        <ele>56.8</ele>
        <time>2025-10-02T09:21:41Z</time>
      </trkpt>
      <trkpt lat="48.18647" lon="-1.98422">
        <ele>56.4</ele>
        <time>2025-10-02T09:21:48Z</time>
      </trkpt>
      <trkpt lat="48.18647" lon="-1.98422">
        <ele>56.6</ele>
        <time>2025-10-02T09:21:56Z</time>
      </trkpt>
      <trkpt lat="48.18647" lon="-1.98422">
        <ele>56.6</ele>
        <time>2025-10-02T09:21:58Z</time>
      </trkpt>
      <trkpt lat="48.18647" lon="-1.98422">
        <ele>56.8</ele>
        <time>2025-10-02T09:22:07Z</time>
      </trkpt>
      <trkpt lat="48.18647" lon="-1.98422">
        <ele>56.6</ele>
        <time>2025-10-02T09:22:17Z</time>
      </trkpt>
      <trkpt lat="48.18647" lon="-1.98422">
        <ele>56.6</ele>
        <time>2025-10-02T09:22:19Z</time>
      </trkpt>
      <trkpt lat="48.18647" lon="-1.98422">
        <ele>56.6</ele>
        <time>2025-10-02T09:22:31Z</time>
      </trkpt>
      <trkpt lat="48.18647" lon="-1.98422">
        <ele>56.6</ele>
        <time>2025-10-02T09:22:32Z</time>
      </trkpt>
      <trkpt lat="48.18647" lon="-1.98422">
        <ele>56.6</ele>
        <time>2025-10-02T09:22:33Z</time>
      </trkpt>
      <trkpt lat="48.18647" lon="-1.98422">
        <ele>56.6</ele>
        <time>2025-10-02T09:22:41Z</time>
      </trkpt>
      <trkpt lat="48.18647" lon="-1.98422">
        <ele>56.6</ele>
        <time>2025-10-02T09:22:50Z</time>
      </trkpt>
      <trkpt lat="48.18645" lon="-1.98421">
        <ele>56.6</ele>
        <time>2025-10-02T09:22:55Z</time>
      </trkpt>
      <trkpt lat="48.18645" lon="-1.98421">
        <ele>56.6</ele>
        <time>2025-10-02T09:23:04Z</time>
      </trkpt>
      <trkpt lat="48.18645" lon="-1.98421">
        <ele>56.6</ele>
        <time>2025-10-02T09:23:08Z</time>
      </trkpt>
      <trkpt lat="48.18645" lon="-1.98421">
        <ele>56.6</ele>
        <time>2025-10-02T09:23:17Z</time>
      </trkpt>
      <trkpt lat="48.18645" lon="-1.98421">
        <ele>56.6</ele>
        <time>2025-10-02T09:23:20Z</time>
      </trkpt>
      <trkpt lat="48.18645" lon="-1.98421">
        <ele>56.6</ele>
        <time>2025-10-02T09:23:29Z</time>
      </trkpt>
      <trkpt lat="48.18645" lon="-1.98421">
        <ele>56.6</ele>
        <time>2025-10-02T09:23:39Z</time>
      </trkpt>
      <trkpt lat="48.18642" lon="-1.98421">
        <ele>56.6</ele>
        <time>2025-10-02T09:23:55Z</time>
      </trkpt>
      <trkpt lat="48.18626" lon="-1.98423">
        <ele>56.6</ele>
        <time>2025-10-02T09:24:01Z</time>
      </trkpt>
      <trkpt lat="48.18618" lon="-1.98426">
        <ele>56.6</ele>
        <time>2025-10-02T09:24:03Z</time>
      </trkpt>
      <trkpt lat="48.18595" lon="-1.98435">
        <ele>56.4</ele>
        <time>2025-10-02T09:24:08Z</time>
      </trkpt>
      <trkpt lat="48.18579" lon="-1.98441">
        <ele>56.6</ele>
        <time>2025-10-02T09:24:12Z</time>
      </trkpt>
      <trkpt lat="48.18574" lon="-1.98443">
        <ele>56.4</ele>
        <time>2025-10-02T09:24:13Z</time>
      </trkpt>
      <trkpt lat="48.18547" lon="-1.98453">
        <ele>56.4</ele>
        <time>2025-10-02T09:24:18Z</time>
      </trkpt>
      <trkpt lat="48.18509" lon="-1.98468">
        <ele>55.8</ele>
        <time>2025-10-02T09:24:25Z</time>
      </trkpt>
      <trkpt lat="48.18504" lon="-1.9847">
        <ele>55.6</ele>
        <time>2025-10-02T09:24:26Z</time>
      </trkpt>
      <trkpt lat="48.18493" lon="-1.98474">
        <ele>55.4</ele>
        <time>2025-10-02T09:24:28Z</time>
      </trkpt>
      <trkpt lat="48.18436" lon="-1.98494">
        <ele>55</ele>
        <time>2025-10-02T09:24:39Z</time>
      </trkpt>
      <trkpt lat="48.1843" lon="-1.98496">
        <ele>54.8</ele>
        <time>2025-10-02T09:24:40Z</time>
      </trkpt>
      <trkpt lat="48.18387" lon="-1.98506">
        <ele>54.4</ele>
        <time>2025-10-02T09:24:48Z</time>
      </trkpt>
      <trkpt lat="48.18376" lon="-1.98508">
        <ele>54.4</ele>
        <time>2025-10-02T09:24:50Z</time>
      </trkpt>
      <trkpt lat="48.1834" lon="-1.98518">
        <ele>53.6</ele>
        <time>2025-10-02T09:24:57Z</time>
      </trkpt>
      <trkpt lat="48.18329" lon="-1.9852">
        <ele>53.4</ele>
        <time>2025-10-02T09:24:59Z</time>
      </trkpt>
      <trkpt lat="48.18324" lon="-1.98521">
        <ele>53.2</ele>
        <time>2025-10-02T09:25:00Z</time>
      </trkpt>
      <trkpt lat="48.18319" lon="-1.98522">
        <ele>53.2</ele>
        <time>2025-10-02T09:25:01Z</time>
      </trkpt>
      <trkpt lat="48.1827" lon="-1.98532">
        <ele>51.8</ele>
        <time>2025-10-02T09:25:09Z</time>
      </trkpt>
      <trkpt lat="48.18264" lon="-1.98534">
        <ele>51.4</ele>
        <time>2025-10-02T09:25:10Z</time>
      </trkpt>
      <trkpt lat="48.18238" lon="-1.9854">
        <ele>50.8</ele>
        <time>2025-10-02T09:25:14Z</time>
      </trkpt>
      <trkpt lat="48.18217" lon="-1.98545">
        <ele>49.6</ele>
        <time>2025-10-02T09:25:17Z</time>
      </trkpt>
      <trkpt lat="48.18209" lon="-1.98545">
        <ele>49.4</ele>
        <time>2025-10-02T09:25:18Z</time>
      </trkpt>
      <trkpt lat="48.1818" lon="-1.98541">
        <ele>48.6</ele>
        <time>2025-10-02T09:25:22Z</time>
      </trkpt>
      <trkpt lat="48.18173" lon="-1.98538">
        <ele>48.4</ele>
        <time>2025-10-02T09:25:23Z</time>
      </trkpt>
      <trkpt lat="48.18136" lon="-1.98505">
        <ele>47.4</ele>
        <time>2025-10-02T09:25:29Z</time>
      </trkpt>
      <trkpt lat="48.18094" lon="-1.98463">
        <ele>46.2</ele>
        <time>2025-10-02T09:25:37Z</time>
      </trkpt>
      <trkpt lat="48.18054" lon="-1.98424">
        <ele>47.2</ele>
        <time>2025-10-02T09:25:45Z</time>
      </trkpt>
      <trkpt lat="48.18044" lon="-1.98416">
        <ele>47.4</ele>
        <time>2025-10-02T09:25:47Z</time>
      </trkpt>
      <trkpt lat="48.18022" lon="-1.98405">
        <ele>47.8</ele>
        <time>2025-10-02T09:25:51Z</time>
      </trkpt>
      <trkpt lat="48.18006" lon="-1.98402">
        <ele>48.6</ele>
        <time>2025-10-02T09:25:54Z</time>
      </trkpt>
      <trkpt lat="48.1799" lon="-1.984">
        <ele>49.6</ele>
        <time>2025-10-02T09:25:57Z</time>
      </trkpt>
      <trkpt lat="48.17984" lon="-1.98399">
        <ele>50</ele>
        <time>2025-10-02T09:25:58Z</time>
      </trkpt>
      <trkpt lat="48.17968" lon="-1.98396">
        <ele>50.6</ele>
        <time>2025-10-02T09:26:01Z</time>
      </trkpt>
      <trkpt lat="48.17947" lon="-1.98392">
        <ele>52.2</ele>
        <time>2025-10-02T09:26:05Z</time>
      </trkpt>
      <trkpt lat="48.17941" lon="-1.98391">
        <ele>52.4</ele>
        <time>2025-10-02T09:26:06Z</time>
      </trkpt>
      <trkpt lat="48.17916" lon="-1.98387">
        <ele>53.4</ele>
        <time>2025-10-02T09:26:11Z</time>
      </trkpt>
      <trkpt lat="48.17889" lon="-1.98382">
        <ele>54.6</ele>
        <time>2025-10-02T09:26:16Z</time>
      </trkpt>
      <trkpt lat="48.1788" lon="-1.98381">
        <ele>54.8</ele>
        <time>2025-10-02T09:26:18Z</time>
      </trkpt>
      <trkpt lat="48.17864" lon="-1.98379">
        <ele>55.6</ele>
        <time>2025-10-02T09:26:21Z</time>
      </trkpt>
      <trkpt lat="48.17849" lon="-1.98376">
        <ele>56.6</ele>
        <time>2025-10-02T09:26:24Z</time>
      </trkpt>
      <trkpt lat="48.17834" lon="-1.98373">
        <ele>57.2</ele>
        <time>2025-10-02T09:26:27Z</time>
      </trkpt>
      <trkpt lat="48.17824" lon="-1.98372">
        <ele>57.6</ele>
        <time>2025-10-02T09:26:29Z</time>
      </trkpt>
      <trkpt lat="48.17793" lon="-1.98372">
        <ele>58.4</ele>
        <time>2025-10-02T09:26:35Z</time>
      </trkpt>
      <trkpt lat="48.17788" lon="-1.98373">
        <ele>58.8</ele>
        <time>2025-10-02T09:26:36Z</time>
      </trkpt>
      <trkpt lat="48.17759" lon="-1.98385">
        <ele>59.8</ele>
        <time>2025-10-02T09:26:42Z</time>
      </trkpt>
      <trkpt lat="48.17754" lon="-1.98388">
        <ele>59.8</ele>
        <time>2025-10-02T09:26:43Z</time>
      </trkpt>
      <trkpt lat="48.17721" lon="-1.98407">
        <ele>61</ele>
        <time>2025-10-02T09:26:50Z</time>
      </trkpt>
      <trkpt lat="48.17702" lon="-1.98417">
        <ele>61.2</ele>
        <time>2025-10-02T09:26:54Z</time>
      </trkpt>
      <trkpt lat="48.17673" lon="-1.98433">
        <ele>61.8</ele>
        <time>2025-10-02T09:27:00Z</time>
      </trkpt>
      <trkpt lat="48.17668" lon="-1.98435">
        <ele>62</ele>
        <time>2025-10-02T09:27:01Z</time>
      </trkpt>
      <trkpt lat="48.17647" lon="-1.98447">
        <ele>62.2</ele>
        <time>2025-10-02T09:27:05Z</time>
      </trkpt>
      <trkpt lat="48.17628" lon="-1.98458">
        <ele>62.4</ele>
        <time>2025-10-02T09:27:09Z</time>
      </trkpt>
      <trkpt lat="48.17623" lon="-1.9846">
        <ele>62.6</ele>
        <time>2025-10-02T09:27:10Z</time>
      </trkpt>
      <trkpt lat="48.17618" lon="-1.98463">
        <ele>62.6</ele>
        <time>2025-10-02T09:27:11Z</time>
      </trkpt>
      <trkpt lat="48.17598" lon="-1.98474">
        <ele>63.2</ele>
        <time>2025-10-02T09:27:15Z</time>
      </trkpt>
      <trkpt lat="48.17583" lon="-1.98483">
        <ele>63.4</ele>
        <time>2025-10-02T09:27:18Z</time>
      </trkpt>
      <trkpt lat="48.17532" lon="-1.98511">
        <ele>63.8</ele>
        <time>2025-10-02T09:27:28Z</time>
      </trkpt>
      <trkpt lat="48.17486" lon="-1.98537">
        <ele>64.2</ele>
        <time>2025-10-02T09:27:37Z</time>
      </trkpt>
      <trkpt lat="48.17481" lon="-1.98539">
        <ele>64.2</ele>
        <time>2025-10-02T09:27:38Z</time>
      </trkpt>
      <trkpt lat="48.17472" lon="-1.98543">
        <ele>64.2</ele>
        <time>2025-10-02T09:27:40Z</time>
      </trkpt>
      <trkpt lat="48.17459" lon="-1.98546">
        <ele>64</ele>
        <time>2025-10-02T09:27:43Z</time>
      </trkpt>
      <trkpt lat="48.17449" lon="-1.98545">
        <ele>63.8</ele>
        <time>2025-10-02T09:27:47Z</time>
      </trkpt>
      <trkpt lat="48.17434" lon="-1.98543">
        <ele>63.8</ele>
        <time>2025-10-02T09:27:51Z</time>
      </trkpt>
      <trkpt lat="48.17416" lon="-1.98535">
        <ele>64</ele>
        <time>2025-10-02T09:27:55Z</time>
      </trkpt>
      <trkpt lat="48.17401" lon="-1.98528">
        <ele>64</ele>
        <time>2025-10-02T09:27:58Z</time>
      </trkpt>
      <trkpt lat="48.1738" lon="-1.98518">
        <ele>64</ele>
        <time>2025-10-02T09:28:02Z</time>
      </trkpt>
      <trkpt lat="48.17364" lon="-1.98511">
        <ele>63.8</ele>
        <time>2025-10-02T09:28:05Z</time>
      </trkpt>
      <trkpt lat="48.1731" lon="-1.98485">
        <ele>63.2</ele>
        <time>2025-10-02T09:28:15Z</time>
      </trkpt>
      <trkpt lat="48.17304" lon="-1.98483">
        <ele>63.2</ele>
        <time>2025-10-02T09:28:16Z</time>
      </trkpt>
      <trkpt lat="48.17294" lon="-1.98477">
        <ele>63.2</ele>
        <time>2025-10-02T09:28:18Z</time>
      </trkpt>
      <trkpt lat="48.17248" lon="-1.98456">
        <ele>62.4</ele>
        <time>2025-10-02T09:28:27Z</time>
      </trkpt>
      <trkpt lat="48.17235" lon="-1.98451">
        <ele>62</ele>
        <time>2025-10-02T09:28:30Z</time>
      </trkpt>
      <trkpt lat="48.17229" lon="-1.98449">
        <ele>61.4</ele>
        <time>2025-10-02T09:28:32Z</time>
      </trkpt>
      <trkpt lat="48.17218" lon="-1.98446">
        <ele>61.2</ele>
        <time>2025-10-02T09:28:37Z</time>
      </trkpt>
      <trkpt lat="48.17215" lon="-1.98445">
        <ele>61.2</ele>
        <time>2025-10-02T09:28:39Z</time>
      </trkpt>
      <trkpt lat="48.17214" lon="-1.98445">
        <ele>61</ele>
        <time>2025-10-02T09:28:42Z</time>
      </trkpt>
      <trkpt lat="48.17212" lon="-1.98445">
        <ele>61</ele>
        <time>2025-10-02T09:28:47Z</time>
      </trkpt>
      <trkpt lat="48.17208" lon="-1.98444">
        <ele>61</ele>
        <time>2025-10-02T09:28:49Z</time>
      </trkpt>
      <trkpt lat="48.17202" lon="-1.98445">
        <ele>60.8</ele>
        <time>2025-10-02T09:28:51Z</time>
      </trkpt>
      <trkpt lat="48.17194" lon="-1.98446">
        <ele>60.8</ele>
        <time>2025-10-02T09:28:53Z</time>
      </trkpt>
      <trkpt lat="48.17173" lon="-1.9845">
        <ele>60.4</ele>
        <time>2025-10-02T09:28:57Z</time>
      </trkpt>
      <trkpt lat="48.17163" lon="-1.98454">
        <ele>60.2</ele>
        <time>2025-10-02T09:28:59Z</time>
      </trkpt>
      <trkpt lat="48.17141" lon="-1.98462">
        <ele>59.6</ele>
        <time>2025-10-02T09:29:03Z</time>
      </trkpt>
      <trkpt lat="48.17123" lon="-1.98469">
        <ele>58.8</ele>
        <time>2025-10-02T09:29:06Z</time>
      </trkpt>
      <trkpt lat="48.17111" lon="-1.98473">
        <ele>58.6</ele>
        <time>2025-10-02T09:29:08Z</time>
      </trkpt>
      <trkpt lat="48.17074" lon="-1.98488">
        <ele>57.2</ele>
        <time>2025-10-02T09:29:14Z</time>
      </trkpt>
      <trkpt lat="48.17037" lon="-1.98503">
        <ele>56.6</ele>
        <time>2025-10-02T09:29:20Z</time>
      </trkpt>
      <trkpt lat="48.17024" lon="-1.98507">
        <ele>56.2</ele>
        <time>2025-10-02T09:29:22Z</time>
      </trkpt>
      <trkpt lat="48.16999" lon="-1.98516">
        <ele>55.6</ele>
        <time>2025-10-02T09:29:26Z</time>
      </trkpt>
      <trkpt lat="48.16992" lon="-1.98518">
        <ele>55</ele>
        <time>2025-10-02T09:29:27Z</time>
      </trkpt>
      <trkpt lat="48.16968" lon="-1.98527">
        <ele>54.2</ele>
        <time>2025-10-02T09:29:31Z</time>
      </trkpt>
      <trkpt lat="48.16961" lon="-1.98529">
        <ele>54</ele>
        <time>2025-10-02T09:29:32Z</time>
      </trkpt>
      <trkpt lat="48.16949" lon="-1.98532">
        <ele>53.6</ele>
        <time>2025-10-02T09:29:34Z</time>
      </trkpt>
      <trkpt lat="48.16943" lon="-1.98532">
        <ele>53.6</ele>
        <time>2025-10-02T09:29:35Z</time>
      </trkpt>
      <trkpt lat="48.16931" lon="-1.98528">
        <ele>53.6</ele>
        <time>2025-10-02T09:29:37Z</time>
      </trkpt>
      <trkpt lat="48.16925" lon="-1.98525">
        <ele>53.6</ele>
        <time>2025-10-02T09:29:38Z</time>
      </trkpt>
      <trkpt lat="48.1692" lon="-1.98521">
        <ele>53.4</ele>
        <time>2025-10-02T09:29:39Z</time>
      </trkpt>
      <trkpt lat="48.16901" lon="-1.98502">
        <ele>52.8</ele>
        <time>2025-10-02T09:29:43Z</time>
      </trkpt>
      <trkpt lat="48.16875" lon="-1.98476">
        <ele>51.6</ele>
        <time>2025-10-02T09:29:48Z</time>
      </trkpt>
      <trkpt lat="48.16849" lon="-1.98449">
        <ele>50.4</ele>
        <time>2025-10-02T09:29:53Z</time>
      </trkpt>
      <trkpt lat="48.16832" lon="-1.98431">
        <ele>49.2</ele>
        <time>2025-10-02T09:29:56Z</time>
      </trkpt>
      <trkpt lat="48.1682" lon="-1.98419">
        <ele>48.2</ele>
        <time>2025-10-02T09:29:58Z</time>
      </trkpt>
      <trkpt lat="48.16808" lon="-1.98406">
        <ele>47.4</ele>
        <time>2025-10-02T09:30:00Z</time>
      </trkpt>
      <trkpt lat="48.16801" lon="-1.98399">
        <ele>47.2</ele>
        <time>2025-10-02T09:30:01Z</time>
      </trkpt>
      <trkpt lat="48.16781" lon="-1.98379">
        <ele>45.8</ele>
        <time>2025-10-02T09:30:04Z</time>
      </trkpt>
      <trkpt lat="48.16768" lon="-1.98364">
        <ele>44.8</ele>
        <time>2025-10-02T09:30:06Z</time>
      </trkpt>
      <trkpt lat="48.16761" lon="-1.98357">
        <ele>44.4</ele>
        <time>2025-10-02T09:30:07Z</time>
      </trkpt>
      <trkpt lat="48.16754" lon="-1.9835">
        <ele>43.2</ele>
        <time>2025-10-02T09:30:08Z</time>
      </trkpt>
      <trkpt lat="48.16724" lon="-1.98322">
        <ele>41.8</ele>
        <time>2025-10-02T09:30:12Z</time>
      </trkpt>
      <trkpt lat="48.16716" lon="-1.98316">
        <ele>41.4</ele>
        <time>2025-10-02T09:30:13Z</time>
      </trkpt>
      <trkpt lat="48.16708" lon="-1.98311">
        <ele>40.8</ele>
        <time>2025-10-02T09:30:14Z</time>
      </trkpt>
      <trkpt lat="48.16676" lon="-1.98289">
        <ele>39.6</ele>
        <time>2025-10-02T09:30:18Z</time>
      </trkpt>
      <trkpt lat="48.16661" lon="-1.98281">
        <ele>39.2</ele>
        <time>2025-10-02T09:30:20Z</time>
      </trkpt>
      <trkpt lat="48.16646" lon="-1.98273">
        <ele>38.4</ele>
        <time>2025-10-02T09:30:22Z</time>
      </trkpt>
      <trkpt lat="48.16617" lon="-1.98256">
        <ele>38</ele>
        <time>2025-10-02T09:30:26Z</time>
      </trkpt>
      <trkpt lat="48.16581" lon="-1.98235">
        <ele>37.8</ele>
        <time>2025-10-02T09:30:32Z</time>
      </trkpt>
      <trkpt lat="48.16554" lon="-1.98217">
        <ele>37.6</ele>
        <time>2025-10-02T09:30:37Z</time>
      </trkpt>
      <trkpt lat="48.16545" lon="-1.98209">
        <ele>37.6</ele>
        <time>2025-10-02T09:30:39Z</time>
      </trkpt>
      <trkpt lat="48.16519" lon="-1.98176">
        <ele>38.8</ele>
        <time>2025-10-02T09:30:46Z</time>
      </trkpt>
      <trkpt lat="48.16508" lon="-1.98161">
        <ele>39.4</ele>
        <time>2025-10-02T09:30:49Z</time>
      </trkpt>
      <trkpt lat="48.16494" lon="-1.98142">
        <ele>40.6</ele>
        <time>2025-10-02T09:30:53Z</time>
      </trkpt>
      <trkpt lat="48.16482" lon="-1.98128">
        <ele>41.2</ele>
        <time>2025-10-02T09:30:56Z</time>
      </trkpt>
      <trkpt lat="48.16475" lon="-1.98121">
        <ele>41.6</ele>
        <time>2025-10-02T09:30:58Z</time>
      </trkpt>
      <trkpt lat="48.1647" lon="-1.98118">
        <ele>41.6</ele>
        <time>2025-10-02T09:30:59Z</time>
      </trkpt>
      <trkpt lat="48.16462" lon="-1.98115">
        <ele>41.8</ele>
        <time>2025-10-02T09:31:01Z</time>
      </trkpt>
      <trkpt lat="48.16434" lon="-1.98118">
        <ele>42.2</ele>
        <time>2025-10-02T09:31:07Z</time>
      </trkpt>
      <trkpt lat="48.16391" lon="-1.98126">
        <ele>42</ele>
        <time>2025-10-02T09:31:16Z</time>
      </trkpt>
      <trkpt lat="48.16351" lon="-1.98129">
        <ele>41.2</ele>
        <time>2025-10-02T09:31:24Z</time>
      </trkpt>
      <trkpt lat="48.16341" lon="-1.98125">
        <ele>41.2</ele>
        <time>2025-10-02T09:31:26Z</time>
      </trkpt>
      <trkpt lat="48.16332" lon="-1.98116">
        <ele>41</ele>
        <time>2025-10-02T09:31:28Z</time>
      </trkpt>
      <trkpt lat="48.16326" lon="-1.98104">
        <ele>41</ele>
        <time>2025-10-02T09:31:30Z</time>
      </trkpt>
      <trkpt lat="48.16321" lon="-1.9809">
        <ele>41</ele>
        <time>2025-10-02T09:31:32Z</time>
      </trkpt>
      <trkpt lat="48.16315" lon="-1.98068">
        <ele>41</ele>
        <time>2025-10-02T09:31:35Z</time>
      </trkpt>
      <trkpt lat="48.16313" lon="-1.98061">
        <ele>41</ele>
        <time>2025-10-02T09:31:36Z</time>
      </trkpt>
      <trkpt lat="48.16308" lon="-1.98048">
        <ele>41</ele>
        <time>2025-10-02T09:31:38Z</time>
      </trkpt>
      <trkpt lat="48.16305" lon="-1.98043">
        <ele>40.8</ele>
        <time>2025-10-02T09:31:39Z</time>
      </trkpt>
      <trkpt lat="48.16302" lon="-1.98038">
        <ele>40.8</ele>
        <time>2025-10-02T09:31:40Z</time>
      </trkpt>
      <trkpt lat="48.16298" lon="-1.98034">
        <ele>40.4</ele>
        <time>2025-10-02T09:31:41Z</time>
      </trkpt>
      <trkpt lat="48.16293" lon="-1.98032">
        <ele>40.4</ele>
        <time>2025-10-02T09:31:42Z</time>
      </trkpt>
      <trkpt lat="48.16288" lon="-1.9803">
        <ele>40.4</ele>
        <time>2025-10-02T09:31:43Z</time>
      </trkpt>
      <trkpt lat="48.16284" lon="-1.9803">
        <ele>40.2</ele>
        <time>2025-10-02T09:31:44Z</time>
      </trkpt>
      <trkpt lat="48.16258" lon="-1.98025">
        <ele>39.8</ele>
        <time>2025-10-02T09:31:49Z</time>
      </trkpt>
      <trkpt lat="48.16248" lon="-1.98019">
        <ele>39.4</ele>
        <time>2025-10-02T09:31:51Z</time>
      </trkpt>
      <trkpt lat="48.16235" lon="-1.9801">
        <ele>39</ele>
        <time>2025-10-02T09:31:54Z</time>
      </trkpt>
      <trkpt lat="48.1623" lon="-1.9801">
        <ele>38.8</ele>
        <time>2025-10-02T09:31:55Z</time>
      </trkpt>
      <trkpt lat="48.16225" lon="-1.9801">
        <ele>38.8</ele>
        <time>2025-10-02T09:31:56Z</time>
      </trkpt>
      <trkpt lat="48.16214" lon="-1.98011">
        <ele>38.4</ele>
        <time>2025-10-02T09:31:58Z</time>
      </trkpt>
      <trkpt lat="48.16196" lon="-1.98014">
        <ele>37.6</ele>
        <time>2025-10-02T09:32:01Z</time>
      </trkpt>
      <trkpt lat="48.16189" lon="-1.98015">
        <ele>37.4</ele>
        <time>2025-10-02T09:32:02Z</time>
      </trkpt>
      <trkpt lat="48.16183" lon="-1.98016">
        <ele>37</ele>
        <time>2025-10-02T09:32:03Z</time>
      </trkpt>
      <trkpt lat="48.16163" lon="-1.98022">
        <ele>36.2</ele>
        <time>2025-10-02T09:32:06Z</time>
      </trkpt>
      <trkpt lat="48.16156" lon="-1.98024">
        <ele>36</ele>
        <time>2025-10-02T09:32:07Z</time>
      </trkpt>
      <trkpt lat="48.16135" lon="-1.98029">
        <ele>35.2</ele>
        <time>2025-10-02T09:32:10Z</time>
      </trkpt>
      <trkpt lat="48.16102" lon="-1.98033">
        <ele>34.4</ele>
        <time>2025-10-02T09:32:15Z</time>
      </trkpt>
      <trkpt lat="48.16083" lon="-1.98038">
        <ele>34.6</ele>
        <time>2025-10-02T09:32:18Z</time>
      </trkpt>
      <trkpt lat="48.16054" lon="-1.98045">
        <ele>35</ele>
        <time>2025-10-02T09:32:23Z</time>
      </trkpt>
      <trkpt lat="48.15999" lon="-1.98058">
        <ele>34.6</ele>
        <time>2025-10-02T09:32:32Z</time>
      </trkpt>
      <trkpt lat="48.15988" lon="-1.9806">
        <ele>34.4</ele>
        <time>2025-10-02T09:32:34Z</time>
      </trkpt>
      <trkpt lat="48.15956" lon="-1.98068">
        <ele>35.4</ele>
        <time>2025-10-02T09:32:40Z</time>
      </trkpt>
      <trkpt lat="48.15941" lon="-1.98071">
        <ele>36.6</ele>
        <time>2025-10-02T09:32:43Z</time>
      </trkpt>
      <trkpt lat="48.15922" lon="-1.98076">
        <ele>37.6</ele>
        <time>2025-10-02T09:32:47Z</time>
      </trkpt>
      <trkpt lat="48.15911" lon="-1.98078">
        <ele>38</ele>
        <time>2025-10-02T09:32:49Z</time>
      </trkpt>
      <trkpt lat="48.15869" lon="-1.98088">
        <ele>38.6</ele>
        <time>2025-10-02T09:32:57Z</time>
      </trkpt>
      <trkpt lat="48.15845" lon="-1.98093">
        <ele>38.2</ele>
        <time>2025-10-02T09:33:01Z</time>
      </trkpt>
      <trkpt lat="48.1579" lon="-1.98105">
        <ele>36.8</ele>
        <time>2025-10-02T09:33:10Z</time>
      </trkpt>
      <trkpt lat="48.15783" lon="-1.98106">
        <ele>36.6</ele>
        <time>2025-10-02T09:33:11Z</time>
      </trkpt>
      <trkpt lat="48.15777" lon="-1.98107">
        <ele>36.4</ele>
        <time>2025-10-02T09:33:12Z</time>
      </trkpt>
      <trkpt lat="48.15751" lon="-1.98113">
        <ele>35.4</ele>
        <time>2025-10-02T09:33:16Z</time>
      </trkpt>
      <trkpt lat="48.15732" lon="-1.98118">
        <ele>35</ele>
        <time>2025-10-02T09:33:19Z</time>
      </trkpt>
      <trkpt lat="48.15703" lon="-1.98136">
        <ele>35</ele>
        <time>2025-10-02T09:33:24Z</time>
      </trkpt>
      <trkpt lat="48.15681" lon="-1.98165">
        <ele>35.4</ele>
        <time>2025-10-02T09:33:29Z</time>
      </trkpt>
      <trkpt lat="48.1565" lon="-1.98215">
        <ele>36.8</ele>
        <time>2025-10-02T09:33:37Z</time>
      </trkpt>
      <trkpt lat="48.15646" lon="-1.98222">
        <ele>37.2</ele>
        <time>2025-10-02T09:33:38Z</time>
      </trkpt>
      <trkpt lat="48.1563" lon="-1.98247">
        <ele>38</ele>
        <time>2025-10-02T09:33:42Z</time>
      </trkpt>
      <trkpt lat="48.15611" lon="-1.98279">
        <ele>38.8</ele>
        <time>2025-10-02T09:33:47Z</time>
      </trkpt>
      <trkpt lat="48.15602" lon="-1.98292">
        <ele>39.2</ele>
        <time>2025-10-02T09:33:49Z</time>
      </trkpt>
      <trkpt lat="48.15583" lon="-1.98335">
        <ele>40.4</ele>
        <time>2025-10-02T09:33:55Z</time>
      </trkpt>
      <trkpt lat="48.15575" lon="-1.98383">
        <ele>41.2</ele>
        <time>2025-10-02T09:34:01Z</time>
      </trkpt>
      <trkpt lat="48.15573" lon="-1.98399">
        <ele>41.4</ele>
        <time>2025-10-02T09:34:03Z</time>
      </trkpt>
      <trkpt lat="48.15565" lon="-1.98455">
        <ele>42.2</ele>
        <time>2025-10-02T09:34:10Z</time>
      </trkpt>
      <trkpt lat="48.15563" lon="-1.98462">
        <ele>42.4</ele>
        <time>2025-10-02T09:34:11Z</time>
      </trkpt>
      <trkpt lat="48.15549" lon="-1.98498">
        <ele>43</ele>
        <time>2025-10-02T09:34:16Z</time>
      </trkpt>
      <trkpt lat="48.15532" lon="-1.98532">
        <ele>43.6</ele>
        <time>2025-10-02T09:34:21Z</time>
      </trkpt>
      <trkpt lat="48.15515" lon="-1.98566">
        <ele>44.4</ele>
        <time>2025-10-02T09:34:26Z</time>
      </trkpt>
      <trkpt lat="48.15509" lon="-1.98581">
        <ele>44.6</ele>
        <time>2025-10-02T09:34:28Z</time>
      </trkpt>
      <trkpt lat="48.15489" lon="-1.98622">
        <ele>45.2</ele>
        <time>2025-10-02T09:34:34Z</time>
      </trkpt>
      <trkpt lat="48.15472" lon="-1.98658">
        <ele>45.6</ele>
        <time>2025-10-02T09:34:39Z</time>
      </trkpt>
      <trkpt lat="48.15455" lon="-1.98694">
        <ele>46.4</ele>
        <time>2025-10-02T09:34:44Z</time>
      </trkpt>
      <trkpt lat="48.15447" lon="-1.98706">
        <ele>46.8</ele>
        <time>2025-10-02T09:34:46Z</time>
      </trkpt>
      <trkpt lat="48.15443" lon="-1.98712">
        <ele>47.2</ele>
        <time>2025-10-02T09:34:47Z</time>
      </trkpt>
      <trkpt lat="48.15433" lon="-1.9872">
        <ele>47.4</ele>
        <time>2025-10-02T09:34:49Z</time>
      </trkpt>
      <trkpt lat="48.15421" lon="-1.98725">
        <ele>47.4</ele>
        <time>2025-10-02T09:34:51Z</time>
      </trkpt>
      <trkpt lat="48.15409" lon="-1.98725">
        <ele>47.6</ele>
        <time>2025-10-02T09:34:53Z</time>
      </trkpt>
      <trkpt lat="48.15397" lon="-1.98724">
        <ele>48</ele>
        <time>2025-10-02T09:34:55Z</time>
      </trkpt>
      <trkpt lat="48.15373" lon="-1.98722">
        <ele>48.4</ele>
        <time>2025-10-02T09:34:59Z</time>
      </trkpt>
      <trkpt lat="48.15361" lon="-1.98724">
        <ele>48.6</ele>
        <time>2025-10-02T09:35:01Z</time>
      </trkpt>
      <trkpt lat="48.15355" lon="-1.98726">
        <ele>48.8</ele>
        <time>2025-10-02T09:35:02Z</time>
      </trkpt>
      <trkpt lat="48.15349" lon="-1.98728">
        <ele>49</ele>
        <time>2025-10-02T09:35:03Z</time>
      </trkpt>
      <trkpt lat="48.15343" lon="-1.98731">
        <ele>49.2</ele>
        <time>2025-10-02T09:35:04Z</time>
      </trkpt>
      <trkpt lat="48.15337" lon="-1.98734">
        <ele>49.2</ele>
        <time>2025-10-02T09:35:05Z</time>
      </trkpt>
      <trkpt lat="48.15315" lon="-1.9875">
        <ele>50.2</ele>
        <time>2025-10-02T09:35:09Z</time>
      </trkpt>
      <trkpt lat="48.15288" lon="-1.98771">
        <ele>50.6</ele>
        <time>2025-10-02T09:35:14Z</time>
      </trkpt>
      <trkpt lat="48.15269" lon="-1.98794">
        <ele>50.8</ele>
        <time>2025-10-02T09:35:18Z</time>
      </trkpt>
      <trkpt lat="48.15265" lon="-1.98801">
        <ele>51</ele>
        <time>2025-10-02T09:35:19Z</time>
      </trkpt>
      <trkpt lat="48.15262" lon="-1.98809">
        <ele>51.2</ele>
        <time>2025-10-02T09:35:20Z</time>
      </trkpt>
      <trkpt lat="48.15256" lon="-1.98825">
        <ele>51.6</ele>
        <time>2025-10-02T09:35:22Z</time>
      </trkpt>
      <trkpt lat="48.15255" lon="-1.98834">
        <ele>51.6</ele>
        <time>2025-10-02T09:35:23Z</time>
      </trkpt>
      <trkpt lat="48.15248" lon="-1.98871">
        <ele>52.2</ele>
        <time>2025-10-02T09:35:27Z</time>
      </trkpt>
      <trkpt lat="48.15242" lon="-1.98896">
        <ele>52.6</ele>
        <time>2025-10-02T09:35:30Z</time>
      </trkpt>
      <trkpt lat="48.15237" lon="-1.98912">
        <ele>53.2</ele>
        <time>2025-10-02T09:35:32Z</time>
      </trkpt>
      <trkpt lat="48.15217" lon="-1.98969">
        <ele>54</ele>
        <time>2025-10-02T09:35:39Z</time>
      </trkpt>
      <trkpt lat="48.15197" lon="-1.99025">
        <ele>54.4</ele>
        <time>2025-10-02T09:35:46Z</time>
      </trkpt>
      <trkpt lat="48.15188" lon="-1.99047">
        <ele>54.4</ele>
        <time>2025-10-02T09:35:49Z</time>
      </trkpt>
      <trkpt lat="48.15185" lon="-1.99054">
        <ele>54.4</ele>
        <time>2025-10-02T09:35:50Z</time>
      </trkpt>
      <trkpt lat="48.15179" lon="-1.99073">
        <ele>54</ele>
        <time>2025-10-02T09:35:53Z</time>
      </trkpt>
      <trkpt lat="48.15172" lon="-1.9909">
        <ele>54.2</ele>
        <time>2025-10-02T09:35:57Z</time>
      </trkpt>
      <trkpt lat="48.15163" lon="-1.99103">
        <ele>54.6</ele>
        <time>2025-10-02T09:36:00Z</time>
      </trkpt>
      <trkpt lat="48.15159" lon="-1.99107">
        <ele>54.8</ele>
        <time>2025-10-02T09:36:01Z</time>
      </trkpt>
      <trkpt lat="48.15132" lon="-1.99134">
        <ele>55</ele>
        <time>2025-10-02T09:36:07Z</time>
      </trkpt>
      <trkpt lat="48.15102" lon="-1.99164">
        <ele>55.2</ele>
        <time>2025-10-02T09:36:13Z</time>
      </trkpt>
      <trkpt lat="48.15065" lon="-1.99199">
        <ele>54.6</ele>
        <time>2025-10-02T09:36:20Z</time>
      </trkpt>
      <trkpt lat="48.15054" lon="-1.9921">
        <ele>54.6</ele>
        <time>2025-10-02T09:36:22Z</time>
      </trkpt>
      <trkpt lat="48.1502" lon="-1.99244">
        <ele>53.2</ele>
        <time>2025-10-02T09:36:28Z</time>
      </trkpt>
      <trkpt lat="48.14995" lon="-1.99268">
        <ele>52.4</ele>
        <time>2025-10-02T09:36:32Z</time>
      </trkpt>
      <trkpt lat="48.14989" lon="-1.99275">
        <ele>52</ele>
        <time>2025-10-02T09:36:33Z</time>
      </trkpt>
      <trkpt lat="48.14982" lon="-1.99281">
        <ele>51.8</ele>
        <time>2025-10-02T09:36:34Z</time>
      </trkpt>
      <trkpt lat="48.14963" lon="-1.99301">
        <ele>51</ele>
        <time>2025-10-02T09:36:37Z</time>
      </trkpt>
      <trkpt lat="48.14957" lon="-1.99307">
        <ele>50.8</ele>
        <time>2025-10-02T09:36:38Z</time>
      </trkpt>
      <trkpt lat="48.14945" lon="-1.9932">
        <ele>50.4</ele>
        <time>2025-10-02T09:36:40Z</time>
      </trkpt>
      <trkpt lat="48.14927" lon="-1.99339">
        <ele>49.8</ele>
        <time>2025-10-02T09:36:43Z</time>
      </trkpt>
      <trkpt lat="48.14898" lon="-1.99367">
        <ele>49.6</ele>
        <time>2025-10-02T09:36:48Z</time>
      </trkpt>
      <trkpt lat="48.14869" lon="-1.99397">
        <ele>50.4</ele>
        <time>2025-10-02T09:36:54Z</time>
      </trkpt>
      <trkpt lat="48.14858" lon="-1.99406">
        <ele>50.8</ele>
        <time>2025-10-02T09:36:56Z</time>
      </trkpt>
      <trkpt lat="48.14823" lon="-1.99442">
        <ele>51.8</ele>
        <time>2025-10-02T09:37:03Z</time>
      </trkpt>
      <trkpt lat="48.14818" lon="-1.99447">
        <ele>52</ele>
        <time>2025-10-02T09:37:04Z</time>
      </trkpt>
      <trkpt lat="48.14781" lon="-1.99484">
        <ele>52.8</ele>
        <time>2025-10-02T09:37:11Z</time>
      </trkpt>
      <trkpt lat="48.14771" lon="-1.99495">
        <ele>52.8</ele>
        <time>2025-10-02T09:37:13Z</time>
      </trkpt>
      <trkpt lat="48.14755" lon="-1.99512">
        <ele>53</ele>
        <time>2025-10-02T09:37:16Z</time>
      </trkpt>
      <trkpt lat="48.14724" lon="-1.99544">
        <ele>53</ele>
        <time>2025-10-02T09:37:22Z</time>
      </trkpt>
      <trkpt lat="48.14687" lon="-1.99581">
        <ele>52.4</ele>
        <time>2025-10-02T09:37:29Z</time>
      </trkpt>
      <trkpt lat="48.14676" lon="-1.99592">
        <ele>52.2</ele>
        <time>2025-10-02T09:37:31Z</time>
      </trkpt>
      <trkpt lat="48.1466" lon="-1.99607">
        <ele>52</ele>
        <time>2025-10-02T09:37:34Z</time>
      </trkpt>
      <trkpt lat="48.1465" lon="-1.99618">
        <ele>51.8</ele>
        <time>2025-10-02T09:37:36Z</time>
      </trkpt>
      <trkpt lat="48.14601" lon="-1.99668">
        <ele>51</ele>
        <time>2025-10-02T09:37:45Z</time>
      </trkpt>
      <trkpt lat="48.14596" lon="-1.99673">
        <ele>51</ele>
        <time>2025-10-02T09:37:46Z</time>
      </trkpt>
      <trkpt lat="48.14565" lon="-1.99704">
        <ele>51.4</ele>
        <time>2025-10-02T09:37:52Z</time>
      </trkpt>
      <trkpt lat="48.14534" lon="-1.99735">
        <ele>52</ele>
        <time>2025-10-02T09:37:58Z</time>
      </trkpt>
      <trkpt lat="48.14514" lon="-1.99756">
        <ele>52</ele>
        <time>2025-10-02T09:38:02Z</time>
      </trkpt>
      <trkpt lat="48.14487" lon="-1.99778">
        <ele>50.8</ele>
        <time>2025-10-02T09:38:07Z</time>
      </trkpt>
      <trkpt lat="48.14475" lon="-1.99782">
        <ele>50.8</ele>
        <time>2025-10-02T09:38:09Z</time>
      </trkpt>
      <trkpt lat="48.14463" lon="-1.99781">
        <ele>50.8</ele>
        <time>2025-10-02T09:38:11Z</time>
      </trkpt>
      <trkpt lat="48.14444" lon="-1.99774">
        <ele>50.2</ele>
        <time>2025-10-02T09:38:14Z</time>
      </trkpt>
      <trkpt lat="48.14432" lon="-1.99767">
        <ele>49</ele>
        <time>2025-10-02T09:38:16Z</time>
      </trkpt>
      <trkpt lat="48.14407" lon="-1.99748">
        <ele>48</ele>
        <time>2025-10-02T09:38:20Z</time>
      </trkpt>
      <trkpt lat="48.14374" lon="-1.99722">
        <ele>46.8</ele>
        <time>2025-10-02T09:38:25Z</time>
      </trkpt>
      <trkpt lat="48.14346" lon="-1.99701">
        <ele>45.6</ele>
        <time>2025-10-02T09:38:29Z</time>
      </trkpt>
      <trkpt lat="48.14324" lon="-1.99683">
        <ele>44.6</ele>
        <time>2025-10-02T09:38:32Z</time>
      </trkpt>
      <trkpt lat="48.14296" lon="-1.99658">
        <ele>43.6</ele>
        <time>2025-10-02T09:38:36Z</time>
      </trkpt>
      <trkpt lat="48.1429" lon="-1.99651">
        <ele>43.2</ele>
        <time>2025-10-02T09:38:37Z</time>
      </trkpt>
      <trkpt lat="48.14267" lon="-1.99625">
        <ele>42.2</ele>
        <time>2025-10-02T09:38:41Z</time>
      </trkpt>
      <trkpt lat="48.14262" lon="-1.9962">
        <ele>42</ele>
        <time>2025-10-02T09:38:42Z</time>
      </trkpt>
      <trkpt lat="48.14247" lon="-1.99605">
        <ele>41.4</ele>
        <time>2025-10-02T09:38:45Z</time>
      </trkpt>
      <trkpt lat="48.14239" lon="-1.99595">
        <ele>41</ele>
        <time>2025-10-02T09:38:47Z</time>
      </trkpt>
      <trkpt lat="48.14235" lon="-1.9959">
        <ele>41</ele>
        <time>2025-10-02T09:38:48Z</time>
      </trkpt>
      <trkpt lat="48.14215" lon="-1.99569">
        <ele>40.4</ele>
        <time>2025-10-02T09:38:54Z</time>
      </trkpt>
      <trkpt lat="48.14209" lon="-1.99564">
        <ele>40.2</ele>
        <time>2025-10-02T09:38:58Z</time>
      </trkpt>
      <trkpt lat="48.14209" lon="-1.99564">
        <ele>40</ele>
        <time>2025-10-02T09:39:00Z</time>
      </trkpt>
      <trkpt lat="48.14209" lon="-1.99564">
        <ele>40</ele>
        <time>2025-10-02T09:39:03Z</time>
      </trkpt>
      <trkpt lat="48.14207" lon="-1.99561">
        <ele>40</ele>
        <time>2025-10-02T09:39:16Z</time>
      </trkpt>
      <trkpt lat="48.14206" lon="-1.99559">
        <ele>40</ele>
        <time>2025-10-02T09:39:18Z</time>
      </trkpt>
      <trkpt lat="48.14203" lon="-1.99556">
        <ele>39.8</ele>
        <time>2025-10-02T09:39:25Z</time>
      </trkpt>
      <trkpt lat="48.14203" lon="-1.99556">
        <ele>39.8</ele>
        <time>2025-10-02T09:39:26Z</time>
      </trkpt>
      <trkpt lat="48.14199" lon="-1.99549">
        <ele>40.2</ele>
        <time>2025-10-02T09:39:32Z</time>
      </trkpt>
      <trkpt lat="48.14197" lon="-1.99545">
        <ele>40</ele>
        <time>2025-10-02T09:39:34Z</time>
      </trkpt>
      <trkpt lat="48.14186" lon="-1.99537">
        <ele>40</ele>
        <time>2025-10-02T09:39:38Z</time>
      </trkpt>
      <trkpt lat="48.14166" lon="-1.99519">
        <ele>40</ele>
        <time>2025-10-02T09:39:43Z</time>
      </trkpt>
      <trkpt lat="48.14127" lon="-1.99479">
        <ele>39.6</ele>
        <time>2025-10-02T09:39:52Z</time>
      </trkpt>
      <trkpt lat="48.14118" lon="-1.9947">
        <ele>39.2</ele>
        <time>2025-10-02T09:39:54Z</time>
      </trkpt>
      <trkpt lat="48.14113" lon="-1.99465">
        <ele>38.8</ele>
        <time>2025-10-02T09:39:55Z</time>
      </trkpt>
      <trkpt lat="48.14108" lon="-1.9946">
        <ele>38.6</ele>
        <time>2025-10-02T09:39:56Z</time>
      </trkpt>
      <trkpt lat="48.14092" lon="-1.99443">
        <ele>37.8</ele>
        <time>2025-10-02T09:39:59Z</time>
      </trkpt>
      <trkpt lat="48.1406" lon="-1.99416">
        <ele>36.8</ele>
        <time>2025-10-02T09:40:04Z</time>
      </trkpt>
      <trkpt lat="48.14052" lon="-1.99412">
        <ele>36.2</ele>
        <time>2025-10-02T09:40:05Z</time>
      </trkpt>
      <trkpt lat="48.14031" lon="-1.994">
        <ele>35.4</ele>
        <time>2025-10-02T09:40:08Z</time>
      </trkpt>
      <trkpt lat="48.14008" lon="-1.99387">
        <ele>34.4</ele>
        <time>2025-10-02T09:40:11Z</time>
      </trkpt>
      <trkpt lat="48.13992" lon="-1.99378">
        <ele>33.8</ele>
        <time>2025-10-02T09:40:13Z</time>
      </trkpt>
      <trkpt lat="48.13984" lon="-1.99374">
        <ele>33.2</ele>
        <time>2025-10-02T09:40:14Z</time>
      </trkpt>
      <trkpt lat="48.13953" lon="-1.99358">
        <ele>32</ele>
        <time>2025-10-02T09:40:18Z</time>
      </trkpt>
      <trkpt lat="48.13923" lon="-1.99342">
        <ele>31</ele>
        <time>2025-10-02T09:40:22Z</time>
      </trkpt>
      <trkpt lat="48.13883" lon="-1.99321">
        <ele>29.8</ele>
        <time>2025-10-02T09:40:28Z</time>
      </trkpt>
      <trkpt lat="48.13862" lon="-1.99311">
        <ele>28.8</ele>
        <time>2025-10-02T09:40:32Z</time>
      </trkpt>
      <trkpt lat="48.13858" lon="-1.9931">
        <ele>28.4</ele>
        <time>2025-10-02T09:40:33Z</time>
      </trkpt>
      <trkpt lat="48.13852" lon="-1.99311">
        <ele>28.2</ele>
        <time>2025-10-02T09:40:35Z</time>
      </trkpt>
      <trkpt lat="48.1385" lon="-1.99313">
        <ele>28</ele>
        <time>2025-10-02T09:40:36Z</time>
      </trkpt>
      <trkpt lat="48.13847" lon="-1.99317">
        <ele>27.8</ele>
        <time>2025-10-02T09:40:40Z</time>
      </trkpt>
      <trkpt lat="48.13845" lon="-1.99318">
        <ele>28.2</ele>
        <time>2025-10-02T09:40:47Z</time>
      </trkpt>
      <trkpt lat="48.13843" lon="-1.99318">
        <ele>28.2</ele>
        <time>2025-10-02T09:40:48Z</time>
      </trkpt>
      <trkpt lat="48.13835" lon="-1.99315">
        <ele>28.2</ele>
        <time>2025-10-02T09:40:52Z</time>
      </trkpt>
      <trkpt lat="48.13835" lon="-1.99312">
        <ele>28</ele>
        <time>2025-10-02T09:40:53Z</time>
      </trkpt>
      <trkpt lat="48.13837" lon="-1.99291">
        <ele>27.8</ele>
        <time>2025-10-02T09:40:57Z</time>
      </trkpt>
      <trkpt lat="48.13844" lon="-1.9925">
        <ele>27.8</ele>
        <time>2025-10-02T09:41:03Z</time>
      </trkpt>
      <trkpt lat="48.13855" lon="-1.99177">
        <ele>28</ele>
        <time>2025-10-02T09:41:13Z</time>
      </trkpt>
      <trkpt lat="48.13859" lon="-1.99133">
        <ele>27.6</ele>
        <time>2025-10-02T09:41:19Z</time>
      </trkpt>
      <trkpt lat="48.13859" lon="-1.99125">
        <ele>27.6</ele>
        <time>2025-10-02T09:41:20Z</time>
      </trkpt>
      <trkpt lat="48.13858" lon="-1.99093">
        <ele>28</ele>
        <time>2025-10-02T09:41:25Z</time>
      </trkpt>
      <trkpt lat="48.13856" lon="-1.99081">
        <ele>28.2</ele>
        <time>2025-10-02T09:41:27Z</time>
      </trkpt>
      <trkpt lat="48.13854" lon="-1.99048">
        <ele>28.4</ele>
        <time>2025-10-02T09:41:33Z</time>
      </trkpt>
      <trkpt lat="48.13854" lon="-1.99004">
        <ele>28.2</ele>
        <time>2025-10-02T09:41:40Z</time>
      </trkpt>
      <trkpt lat="48.13854" lon="-1.98985">
        <ele>28.2</ele>
        <time>2025-10-02T09:41:43Z</time>
      </trkpt>
      <trkpt lat="48.13853" lon="-1.98972">
        <ele>28.2</ele>
        <time>2025-10-02T09:41:45Z</time>
      </trkpt>
      <trkpt lat="48.13849" lon="-1.98961">
        <ele>28</ele>
        <time>2025-10-02T09:41:47Z</time>
      </trkpt>
      <trkpt lat="48.13847" lon="-1.98955">
        <ele>27.8</ele>
        <time>2025-10-02T09:41:48Z</time>
      </trkpt>
      <trkpt lat="48.13846" lon="-1.98947">
        <ele>27.4</ele>
        <time>2025-10-02T09:41:49Z</time>
      </trkpt>
      <trkpt lat="48.13845" lon="-1.9894">
        <ele>27.2</ele>
        <time>2025-10-02T09:41:50Z</time>
      </trkpt>
      <trkpt lat="48.13844" lon="-1.98924">
        <ele>27</ele>
        <time>2025-10-02T09:41:52Z</time>
      </trkpt>
      <trkpt lat="48.13837" lon="-1.98853">
        <ele>27.8</ele>
        <time>2025-10-02T09:42:01Z</time>
      </trkpt>
      <trkpt lat="48.13831" lon="-1.98772">
        <ele>27.2</ele>
        <time>2025-10-02T09:42:11Z</time>
      </trkpt>
      <trkpt lat="48.1383" lon="-1.98756">
        <ele>27.4</ele>
        <time>2025-10-02T09:42:13Z</time>
      </trkpt>
      <trkpt lat="48.13825" lon="-1.98688">
        <ele>27.8</ele>
        <time>2025-10-02T09:42:22Z</time>
      </trkpt>
      <trkpt lat="48.13821" lon="-1.9864">
        <ele>27.4</ele>
        <time>2025-10-02T09:42:28Z</time>
      </trkpt>
      <trkpt lat="48.13818" lon="-1.98617">
        <ele>27.4</ele>
        <time>2025-10-02T09:42:31Z</time>
      </trkpt>
      <trkpt lat="48.13812" lon="-1.98547">
        <ele>27.2</ele>
        <time>2025-10-02T09:42:40Z</time>
      </trkpt>
      <trkpt lat="48.13807" lon="-1.98463">
        <ele>27</ele>
        <time>2025-10-02T09:42:51Z</time>
      </trkpt>
      <trkpt lat="48.13805" lon="-1.98395">
        <ele>27</ele>
        <time>2025-10-02T09:43:00Z</time>
      </trkpt>
      <trkpt lat="48.13806" lon="-1.98388">
        <ele>27</ele>
        <time>2025-10-02T09:43:01Z</time>
      </trkpt>
      <trkpt lat="48.13809" lon="-1.98307">
        <ele>27.4</ele>
        <time>2025-10-02T09:43:11Z</time>
      </trkpt>
      <trkpt lat="48.1381" lon="-1.98255">
        <ele>27.4</ele>
        <time>2025-10-02T09:43:17Z</time>
      </trkpt>
      <trkpt lat="48.13811" lon="-1.98211">
        <ele>27.8</ele>
        <time>2025-10-02T09:43:22Z</time>
      </trkpt>
      <trkpt lat="48.13812" lon="-1.98176">
        <ele>27.8</ele>
        <time>2025-10-02T09:43:26Z</time>
      </trkpt>
      <trkpt lat="48.13813" lon="-1.98091">
        <ele>28.2</ele>
        <time>2025-10-02T09:43:36Z</time>
      </trkpt>
      <trkpt lat="48.13814" lon="-1.98082">
        <ele>28.2</ele>
        <time>2025-10-02T09:43:37Z</time>
      </trkpt>
      <trkpt lat="48.13814" lon="-1.98022">
        <ele>28</ele>
        <time>2025-10-02T09:43:45Z</time>
      </trkpt>
      <trkpt lat="48.13815" lon="-1.98">
        <ele>27.8</ele>
        <time>2025-10-02T09:43:48Z</time>
      </trkpt>
      <trkpt lat="48.13817" lon="-1.97976">
        <ele>27.8</ele>
        <time>2025-10-02T09:43:51Z</time>
      </trkpt>
      <trkpt lat="48.13818" lon="-1.9791">
        <ele>27.4</ele>
        <time>2025-10-02T09:43:59Z</time>
      </trkpt>
      <trkpt lat="48.13819" lon="-1.97883">
        <ele>27.2</ele>
        <time>2025-10-02T09:44:02Z</time>
      </trkpt>
      <trkpt lat="48.1382" lon="-1.97837">
        <ele>26.6</ele>
        <time>2025-10-02T09:44:07Z</time>
      </trkpt>
      <trkpt lat="48.13819" lon="-1.97753">
        <ele>26.4</ele>
        <time>2025-10-02T09:44:16Z</time>
      </trkpt>
      <trkpt lat="48.13818" lon="-1.97735">
        <ele>26.4</ele>
        <time>2025-10-02T09:44:18Z</time>
      </trkpt>
      <trkpt lat="48.13817" lon="-1.97667">
        <ele>26.8</ele>
        <time>2025-10-02T09:44:26Z</time>
      </trkpt>
      <trkpt lat="48.13815" lon="-1.97614">
        <ele>27</ele>
        <time>2025-10-02T09:44:32Z</time>
      </trkpt>
      <trkpt lat="48.13815" lon="-1.97536">
        <ele>26.6</ele>
        <time>2025-10-02T09:44:41Z</time>
      </trkpt>
      <trkpt lat="48.13814" lon="-1.97514">
        <ele>26.8</ele>
        <time>2025-10-02T09:44:45Z</time>
      </trkpt>
      <trkpt lat="48.13811" lon="-1.97485">
        <ele>26.2</ele>
        <time>2025-10-02T09:44:50Z</time>
      </trkpt>
      <trkpt lat="48.1381" lon="-1.97478">
        <ele>26.2</ele>
        <time>2025-10-02T09:44:51Z</time>
      </trkpt>
      <trkpt lat="48.13805" lon="-1.97439">
        <ele>26</ele>
        <time>2025-10-02T09:44:59Z</time>
      </trkpt>
      <trkpt lat="48.13805" lon="-1.97438">
        <ele>26</ele>
        <time>2025-10-02T09:45:03Z</time>
      </trkpt>
      <trkpt lat="48.13805" lon="-1.97438">
        <ele>26</ele>
        <time>2025-10-02T09:45:12Z</time>
      </trkpt>
      <trkpt lat="48.13805" lon="-1.97438">
        <ele>26</ele>
        <time>2025-10-02T09:45:24Z</time>
      </trkpt>
      <trkpt lat="48.13805" lon="-1.97438">
        <ele>26</ele>
        <time>2025-10-02T09:45:29Z</time>
      </trkpt>
      <trkpt lat="48.13805" lon="-1.97438">
        <ele>26</ele>
        <time>2025-10-02T09:45:30Z</time>
      </trkpt>
      <trkpt lat="48.13805" lon="-1.97438">
        <ele>26</ele>
        <time>2025-10-02T09:45:42Z</time>
      </trkpt>
      <trkpt lat="48.13805" lon="-1.97438">
        <ele>26</ele>
        <time>2025-10-02T09:45:51Z</time>
      </trkpt>
      <trkpt lat="48.13805" lon="-1.97438">
        <ele>26</ele>
        <time>2025-10-02T09:46:17Z</time>
      </trkpt>
      <trkpt lat="48.13806" lon="-1.97437">
        <ele>26</ele>
        <time>2025-10-02T09:46:29Z</time>
      </trkpt>
      <trkpt lat="48.13806" lon="-1.97433">
        <ele>26</ele>
        <time>2025-10-02T09:46:35Z</time>
      </trkpt>
      <trkpt lat="48.13806" lon="-1.97432">
        <ele>26</ele>
        <time>2025-10-02T09:46:46Z</time>
      </trkpt>
      <trkpt lat="48.13806" lon="-1.97432">
        <ele>26</ele>
        <time>2025-10-02T09:47:10Z</time>
      </trkpt>
      <trkpt lat="48.13806" lon="-1.97432">
        <ele>26</ele>
        <time>2025-10-02T09:47:28Z</time>
      </trkpt>
      <trkpt lat="48.13806" lon="-1.97432">
        <ele>26</ele>
        <time>2025-10-02T09:47:33Z</time>
      </trkpt>
      <trkpt lat="48.13806" lon="-1.97432">
        <ele>26</ele>
        <time>2025-10-02T09:47:44Z</time>
      </trkpt>
      <trkpt lat="48.13806" lon="-1.97432">
        <ele>26</ele>
        <time>2025-10-02T09:47:51Z</time>
      </trkpt>
      <trkpt lat="48.13806" lon="-1.97432">
        <ele>26</ele>
        <time>2025-10-02T09:47:57Z</time>
      </trkpt>
      <trkpt lat="48.13804" lon="-1.97421">
        <ele>26</ele>
        <time>2025-10-02T09:48:02Z</time>
      </trkpt>
      <trkpt lat="48.13799" lon="-1.97395">
        <ele>25.8</ele>
        <time>2025-10-02T09:48:08Z</time>
      </trkpt>
      <trkpt lat="48.13797" lon="-1.97369">
        <ele>25.8</ele>
        <time>2025-10-02T09:48:13Z</time>
      </trkpt>
      <trkpt lat="48.13796" lon="-1.97364">
        <ele>25.8</ele>
        <time>2025-10-02T09:48:14Z</time>
      </trkpt>
      <trkpt lat="48.13792" lon="-1.97342">
        <ele>25.2</ele>
        <time>2025-10-02T09:48:20Z</time>
      </trkpt>
      <trkpt lat="48.13792" lon="-1.97338">
        <ele>25.2</ele>
        <time>2025-10-02T09:48:21Z</time>
      </trkpt>
      <trkpt lat="48.13787" lon="-1.97317">
        <ele>25</ele>
        <time>2025-10-02T09:48:26Z</time>
      </trkpt>
      <trkpt lat="48.13786" lon="-1.97304">
        <ele>25.2</ele>
        <time>2025-10-02T09:48:29Z</time>
      </trkpt>
      <trkpt lat="48.13781" lon="-1.97267">
        <ele>25</ele>
        <time>2025-10-02T09:48:38Z</time>
      </trkpt>
      <trkpt lat="48.13775" lon="-1.97233">
        <ele>25</ele>
        <time>2025-10-02T09:48:45Z</time>
      </trkpt>
      <trkpt lat="48.1377" lon="-1.97199">
        <ele>25.2</ele>
        <time>2025-10-02T09:48:52Z</time>
      </trkpt>
      <trkpt lat="48.13775" lon="-1.97173">
        <ele>25.8</ele>
        <time>2025-10-02T09:48:57Z</time>
      </trkpt>
      <trkpt lat="48.13776" lon="-1.97165">
        <ele>26.2</ele>
        <time>2025-10-02T09:48:59Z</time>
      </trkpt>
      <trkpt lat="48.13776" lon="-1.97155">
        <ele>26.6</ele>
        <time>2025-10-02T09:49:01Z</time>
      </trkpt>
      <trkpt lat="48.13775" lon="-1.97128">
        <ele>26</ele>
        <time>2025-10-02T09:49:08Z</time>
      </trkpt>
      <trkpt lat="48.13784" lon="-1.97124">
        <ele>26.6</ele>
        <time>2025-10-02T09:49:12Z</time>
      </trkpt>
      <trkpt lat="48.13788" lon="-1.97121">
        <ele>26.8</ele>
        <time>2025-10-02T09:49:14Z</time>
      </trkpt>
      <trkpt lat="48.13789" lon="-1.97112">
        <ele>26.8</ele>
        <time>2025-10-02T09:49:16Z</time>
      </trkpt>
      <trkpt lat="48.13786" lon="-1.97082">
        <ele>26.6</ele>
        <time>2025-10-02T09:49:21Z</time>
      </trkpt>
      <trkpt lat="48.13783" lon="-1.97043">
        <ele>26.6</ele>
        <time>2025-10-02T09:49:27Z</time>
      </trkpt>
      <trkpt lat="48.13782" lon="-1.97027">
        <ele>26.6</ele>
        <time>2025-10-02T09:49:29Z</time>
      </trkpt>
      <trkpt lat="48.13779" lon="-1.96997">
        <ele>26</ele>
        <time>2025-10-02T09:49:33Z</time>
      </trkpt>
      <trkpt lat="48.13779" lon="-1.96976">
        <ele>26</ele>
        <time>2025-10-02T09:49:36Z</time>
      </trkpt>
      <trkpt lat="48.13778" lon="-1.96927">
        <ele>26</ele>
        <time>2025-10-02T09:49:43Z</time>
      </trkpt>
      <trkpt lat="48.13778" lon="-1.9692">
        <ele>26</ele>
        <time>2025-10-02T09:49:44Z</time>
      </trkpt>
      <trkpt lat="48.13778" lon="-1.96906">
        <ele>25.8</ele>
        <time>2025-10-02T09:49:46Z</time>
      </trkpt>
      <trkpt lat="48.1378" lon="-1.96881">
        <ele>25.8</ele>
        <time>2025-10-02T09:49:50Z</time>
      </trkpt>
      <trkpt lat="48.13785" lon="-1.96824">
        <ele>26</ele>
        <time>2025-10-02T09:49:58Z</time>
      </trkpt>
      <trkpt lat="48.13788" lon="-1.96781">
        <ele>26</ele>
        <time>2025-10-02T09:50:04Z</time>
      </trkpt>
      <trkpt lat="48.13789" lon="-1.96753">
        <ele>25.8</ele>
        <time>2025-10-02T09:50:08Z</time>
      </trkpt>
      <trkpt lat="48.13791" lon="-1.96726">
        <ele>25.8</ele>
        <time>2025-10-02T09:50:12Z</time>
      </trkpt>
      <trkpt lat="48.13791" lon="-1.967">
        <ele>25.8</ele>
        <time>2025-10-02T09:50:16Z</time>
      </trkpt>
      <trkpt lat="48.13794" lon="-1.96652">
        <ele>25.8</ele>
        <time>2025-10-02T09:50:24Z</time>
      </trkpt>
      <trkpt lat="48.13797" lon="-1.96609">
        <ele>25.8</ele>
        <time>2025-10-02T09:50:31Z</time>
      </trkpt>
      <trkpt lat="48.13809" lon="-1.96539">
        <ele>25.8</ele>
        <time>2025-10-02T09:50:41Z</time>
      </trkpt>
      <trkpt lat="48.1382" lon="-1.96475">
        <ele>25.8</ele>
        <time>2025-10-02T09:50:50Z</time>
      </trkpt>
      <trkpt lat="48.13831" lon="-1.96411">
        <ele>25.8</ele>
        <time>2025-10-02T09:51:00Z</time>
      </trkpt>
      <trkpt lat="48.13842" lon="-1.96347">
        <ele>25.8</ele>
        <time>2025-10-02T09:51:10Z</time>
      </trkpt>
      <trkpt lat="48.13844" lon="-1.96324">
        <ele>25.8</ele>
        <time>2025-10-02T09:51:15Z</time>
      </trkpt>
      <trkpt lat="48.13843" lon="-1.96323">
        <ele>25.6</ele>
        <time>2025-10-02T09:51:19Z</time>
      </trkpt>
      <trkpt lat="48.13841" lon="-1.96322">
        <ele>25.4</ele>
        <time>2025-10-02T09:51:31Z</time>
      </trkpt>
      <trkpt lat="48.13834" lon="-1.96319">
        <ele>25.4</ele>
        <time>2025-10-02T09:51:34Z</time>
      </trkpt>
      <trkpt lat="48.13833" lon="-1.96315">
        <ele>25.4</ele>
        <time>2025-10-02T09:51:35Z</time>
      </trkpt>
      <trkpt lat="48.13828" lon="-1.96296">
        <ele>25.6</ele>
        <time>2025-10-02T09:51:39Z</time>
      </trkpt>
      <trkpt lat="48.13815" lon="-1.96285">
        <ele>25.4</ele>
        <time>2025-10-02T09:51:43Z</time>
      </trkpt>
      <trkpt lat="48.13786" lon="-1.96282">
        <ele>25.6</ele>
        <time>2025-10-02T09:51:49Z</time>
      </trkpt>
      <trkpt lat="48.13746" lon="-1.96273">
        <ele>26</ele>
        <time>2025-10-02T09:51:57Z</time>
      </trkpt>
      <trkpt lat="48.13709" lon="-1.96254">
        <ele>26</ele>
        <time>2025-10-02T09:52:05Z</time>
      </trkpt>
      <trkpt lat="48.13665" lon="-1.96215">
        <ele>26.6</ele>
        <time>2025-10-02T09:52:15Z</time>
      </trkpt>
      <trkpt lat="48.13634" lon="-1.96172">
        <ele>26.2</ele>
        <time>2025-10-02T09:52:23Z</time>
      </trkpt>
      <trkpt lat="48.1361" lon="-1.96133">
        <ele>26.6</ele>
        <time>2025-10-02T09:52:30Z</time>
      </trkpt>
      <trkpt lat="48.13607" lon="-1.96125">
        <ele>26.6</ele>
        <time>2025-10-02T09:52:31Z</time>
      </trkpt>
      <trkpt lat="48.13595" lon="-1.96092">
        <ele>26.6</ele>
        <time>2025-10-02T09:52:36Z</time>
      </trkpt>
      <trkpt lat="48.13572" lon="-1.96017">
        <ele>26.8</ele>
        <time>2025-10-02T09:52:47Z</time>
      </trkpt>
      <trkpt lat="48.13555" lon="-1.95962">
        <ele>27.2</ele>
        <time>2025-10-02T09:52:55Z</time>
      </trkpt>
      <trkpt lat="48.13551" lon="-1.95943">
        <ele>27</ele>
        <time>2025-10-02T09:52:58Z</time>
      </trkpt>
      <trkpt lat="48.13546" lon="-1.95932">
        <ele>27</ele>
        <time>2025-10-02T09:53:00Z</time>
      </trkpt>
      <trkpt lat="48.13544" lon="-1.95927">
        <ele>27.2</ele>
        <time>2025-10-02T09:53:01Z</time>
      </trkpt>
      <trkpt lat="48.13541" lon="-1.95922">
        <ele>27.2</ele>
        <time>2025-10-02T09:53:02Z</time>
      </trkpt>
      <trkpt lat="48.13534" lon="-1.95913">
        <ele>27.2</ele>
        <time>2025-10-02T09:53:05Z</time>
      </trkpt>
      <trkpt lat="48.13528" lon="-1.95908">
        <ele>27.4</ele>
        <time>2025-10-02T09:53:07Z</time>
      </trkpt>
      <trkpt lat="48.13512" lon="-1.95903">
        <ele>27.8</ele>
        <time>2025-10-02T09:53:11Z</time>
      </trkpt>
      <trkpt lat="48.13497" lon="-1.95905">
        <ele>28.4</ele>
        <time>2025-10-02T09:53:14Z</time>
      </trkpt>
      <trkpt lat="48.13482" lon="-1.95907">
        <ele>29</ele>
        <time>2025-10-02T09:53:17Z</time>
      </trkpt>
      <trkpt lat="48.13472" lon="-1.95908">
        <ele>29.4</ele>
        <time>2025-10-02T09:53:19Z</time>
      </trkpt>
      <trkpt lat="48.13456" lon="-1.95908">
        <ele>30</ele>
        <time>2025-10-02T09:53:22Z</time>
      </trkpt>
      <trkpt lat="48.13446" lon="-1.95906">
        <ele>30.6</ele>
        <time>2025-10-02T09:53:24Z</time>
      </trkpt>
      <trkpt lat="48.13417" lon="-1.95898">
        <ele>31.6</ele>
        <time>2025-10-02T09:53:30Z</time>
      </trkpt>
      <trkpt lat="48.13407" lon="-1.95898">
        <ele>32.2</ele>
        <time>2025-10-02T09:53:32Z</time>
      </trkpt>
      <trkpt lat="48.13398" lon="-1.95899">
        <ele>32.8</ele>
        <time>2025-10-02T09:53:34Z</time>
      </trkpt>
      <trkpt lat="48.13384" lon="-1.95901">
        <ele>34</ele>
        <time>2025-10-02T09:53:37Z</time>
      </trkpt>
      <trkpt lat="48.13371" lon="-1.95902">
        <ele>35.2</ele>
        <time>2025-10-02T09:53:40Z</time>
      </trkpt>
      <trkpt lat="48.13362" lon="-1.95903">
        <ele>36.2</ele>
        <time>2025-10-02T09:53:42Z</time>
      </trkpt>
      <trkpt lat="48.13357" lon="-1.95903">
        <ele>36.4</ele>
        <time>2025-10-02T09:53:43Z</time>
      </trkpt>
      <trkpt lat="48.13339" lon="-1.95905">
        <ele>37.6</ele>
        <time>2025-10-02T09:53:47Z</time>
      </trkpt>
      <trkpt lat="48.13321" lon="-1.95906">
        <ele>39</ele>
        <time>2025-10-02T09:53:51Z</time>
      </trkpt>
      <trkpt lat="48.13317" lon="-1.95904">
        <ele>39</ele>
        <time>2025-10-02T09:53:52Z</time>
      </trkpt>
      <trkpt lat="48.13313" lon="-1.95901">
        <ele>39.4</ele>
        <time>2025-10-02T09:53:53Z</time>
      </trkpt>
      <trkpt lat="48.13305" lon="-1.95896">
        <ele>39.8</ele>
        <time>2025-10-02T09:53:55Z</time>
      </trkpt>
      <trkpt lat="48.13301" lon="-1.95894">
        <ele>40</ele>
        <time>2025-10-02T09:53:56Z</time>
      </trkpt>
      <trkpt lat="48.13297" lon="-1.95894">
        <ele>40.2</ele>
        <time>2025-10-02T09:53:57Z</time>
      </trkpt>
      <trkpt lat="48.13291" lon="-1.95899">
        <ele>40.6</ele>
        <time>2025-10-02T09:53:59Z</time>
      </trkpt>
      <trkpt lat="48.13285" lon="-1.95907">
        <ele>41</ele>
        <time>2025-10-02T09:54:01Z</time>
      </trkpt>
      <trkpt lat="48.13282" lon="-1.95912">
        <ele>41.4</ele>
        <time>2025-10-02T09:54:02Z</time>
      </trkpt>
      <trkpt lat="48.13274" lon="-1.95936">
        <ele>42.4</ele>
        <time>2025-10-02T09:54:06Z</time>
      </trkpt>
      <trkpt lat="48.13269" lon="-1.95947">
        <ele>43</ele>
        <time>2025-10-02T09:54:08Z</time>
      </trkpt>
      <trkpt lat="48.13263" lon="-1.95965">
        <ele>43.8</ele>
        <time>2025-10-02T09:54:11Z</time>
      </trkpt>
      <trkpt lat="48.13249" lon="-1.96">
        <ele>45</ele>
        <time>2025-10-02T09:54:17Z</time>
      </trkpt>
      <trkpt lat="48.1324" lon="-1.96024">
        <ele>46</ele>
        <time>2025-10-02T09:54:21Z</time>
      </trkpt>
      <trkpt lat="48.13231" lon="-1.96047">
        <ele>47</ele>
        <time>2025-10-02T09:54:25Z</time>
      </trkpt>
      <trkpt lat="48.13229" lon="-1.96053">
        <ele>47.2</ele>
        <time>2025-10-02T09:54:26Z</time>
      </trkpt>
      <trkpt lat="48.13222" lon="-1.96071">
        <ele>48</ele>
        <time>2025-10-02T09:54:29Z</time>
      </trkpt>
      <trkpt lat="48.13213" lon="-1.96094">
        <ele>49.2</ele>
        <time>2025-10-02T09:54:33Z</time>
      </trkpt>
      <trkpt lat="48.13201" lon="-1.96124">
        <ele>50.2</ele>
        <time>2025-10-02T09:54:38Z</time>
      </trkpt>
      <trkpt lat="48.13192" lon="-1.96148">
        <ele>51.2</ele>
        <time>2025-10-02T09:54:42Z</time>
      </trkpt>
      <trkpt lat="48.13183" lon="-1.96171">
        <ele>52.2</ele>
        <time>2025-10-02T09:54:46Z</time>
      </trkpt>
      <trkpt lat="48.13181" lon="-1.96177">
        <ele>52.4</ele>
        <time>2025-10-02T09:54:47Z</time>
      </trkpt>
      <trkpt lat="48.13167" lon="-1.96213">
        <ele>53.6</ele>
        <time>2025-10-02T09:54:53Z</time>
      </trkpt>
      <trkpt lat="48.13154" lon="-1.96246">
        <ele>54.6</ele>
        <time>2025-10-02T09:54:59Z</time>
      </trkpt>
      <trkpt lat="48.13152" lon="-1.96255">
        <ele>54.6</ele>
        <time>2025-10-02T09:55:01Z</time>
      </trkpt>
      <trkpt lat="48.13151" lon="-1.96264">
        <ele>54.8</ele>
        <time>2025-10-02T09:55:03Z</time>
      </trkpt>
      <trkpt lat="48.13148" lon="-1.96275">
        <ele>55</ele>
        <time>2025-10-02T09:55:06Z</time>
      </trkpt>
      <trkpt lat="48.13145" lon="-1.96276">
        <ele>55</ele>
        <time>2025-10-02T09:55:08Z</time>
      </trkpt>
      <trkpt lat="48.13144" lon="-1.96275">
        <ele>55</ele>
        <time>2025-10-02T09:55:12Z</time>
      </trkpt>
      <trkpt lat="48.13141" lon="-1.96273">
        <ele>55.8</ele>
        <time>2025-10-02T09:55:16Z</time>
      </trkpt>
      <trkpt lat="48.13136" lon="-1.96268">
        <ele>56</ele>
        <time>2025-10-02T09:55:18Z</time>
      </trkpt>
      <trkpt lat="48.13127" lon="-1.96251">
        <ele>56.8</ele>
        <time>2025-10-02T09:55:22Z</time>
      </trkpt>
      <trkpt lat="48.1312" lon="-1.96237">
        <ele>58</ele>
        <time>2025-10-02T09:55:25Z</time>
      </trkpt>
      <trkpt lat="48.13116" lon="-1.96227">
        <ele>58.4</ele>
        <time>2025-10-02T09:55:27Z</time>
      </trkpt>
      <trkpt lat="48.13113" lon="-1.96222">
        <ele>59</ele>
        <time>2025-10-02T09:55:28Z</time>
      </trkpt>
      <trkpt lat="48.13104" lon="-1.9621">
        <ele>60.2</ele>
        <time>2025-10-02T09:55:31Z</time>
      </trkpt>
      <trkpt lat="48.13098" lon="-1.96203">
        <ele>61.2</ele>
        <time>2025-10-02T09:55:33Z</time>
      </trkpt>
      <trkpt lat="48.13091" lon="-1.96197">
        <ele>61.8</ele>
        <time>2025-10-02T09:55:35Z</time>
      </trkpt>
      <trkpt lat="48.13085" lon="-1.96193">
        <ele>62.4</ele>
        <time>2025-10-02T09:55:37Z</time>
      </trkpt>
      <trkpt lat="48.13077" lon="-1.96191">
        <ele>63.6</ele>
        <time>2025-10-02T09:55:40Z</time>
      </trkpt>
      <trkpt lat="48.13072" lon="-1.96186">
        <ele>63.8</ele>
        <time>2025-10-02T09:55:42Z</time>
      </trkpt>
      <trkpt lat="48.13072" lon="-1.96182">
        <ele>64</ele>
        <time>2025-10-02T09:55:43Z</time>
      </trkpt>
      <trkpt lat="48.13077" lon="-1.96154">
        <ele>64.2</ele>
        <time>2025-10-02T09:55:48Z</time>
      </trkpt>
      <trkpt lat="48.13089" lon="-1.96097">
        <ele>64</ele>
        <time>2025-10-02T09:55:57Z</time>
      </trkpt>
      <trkpt lat="48.13096" lon="-1.9605">
        <ele>64.2</ele>
        <time>2025-10-02T09:56:04Z</time>
      </trkpt>
      <trkpt lat="48.13096" lon="-1.96043">
        <ele>64.2</ele>
        <time>2025-10-02T09:56:05Z</time>
      </trkpt>
      <trkpt lat="48.13096" lon="-1.96036">
        <ele>64.2</ele>
        <time>2025-10-02T09:56:06Z</time>
      </trkpt>
      <trkpt lat="48.13091" lon="-1.96025">
        <ele>64</ele>
        <time>2025-10-02T09:56:08Z</time>
      </trkpt>
      <trkpt lat="48.13083" lon="-1.96017">
        <ele>63.8</ele>
        <time>2025-10-02T09:56:10Z</time>
      </trkpt>
      <trkpt lat="48.13073" lon="-1.96012">
        <ele>63.8</ele>
        <time>2025-10-02T09:56:12Z</time>
      </trkpt>
      <trkpt lat="48.13063" lon="-1.96008">
        <ele>63.4</ele>
        <time>2025-10-02T09:56:14Z</time>
      </trkpt>
      <trkpt lat="48.13047" lon="-1.96007">
        <ele>63.2</ele>
        <time>2025-10-02T09:56:17Z</time>
      </trkpt>
      <trkpt lat="48.13036" lon="-1.96007">
        <ele>62.6</ele>
        <time>2025-10-02T09:56:19Z</time>
      </trkpt>
      <trkpt lat="48.13031" lon="-1.96006">
        <ele>62.4</ele>
        <time>2025-10-02T09:56:20Z</time>
      </trkpt>
      <trkpt lat="48.13027" lon="-1.96004">
        <ele>62.2</ele>
        <time>2025-10-02T09:56:21Z</time>
      </trkpt>
      <trkpt lat="48.13024" lon="-1.95999">
        <ele>62</ele>
        <time>2025-10-02T09:56:22Z</time>
      </trkpt>
      <trkpt lat="48.13022" lon="-1.95991">
        <ele>61.8</ele>
        <time>2025-10-02T09:56:23Z</time>
      </trkpt>
      <trkpt lat="48.1302" lon="-1.95973">
        <ele>61.4</ele>
        <time>2025-10-02T09:56:25Z</time>
      </trkpt>
      <trkpt lat="48.13019" lon="-1.95964">
        <ele>61.2</ele>
        <time>2025-10-02T09:56:26Z</time>
      </trkpt>
      <trkpt lat="48.13014" lon="-1.95899">
        <ele>60.6</ele>
        <time>2025-10-02T09:56:33Z</time>
      </trkpt>
      <trkpt lat="48.13012" lon="-1.95874">
        <ele>61.2</ele>
        <time>2025-10-02T09:56:36Z</time>
      </trkpt>
      <trkpt lat="48.13007" lon="-1.9586">
        <ele>61.4</ele>
        <time>2025-10-02T09:56:38Z</time>
      </trkpt>
      <trkpt lat="48.12999" lon="-1.95856">
        <ele>62</ele>
        <time>2025-10-02T09:56:40Z</time>
      </trkpt>
      <trkpt lat="48.12989" lon="-1.95858">
        <ele>62.2</ele>
        <time>2025-10-02T09:56:42Z</time>
      </trkpt>
      <trkpt lat="48.12979" lon="-1.95857">
        <ele>62.4</ele>
        <time>2025-10-02T09:56:44Z</time>
      </trkpt>
      <trkpt lat="48.12975" lon="-1.95855">
        <ele>62.6</ele>
        <time>2025-10-02T09:56:45Z</time>
      </trkpt>
      <trkpt lat="48.12971" lon="-1.95852">
        <ele>62.6</ele>
        <time>2025-10-02T09:56:46Z</time>
      </trkpt>
      <trkpt lat="48.12963" lon="-1.95846">
        <ele>63.2</ele>
        <time>2025-10-02T09:56:48Z</time>
      </trkpt>
      <trkpt lat="48.12954" lon="-1.95843">
        <ele>63.6</ele>
        <time>2025-10-02T09:56:50Z</time>
      </trkpt>
      <trkpt lat="48.12949" lon="-1.95842">
        <ele>64.2</ele>
        <time>2025-10-02T09:56:51Z</time>
      </trkpt>
      <trkpt lat="48.12945" lon="-1.95842">
        <ele>64.8</ele>
        <time>2025-10-02T09:56:52Z</time>
      </trkpt>
      <trkpt lat="48.1293" lon="-1.9584">
        <ele>65.8</ele>
        <time>2025-10-02T09:56:55Z</time>
      </trkpt>
      <trkpt lat="48.12918" lon="-1.95838">
        <ele>66.4</ele>
        <time>2025-10-02T09:56:58Z</time>
      </trkpt>
      <trkpt lat="48.12914" lon="-1.95836">
        <ele>66.6</ele>
        <time>2025-10-02T09:56:59Z</time>
      </trkpt>
      <trkpt lat="48.1291" lon="-1.95828">
        <ele>66.8</ele>
        <time>2025-10-02T09:57:01Z</time>
      </trkpt>
      <trkpt lat="48.12907" lon="-1.95804">
        <ele>67.4</ele>
        <time>2025-10-02T09:57:06Z</time>
      </trkpt>
      <trkpt lat="48.12896" lon="-1.95797">
        <ele>67.4</ele>
        <time>2025-10-02T09:57:10Z</time>
      </trkpt>
      <trkpt lat="48.12889" lon="-1.95793">
        <ele>67.4</ele>
        <time>2025-10-02T09:57:13Z</time>
      </trkpt>
      <trkpt lat="48.12888" lon="-1.9579">
        <ele>67.4</ele>
        <time>2025-10-02T09:57:14Z</time>
      </trkpt>
      <trkpt lat="48.12884" lon="-1.95773">
        <ele>67.6</ele>
        <time>2025-10-02T09:57:18Z</time>
      </trkpt>
      <trkpt lat="48.12881" lon="-1.9577">
        <ele>68</ele>
        <time>2025-10-02T09:57:19Z</time>
      </trkpt>
      <trkpt lat="48.1287" lon="-1.95767">
        <ele>68.8</ele>
        <time>2025-10-02T09:57:22Z</time>
      </trkpt>
      <trkpt lat="48.12863" lon="-1.95763">
        <ele>69.2</ele>
        <time>2025-10-02T09:57:24Z</time>
      </trkpt>
      <trkpt lat="48.12856" lon="-1.95753">
        <ele>69.6</ele>
        <time>2025-10-02T09:57:27Z</time>
      </trkpt>
      <trkpt lat="48.12853" lon="-1.95733">
        <ele>69.8</ele>
        <time>2025-10-02T09:57:32Z</time>
      </trkpt>
      <trkpt lat="48.12858" lon="-1.9569">
        <ele>69.2</ele>
        <time>2025-10-02T09:57:39Z</time>
      </trkpt>
      <trkpt lat="48.12858" lon="-1.95651">
        <ele>68</ele>
        <time>2025-10-02T09:57:45Z</time>
      </trkpt>
      <trkpt lat="48.12857" lon="-1.95635">
        <ele>67.2</ele>
        <time>2025-10-02T09:57:48Z</time>
      </trkpt>
      <trkpt lat="48.12857" lon="-1.95625">
        <ele>66.6</ele>
        <time>2025-10-02T09:57:50Z</time>
      </trkpt>
      <trkpt lat="48.12861" lon="-1.95609">
        <ele>65.8</ele>
        <time>2025-10-02T09:57:54Z</time>
      </trkpt>
      <trkpt lat="48.12862" lon="-1.95607">
        <ele>65.6</ele>
        <time>2025-10-02T09:57:55Z</time>
      </trkpt>
      <trkpt lat="48.12866" lon="-1.95603">
        <ele>65</ele>
        <time>2025-10-02T09:57:58Z</time>
      </trkpt>
      <trkpt lat="48.12866" lon="-1.95603">
        <ele>64.8</ele>
        <time>2025-10-02T09:58:02Z</time>
      </trkpt>
      <trkpt lat="48.12866" lon="-1.95603">
        <ele>64.8</ele>
        <time>2025-10-02T09:58:08Z</time>
      </trkpt>
      <trkpt lat="48.12866" lon="-1.95603">
        <ele>64.6</ele>
        <time>2025-10-02T09:58:09Z</time>
      </trkpt>
      <trkpt lat="48.12867" lon="-1.95604">
        <ele>64.6</ele>
        <time>2025-10-02T09:58:15Z</time>
      </trkpt>
      <trkpt lat="48.12867" lon="-1.95604">
        <ele>64.6</ele>
        <time>2025-10-02T09:58:18Z</time>
      </trkpt>
      <trkpt lat="48.12867" lon="-1.95604">
        <ele>64.4</ele>
        <time>2025-10-02T09:58:23Z</time>
      </trkpt>
      <trkpt lat="48.12867" lon="-1.95604">
        <ele>64.4</ele>
        <time>2025-10-02T09:58:30Z</time>
      </trkpt>
      <trkpt lat="48.12867" lon="-1.95605">
        <ele>64.2</ele>
        <time>2025-10-02T09:58:38Z</time>
      </trkpt>
      <trkpt lat="48.12867" lon="-1.95605">
        <ele>64.6</ele>
        <time>2025-10-02T09:58:46Z</time>
      </trkpt>
      <trkpt lat="48.12867" lon="-1.95605">
        <ele>64.6</ele>
        <time>2025-10-02T09:58:50Z</time>
      </trkpt>
      <trkpt lat="48.12867" lon="-1.95605">
        <ele>64.6</ele>
        <time>2025-10-02T09:58:55Z</time>
      </trkpt>
      <trkpt lat="48.12867" lon="-1.95605">
        <ele>64.6</ele>
        <time>2025-10-02T09:58:56Z</time>
      </trkpt>
      <trkpt lat="48.12867" lon="-1.95605">
        <ele>64.6</ele>
        <time>2025-10-02T09:58:59Z</time>
      </trkpt>
      <trkpt lat="48.12867" lon="-1.95605">
        <ele>64.6</ele>
        <time>2025-10-02T09:59:02Z</time>
      </trkpt>
      <trkpt lat="48.12867" lon="-1.95605">
        <ele>64.6</ele>
        <time>2025-10-02T09:59:10Z</time>
      </trkpt>
      <trkpt lat="48.12867" lon="-1.95605">
        <ele>64.6</ele>
        <time>2025-10-02T09:59:12Z</time>
      </trkpt>
      <trkpt lat="48.12867" lon="-1.95605">
        <ele>64.6</ele>
        <time>2025-10-02T09:59:14Z</time>
      </trkpt>
      <trkpt lat="48.12867" lon="-1.95605">
        <ele>64.6</ele>
        <time>2025-10-02T09:59:16Z</time>
      </trkpt>
      <trkpt lat="48.12867" lon="-1.95605">
        <ele>64.6</ele>
        <time>2025-10-02T09:59:19Z</time>
      </trkpt>
      <trkpt lat="48.12867" lon="-1.95605">
        <ele>64.6</ele>
        <time>2025-10-02T09:59:31Z</time>
      </trkpt>
      <trkpt lat="48.12867" lon="-1.95604">
        <ele>64.6</ele>
        <time>2025-10-02T09:59:40Z</time>
      </trkpt>
      <trkpt lat="48.12866" lon="-1.95603">
        <ele>64.6</ele>
        <time>2025-10-02T09:59:46Z</time>
      </trkpt>
      <trkpt lat="48.12866" lon="-1.95603">
        <ele>64.6</ele>
        <time>2025-10-02T09:59:48Z</time>
      </trkpt>
      <trkpt lat="48.12866" lon="-1.95603">
        <ele>64.6</ele>
        <time>2025-10-02T09:59:49Z</time>
      </trkpt>
      <trkpt lat="48.12866" lon="-1.95602">
        <ele>64.6</ele>
        <time>2025-10-02T09:59:59Z</time>
      </trkpt>
      <trkpt lat="48.12866" lon="-1.95602">
        <ele>64.6</ele>
        <time>2025-10-02T10:00:01Z</time>
      </trkpt>
      <trkpt lat="48.12866" lon="-1.95602">
        <ele>64.6</ele>
        <time>2025-10-02T10:00:05Z</time>
      </trkpt>
      <trkpt lat="48.12866" lon="-1.95602">
        <ele>64.6</ele>
        <time>2025-10-02T10:00:09Z</time>
      </trkpt>
      <trkpt lat="48.12866" lon="-1.95602">
        <ele>64.6</ele>
        <time>2025-10-02T10:00:17Z</time>
      </trkpt>
      <trkpt lat="48.12866" lon="-1.95601">
        <ele>64.6</ele>
        <time>2025-10-02T10:00:25Z</time>
      </trkpt>
      <trkpt lat="48.12866" lon="-1.95603">
        <ele>64.6</ele>
        <time>2025-10-02T10:00:33Z</time>
      </trkpt>
      <trkpt lat="48.12866" lon="-1.95603">
        <ele>64.6</ele>
        <time>2025-10-02T10:00:42Z</time>
      </trkpt>
      <trkpt lat="48.12866" lon="-1.95603">
        <ele>64.6</ele>
        <time>2025-10-02T10:00:49Z</time>
      </trkpt>
      <trkpt lat="48.12866" lon="-1.95603">
        <ele>64.6</ele>
        <time>2025-10-02T10:00:51Z</time>
      </trkpt>
      <trkpt lat="48.12866" lon="-1.95603">
        <ele>64.6</ele>
        <time>2025-10-02T10:00:54Z</time>
      </trkpt>
      <trkpt lat="48.12866" lon="-1.95603">
        <ele>64.6</ele>
        <time>2025-10-02T10:00:56Z</time>
      </trkpt>
      <trkpt lat="48.12866" lon="-1.95603">
        <ele>64.6</ele>
        <time>2025-10-02T10:00:59Z</time>
      </trkpt>
      <trkpt lat="48.12866" lon="-1.95603">
        <ele>64.6</ele>
        <time>2025-10-02T10:01:06Z</time>
      </trkpt>
      <trkpt lat="48.12866" lon="-1.95603">
        <ele>64.6</ele>
        <time>2025-10-02T10:01:15Z</time>
      </trkpt>
      <trkpt lat="48.12866" lon="-1.95603">
        <ele>64.6</ele>
        <time>2025-10-02T10:01:16Z</time>
      </trkpt>
      <trkpt lat="48.12866" lon="-1.95603">
        <ele>64.6</ele>
        <time>2025-10-02T10:01:21Z</time>
      </trkpt>
      <trkpt lat="48.12866" lon="-1.95603">
        <ele>64.6</ele>
        <time>2025-10-02T10:01:23Z</time>
      </trkpt>
      <trkpt lat="48.12866" lon="-1.95603">
        <ele>64.6</ele>
        <time>2025-10-02T10:01:25Z</time>
      </trkpt>
      <trkpt lat="48.12866" lon="-1.95603">
        <ele>64.6</ele>
        <time>2025-10-02T10:01:38Z</time>
      </trkpt>
      <trkpt lat="48.12866" lon="-1.95603">
        <ele>64.6</ele>
        <time>2025-10-02T10:01:40Z</time>
      </trkpt>
      <trkpt lat="48.12866" lon="-1.95603">
        <ele>64.6</ele>
        <time>2025-10-02T10:01:53Z</time>
      </trkpt>
      <trkpt lat="48.12868" lon="-1.95602">
        <ele>64.8</ele>
        <time>2025-10-02T10:01:58Z</time>
      </trkpt>
      <trkpt lat="48.12869" lon="-1.95598">
        <ele>64.4</ele>
        <time>2025-10-02T10:02:03Z</time>
      </trkpt>
      <trkpt lat="48.12876" lon="-1.95595">
        <ele>64.6</ele>
        <time>2025-10-02T10:02:08Z</time>
      </trkpt>
      <trkpt lat="48.12877" lon="-1.95595">
        <ele>64.8</ele>
        <time>2025-10-02T10:02:09Z</time>
      </trkpt>
      <trkpt lat="48.12881" lon="-1.95597">
        <ele>65.4</ele>
        <time>2025-10-02T10:02:14Z</time>
      </trkpt>
      <trkpt lat="48.12881" lon="-1.95598">
        <ele>65.4</ele>
        <time>2025-10-02T10:02:15Z</time>
      </trkpt>
      <trkpt lat="48.12881" lon="-1.95599">
        <ele>65.8</ele>
        <time>2025-10-02T10:02:17Z</time>
      </trkpt>
      <trkpt lat="48.12882" lon="-1.95599">
        <ele>66</ele>
        <time>2025-10-02T10:02:19Z</time>
      </trkpt>
      <trkpt lat="48.12881" lon="-1.95598">
        <ele>66.6</ele>
        <time>2025-10-02T10:02:24Z</time>
      </trkpt>
      <trkpt lat="48.12881" lon="-1.95602">
        <ele>66.8</ele>
        <time>2025-10-02T10:02:27Z</time>
      </trkpt>
      <trkpt lat="48.12881" lon="-1.95602">
        <ele>66.6</ele>
        <time>2025-10-02T10:02:28Z</time>
      </trkpt>
      <trkpt lat="48.12882" lon="-1.95602">
        <ele>66.4</ele>
        <time>2025-10-02T10:02:32Z</time>
      </trkpt>
      <trkpt lat="48.12882" lon="-1.95603">
        <ele>66.4</ele>
        <time>2025-10-02T10:02:33Z</time>
      </trkpt>
      <trkpt lat="48.12881" lon="-1.95605">
        <ele>66.4</ele>
        <time>2025-10-02T10:02:34Z</time>
      </trkpt>
      <trkpt lat="48.12882" lon="-1.95604">
        <ele>66.6</ele>
        <time>2025-10-02T10:02:39Z</time>
      </trkpt>
      <trkpt lat="48.12884" lon="-1.95604">
        <ele>66.6</ele>
        <time>2025-10-02T10:02:44Z</time>
      </trkpt>
      <trkpt lat="48.12884" lon="-1.95603">
        <ele>66.6</ele>
        <time>2025-10-02T10:02:45Z</time>
      </trkpt>
      <trkpt lat="48.12883" lon="-1.95605">
        <ele>66.6</ele>
        <time>2025-10-02T10:02:47Z</time>
      </trkpt>
      <trkpt lat="48.12884" lon="-1.95606">
        <ele>66.6</ele>
        <time>2025-10-02T10:02:48Z</time>
      </trkpt>
      <trkpt lat="48.12886" lon="-1.95613">
        <ele>66.4</ele>
        <time>2025-10-02T10:02:51Z</time>
      </trkpt>
      <trkpt lat="48.12884" lon="-1.95614">
        <ele>66.4</ele>
        <time>2025-10-02T10:02:52Z</time>
      </trkpt>
      <trkpt lat="48.12882" lon="-1.95614">
        <ele>66.6</ele>
        <time>2025-10-02T10:02:54Z</time>
      </trkpt>
      <trkpt lat="48.12881" lon="-1.95612">
        <ele>66.6</ele>
        <time>2025-10-02T10:02:56Z</time>
      </trkpt>
      <trkpt lat="48.12879" lon="-1.95607">
        <ele>66.8</ele>
        <time>2025-10-02T10:02:58Z</time>
      </trkpt>
      <trkpt lat="48.12878" lon="-1.95606">
        <ele>66.8</ele>
        <time>2025-10-02T10:03:00Z</time>
      </trkpt>
      <trkpt lat="48.12865" lon="-1.95592">
        <ele>64.6</ele>
        <time>2025-10-02T10:04:03Z</time>
      </trkpt>
      <trkpt lat="48.12889" lon="-1.95605">
        <ele>64.6</ele>
        <time>2025-10-02T10:04:05Z</time>
      </trkpt>
      <trkpt lat="48.12887" lon="-1.9561">
        <ele>64.2</ele>
        <time>2025-10-02T10:04:07Z</time>
      </trkpt>
      <trkpt lat="48.12877" lon="-1.95606">
        <ele>64.4</ele>
        <time>2025-10-02T10:04:09Z</time>
      </trkpt>
      <trkpt lat="48.12872" lon="-1.95602">
        <ele>64.6</ele>
        <time>2025-10-02T10:04:11Z</time>
      </trkpt>
      <trkpt lat="48.12872" lon="-1.95602">
        <ele>64.8</ele>
        <time>2025-10-02T10:04:17Z</time>
      </trkpt>
      <trkpt lat="48.12872" lon="-1.95603">
        <ele>64.8</ele>
        <time>2025-10-02T10:04:24Z</time>
      </trkpt>
      <trkpt lat="48.12872" lon="-1.95603">
        <ele>64.8</ele>
        <time>2025-10-02T10:04:27Z</time>
      </trkpt>
      <trkpt lat="48.12873" lon="-1.95603">
        <ele>64.8</ele>
        <time>2025-10-02T10:04:33Z</time>
      </trkpt>
      <trkpt lat="48.12873" lon="-1.95603">
        <ele>65</ele>
        <time>2025-10-02T10:04:41Z</time>
      </trkpt>
      <trkpt lat="48.12873" lon="-1.95603">
        <ele>65</ele>
        <time>2025-10-02T10:04:43Z</time>
      </trkpt>
      <trkpt lat="48.12873" lon="-1.95603">
        <ele>65</ele>
        <time>2025-10-02T10:04:45Z</time>
      </trkpt>
      <trkpt lat="48.12872" lon="-1.95603">
        <ele>65</ele>
        <time>2025-10-02T10:04:51Z</time>
      </trkpt>
    </trkseg>
  </trk>
</gpx>